<?xml version="1.0" encoding="UTF-8" standalone="no" ?>
<gpx xmlns="http://www.topografix.com/GPX/1/1" xmlns:xsi="http://www.w3.org/2001/XMLSchema-instance" xsi:schemaLocation="http://www.topografix.com/GPX/1/1 http://www.topografix.com/GPX/1/1/gpx.xsd" version="1.1" creator="VisuGPX - https://www.visugpx.com">
  <metadata>
    <name>141210ROBMinots</name>
    <desc><![CDATA[excellente sortie]]></desc>
  </metadata>
  <trk>
    <name><![CDATA[141210ROBMinots]]></name>
    <trkseg>
      <trkpt lat="43.41581" lon="6.07041">
        <ele>218.45080566406</ele>
        <time>2014-12-10T12:42:30Z</time>
      </trkpt>
      <trkpt lat="43.41581" lon="6.07041">
        <ele>218.45309448242</ele>
        <time>2014-12-10T12:42:31Z</time>
      </trkpt>
      <trkpt lat="43.41581" lon="6.07039">
        <ele>218.4714050293</ele>
        <time>2014-12-10T12:42:35Z</time>
      </trkpt>
      <trkpt lat="43.41581" lon="6.07039">
        <ele>218.47770690918</ele>
        <time>2014-12-10T12:42:37Z</time>
      </trkpt>
      <trkpt lat="43.41581" lon="6.07039">
        <ele>218.46911621094</ele>
        <time>2014-12-10T12:42:38Z</time>
      </trkpt>
      <trkpt lat="43.4158" lon="6.07038">
        <ele>218.46682739258</ele>
        <time>2014-12-10T12:42:40Z</time>
      </trkpt>
      <trkpt lat="43.41581" lon="6.07039">
        <ele>218.46969604492</ele>
        <time>2014-12-10T12:42:42Z</time>
      </trkpt>
      <trkpt lat="43.41581" lon="6.07042">
        <ele>218.43650817871</ele>
        <time>2014-12-10T12:42:44Z</time>
      </trkpt>
      <trkpt lat="43.41581" lon="6.07047">
        <ele>218.38500976562</ele>
        <time>2014-12-10T12:42:46Z</time>
      </trkpt>
      <trkpt lat="43.41582" lon="6.07053">
        <ele>218.32034301758</ele>
        <time>2014-12-10T12:42:48Z</time>
      </trkpt>
      <trkpt lat="43.41583" lon="6.07063">
        <ele>218.23509216309</ele>
        <time>2014-12-10T12:42:50Z</time>
      </trkpt>
      <trkpt lat="43.41584" lon="6.07074">
        <ele>218.14239501953</ele>
        <time>2014-12-10T12:42:52Z</time>
      </trkpt>
      <trkpt lat="43.41585" lon="6.0708">
        <ele>218.08746337891</ele>
        <time>2014-12-10T12:42:53Z</time>
      </trkpt>
      <trkpt lat="43.41583" lon="6.071">
        <ele>217.998046875</ele>
        <time>2014-12-10T12:42:57Z</time>
      </trkpt>
      <trkpt lat="43.41581" lon="6.07104">
        <ele>217.94311523438</ele>
        <time>2014-12-10T12:42:58Z</time>
      </trkpt>
      <trkpt lat="43.41578" lon="6.07106">
        <ele>217.86987304688</ele>
        <time>2014-12-10T12:42:59Z</time>
      </trkpt>
      <trkpt lat="43.41571" lon="6.07111">
        <ele>217.71423339844</ele>
        <time>2014-12-10T12:43:01Z</time>
      </trkpt>
      <trkpt lat="43.41565" lon="6.07113">
        <ele>217.56774902344</ele>
        <time>2014-12-10T12:43:03Z</time>
      </trkpt>
      <trkpt lat="43.41556" lon="6.07111">
        <ele>217.34802246094</ele>
        <time>2014-12-10T12:43:06Z</time>
      </trkpt>
      <trkpt lat="43.41552" lon="6.0711">
        <ele>217.25646972656</ele>
        <time>2014-12-10T12:43:08Z</time>
      </trkpt>
      <trkpt lat="43.41548" lon="6.07105">
        <ele>217.15576171875</ele>
        <time>2014-12-10T12:43:10Z</time>
      </trkpt>
      <trkpt lat="43.41548" lon="6.07097">
        <ele>217.15576171875</ele>
        <time>2014-12-10T12:43:12Z</time>
      </trkpt>
      <trkpt lat="43.41544" lon="6.07066">
        <ele>217.26005554199</ele>
        <time>2014-12-10T12:43:19Z</time>
      </trkpt>
      <trkpt lat="43.41533" lon="6.07061">
        <ele>217.05120849609</ele>
        <time>2014-12-10T12:43:23Z</time>
      </trkpt>
      <trkpt lat="43.41521" lon="6.07064">
        <ele>216.73306274414</ele>
        <time>2014-12-10T12:43:26Z</time>
      </trkpt>
      <trkpt lat="43.41517" lon="6.07064">
        <ele>216.64379882812</ele>
        <time>2014-12-10T12:43:27Z</time>
      </trkpt>
      <trkpt lat="43.41498" lon="6.07066">
        <ele>216.15766906738</ele>
        <time>2014-12-10T12:43:33Z</time>
      </trkpt>
      <trkpt lat="43.41484" lon="6.07058">
        <ele>215.97611999512</ele>
        <time>2014-12-10T12:43:38Z</time>
      </trkpt>
      <trkpt lat="43.41478" lon="6.07056">
        <ele>215.88854980469</ele>
        <time>2014-12-10T12:43:40Z</time>
      </trkpt>
      <trkpt lat="43.41473" lon="6.07054">
        <ele>215.81452941894</ele>
        <time>2014-12-10T12:43:43Z</time>
      </trkpt>
      <trkpt lat="43.41471" lon="6.07045">
        <ele>215.91374206543</ele>
        <time>2014-12-10T12:43:46Z</time>
      </trkpt>
      <trkpt lat="43.41473" lon="6.07042">
        <ele>216.00761413574</ele>
        <time>2014-12-10T12:43:47Z</time>
      </trkpt>
      <trkpt lat="43.41478" lon="6.07028">
        <ele>216.32252502441</ele>
        <time>2014-12-10T12:43:50Z</time>
      </trkpt>
      <trkpt lat="43.41483" lon="6.07018">
        <ele>216.53421020508</ele>
        <time>2014-12-10T12:43:52Z</time>
      </trkpt>
      <trkpt lat="43.41487" lon="6.07008">
        <ele>216.73187255859</ele>
        <time>2014-12-10T12:43:54Z</time>
      </trkpt>
      <trkpt lat="43.41492" lon="6.06994">
        <ele>216.98257446289</ele>
        <time>2014-12-10T12:43:57Z</time>
      </trkpt>
      <trkpt lat="43.41495" lon="6.06977">
        <ele>217.2126159668</ele>
        <time>2014-12-10T12:44:00Z</time>
      </trkpt>
      <trkpt lat="43.41491" lon="6.06955">
        <ele>217.42604064941</ele>
        <time>2014-12-10T12:44:05Z</time>
      </trkpt>
      <trkpt lat="43.41488" lon="6.06951">
        <ele>217.44491577148</ele>
        <time>2014-12-10T12:44:06Z</time>
      </trkpt>
      <trkpt lat="43.41477" lon="6.06935">
        <ele>217.49984741211</ele>
        <time>2014-12-10T12:44:11Z</time>
      </trkpt>
      <trkpt lat="43.41468" lon="6.06921">
        <ele>217.56509399414</ele>
        <time>2014-12-10T12:44:17Z</time>
      </trkpt>
      <trkpt lat="43.41462" lon="6.06909">
        <ele>217.69000244141</ele>
        <time>2014-12-10T12:44:23Z</time>
      </trkpt>
      <trkpt lat="43.41463" lon="6.06905">
        <ele>217.76184082031</ele>
        <time>2014-12-10T12:44:24Z</time>
      </trkpt>
      <trkpt lat="43.41465" lon="6.0689">
        <ele>218.03987121582</ele>
        <time>2014-12-10T12:44:27Z</time>
      </trkpt>
      <trkpt lat="43.41465" lon="6.06883">
        <ele>218.1455078125</ele>
        <time>2014-12-10T12:44:28Z</time>
      </trkpt>
      <trkpt lat="43.41464" lon="6.06876">
        <ele>218.26358032227</ele>
        <time>2014-12-10T12:44:29Z</time>
      </trkpt>
      <trkpt lat="43.41454" lon="6.06858">
        <ele>218.53338623047</ele>
        <time>2014-12-10T12:44:32Z</time>
      </trkpt>
      <trkpt lat="43.41444" lon="6.06854">
        <ele>218.59205627441</ele>
        <time>2014-12-10T12:44:34Z</time>
      </trkpt>
      <trkpt lat="43.41439" lon="6.06853">
        <ele>218.60121154785</ele>
        <time>2014-12-10T12:44:35Z</time>
      </trkpt>
      <trkpt lat="43.41435" lon="6.06852">
        <ele>218.59872436523</ele>
        <time>2014-12-10T12:44:36Z</time>
      </trkpt>
      <trkpt lat="43.41415" lon="6.06852">
        <ele>218.52613830566</ele>
        <time>2014-12-10T12:44:40Z</time>
      </trkpt>
      <trkpt lat="43.41411" lon="6.06849">
        <ele>218.48265075684</ele>
        <time>2014-12-10T12:44:41Z</time>
      </trkpt>
      <trkpt lat="43.414" lon="6.06839">
        <ele>218.47006225586</ele>
        <time>2014-12-10T12:44:44Z</time>
      </trkpt>
      <trkpt lat="43.4137" lon="6.06819">
        <ele>218.05155944824</ele>
        <time>2014-12-10T12:44:51Z</time>
      </trkpt>
      <trkpt lat="43.41366" lon="6.06817">
        <ele>217.98175048828</ele>
        <time>2014-12-10T12:44:52Z</time>
      </trkpt>
      <trkpt lat="43.4133" lon="6.068">
        <ele>217.33343505859</ele>
        <time>2014-12-10T12:45:00Z</time>
      </trkpt>
      <trkpt lat="43.41325" lon="6.06796">
        <ele>217.25790405273</ele>
        <time>2014-12-10T12:45:01Z</time>
      </trkpt>
      <trkpt lat="43.41315" lon="6.06789">
        <ele>217.09140014648</ele>
        <time>2014-12-10T12:45:03Z</time>
      </trkpt>
      <trkpt lat="43.41301" lon="6.06778">
        <ele>216.90084838867</ele>
        <time>2014-12-10T12:45:06Z</time>
      </trkpt>
      <trkpt lat="43.41293" lon="6.06768">
        <ele>216.82531738281</ele>
        <time>2014-12-10T12:45:08Z</time>
      </trkpt>
      <trkpt lat="43.41282" lon="6.06748">
        <ele>216.79499816894</ele>
        <time>2014-12-10T12:45:11Z</time>
      </trkpt>
      <trkpt lat="43.41278" lon="6.06733">
        <ele>216.8825378418</ele>
        <time>2014-12-10T12:45:13Z</time>
      </trkpt>
      <trkpt lat="43.41275" lon="6.06711">
        <ele>217.06851196289</ele>
        <time>2014-12-10T12:45:16Z</time>
      </trkpt>
      <trkpt lat="43.41273" lon="6.06699">
        <ele>217.17895507812</ele>
        <time>2014-12-10T12:45:18Z</time>
      </trkpt>
      <trkpt lat="43.41265" lon="6.06679">
        <ele>217.21499633789</ele>
        <time>2014-12-10T12:45:23Z</time>
      </trkpt>
      <trkpt lat="43.41251" lon="6.06682">
        <ele>216.84591674805</ele>
        <time>2014-12-10T12:45:27Z</time>
      </trkpt>
      <trkpt lat="43.41246" lon="6.06691">
        <ele>216.5654296875</ele>
        <time>2014-12-10T12:45:30Z</time>
      </trkpt>
      <trkpt lat="43.41246" lon="6.06694">
        <ele>216.51449584961</ele>
        <time>2014-12-10T12:45:31Z</time>
      </trkpt>
      <trkpt lat="43.41245" lon="6.06701">
        <ele>216.42008972168</ele>
        <time>2014-12-10T12:45:33Z</time>
      </trkpt>
      <trkpt lat="43.41246" lon="6.06705">
        <ele>216.40521240234</ele>
        <time>2014-12-10T12:45:35Z</time>
      </trkpt>
      <trkpt lat="43.41245" lon="6.0671">
        <ele>216.31251525879</ele>
        <time>2014-12-10T12:45:39Z</time>
      </trkpt>
      <trkpt lat="43.41237" lon="6.06709">
        <ele>216.01611328125</ele>
        <time>2014-12-10T12:45:43Z</time>
      </trkpt>
      <trkpt lat="43.41228" lon="6.0671">
        <ele>215.68939208984</ele>
        <time>2014-12-10T12:45:46Z</time>
      </trkpt>
      <trkpt lat="43.41219" lon="6.06711">
        <ele>215.33462524414</ele>
        <time>2014-12-10T12:45:49Z</time>
      </trkpt>
      <trkpt lat="43.41205" lon="6.06712">
        <ele>214.82592773438</ele>
        <time>2014-12-10T12:45:53Z</time>
      </trkpt>
      <trkpt lat="43.41179" lon="6.06712">
        <ele>213.88407897949</ele>
        <time>2014-12-10T12:46:00Z</time>
      </trkpt>
      <trkpt lat="43.41166" lon="6.0671">
        <ele>213.44519042969</ele>
        <time>2014-12-10T12:46:03Z</time>
      </trkpt>
      <trkpt lat="43.41156" lon="6.06711">
        <ele>213.08871459961</ele>
        <time>2014-12-10T12:46:05Z</time>
      </trkpt>
      <trkpt lat="43.41151" lon="6.06711">
        <ele>212.91705322266</ele>
        <time>2014-12-10T12:46:06Z</time>
      </trkpt>
      <trkpt lat="43.41147" lon="6.06713">
        <ele>212.72650146484</ele>
        <time>2014-12-10T12:46:07Z</time>
      </trkpt>
      <trkpt lat="43.41133" lon="6.06719">
        <ele>212.16802978516</ele>
        <time>2014-12-10T12:46:10Z</time>
      </trkpt>
      <trkpt lat="43.4112" lon="6.06726">
        <ele>211.59754943848</ele>
        <time>2014-12-10T12:46:13Z</time>
      </trkpt>
      <trkpt lat="43.41111" lon="6.06733">
        <ele>211.18841552734</ele>
        <time>2014-12-10T12:46:15Z</time>
      </trkpt>
      <trkpt lat="43.41092" lon="6.06745">
        <ele>210.35815429688</ele>
        <time>2014-12-10T12:46:20Z</time>
      </trkpt>
      <trkpt lat="43.41082" lon="6.06764">
        <ele>209.78860473633</ele>
        <time>2014-12-10T12:46:25Z</time>
      </trkpt>
      <trkpt lat="43.4108" lon="6.06776">
        <ele>209.59580993652</ele>
        <time>2014-12-10T12:46:27Z</time>
      </trkpt>
      <trkpt lat="43.41078" lon="6.06788">
        <ele>209.38038635254</ele>
        <time>2014-12-10T12:46:29Z</time>
      </trkpt>
      <trkpt lat="43.41077" lon="6.06795">
        <ele>209.28950500488</ele>
        <time>2014-12-10T12:46:30Z</time>
      </trkpt>
      <trkpt lat="43.41074" lon="6.06816">
        <ele>208.95529174805</ele>
        <time>2014-12-10T12:46:34Z</time>
      </trkpt>
      <trkpt lat="43.41071" lon="6.06834">
        <ele>208.70892333984</ele>
        <time>2014-12-10T12:46:39Z</time>
      </trkpt>
      <trkpt lat="43.41071" lon="6.06837">
        <ele>208.66973876953</ele>
        <time>2014-12-10T12:46:42Z</time>
      </trkpt>
      <trkpt lat="43.41071" lon="6.0684">
        <ele>208.63110351562</ele>
        <time>2014-12-10T12:46:45Z</time>
      </trkpt>
      <trkpt lat="43.4107" lon="6.06849">
        <ele>208.52827453613</ele>
        <time>2014-12-10T12:46:50Z</time>
      </trkpt>
      <trkpt lat="43.4107" lon="6.06852">
        <ele>208.48738098144</ele>
        <time>2014-12-10T12:46:51Z</time>
      </trkpt>
      <trkpt lat="43.4107" lon="6.06859">
        <ele>208.42123413086</ele>
        <time>2014-12-10T12:46:53Z</time>
      </trkpt>
      <trkpt lat="43.41069" lon="6.06862">
        <ele>208.36587524414</ele>
        <time>2014-12-10T12:46:55Z</time>
      </trkpt>
      <trkpt lat="43.41068" lon="6.06862">
        <ele>208.34976196289</ele>
        <time>2014-12-10T12:46:56Z</time>
      </trkpt>
      <trkpt lat="43.41066" lon="6.06862">
        <ele>208.31488037109</ele>
        <time>2014-12-10T12:46:57Z</time>
      </trkpt>
      <trkpt lat="43.41059" lon="6.06867">
        <ele>208.13067626953</ele>
        <time>2014-12-10T12:47:02Z</time>
      </trkpt>
      <trkpt lat="43.41043" lon="6.06873">
        <ele>207.78694152832</ele>
        <time>2014-12-10T12:47:07Z</time>
      </trkpt>
      <trkpt lat="43.41038" lon="6.06876">
        <ele>207.68014526367</ele>
        <time>2014-12-10T12:47:08Z</time>
      </trkpt>
      <trkpt lat="43.41031" lon="6.06879">
        <ele>207.52938842773</ele>
        <time>2014-12-10T12:47:10Z</time>
      </trkpt>
      <trkpt lat="43.41028" lon="6.0688">
        <ele>207.47999572754</ele>
        <time>2014-12-10T12:47:11Z</time>
      </trkpt>
      <trkpt lat="43.41022" lon="6.06881">
        <ele>207.37963867188</ele>
        <time>2014-12-10T12:47:15Z</time>
      </trkpt>
      <trkpt lat="43.41021" lon="6.06883">
        <ele>207.35466003418</ele>
        <time>2014-12-10T12:47:25Z</time>
      </trkpt>
      <trkpt lat="43.41017" lon="6.06889">
        <ele>207.26824951172</ele>
        <time>2014-12-10T12:47:30Z</time>
      </trkpt>
      <trkpt lat="43.41016" lon="6.06892">
        <ele>207.2540435791</ele>
        <time>2014-12-10T12:47:31Z</time>
      </trkpt>
      <trkpt lat="43.41012" lon="6.06903">
        <ele>207.16557312012</ele>
        <time>2014-12-10T12:47:34Z</time>
      </trkpt>
      <trkpt lat="43.41001" lon="6.06911">
        <ele>207.01441955566</ele>
        <time>2014-12-10T12:47:37Z</time>
      </trkpt>
      <trkpt lat="43.40997" lon="6.06914">
        <ele>207.03680419922</ele>
        <time>2014-12-10T12:47:38Z</time>
      </trkpt>
      <trkpt lat="43.40962" lon="6.06931">
        <ele>207.45794677734</ele>
        <time>2014-12-10T12:47:45Z</time>
      </trkpt>
      <trkpt lat="43.40925" lon="6.06943">
        <ele>207.89739990234</ele>
        <time>2014-12-10T12:47:52Z</time>
      </trkpt>
      <trkpt lat="43.40911" lon="6.06949">
        <ele>208.21405029297</ele>
        <time>2014-12-10T12:47:55Z</time>
      </trkpt>
      <trkpt lat="43.40906" lon="6.06959">
        <ele>208.392578125</ele>
        <time>2014-12-10T12:47:57Z</time>
      </trkpt>
      <trkpt lat="43.409" lon="6.06969">
        <ele>208.59857177734</ele>
        <time>2014-12-10T12:47:59Z</time>
      </trkpt>
      <trkpt lat="43.40891" lon="6.06976">
        <ele>208.92816162109</ele>
        <time>2014-12-10T12:48:01Z</time>
      </trkpt>
      <trkpt lat="43.4088" lon="6.06981">
        <ele>209.31268310547</ele>
        <time>2014-12-10T12:48:03Z</time>
      </trkpt>
      <trkpt lat="43.40862" lon="6.06989">
        <ele>209.97186279297</ele>
        <time>2014-12-10T12:48:06Z</time>
      </trkpt>
      <trkpt lat="43.40848" lon="6.06998">
        <ele>210.46624755859</ele>
        <time>2014-12-10T12:48:09Z</time>
      </trkpt>
      <trkpt lat="43.40847" lon="6.07">
        <ele>210.50744628906</ele>
        <time>2014-12-10T12:48:10Z</time>
      </trkpt>
      <trkpt lat="43.40846" lon="6.07001">
        <ele>210.53491210938</ele>
        <time>2014-12-10T12:48:11Z</time>
      </trkpt>
      <trkpt lat="43.40846" lon="6.07002">
        <ele>210.54864501953</ele>
        <time>2014-12-10T12:48:14Z</time>
      </trkpt>
      <trkpt lat="43.40844" lon="6.07003">
        <ele>210.61730957031</ele>
        <time>2014-12-10T12:48:20Z</time>
      </trkpt>
      <trkpt lat="43.40841" lon="6.07006">
        <ele>210.72717285156</ele>
        <time>2014-12-10T12:48:22Z</time>
      </trkpt>
      <trkpt lat="43.4084" lon="6.07018">
        <ele>210.76837158203</ele>
        <time>2014-12-10T12:48:26Z</time>
      </trkpt>
      <trkpt lat="43.40842" lon="6.07043">
        <ele>210.67224121094</ele>
        <time>2014-12-10T12:48:31Z</time>
      </trkpt>
      <trkpt lat="43.40844" lon="6.07068">
        <ele>210.60357666016</ele>
        <time>2014-12-10T12:48:35Z</time>
      </trkpt>
      <trkpt lat="43.40844" lon="6.07076">
        <ele>210.61730957031</ele>
        <time>2014-12-10T12:48:36Z</time>
      </trkpt>
      <trkpt lat="43.40842" lon="6.07106">
        <ele>210.72673034668</ele>
        <time>2014-12-10T12:48:40Z</time>
      </trkpt>
      <trkpt lat="43.40837" lon="6.0713">
        <ele>210.88981628418</ele>
        <time>2014-12-10T12:48:43Z</time>
      </trkpt>
      <trkpt lat="43.40831" lon="6.07152">
        <ele>211.08422851562</ele>
        <time>2014-12-10T12:48:46Z</time>
      </trkpt>
      <trkpt lat="43.40829" lon="6.0716">
        <ele>211.15289306641</ele>
        <time>2014-12-10T12:48:47Z</time>
      </trkpt>
      <trkpt lat="43.40827" lon="6.07166">
        <ele>211.23529052734</ele>
        <time>2014-12-10T12:48:48Z</time>
      </trkpt>
      <trkpt lat="43.40824" lon="6.07171">
        <ele>211.32514953613</ele>
        <time>2014-12-10T12:48:49Z</time>
      </trkpt>
      <trkpt lat="43.40816" lon="6.07187">
        <ele>211.5831451416</ele>
        <time>2014-12-10T12:48:52Z</time>
      </trkpt>
      <trkpt lat="43.40803" lon="6.07207">
        <ele>211.92454528809</ele>
        <time>2014-12-10T12:48:56Z</time>
      </trkpt>
      <trkpt lat="43.40795" lon="6.07215">
        <ele>212.10861206055</ele>
        <time>2014-12-10T12:48:58Z</time>
      </trkpt>
      <trkpt lat="43.40765" lon="6.07239">
        <ele>212.74395751953</ele>
        <time>2014-12-10T12:49:05Z</time>
      </trkpt>
      <trkpt lat="43.40746" lon="6.07251">
        <ele>213.08125305176</ele>
        <time>2014-12-10T12:49:09Z</time>
      </trkpt>
      <trkpt lat="43.40731" lon="6.07259">
        <ele>213.35786437988</ele>
        <time>2014-12-10T12:49:12Z</time>
      </trkpt>
      <trkpt lat="43.40716" lon="6.07269">
        <ele>213.67643737793</ele>
        <time>2014-12-10T12:49:15Z</time>
      </trkpt>
      <trkpt lat="43.40677" lon="6.07293">
        <ele>214.68043518066</ele>
        <time>2014-12-10T12:49:23Z</time>
      </trkpt>
      <trkpt lat="43.40658" lon="6.07303">
        <ele>215.21264648438</ele>
        <time>2014-12-10T12:49:27Z</time>
      </trkpt>
      <trkpt lat="43.40649" lon="6.07308">
        <ele>215.43237304688</ele>
        <time>2014-12-10T12:49:29Z</time>
      </trkpt>
      <trkpt lat="43.4064" lon="6.07311">
        <ele>215.64294433594</ele>
        <time>2014-12-10T12:49:31Z</time>
      </trkpt>
      <trkpt lat="43.40631" lon="6.0731">
        <ele>215.853515625</ele>
        <time>2014-12-10T12:49:33Z</time>
      </trkpt>
      <trkpt lat="43.40624" lon="6.07308">
        <ele>216.01831054688</ele>
        <time>2014-12-10T12:49:35Z</time>
      </trkpt>
      <trkpt lat="43.40615" lon="6.07304">
        <ele>216.22888183594</ele>
        <time>2014-12-10T12:49:38Z</time>
      </trkpt>
      <trkpt lat="43.40606" lon="6.07292">
        <ele>216.46691894531</ele>
        <time>2014-12-10T12:49:43Z</time>
      </trkpt>
      <trkpt lat="43.406" lon="6.07287">
        <ele>216.60424804688</ele>
        <time>2014-12-10T12:49:46Z</time>
      </trkpt>
      <trkpt lat="43.40598" lon="6.07288">
        <ele>216.65002441406</ele>
        <time>2014-12-10T12:49:47Z</time>
      </trkpt>
      <trkpt lat="43.40597" lon="6.07289">
        <ele>216.66833496094</ele>
        <time>2014-12-10T12:49:48Z</time>
      </trkpt>
      <trkpt lat="43.40595" lon="6.07291">
        <ele>216.71411132812</ele>
        <time>2014-12-10T12:49:53Z</time>
      </trkpt>
      <trkpt lat="43.40595" lon="6.07291">
        <ele>216.71411132812</ele>
        <time>2014-12-10T12:49:57Z</time>
      </trkpt>
      <trkpt lat="43.40595" lon="6.07291">
        <ele>216.71411132812</ele>
        <time>2014-12-10T12:50:07Z</time>
      </trkpt>
      <trkpt lat="43.40595" lon="6.07291">
        <ele>216.71411132812</ele>
        <time>2014-12-10T12:50:14Z</time>
      </trkpt>
      <trkpt lat="43.40592" lon="6.07293">
        <ele>216.79650878906</ele>
        <time>2014-12-10T12:50:19Z</time>
      </trkpt>
      <trkpt lat="43.4059" lon="6.07295">
        <ele>216.85144042969</ele>
        <time>2014-12-10T12:50:20Z</time>
      </trkpt>
      <trkpt lat="43.40581" lon="6.07299">
        <ele>217.06201171875</ele>
        <time>2014-12-10T12:50:23Z</time>
      </trkpt>
      <trkpt lat="43.40574" lon="6.07299">
        <ele>217.22680664062</ele>
        <time>2014-12-10T12:50:25Z</time>
      </trkpt>
      <trkpt lat="43.4055" lon="6.07296">
        <ele>217.79443359375</ele>
        <time>2014-12-10T12:50:31Z</time>
      </trkpt>
      <trkpt lat="43.40534" lon="6.07292">
        <ele>218.18811035156</ele>
        <time>2014-12-10T12:50:35Z</time>
      </trkpt>
      <trkpt lat="43.40525" lon="6.07288">
        <ele>218.38952636719</ele>
        <time>2014-12-10T12:50:37Z</time>
      </trkpt>
      <trkpt lat="43.40503" lon="6.07275">
        <ele>218.9296875</ele>
        <time>2014-12-10T12:50:42Z</time>
      </trkpt>
      <trkpt lat="43.40498" lon="6.07274">
        <ele>219.05932617188</ele>
        <time>2014-12-10T12:50:43Z</time>
      </trkpt>
      <trkpt lat="43.40494" lon="6.07273">
        <ele>219.21038818359</ele>
        <time>2014-12-10T12:50:44Z</time>
      </trkpt>
      <trkpt lat="43.4049" lon="6.07273">
        <ele>219.37518310547</ele>
        <time>2014-12-10T12:50:45Z</time>
      </trkpt>
      <trkpt lat="43.40472" lon="6.07274">
        <ele>219.9931640625</ele>
        <time>2014-12-10T12:50:49Z</time>
      </trkpt>
      <trkpt lat="43.40459" lon="6.07274">
        <ele>220.46008300781</ele>
        <time>2014-12-10T12:50:52Z</time>
      </trkpt>
      <trkpt lat="43.40442" lon="6.07276">
        <ele>221.091796875</ele>
        <time>2014-12-10T12:50:56Z</time>
      </trkpt>
      <trkpt lat="43.40437" lon="6.07276">
        <ele>221.25659179688</ele>
        <time>2014-12-10T12:50:57Z</time>
      </trkpt>
      <trkpt lat="43.4042" lon="6.07277">
        <ele>221.87457275391</ele>
        <time>2014-12-10T12:51:01Z</time>
      </trkpt>
      <trkpt lat="43.40408" lon="6.07276">
        <ele>222.43203735352</ele>
        <time>2014-12-10T12:51:04Z</time>
      </trkpt>
      <trkpt lat="43.40398" lon="6.07264">
        <ele>222.93106079102</ele>
        <time>2014-12-10T12:51:08Z</time>
      </trkpt>
      <trkpt lat="43.40387" lon="6.07246">
        <ele>223.44409179688</ele>
        <time>2014-12-10T12:51:13Z</time>
      </trkpt>
      <trkpt lat="43.40369" lon="6.07241">
        <ele>224.3046875</ele>
        <time>2014-12-10T12:51:18Z</time>
      </trkpt>
      <trkpt lat="43.40354" lon="6.07229">
        <ele>225.01879882812</ele>
        <time>2014-12-10T12:51:23Z</time>
      </trkpt>
      <trkpt lat="43.40345" lon="6.07224">
        <ele>225.42163085938</ele>
        <time>2014-12-10T12:51:26Z</time>
      </trkpt>
      <trkpt lat="43.40333" lon="6.07219">
        <ele>226.00827026367</ele>
        <time>2014-12-10T12:51:30Z</time>
      </trkpt>
      <trkpt lat="43.40327" lon="6.07217">
        <ele>226.33047485352</ele>
        <time>2014-12-10T12:51:32Z</time>
      </trkpt>
      <trkpt lat="43.40312" lon="6.07209">
        <ele>227.16055297852</ele>
        <time>2014-12-10T12:51:37Z</time>
      </trkpt>
      <trkpt lat="43.40299" lon="6.072">
        <ele>227.90406799316</ele>
        <time>2014-12-10T12:51:41Z</time>
      </trkpt>
      <trkpt lat="43.40291" lon="6.0719">
        <ele>228.40818786621</ele>
        <time>2014-12-10T12:51:44Z</time>
      </trkpt>
      <trkpt lat="43.40269" lon="6.07166">
        <ele>229.85623168945</ele>
        <time>2014-12-10T12:51:51Z</time>
      </trkpt>
      <trkpt lat="43.40265" lon="6.07165">
        <ele>230.1102142334</ele>
        <time>2014-12-10T12:51:52Z</time>
      </trkpt>
      <trkpt lat="43.40253" lon="6.07164">
        <ele>230.83987426758</ele>
        <time>2014-12-10T12:51:55Z</time>
      </trkpt>
      <trkpt lat="43.40245" lon="6.07165">
        <ele>231.2373046875</ele>
        <time>2014-12-10T12:51:57Z</time>
      </trkpt>
      <trkpt lat="43.4023" lon="6.07167">
        <ele>231.94448852539</ele>
        <time>2014-12-10T12:52:01Z</time>
      </trkpt>
      <trkpt lat="43.40214" lon="6.07174">
        <ele>232.65573120117</ele>
        <time>2014-12-10T12:52:06Z</time>
      </trkpt>
      <trkpt lat="43.40201" lon="6.07182">
        <ele>233.1552734375</ele>
        <time>2014-12-10T12:52:11Z</time>
      </trkpt>
      <trkpt lat="43.40194" lon="6.07186">
        <ele>233.4596862793</ele>
        <time>2014-12-10T12:52:14Z</time>
      </trkpt>
      <trkpt lat="43.40181" lon="6.07195">
        <ele>233.97637939453</ele>
        <time>2014-12-10T12:52:20Z</time>
      </trkpt>
      <trkpt lat="43.40177" lon="6.07198">
        <ele>234.14175415039</ele>
        <time>2014-12-10T12:52:22Z</time>
      </trkpt>
      <trkpt lat="43.40174" lon="6.072">
        <ele>234.22814941406</ele>
        <time>2014-12-10T12:52:23Z</time>
      </trkpt>
      <trkpt lat="43.4016" lon="6.07212">
        <ele>234.90008544922</ele>
        <time>2014-12-10T12:52:30Z</time>
      </trkpt>
      <trkpt lat="43.40152" lon="6.07221">
        <ele>235.31619262695</ele>
        <time>2014-12-10T12:52:34Z</time>
      </trkpt>
      <trkpt lat="43.40147" lon="6.07234">
        <ele>235.53833007812</ele>
        <time>2014-12-10T12:52:38Z</time>
      </trkpt>
      <trkpt lat="43.40145" lon="6.07249">
        <ele>235.56494140625</ele>
        <time>2014-12-10T12:52:42Z</time>
      </trkpt>
      <trkpt lat="43.40146" lon="6.0726">
        <ele>235.62152099609</ele>
        <time>2014-12-10T12:52:45Z</time>
      </trkpt>
      <trkpt lat="43.40147" lon="6.07272">
        <ele>235.70733642578</ele>
        <time>2014-12-10T12:52:48Z</time>
      </trkpt>
      <trkpt lat="43.40147" lon="6.07293">
        <ele>235.96368408203</ele>
        <time>2014-12-10T12:52:53Z</time>
      </trkpt>
      <trkpt lat="43.40144" lon="6.07326">
        <ele>236.57881164551</ele>
        <time>2014-12-10T12:53:01Z</time>
      </trkpt>
      <trkpt lat="43.4014" lon="6.07359">
        <ele>237.44482421875</ele>
        <time>2014-12-10T12:53:09Z</time>
      </trkpt>
      <trkpt lat="43.40139" lon="6.0737">
        <ele>237.73104858398</ele>
        <time>2014-12-10T12:53:12Z</time>
      </trkpt>
      <trkpt lat="43.40139" lon="6.07387">
        <ele>238.02522277832</ele>
        <time>2014-12-10T12:53:16Z</time>
      </trkpt>
      <trkpt lat="43.40145" lon="6.07422">
        <ele>238.1728515625</ele>
        <time>2014-12-10T12:53:24Z</time>
      </trkpt>
      <trkpt lat="43.40146" lon="6.07444">
        <ele>238.45071411133</ele>
        <time>2014-12-10T12:53:29Z</time>
      </trkpt>
      <trkpt lat="43.40146" lon="6.07449">
        <ele>238.56925964356</ele>
        <time>2014-12-10T12:53:30Z</time>
      </trkpt>
      <trkpt lat="43.40143" lon="6.07479">
        <ele>239.47142028809</ele>
        <time>2014-12-10T12:53:37Z</time>
      </trkpt>
      <trkpt lat="43.40141" lon="6.07488">
        <ele>239.89538574219</ele>
        <time>2014-12-10T12:53:39Z</time>
      </trkpt>
      <trkpt lat="43.40138" lon="6.07497">
        <ele>240.40377807617</ele>
        <time>2014-12-10T12:53:42Z</time>
      </trkpt>
      <trkpt lat="43.40136" lon="6.07504">
        <ele>240.66850280762</ele>
        <time>2014-12-10T12:53:44Z</time>
      </trkpt>
      <trkpt lat="43.40132" lon="6.07517">
        <ele>241.30609130859</ele>
        <time>2014-12-10T12:53:48Z</time>
      </trkpt>
      <trkpt lat="43.40129" lon="6.07524">
        <ele>241.66749572754</ele>
        <time>2014-12-10T12:53:50Z</time>
      </trkpt>
      <trkpt lat="43.40118" lon="6.07548">
        <ele>243.07682800293</ele>
        <time>2014-12-10T12:53:57Z</time>
      </trkpt>
      <trkpt lat="43.40114" lon="6.07554">
        <ele>243.57667541504</ele>
        <time>2014-12-10T12:53:59Z</time>
      </trkpt>
      <trkpt lat="43.40104" lon="6.07569">
        <ele>244.7360534668</ele>
        <time>2014-12-10T12:54:04Z</time>
      </trkpt>
      <trkpt lat="43.40098" lon="6.07581">
        <ele>245.39024353027</ele>
        <time>2014-12-10T12:54:08Z</time>
      </trkpt>
      <trkpt lat="43.40096" lon="6.07584">
        <ele>245.58987426758</ele>
        <time>2014-12-10T12:54:09Z</time>
      </trkpt>
      <trkpt lat="43.40093" lon="6.07598">
        <ele>245.65191650391</ele>
        <time>2014-12-10T12:54:13Z</time>
      </trkpt>
      <trkpt lat="43.40092" lon="6.07607">
        <ele>245.51518249512</ele>
        <time>2014-12-10T12:54:15Z</time>
      </trkpt>
      <trkpt lat="43.40092" lon="6.07631">
        <ele>245.03865051269</ele>
        <time>2014-12-10T12:54:21Z</time>
      </trkpt>
      <trkpt lat="43.40092" lon="6.07639">
        <ele>244.89862060547</ele>
        <time>2014-12-10T12:54:23Z</time>
      </trkpt>
      <trkpt lat="43.40091" lon="6.07648">
        <ele>244.74127197266</ele>
        <time>2014-12-10T12:54:25Z</time>
      </trkpt>
      <trkpt lat="43.40088" lon="6.07661">
        <ele>244.71826171875</ele>
        <time>2014-12-10T12:54:28Z</time>
      </trkpt>
      <trkpt lat="43.40087" lon="6.07665">
        <ele>244.75573730469</ele>
        <time>2014-12-10T12:54:29Z</time>
      </trkpt>
      <trkpt lat="43.4008" lon="6.0768">
        <ele>244.79244995117</ele>
        <time>2014-12-10T12:54:34Z</time>
      </trkpt>
      <trkpt lat="43.40079" lon="6.07682">
        <ele>244.87705993652</ele>
        <time>2014-12-10T12:54:35Z</time>
      </trkpt>
      <trkpt lat="43.40077" lon="6.07685">
        <ele>244.96502685547</ele>
        <time>2014-12-10T12:54:36Z</time>
      </trkpt>
      <trkpt lat="43.40062" lon="6.07708">
        <ele>245.90774536133</ele>
        <time>2014-12-10T12:54:45Z</time>
      </trkpt>
      <trkpt lat="43.4006" lon="6.0771">
        <ele>246.06858825684</ele>
        <time>2014-12-10T12:54:46Z</time>
      </trkpt>
      <trkpt lat="43.40051" lon="6.07723">
        <ele>246.85446166992</ele>
        <time>2014-12-10T12:54:52Z</time>
      </trkpt>
      <trkpt lat="43.4004" lon="6.07742">
        <ele>247.61395263672</ele>
        <time>2014-12-10T12:54:59Z</time>
      </trkpt>
      <trkpt lat="43.40034" lon="6.07753">
        <ele>248.04061889648</ele>
        <time>2014-12-10T12:55:04Z</time>
      </trkpt>
      <trkpt lat="43.40029" lon="6.07768">
        <ele>248.58033752441</ele>
        <time>2014-12-10T12:55:10Z</time>
      </trkpt>
      <trkpt lat="43.40025" lon="6.07784">
        <ele>248.88558959961</ele>
        <time>2014-12-10T12:55:15Z</time>
      </trkpt>
      <trkpt lat="43.40023" lon="6.07787">
        <ele>248.99143981934</ele>
        <time>2014-12-10T12:55:16Z</time>
      </trkpt>
      <trkpt lat="43.4002" lon="6.07797">
        <ele>249.26931762695</ele>
        <time>2014-12-10T12:55:20Z</time>
      </trkpt>
      <trkpt lat="43.40019" lon="6.078">
        <ele>249.30024719238</ele>
        <time>2014-12-10T12:55:22Z</time>
      </trkpt>
      <trkpt lat="43.40018" lon="6.07804">
        <ele>249.34024047852</ele>
        <time>2014-12-10T12:55:28Z</time>
      </trkpt>
      <trkpt lat="43.40016" lon="6.07808">
        <ele>249.60285949707</ele>
        <time>2014-12-10T12:55:34Z</time>
      </trkpt>
      <trkpt lat="43.40014" lon="6.07807">
        <ele>249.80479431152</ele>
        <time>2014-12-10T12:55:40Z</time>
      </trkpt>
      <trkpt lat="43.40014" lon="6.07807">
        <ele>249.80574035644</ele>
        <time>2014-12-10T12:55:45Z</time>
      </trkpt>
      <trkpt lat="43.40014" lon="6.07808">
        <ele>249.79057312012</ele>
        <time>2014-12-10T12:56:00Z</time>
      </trkpt>
      <trkpt lat="43.40015" lon="6.07808">
        <ele>249.74201965332</ele>
        <time>2014-12-10T12:56:09Z</time>
      </trkpt>
      <trkpt lat="43.40015" lon="6.07809">
        <ele>249.68408203125</ele>
        <time>2014-12-10T12:56:16Z</time>
      </trkpt>
      <trkpt lat="43.40015" lon="6.07809">
        <ele>249.68032836914</ele>
        <time>2014-12-10T12:56:20Z</time>
      </trkpt>
      <trkpt lat="43.40015" lon="6.07809">
        <ele>249.67939758301</ele>
        <time>2014-12-10T12:56:24Z</time>
      </trkpt>
      <trkpt lat="43.40015" lon="6.07809">
        <ele>249.67939758301</ele>
        <time>2014-12-10T12:56:53Z</time>
      </trkpt>
      <trkpt lat="43.40015" lon="6.07809">
        <ele>249.67471313477</ele>
        <time>2014-12-10T12:57:13Z</time>
      </trkpt>
      <trkpt lat="43.40015" lon="6.07809">
        <ele>249.67001342773</ele>
        <time>2014-12-10T12:57:21Z</time>
      </trkpt>
      <trkpt lat="43.40015" lon="6.07809">
        <ele>249.66720581055</ele>
        <time>2014-12-10T12:57:29Z</time>
      </trkpt>
      <trkpt lat="43.40015" lon="6.0781">
        <ele>249.65501403809</ele>
        <time>2014-12-10T12:57:41Z</time>
      </trkpt>
      <trkpt lat="43.40015" lon="6.0781">
        <ele>249.65313720703</ele>
        <time>2014-12-10T12:57:49Z</time>
      </trkpt>
      <trkpt lat="43.40015" lon="6.0781">
        <ele>249.70146179199</ele>
        <time>2014-12-10T12:57:55Z</time>
      </trkpt>
      <trkpt lat="43.40015" lon="6.0781">
        <ele>249.65406799316</ele>
        <time>2014-12-10T12:58:18Z</time>
      </trkpt>
      <trkpt lat="43.40015" lon="6.0781">
        <ele>249.71278381348</ele>
        <time>2014-12-10T12:58:32Z</time>
      </trkpt>
      <trkpt lat="43.40015" lon="6.0781">
        <ele>249.71278381348</ele>
        <time>2014-12-10T12:58:34Z</time>
      </trkpt>
      <trkpt lat="43.40014" lon="6.0781">
        <ele>249.76022338867</ele>
        <time>2014-12-10T12:58:36Z</time>
      </trkpt>
      <trkpt lat="43.40015" lon="6.0781">
        <ele>249.70617675781</ele>
        <time>2014-12-10T12:58:52Z</time>
      </trkpt>
      <trkpt lat="43.40015" lon="6.07808">
        <ele>249.73918151856</ele>
        <time>2014-12-10T12:58:59Z</time>
      </trkpt>
      <trkpt lat="43.40015" lon="6.07808">
        <ele>249.73918151856</ele>
        <time>2014-12-10T12:59:01Z</time>
      </trkpt>
      <trkpt lat="43.40019" lon="6.07814">
        <ele>249.04582214356</ele>
        <time>2014-12-10T12:59:08Z</time>
      </trkpt>
      <trkpt lat="43.40019" lon="6.07815">
        <ele>249.03085327148</ele>
        <time>2014-12-10T12:59:09Z</time>
      </trkpt>
      <trkpt lat="43.40018" lon="6.07817">
        <ele>249.08099365234</ele>
        <time>2014-12-10T12:59:10Z</time>
      </trkpt>
      <trkpt lat="43.40015" lon="6.07826">
        <ele>249.28486633301</ele>
        <time>2014-12-10T12:59:13Z</time>
      </trkpt>
      <trkpt lat="43.40013" lon="6.07833">
        <ele>249.43002319336</ele>
        <time>2014-12-10T12:59:15Z</time>
      </trkpt>
      <trkpt lat="43.40007" lon="6.07851">
        <ele>250.75086975098</ele>
        <time>2014-12-10T12:59:19Z</time>
      </trkpt>
      <trkpt lat="43.40005" lon="6.07856">
        <ele>251.11724853516</ele>
        <time>2014-12-10T12:59:20Z</time>
      </trkpt>
      <trkpt lat="43.39999" lon="6.07881">
        <ele>252.88510131836</ele>
        <time>2014-12-10T12:59:25Z</time>
      </trkpt>
      <trkpt lat="43.39995" lon="6.07895">
        <ele>254.02798461914</ele>
        <time>2014-12-10T12:59:28Z</time>
      </trkpt>
      <trkpt lat="43.39993" lon="6.07902">
        <ele>254.70614624023</ele>
        <time>2014-12-10T12:59:30Z</time>
      </trkpt>
      <trkpt lat="43.39989" lon="6.07914">
        <ele>255.54890441894</ele>
        <time>2014-12-10T12:59:33Z</time>
      </trkpt>
      <trkpt lat="43.39983" lon="6.0794">
        <ele>256.81616210938</ele>
        <time>2014-12-10T12:59:40Z</time>
      </trkpt>
      <trkpt lat="43.39978" lon="6.07955">
        <ele>257.46984863281</ele>
        <time>2014-12-10T12:59:44Z</time>
      </trkpt>
      <trkpt lat="43.39977" lon="6.07958">
        <ele>257.74154663086</ele>
        <time>2014-12-10T12:59:45Z</time>
      </trkpt>
      <trkpt lat="43.3997" lon="6.07966">
        <ele>258.57919311523</ele>
        <time>2014-12-10T12:59:48Z</time>
      </trkpt>
      <trkpt lat="43.39964" lon="6.0797">
        <ele>259.38577270508</ele>
        <time>2014-12-10T12:59:50Z</time>
      </trkpt>
      <trkpt lat="43.39962" lon="6.07972">
        <ele>259.73284912109</ele>
        <time>2014-12-10T12:59:51Z</time>
      </trkpt>
      <trkpt lat="43.39955" lon="6.07976">
        <ele>260.61260986328</ele>
        <time>2014-12-10T12:59:53Z</time>
      </trkpt>
      <trkpt lat="43.39944" lon="6.07981">
        <ele>261.89733886719</ele>
        <time>2014-12-10T12:59:56Z</time>
      </trkpt>
      <trkpt lat="43.39938" lon="6.07984">
        <ele>262.68533325195</ele>
        <time>2014-12-10T12:59:58Z</time>
      </trkpt>
      <trkpt lat="43.39922" lon="6.07993">
        <ele>264.51824951172</ele>
        <time>2014-12-10T13:00:03Z</time>
      </trkpt>
      <trkpt lat="43.39907" lon="6.08012">
        <ele>264.84405517578</ele>
        <time>2014-12-10T13:00:08Z</time>
      </trkpt>
      <trkpt lat="43.39897" lon="6.0802">
        <ele>264.83038330078</ele>
        <time>2014-12-10T13:00:11Z</time>
      </trkpt>
      <trkpt lat="43.39893" lon="6.08021">
        <ele>265.00323486328</ele>
        <time>2014-12-10T13:00:12Z</time>
      </trkpt>
      <trkpt lat="43.3988" lon="6.08021">
        <ele>265.95114135742</ele>
        <time>2014-12-10T13:00:15Z</time>
      </trkpt>
      <trkpt lat="43.39871" lon="6.08019">
        <ele>266.64868164062</ele>
        <time>2014-12-10T13:00:17Z</time>
      </trkpt>
      <trkpt lat="43.39867" lon="6.08018">
        <ele>267.10577392578</ele>
        <time>2014-12-10T13:00:18Z</time>
      </trkpt>
      <trkpt lat="43.39854" lon="6.0801">
        <ele>269.03283691406</ele>
        <time>2014-12-10T13:00:21Z</time>
      </trkpt>
      <trkpt lat="43.39845" lon="6.08003">
        <ele>270.56439208984</ele>
        <time>2014-12-10T13:00:23Z</time>
      </trkpt>
      <trkpt lat="43.39832" lon="6.07995">
        <ele>272.78109741211</ele>
        <time>2014-12-10T13:00:26Z</time>
      </trkpt>
      <trkpt lat="43.39818" lon="6.07989">
        <ele>273.88510131836</ele>
        <time>2014-12-10T13:00:29Z</time>
      </trkpt>
      <trkpt lat="43.39799" lon="6.07982">
        <ele>275.60061645508</ele>
        <time>2014-12-10T13:00:33Z</time>
      </trkpt>
      <trkpt lat="43.39791" lon="6.07978">
        <ele>276.58731079102</ele>
        <time>2014-12-10T13:00:35Z</time>
      </trkpt>
      <trkpt lat="43.39781" lon="6.07974">
        <ele>277.73541259766</ele>
        <time>2014-12-10T13:00:38Z</time>
      </trkpt>
      <trkpt lat="43.39775" lon="6.07971">
        <ele>278.60040283203</ele>
        <time>2014-12-10T13:00:40Z</time>
      </trkpt>
      <trkpt lat="43.39769" lon="6.07968">
        <ele>279.48947143555</ele>
        <time>2014-12-10T13:00:42Z</time>
      </trkpt>
      <trkpt lat="43.3976" lon="6.07964">
        <ele>280.77700805664</ele>
        <time>2014-12-10T13:00:45Z</time>
      </trkpt>
      <trkpt lat="43.3975" lon="6.07958">
        <ele>282.4772644043</ele>
        <time>2014-12-10T13:00:48Z</time>
      </trkpt>
      <trkpt lat="43.39739" lon="6.07951">
        <ele>284.12045288086</ele>
        <time>2014-12-10T13:00:52Z</time>
      </trkpt>
      <trkpt lat="43.39726" lon="6.07937">
        <ele>286.61328125</ele>
        <time>2014-12-10T13:00:57Z</time>
      </trkpt>
      <trkpt lat="43.39718" lon="6.07927">
        <ele>288.26547241211</ele>
        <time>2014-12-10T13:01:01Z</time>
      </trkpt>
      <trkpt lat="43.3971" lon="6.07917">
        <ele>289.52893066406</ele>
        <time>2014-12-10T13:01:05Z</time>
      </trkpt>
      <trkpt lat="43.39706" lon="6.07913">
        <ele>290.0774230957</ele>
        <time>2014-12-10T13:01:07Z</time>
      </trkpt>
      <trkpt lat="43.39705" lon="6.07911">
        <ele>290.35992431641</ele>
        <time>2014-12-10T13:01:08Z</time>
      </trkpt>
      <trkpt lat="43.397" lon="6.07907">
        <ele>291.07211303711</ele>
        <time>2014-12-10T13:01:11Z</time>
      </trkpt>
      <trkpt lat="43.39697" lon="6.07903">
        <ele>291.67153930664</ele>
        <time>2014-12-10T13:01:13Z</time>
      </trkpt>
      <trkpt lat="43.39689" lon="6.07896">
        <ele>292.92373657227</ele>
        <time>2014-12-10T13:01:19Z</time>
      </trkpt>
      <trkpt lat="43.39688" lon="6.07895">
        <ele>293.11047363281</ele>
        <time>2014-12-10T13:01:21Z</time>
      </trkpt>
      <trkpt lat="43.39681" lon="6.07891">
        <ele>293.88388061523</ele>
        <time>2014-12-10T13:01:26Z</time>
      </trkpt>
      <trkpt lat="43.39676" lon="6.0789">
        <ele>294.00253295898</ele>
        <time>2014-12-10T13:01:29Z</time>
      </trkpt>
      <trkpt lat="43.39671" lon="6.07889">
        <ele>293.93682861328</ele>
        <time>2014-12-10T13:01:32Z</time>
      </trkpt>
      <trkpt lat="43.39659" lon="6.07888">
        <ele>294.09191894531</ele>
        <time>2014-12-10T13:01:38Z</time>
      </trkpt>
      <trkpt lat="43.39646" lon="6.07888">
        <ele>293.67126464844</ele>
        <time>2014-12-10T13:01:45Z</time>
      </trkpt>
      <trkpt lat="43.39641" lon="6.07888">
        <ele>293.38232421875</ele>
        <time>2014-12-10T13:01:47Z</time>
      </trkpt>
      <trkpt lat="43.39626" lon="6.07892">
        <ele>291.87106323242</ele>
        <time>2014-12-10T13:01:54Z</time>
      </trkpt>
      <trkpt lat="43.39616" lon="6.07897">
        <ele>290.52233886719</ele>
        <time>2014-12-10T13:01:59Z</time>
      </trkpt>
      <trkpt lat="43.3961" lon="6.07899">
        <ele>289.8464050293</ele>
        <time>2014-12-10T13:02:02Z</time>
      </trkpt>
      <trkpt lat="43.396" lon="6.079">
        <ele>289.20196533203</ele>
        <time>2014-12-10T13:02:07Z</time>
      </trkpt>
      <trkpt lat="43.39593" lon="6.079">
        <ele>288.97201538086</ele>
        <time>2014-12-10T13:02:11Z</time>
      </trkpt>
      <trkpt lat="43.39589" lon="6.07902">
        <ele>288.50137329102</ele>
        <time>2014-12-10T13:02:14Z</time>
      </trkpt>
      <trkpt lat="43.39586" lon="6.07902">
        <ele>288.46978759766</ele>
        <time>2014-12-10T13:02:16Z</time>
      </trkpt>
      <trkpt lat="43.39585" lon="6.07903">
        <ele>288.26315307617</ele>
        <time>2014-12-10T13:02:17Z</time>
      </trkpt>
      <trkpt lat="43.39582" lon="6.07903">
        <ele>288.05978393555</ele>
        <time>2014-12-10T13:02:19Z</time>
      </trkpt>
      <trkpt lat="43.3958" lon="6.07906">
        <ele>287.37219238281</ele>
        <time>2014-12-10T13:02:23Z</time>
      </trkpt>
      <trkpt lat="43.39579" lon="6.07907">
        <ele>287.21929931641</ele>
        <time>2014-12-10T13:02:24Z</time>
      </trkpt>
      <trkpt lat="43.39579" lon="6.0791">
        <ele>286.56591796875</ele>
        <time>2014-12-10T13:02:30Z</time>
      </trkpt>
      <trkpt lat="43.39579" lon="6.07911">
        <ele>286.40817260742</ele>
        <time>2014-12-10T13:02:31Z</time>
      </trkpt>
      <trkpt lat="43.39579" lon="6.07912">
        <ele>286.04876708984</ele>
        <time>2014-12-10T13:02:34Z</time>
      </trkpt>
      <trkpt lat="43.39579" lon="6.07915">
        <ele>285.33551025391</ele>
        <time>2014-12-10T13:02:36Z</time>
      </trkpt>
      <trkpt lat="43.39579" lon="6.07917">
        <ele>285.05230712891</ele>
        <time>2014-12-10T13:02:38Z</time>
      </trkpt>
      <trkpt lat="43.39577" lon="6.07923">
        <ele>284.68734741211</ele>
        <time>2014-12-10T13:02:42Z</time>
      </trkpt>
      <trkpt lat="43.39576" lon="6.07924">
        <ele>284.67471313477</ele>
        <time>2014-12-10T13:02:43Z</time>
      </trkpt>
      <trkpt lat="43.3957" lon="6.07926">
        <ele>284.64321899414</ele>
        <time>2014-12-10T13:02:48Z</time>
      </trkpt>
      <trkpt lat="43.39566" lon="6.07928">
        <ele>284.58068847656</ele>
        <time>2014-12-10T13:02:51Z</time>
      </trkpt>
      <trkpt lat="43.39564" lon="6.07928">
        <ele>284.57412719727</ele>
        <time>2014-12-10T13:02:52Z</time>
      </trkpt>
      <trkpt lat="43.39562" lon="6.07929">
        <ele>284.56213378906</ele>
        <time>2014-12-10T13:02:53Z</time>
      </trkpt>
      <trkpt lat="43.39554" lon="6.07932">
        <ele>284.48864746094</ele>
        <time>2014-12-10T13:02:57Z</time>
      </trkpt>
      <trkpt lat="43.3955" lon="6.07934">
        <ele>284.44830322266</ele>
        <time>2014-12-10T13:02:59Z</time>
      </trkpt>
      <trkpt lat="43.39539" lon="6.0794">
        <ele>284.25573730469</ele>
        <time>2014-12-10T13:03:05Z</time>
      </trkpt>
      <trkpt lat="43.39537" lon="6.07941">
        <ele>284.23937988281</ele>
        <time>2014-12-10T13:03:06Z</time>
      </trkpt>
      <trkpt lat="43.39526" lon="6.07947">
        <ele>284.12149047852</ele>
        <time>2014-12-10T13:03:13Z</time>
      </trkpt>
      <trkpt lat="43.39521" lon="6.07949">
        <ele>284.09927368164</ele>
        <time>2014-12-10T13:03:17Z</time>
      </trkpt>
      <trkpt lat="43.39518" lon="6.0795">
        <ele>284.06646728516</ele>
        <time>2014-12-10T13:03:19Z</time>
      </trkpt>
      <trkpt lat="43.39516" lon="6.0795">
        <ele>284.10824584961</ele>
        <time>2014-12-10T13:03:20Z</time>
      </trkpt>
      <trkpt lat="43.39515" lon="6.07951">
        <ele>284.11315917969</ele>
        <time>2014-12-10T13:03:21Z</time>
      </trkpt>
      <trkpt lat="43.39508" lon="6.07952">
        <ele>284.17407226562</ele>
        <time>2014-12-10T13:03:25Z</time>
      </trkpt>
      <trkpt lat="43.39503" lon="6.07954">
        <ele>284.14865112305</ele>
        <time>2014-12-10T13:03:28Z</time>
      </trkpt>
      <trkpt lat="43.39499" lon="6.07956">
        <ele>284.24307250977</ele>
        <time>2014-12-10T13:03:31Z</time>
      </trkpt>
      <trkpt lat="43.39489" lon="6.07959">
        <ele>284.94540405273</ele>
        <time>2014-12-10T13:03:37Z</time>
      </trkpt>
      <trkpt lat="43.39479" lon="6.07963">
        <ele>285.57571411133</ele>
        <time>2014-12-10T13:03:43Z</time>
      </trkpt>
      <trkpt lat="43.39473" lon="6.07967">
        <ele>285.93634033203</ele>
        <time>2014-12-10T13:03:47Z</time>
      </trkpt>
      <trkpt lat="43.39472" lon="6.07968">
        <ele>285.94314575195</ele>
        <time>2014-12-10T13:03:48Z</time>
      </trkpt>
      <trkpt lat="43.39471" lon="6.07969">
        <ele>285.96197509766</ele>
        <time>2014-12-10T13:03:53Z</time>
      </trkpt>
      <trkpt lat="43.39471" lon="6.0797">
        <ele>285.98577880859</ele>
        <time>2014-12-10T13:03:58Z</time>
      </trkpt>
      <trkpt lat="43.39471" lon="6.0797">
        <ele>285.98388671875</ele>
        <time>2014-12-10T13:04:10Z</time>
      </trkpt>
      <trkpt lat="43.39471" lon="6.0797">
        <ele>285.97821044922</ele>
        <time>2014-12-10T13:04:30Z</time>
      </trkpt>
      <trkpt lat="43.39471" lon="6.0797">
        <ele>285.97821044922</ele>
        <time>2014-12-10T13:04:49Z</time>
      </trkpt>
      <trkpt lat="43.39469" lon="6.0797">
        <ele>286.15216064453</ele>
        <time>2014-12-10T13:05:09Z</time>
      </trkpt>
      <trkpt lat="43.39467" lon="6.0797">
        <ele>286.30014038086</ele>
        <time>2014-12-10T13:05:10Z</time>
      </trkpt>
      <trkpt lat="43.39457" lon="6.07973">
        <ele>287.08633422852</ele>
        <time>2014-12-10T13:05:15Z</time>
      </trkpt>
      <trkpt lat="43.39452" lon="6.07975">
        <ele>287.48803710938</ele>
        <time>2014-12-10T13:05:17Z</time>
      </trkpt>
      <trkpt lat="43.39441" lon="6.07979">
        <ele>288.32070922852</ele>
        <time>2014-12-10T13:05:21Z</time>
      </trkpt>
      <trkpt lat="43.39436" lon="6.07981">
        <ele>288.67596435547</ele>
        <time>2014-12-10T13:05:23Z</time>
      </trkpt>
      <trkpt lat="43.39418" lon="6.07989">
        <ele>290.12869262695</ele>
        <time>2014-12-10T13:05:30Z</time>
      </trkpt>
      <trkpt lat="43.39415" lon="6.07991">
        <ele>290.44232177734</ele>
        <time>2014-12-10T13:05:31Z</time>
      </trkpt>
      <trkpt lat="43.39402" lon="6.07998">
        <ele>292.39892578125</ele>
        <time>2014-12-10T13:05:37Z</time>
      </trkpt>
      <trkpt lat="43.394" lon="6.07999">
        <ele>292.58828735352</ele>
        <time>2014-12-10T13:05:38Z</time>
      </trkpt>
      <trkpt lat="43.39396" lon="6.08001">
        <ele>293.35659790039</ele>
        <time>2014-12-10T13:05:41Z</time>
      </trkpt>
      <trkpt lat="43.39394" lon="6.08002">
        <ele>293.58386230469</ele>
        <time>2014-12-10T13:05:42Z</time>
      </trkpt>
      <trkpt lat="43.39392" lon="6.08003">
        <ele>293.93545532227</ele>
        <time>2014-12-10T13:05:45Z</time>
      </trkpt>
      <trkpt lat="43.39391" lon="6.08003">
        <ele>294.15469360352</ele>
        <time>2014-12-10T13:05:57Z</time>
      </trkpt>
      <trkpt lat="43.39391" lon="6.08004">
        <ele>294.16625976562</ele>
        <time>2014-12-10T13:06:11Z</time>
      </trkpt>
      <trkpt lat="43.39391" lon="6.08004">
        <ele>294.18356323242</ele>
        <time>2014-12-10T13:06:32Z</time>
      </trkpt>
      <trkpt lat="43.39391" lon="6.08004">
        <ele>294.18069458008</ele>
        <time>2014-12-10T13:06:47Z</time>
      </trkpt>
      <trkpt lat="43.39391" lon="6.08005">
        <ele>294.23266601562</ele>
        <time>2014-12-10T13:07:58Z</time>
      </trkpt>
      <trkpt lat="43.39391" lon="6.08005">
        <ele>294.23843383789</ele>
        <time>2014-12-10T13:08:21Z</time>
      </trkpt>
      <trkpt lat="43.39391" lon="6.08005">
        <ele>294.23843383789</ele>
        <time>2014-12-10T13:08:25Z</time>
      </trkpt>
      <trkpt lat="43.39391" lon="6.08004">
        <ele>294.28030395508</ele>
        <time>2014-12-10T13:08:45Z</time>
      </trkpt>
      <trkpt lat="43.39391" lon="6.08004">
        <ele>294.27746582031</ele>
        <time>2014-12-10T13:09:09Z</time>
      </trkpt>
      <trkpt lat="43.39389" lon="6.08003">
        <ele>294.44033813477</ele>
        <time>2014-12-10T13:09:10Z</time>
      </trkpt>
      <trkpt lat="43.39385" lon="6.08002">
        <ele>295.01724243164</ele>
        <time>2014-12-10T13:09:12Z</time>
      </trkpt>
      <trkpt lat="43.39381" lon="6.08004">
        <ele>295.77178955078</ele>
        <time>2014-12-10T13:09:14Z</time>
      </trkpt>
      <trkpt lat="43.39375" lon="6.08007">
        <ele>296.67227172852</ele>
        <time>2014-12-10T13:09:17Z</time>
      </trkpt>
      <trkpt lat="43.39374" lon="6.08008">
        <ele>296.92544555664</ele>
        <time>2014-12-10T13:09:18Z</time>
      </trkpt>
      <trkpt lat="43.39368" lon="6.08014">
        <ele>297.86926269531</ele>
        <time>2014-12-10T13:09:21Z</time>
      </trkpt>
      <trkpt lat="43.39365" lon="6.08016">
        <ele>298.19131469727</ele>
        <time>2014-12-10T13:09:22Z</time>
      </trkpt>
      <trkpt lat="43.39363" lon="6.08018">
        <ele>298.49209594727</ele>
        <time>2014-12-10T13:09:23Z</time>
      </trkpt>
      <trkpt lat="43.3936" lon="6.08022">
        <ele>298.87677001953</ele>
        <time>2014-12-10T13:09:25Z</time>
      </trkpt>
      <trkpt lat="43.39353" lon="6.08031">
        <ele>299.59967041016</ele>
        <time>2014-12-10T13:09:29Z</time>
      </trkpt>
      <trkpt lat="43.39349" lon="6.08034">
        <ele>299.91925048828</ele>
        <time>2014-12-10T13:09:31Z</time>
      </trkpt>
      <trkpt lat="43.39344" lon="6.08037">
        <ele>300.26501464844</ele>
        <time>2014-12-10T13:09:34Z</time>
      </trkpt>
      <trkpt lat="43.39342" lon="6.0804">
        <ele>300.38919067383</ele>
        <time>2014-12-10T13:09:36Z</time>
      </trkpt>
      <trkpt lat="43.39336" lon="6.0805">
        <ele>300.47058105469</ele>
        <time>2014-12-10T13:09:40Z</time>
      </trkpt>
      <trkpt lat="43.39331" lon="6.08058">
        <ele>300.88287353516</ele>
        <time>2014-12-10T13:09:43Z</time>
      </trkpt>
      <trkpt lat="43.39322" lon="6.08073">
        <ele>303.29736328125</ele>
        <time>2014-12-10T13:09:50Z</time>
      </trkpt>
      <trkpt lat="43.39312" lon="6.08085">
        <ele>305.97311401367</ele>
        <time>2014-12-10T13:09:56Z</time>
      </trkpt>
      <trkpt lat="43.39304" lon="6.08099">
        <ele>308.84564208984</ele>
        <time>2014-12-10T13:10:02Z</time>
      </trkpt>
      <trkpt lat="43.39301" lon="6.08105">
        <ele>310.1252746582</ele>
        <time>2014-12-10T13:10:05Z</time>
      </trkpt>
      <trkpt lat="43.393" lon="6.08108">
        <ele>310.38635253906</ele>
        <time>2014-12-10T13:10:06Z</time>
      </trkpt>
      <trkpt lat="43.39292" lon="6.08125">
        <ele>312.72927856445</ele>
        <time>2014-12-10T13:10:13Z</time>
      </trkpt>
      <trkpt lat="43.39289" lon="6.08138">
        <ele>313.48318481445</ele>
        <time>2014-12-10T13:10:18Z</time>
      </trkpt>
      <trkpt lat="43.39289" lon="6.08138">
        <ele>313.39892578125</ele>
        <time>2014-12-10T13:10:22Z</time>
      </trkpt>
      <trkpt lat="43.39289" lon="6.0814">
        <ele>313.40051269531</ele>
        <time>2014-12-10T13:10:25Z</time>
      </trkpt>
      <trkpt lat="43.39289" lon="6.08143">
        <ele>313.40472412109</ele>
        <time>2014-12-10T13:10:32Z</time>
      </trkpt>
      <trkpt lat="43.39289" lon="6.08148">
        <ele>313.33279418945</ele>
        <time>2014-12-10T13:10:37Z</time>
      </trkpt>
      <trkpt lat="43.39289" lon="6.08148">
        <ele>313.41076660156</ele>
        <time>2014-12-10T13:10:39Z</time>
      </trkpt>
      <trkpt lat="43.39289" lon="6.08149">
        <ele>313.48797607422</ele>
        <time>2014-12-10T13:10:41Z</time>
      </trkpt>
      <trkpt lat="43.39287" lon="6.08152">
        <ele>313.78884887695</ele>
        <time>2014-12-10T13:10:45Z</time>
      </trkpt>
      <trkpt lat="43.39285" lon="6.08158">
        <ele>314.12536621094</ele>
        <time>2014-12-10T13:10:48Z</time>
      </trkpt>
      <trkpt lat="43.39281" lon="6.08169">
        <ele>314.85116577148</ele>
        <time>2014-12-10T13:10:53Z</time>
      </trkpt>
      <trkpt lat="43.39281" lon="6.0817">
        <ele>314.95538330078</ele>
        <time>2014-12-10T13:10:54Z</time>
      </trkpt>
      <trkpt lat="43.3928" lon="6.08172">
        <ele>315.0862121582</ele>
        <time>2014-12-10T13:10:55Z</time>
      </trkpt>
      <trkpt lat="43.3928" lon="6.08178">
        <ele>315.34286499023</ele>
        <time>2014-12-10T13:10:58Z</time>
      </trkpt>
      <trkpt lat="43.39277" lon="6.08183">
        <ele>316.02523803711</ele>
        <time>2014-12-10T13:11:02Z</time>
      </trkpt>
      <trkpt lat="43.39277" lon="6.08183">
        <ele>315.92056274414</ele>
        <time>2014-12-10T13:11:03Z</time>
      </trkpt>
      <trkpt lat="43.39276" lon="6.08186">
        <ele>316.22021484375</ele>
        <time>2014-12-10T13:11:10Z</time>
      </trkpt>
      <trkpt lat="43.39275" lon="6.08187">
        <ele>316.29776000977</ele>
        <time>2014-12-10T13:11:11Z</time>
      </trkpt>
      <trkpt lat="43.39275" lon="6.08189">
        <ele>316.35336303711</ele>
        <time>2014-12-10T13:11:14Z</time>
      </trkpt>
      <trkpt lat="43.39275" lon="6.0819">
        <ele>316.36242675781</ele>
        <time>2014-12-10T13:11:18Z</time>
      </trkpt>
      <trkpt lat="43.39274" lon="6.08201">
        <ele>316.8291015625</ele>
        <time>2014-12-10T13:11:23Z</time>
      </trkpt>
      <trkpt lat="43.39272" lon="6.08213">
        <ele>317.21688842773</ele>
        <time>2014-12-10T13:11:27Z</time>
      </trkpt>
      <trkpt lat="43.3927" lon="6.0822">
        <ele>317.51397705078</ele>
        <time>2014-12-10T13:11:30Z</time>
      </trkpt>
      <trkpt lat="43.39267" lon="6.0823">
        <ele>317.80090332031</ele>
        <time>2014-12-10T13:11:34Z</time>
      </trkpt>
      <trkpt lat="43.39266" lon="6.08234">
        <ele>317.86108398438</ele>
        <time>2014-12-10T13:11:36Z</time>
      </trkpt>
      <trkpt lat="43.39264" lon="6.08249">
        <ele>317.99572753906</ele>
        <time>2014-12-10T13:11:42Z</time>
      </trkpt>
      <trkpt lat="43.39261" lon="6.08257">
        <ele>318.22354125977</ele>
        <time>2014-12-10T13:11:46Z</time>
      </trkpt>
      <trkpt lat="43.39256" lon="6.0826">
        <ele>318.23519897461</ele>
        <time>2014-12-10T13:11:49Z</time>
      </trkpt>
      <trkpt lat="43.39255" lon="6.08263">
        <ele>318.26321411133</ele>
        <time>2014-12-10T13:11:51Z</time>
      </trkpt>
      <trkpt lat="43.39252" lon="6.08266">
        <ele>318.26174926758</ele>
        <time>2014-12-10T13:11:54Z</time>
      </trkpt>
      <trkpt lat="43.39249" lon="6.08269">
        <ele>318.61669921875</ele>
        <time>2014-12-10T13:11:56Z</time>
      </trkpt>
      <trkpt lat="43.39245" lon="6.08278">
        <ele>320.39727783203</ele>
        <time>2014-12-10T13:12:01Z</time>
      </trkpt>
      <trkpt lat="43.39244" lon="6.08279">
        <ele>320.55709838867</ele>
        <time>2014-12-10T13:12:02Z</time>
      </trkpt>
      <trkpt lat="43.39244" lon="6.08279">
        <ele>320.55746459961</ele>
        <time>2014-12-10T13:12:03Z</time>
      </trkpt>
      <trkpt lat="43.39244" lon="6.0828">
        <ele>320.87274169922</ele>
        <time>2014-12-10T13:12:08Z</time>
      </trkpt>
      <trkpt lat="43.39242" lon="6.08285">
        <ele>321.50857543945</ele>
        <time>2014-12-10T13:12:15Z</time>
      </trkpt>
      <trkpt lat="43.39238" lon="6.08294">
        <ele>323.34515380859</ele>
        <time>2014-12-10T13:12:20Z</time>
      </trkpt>
      <trkpt lat="43.39235" lon="6.08299">
        <ele>324.24166870117</ele>
        <time>2014-12-10T13:12:22Z</time>
      </trkpt>
      <trkpt lat="43.39235" lon="6.08303">
        <ele>324.39270019531</ele>
        <time>2014-12-10T13:12:26Z</time>
      </trkpt>
      <trkpt lat="43.39234" lon="6.08307">
        <ele>324.68591308594</ele>
        <time>2014-12-10T13:12:30Z</time>
      </trkpt>
      <trkpt lat="43.39232" lon="6.08312">
        <ele>325.40515136719</ele>
        <time>2014-12-10T13:12:34Z</time>
      </trkpt>
      <trkpt lat="43.39233" lon="6.08313">
        <ele>325.26135253906</ele>
        <time>2014-12-10T13:12:38Z</time>
      </trkpt>
      <trkpt lat="43.39233" lon="6.08313">
        <ele>325.26132202148</ele>
        <time>2014-12-10T13:12:39Z</time>
      </trkpt>
      <trkpt lat="43.39233" lon="6.08314">
        <ele>325.11822509766</ele>
        <time>2014-12-10T13:12:43Z</time>
      </trkpt>
      <trkpt lat="43.39233" lon="6.08319">
        <ele>324.97589111328</ele>
        <time>2014-12-10T13:12:50Z</time>
      </trkpt>
      <trkpt lat="43.39231" lon="6.08325">
        <ele>325.953125</ele>
        <time>2014-12-10T13:12:53Z</time>
      </trkpt>
      <trkpt lat="43.39228" lon="6.08327">
        <ele>326.78479003906</ele>
        <time>2014-12-10T13:12:54Z</time>
      </trkpt>
      <trkpt lat="43.39226" lon="6.08329">
        <ele>327.6064453125</ele>
        <time>2014-12-10T13:12:56Z</time>
      </trkpt>
      <trkpt lat="43.39224" lon="6.08334">
        <ele>328.2919921875</ele>
        <time>2014-12-10T13:12:58Z</time>
      </trkpt>
      <trkpt lat="43.39223" lon="6.0834">
        <ele>328.8049621582</ele>
        <time>2014-12-10T13:13:01Z</time>
      </trkpt>
      <trkpt lat="43.39223" lon="6.08343">
        <ele>328.99011230469</ele>
        <time>2014-12-10T13:13:03Z</time>
      </trkpt>
      <trkpt lat="43.39222" lon="6.08348">
        <ele>329.45745849609</ele>
        <time>2014-12-10T13:13:05Z</time>
      </trkpt>
      <trkpt lat="43.3922" lon="6.08355">
        <ele>330.05804443359</ele>
        <time>2014-12-10T13:13:08Z</time>
      </trkpt>
      <trkpt lat="43.3922" lon="6.08357">
        <ele>330.20608520508</ele>
        <time>2014-12-10T13:13:09Z</time>
      </trkpt>
      <trkpt lat="43.39217" lon="6.08373">
        <ele>331.185546875</ele>
        <time>2014-12-10T13:13:16Z</time>
      </trkpt>
      <trkpt lat="43.39214" lon="6.0838">
        <ele>332.00436401367</ele>
        <time>2014-12-10T13:13:20Z</time>
      </trkpt>
      <trkpt lat="43.39214" lon="6.0838">
        <ele>332.11624145508</ele>
        <time>2014-12-10T13:13:22Z</time>
      </trkpt>
      <trkpt lat="43.39214" lon="6.08382">
        <ele>332.01202392578</ele>
        <time>2014-12-10T13:13:28Z</time>
      </trkpt>
      <trkpt lat="43.39215" lon="6.08389">
        <ele>331.82904052734</ele>
        <time>2014-12-10T13:13:34Z</time>
      </trkpt>
      <trkpt lat="43.39214" lon="6.08391">
        <ele>332.0446472168</ele>
        <time>2014-12-10T13:13:35Z</time>
      </trkpt>
      <trkpt lat="43.39214" lon="6.084">
        <ele>332.27072143555</ele>
        <time>2014-12-10T13:13:39Z</time>
      </trkpt>
      <trkpt lat="43.39213" lon="6.08402">
        <ele>332.36953735352</ele>
        <time>2014-12-10T13:13:40Z</time>
      </trkpt>
      <trkpt lat="43.39213" lon="6.08403">
        <ele>332.37127685547</ele>
        <time>2014-12-10T13:13:46Z</time>
      </trkpt>
      <trkpt lat="43.39214" lon="6.08403">
        <ele>332.27584838867</ele>
        <time>2014-12-10T13:13:50Z</time>
      </trkpt>
      <trkpt lat="43.39214" lon="6.08403">
        <ele>332.2763671875</ele>
        <time>2014-12-10T13:13:56Z</time>
      </trkpt>
      <trkpt lat="43.39213" lon="6.08405">
        <ele>332.46884155273</ele>
        <time>2014-12-10T13:14:01Z</time>
      </trkpt>
      <trkpt lat="43.39211" lon="6.08408">
        <ele>332.84170532227</ele>
        <time>2014-12-10T13:14:04Z</time>
      </trkpt>
      <trkpt lat="43.39211" lon="6.08408">
        <ele>332.93362426758</ele>
        <time>2014-12-10T13:14:06Z</time>
      </trkpt>
      <trkpt lat="43.39211" lon="6.08409">
        <ele>332.93203735352</ele>
        <time>2014-12-10T13:14:12Z</time>
      </trkpt>
      <trkpt lat="43.3921" lon="6.08411">
        <ele>333.10827636719</ele>
        <time>2014-12-10T13:14:14Z</time>
      </trkpt>
      <trkpt lat="43.3921" lon="6.08412">
        <ele>333.19631958008</ele>
        <time>2014-12-10T13:14:17Z</time>
      </trkpt>
      <trkpt lat="43.39207" lon="6.08421">
        <ele>334.05627441406</ele>
        <time>2014-12-10T13:14:25Z</time>
      </trkpt>
      <trkpt lat="43.39206" lon="6.08428">
        <ele>334.51455688477</ele>
        <time>2014-12-10T13:14:28Z</time>
      </trkpt>
      <trkpt lat="43.39206" lon="6.08428">
        <ele>334.54696655273</ele>
        <time>2014-12-10T13:14:29Z</time>
      </trkpt>
      <trkpt lat="43.39206" lon="6.08428">
        <ele>334.5246887207</ele>
        <time>2014-12-10T13:14:32Z</time>
      </trkpt>
      <trkpt lat="43.39206" lon="6.08432">
        <ele>334.75646972656</ele>
        <time>2014-12-10T13:14:40Z</time>
      </trkpt>
      <trkpt lat="43.39206" lon="6.08434">
        <ele>334.84173583984</ele>
        <time>2014-12-10T13:14:46Z</time>
      </trkpt>
      <trkpt lat="43.39206" lon="6.08436">
        <ele>334.86288452148</ele>
        <time>2014-12-10T13:14:47Z</time>
      </trkpt>
      <trkpt lat="43.39206" lon="6.08445">
        <ele>335.25979614258</ele>
        <time>2014-12-10T13:14:51Z</time>
      </trkpt>
      <trkpt lat="43.39203" lon="6.0846">
        <ele>336.28036499023</ele>
        <time>2014-12-10T13:14:57Z</time>
      </trkpt>
      <trkpt lat="43.39203" lon="6.08464">
        <ele>336.42907714844</ele>
        <time>2014-12-10T13:14:59Z</time>
      </trkpt>
      <trkpt lat="43.39201" lon="6.08472">
        <ele>336.92010498047</ele>
        <time>2014-12-10T13:15:03Z</time>
      </trkpt>
      <trkpt lat="43.39201" lon="6.08476">
        <ele>337.04382324219</ele>
        <time>2014-12-10T13:15:05Z</time>
      </trkpt>
      <trkpt lat="43.392" lon="6.0849">
        <ele>337.52044677734</ele>
        <time>2014-12-10T13:15:12Z</time>
      </trkpt>
      <trkpt lat="43.39199" lon="6.08492">
        <ele>337.64593505859</ele>
        <time>2014-12-10T13:15:13Z</time>
      </trkpt>
      <trkpt lat="43.39199" lon="6.08493">
        <ele>337.67297363281</ele>
        <time>2014-12-10T13:15:14Z</time>
      </trkpt>
      <trkpt lat="43.39199" lon="6.08498">
        <ele>337.75567626953</ele>
        <time>2014-12-10T13:15:17Z</time>
      </trkpt>
      <trkpt lat="43.392" lon="6.08499">
        <ele>337.7751159668</ele>
        <time>2014-12-10T13:15:21Z</time>
      </trkpt>
      <trkpt lat="43.392" lon="6.08499">
        <ele>337.76321411133</ele>
        <time>2014-12-10T13:15:22Z</time>
      </trkpt>
      <trkpt lat="43.392" lon="6.08499">
        <ele>337.76458740234</ele>
        <time>2014-12-10T13:15:28Z</time>
      </trkpt>
      <trkpt lat="43.392" lon="6.08499">
        <ele>337.76879882812</ele>
        <time>2014-12-10T13:15:41Z</time>
      </trkpt>
      <trkpt lat="43.392" lon="6.08499">
        <ele>337.78594970703</ele>
        <time>2014-12-10T13:15:54Z</time>
      </trkpt>
      <trkpt lat="43.392" lon="6.08499">
        <ele>337.78594970703</ele>
        <time>2014-12-10T13:15:57Z</time>
      </trkpt>
      <trkpt lat="43.392" lon="6.08499">
        <ele>337.78866577148</ele>
        <time>2014-12-10T13:16:19Z</time>
      </trkpt>
      <trkpt lat="43.392" lon="6.085">
        <ele>337.78274536133</ele>
        <time>2014-12-10T13:16:58Z</time>
      </trkpt>
      <trkpt lat="43.392" lon="6.085">
        <ele>337.80084228516</ele>
        <time>2014-12-10T13:17:21Z</time>
      </trkpt>
      <trkpt lat="43.392" lon="6.085">
        <ele>337.80084228516</ele>
        <time>2014-12-10T13:17:25Z</time>
      </trkpt>
      <trkpt lat="43.39199" lon="6.08502">
        <ele>337.76052856445</ele>
        <time>2014-12-10T13:17:33Z</time>
      </trkpt>
      <trkpt lat="43.39198" lon="6.08504">
        <ele>337.76794433594</ele>
        <time>2014-12-10T13:17:34Z</time>
      </trkpt>
      <trkpt lat="43.39195" lon="6.08506">
        <ele>337.744140625</ele>
        <time>2014-12-10T13:17:36Z</time>
      </trkpt>
      <trkpt lat="43.3919" lon="6.08513">
        <ele>337.63037109375</ele>
        <time>2014-12-10T13:17:40Z</time>
      </trkpt>
      <trkpt lat="43.39189" lon="6.08518">
        <ele>337.40411376953</ele>
        <time>2014-12-10T13:17:42Z</time>
      </trkpt>
      <trkpt lat="43.39187" lon="6.08524">
        <ele>337.1845703125</ele>
        <time>2014-12-10T13:17:44Z</time>
      </trkpt>
      <trkpt lat="43.39185" lon="6.08531">
        <ele>336.86517333984</ele>
        <time>2014-12-10T13:17:47Z</time>
      </trkpt>
      <trkpt lat="43.39179" lon="6.08548">
        <ele>335.89065551758</ele>
        <time>2014-12-10T13:17:52Z</time>
      </trkpt>
      <trkpt lat="43.39176" lon="6.08557">
        <ele>335.24282836914</ele>
        <time>2014-12-10T13:17:54Z</time>
      </trkpt>
      <trkpt lat="43.39172" lon="6.08576">
        <ele>333.89047241211</ele>
        <time>2014-12-10T13:17:57Z</time>
      </trkpt>
      <trkpt lat="43.39172" lon="6.08582">
        <ele>333.46643066406</ele>
        <time>2014-12-10T13:17:58Z</time>
      </trkpt>
      <trkpt lat="43.3917" lon="6.08589">
        <ele>332.80032348633</ele>
        <time>2014-12-10T13:17:59Z</time>
      </trkpt>
      <trkpt lat="43.39166" lon="6.08608">
        <ele>331.29315185547</ele>
        <time>2014-12-10T13:18:02Z</time>
      </trkpt>
      <trkpt lat="43.39163" lon="6.0862">
        <ele>331.52947998047</ele>
        <time>2014-12-10T13:18:04Z</time>
      </trkpt>
      <trkpt lat="43.39157" lon="6.08639">
        <ele>332.30587768555</ele>
        <time>2014-12-10T13:18:07Z</time>
      </trkpt>
      <trkpt lat="43.39154" lon="6.08662">
        <ele>331.36624145508</ele>
        <time>2014-12-10T13:18:11Z</time>
      </trkpt>
      <trkpt lat="43.39152" lon="6.08674">
        <ele>331.33682250977</ele>
        <time>2014-12-10T13:18:13Z</time>
      </trkpt>
      <trkpt lat="43.39151" lon="6.08688">
        <ele>330.63360595703</ele>
        <time>2014-12-10T13:18:15Z</time>
      </trkpt>
      <trkpt lat="43.3915" lon="6.08698">
        <ele>330.43353271484</ele>
        <time>2014-12-10T13:18:17Z</time>
      </trkpt>
      <trkpt lat="43.39148" lon="6.08715">
        <ele>330.0383605957</ele>
        <time>2014-12-10T13:18:20Z</time>
      </trkpt>
      <trkpt lat="43.39143" lon="6.08737">
        <ele>330.26123046875</ele>
        <time>2014-12-10T13:18:24Z</time>
      </trkpt>
      <trkpt lat="43.39142" lon="6.08742">
        <ele>330.18341064453</ele>
        <time>2014-12-10T13:18:25Z</time>
      </trkpt>
      <trkpt lat="43.39139" lon="6.08755">
        <ele>330.48883056641</ele>
        <time>2014-12-10T13:18:28Z</time>
      </trkpt>
      <trkpt lat="43.39135" lon="6.08773">
        <ele>331.33181762695</ele>
        <time>2014-12-10T13:18:31Z</time>
      </trkpt>
      <trkpt lat="43.39128" lon="6.08797">
        <ele>332.77233886719</ele>
        <time>2014-12-10T13:18:36Z</time>
      </trkpt>
      <trkpt lat="43.3912" lon="6.08825">
        <ele>334.05874633789</ele>
        <time>2014-12-10T13:18:41Z</time>
      </trkpt>
      <trkpt lat="43.3912" lon="6.08829">
        <ele>333.97695922852</ele>
        <time>2014-12-10T13:18:42Z</time>
      </trkpt>
      <trkpt lat="43.39115" lon="6.08851">
        <ele>334.28518676758</ele>
        <time>2014-12-10T13:18:46Z</time>
      </trkpt>
      <trkpt lat="43.3911" lon="6.08868">
        <ele>334.61364746094</ele>
        <time>2014-12-10T13:18:50Z</time>
      </trkpt>
      <trkpt lat="43.39104" lon="6.08888">
        <ele>334.97714233398</ele>
        <time>2014-12-10T13:18:55Z</time>
      </trkpt>
      <trkpt lat="43.39098" lon="6.08918">
        <ele>334.67080688477</ele>
        <time>2014-12-10T13:19:01Z</time>
      </trkpt>
      <trkpt lat="43.39091" lon="6.08944">
        <ele>334.4973449707</ele>
        <time>2014-12-10T13:19:07Z</time>
      </trkpt>
      <trkpt lat="43.39088" lon="6.08957">
        <ele>334.52536010742</ele>
        <time>2014-12-10T13:19:10Z</time>
      </trkpt>
      <trkpt lat="43.39086" lon="6.0896">
        <ele>334.65130615234</ele>
        <time>2014-12-10T13:19:11Z</time>
      </trkpt>
      <trkpt lat="43.39081" lon="6.08976">
        <ele>334.72705078125</ele>
        <time>2014-12-10T13:19:16Z</time>
      </trkpt>
      <trkpt lat="43.39079" lon="6.08981">
        <ele>335.00582885742</ele>
        <time>2014-12-10T13:19:18Z</time>
      </trkpt>
      <trkpt lat="43.39078" lon="6.08985">
        <ele>335.09298706055</ele>
        <time>2014-12-10T13:19:19Z</time>
      </trkpt>
      <trkpt lat="43.39074" lon="6.0899">
        <ele>336.03665161133</ele>
        <time>2014-12-10T13:19:21Z</time>
      </trkpt>
      <trkpt lat="43.39065" lon="6.09014">
        <ele>337.31063842773</ele>
        <time>2014-12-10T13:19:26Z</time>
      </trkpt>
      <trkpt lat="43.39055" lon="6.09033">
        <ele>339.72402954102</ele>
        <time>2014-12-10T13:19:31Z</time>
      </trkpt>
      <trkpt lat="43.39047" lon="6.09053">
        <ele>341.47933959961</ele>
        <time>2014-12-10T13:19:36Z</time>
      </trkpt>
      <trkpt lat="43.39042" lon="6.09071">
        <ele>342.63006591797</ele>
        <time>2014-12-10T13:19:41Z</time>
      </trkpt>
      <trkpt lat="43.39035" lon="6.09089">
        <ele>344.13891601562</ele>
        <time>2014-12-10T13:19:46Z</time>
      </trkpt>
      <trkpt lat="43.39028" lon="6.09112">
        <ele>345.46185302734</ele>
        <time>2014-12-10T13:19:53Z</time>
      </trkpt>
      <trkpt lat="43.39024" lon="6.0913">
        <ele>346.01116943359</ele>
        <time>2014-12-10T13:19:57Z</time>
      </trkpt>
      <trkpt lat="43.39019" lon="6.09151">
        <ele>347.05487060547</ele>
        <time>2014-12-10T13:20:02Z</time>
      </trkpt>
      <trkpt lat="43.39017" lon="6.09155">
        <ele>347.38446044922</ele>
        <time>2014-12-10T13:20:03Z</time>
      </trkpt>
      <trkpt lat="43.39009" lon="6.0918">
        <ele>348.79605102539</ele>
        <time>2014-12-10T13:20:09Z</time>
      </trkpt>
      <trkpt lat="43.39005" lon="6.09205">
        <ele>348.92767333984</ele>
        <time>2014-12-10T13:20:15Z</time>
      </trkpt>
      <trkpt lat="43.39002" lon="6.09228">
        <ele>348.66445922852</ele>
        <time>2014-12-10T13:20:20Z</time>
      </trkpt>
      <trkpt lat="43.38995" lon="6.09248">
        <ele>348.72457885742</ele>
        <time>2014-12-10T13:20:24Z</time>
      </trkpt>
      <trkpt lat="43.38988" lon="6.09265">
        <ele>348.39031982422</ele>
        <time>2014-12-10T13:20:29Z</time>
      </trkpt>
      <trkpt lat="43.3898" lon="6.09283">
        <ele>348.1116027832</ele>
        <time>2014-12-10T13:20:34Z</time>
      </trkpt>
      <trkpt lat="43.38975" lon="6.09292">
        <ele>348.17041015625</ele>
        <time>2014-12-10T13:20:37Z</time>
      </trkpt>
      <trkpt lat="43.38973" lon="6.09296">
        <ele>348.19808959961</ele>
        <time>2014-12-10T13:20:38Z</time>
      </trkpt>
      <trkpt lat="43.38971" lon="6.09301">
        <ele>348.2841796875</ele>
        <time>2014-12-10T13:20:39Z</time>
      </trkpt>
      <trkpt lat="43.38965" lon="6.0931">
        <ele>348.50482177734</ele>
        <time>2014-12-10T13:20:42Z</time>
      </trkpt>
      <trkpt lat="43.3896" lon="6.09321">
        <ele>348.52362060547</ele>
        <time>2014-12-10T13:20:45Z</time>
      </trkpt>
      <trkpt lat="43.3895" lon="6.09331">
        <ele>349.62158203125</ele>
        <time>2014-12-10T13:20:49Z</time>
      </trkpt>
      <trkpt lat="43.38931" lon="6.09349">
        <ele>350.69287109375</ele>
        <time>2014-12-10T13:20:56Z</time>
      </trkpt>
      <trkpt lat="43.38928" lon="6.09352">
        <ele>350.95474243164</ele>
        <time>2014-12-10T13:20:57Z</time>
      </trkpt>
      <trkpt lat="43.38919" lon="6.0936">
        <ele>351.70288085938</ele>
        <time>2014-12-10T13:21:02Z</time>
      </trkpt>
      <trkpt lat="43.38915" lon="6.09363">
        <ele>351.47729492188</ele>
        <time>2014-12-10T13:21:05Z</time>
      </trkpt>
      <trkpt lat="43.38912" lon="6.09368">
        <ele>350.26776123047</ele>
        <time>2014-12-10T13:21:08Z</time>
      </trkpt>
      <trkpt lat="43.3891" lon="6.09371">
        <ele>349.66653442383</ele>
        <time>2014-12-10T13:21:10Z</time>
      </trkpt>
      <trkpt lat="43.38907" lon="6.09374">
        <ele>348.81091308594</ele>
        <time>2014-12-10T13:21:12Z</time>
      </trkpt>
      <trkpt lat="43.38906" lon="6.09375">
        <ele>348.55987548828</ele>
        <time>2014-12-10T13:21:13Z</time>
      </trkpt>
      <trkpt lat="43.38901" lon="6.09389">
        <ele>346.38818359375</ele>
        <time>2014-12-10T13:21:19Z</time>
      </trkpt>
      <trkpt lat="43.38897" lon="6.09397">
        <ele>345.01123046875</ele>
        <time>2014-12-10T13:21:24Z</time>
      </trkpt>
      <trkpt lat="43.38897" lon="6.09402">
        <ele>344.51748657227</ele>
        <time>2014-12-10T13:21:27Z</time>
      </trkpt>
      <trkpt lat="43.38892" lon="6.09415">
        <ele>342.94100952148</ele>
        <time>2014-12-10T13:21:33Z</time>
      </trkpt>
      <trkpt lat="43.38892" lon="6.09418">
        <ele>342.59295654297</ele>
        <time>2014-12-10T13:21:39Z</time>
      </trkpt>
      <trkpt lat="43.38891" lon="6.09418">
        <ele>342.54315185547</ele>
        <time>2014-12-10T13:21:48Z</time>
      </trkpt>
      <trkpt lat="43.3889" lon="6.09418">
        <ele>342.42007446289</ele>
        <time>2014-12-10T13:21:55Z</time>
      </trkpt>
      <trkpt lat="43.3889" lon="6.09417">
        <ele>342.39636230469</ele>
        <time>2014-12-10T13:22:04Z</time>
      </trkpt>
      <trkpt lat="43.38889" lon="6.09417">
        <ele>342.36911010742</ele>
        <time>2014-12-10T13:22:06Z</time>
      </trkpt>
      <trkpt lat="43.38888" lon="6.09417">
        <ele>342.21838378906</ele>
        <time>2014-12-10T13:22:15Z</time>
      </trkpt>
      <trkpt lat="43.38888" lon="6.09417">
        <ele>342.16174316406</ele>
        <time>2014-12-10T13:22:17Z</time>
      </trkpt>
      <trkpt lat="43.38886" lon="6.09417">
        <ele>341.95159912109</ele>
        <time>2014-12-10T13:22:24Z</time>
      </trkpt>
      <trkpt lat="43.38886" lon="6.0942">
        <ele>341.79888916016</ele>
        <time>2014-12-10T13:22:27Z</time>
      </trkpt>
      <trkpt lat="43.38886" lon="6.09419">
        <ele>341.75582885742</ele>
        <time>2014-12-10T13:22:30Z</time>
      </trkpt>
      <trkpt lat="43.38886" lon="6.0942">
        <ele>341.74655151367</ele>
        <time>2014-12-10T13:22:33Z</time>
      </trkpt>
      <trkpt lat="43.38885" lon="6.0942">
        <ele>341.66653442383</ele>
        <time>2014-12-10T13:22:43Z</time>
      </trkpt>
      <trkpt lat="43.38885" lon="6.09421">
        <ele>341.51364135742</ele>
        <time>2014-12-10T13:22:55Z</time>
      </trkpt>
      <trkpt lat="43.38885" lon="6.09421">
        <ele>341.51062011719</ele>
        <time>2014-12-10T13:22:56Z</time>
      </trkpt>
      <trkpt lat="43.38883" lon="6.09422">
        <ele>341.27127075195</ele>
        <time>2014-12-10T13:23:01Z</time>
      </trkpt>
      <trkpt lat="43.38883" lon="6.09422">
        <ele>341.26831054688</ele>
        <time>2014-12-10T13:23:04Z</time>
      </trkpt>
      <trkpt lat="43.38883" lon="6.09422">
        <ele>341.19921875</ele>
        <time>2014-12-10T13:23:06Z</time>
      </trkpt>
      <trkpt lat="43.38883" lon="6.09422">
        <ele>341.17858886719</ele>
        <time>2014-12-10T13:23:11Z</time>
      </trkpt>
      <trkpt lat="43.38882" lon="6.09424">
        <ele>340.97152709961</ele>
        <time>2014-12-10T13:23:47Z</time>
      </trkpt>
      <trkpt lat="43.38882" lon="6.09424">
        <ele>340.9919128418</ele>
        <time>2014-12-10T13:23:52Z</time>
      </trkpt>
      <trkpt lat="43.38879" lon="6.09424">
        <ele>340.61126708984</ele>
        <time>2014-12-10T13:23:56Z</time>
      </trkpt>
      <trkpt lat="43.38877" lon="6.09425">
        <ele>340.2673034668</ele>
        <time>2014-12-10T13:23:58Z</time>
      </trkpt>
      <trkpt lat="43.38877" lon="6.09429">
        <ele>340.10305786133</ele>
        <time>2014-12-10T13:24:00Z</time>
      </trkpt>
      <trkpt lat="43.38876" lon="6.09438">
        <ele>339.47052001953</ele>
        <time>2014-12-10T13:24:05Z</time>
      </trkpt>
      <trkpt lat="43.38876" lon="6.0945">
        <ele>338.73327636719</ele>
        <time>2014-12-10T13:24:10Z</time>
      </trkpt>
      <trkpt lat="43.38875" lon="6.09457">
        <ele>338.28131103516</ele>
        <time>2014-12-10T13:24:12Z</time>
      </trkpt>
      <trkpt lat="43.38875" lon="6.09464">
        <ele>337.97485351562</ele>
        <time>2014-12-10T13:24:14Z</time>
      </trkpt>
      <trkpt lat="43.38875" lon="6.09475">
        <ele>337.38299560547</ele>
        <time>2014-12-10T13:24:18Z</time>
      </trkpt>
      <trkpt lat="43.38876" lon="6.09479">
        <ele>337.21630859375</ele>
        <time>2014-12-10T13:24:20Z</time>
      </trkpt>
      <trkpt lat="43.38877" lon="6.09481">
        <ele>337.18072509766</ele>
        <time>2014-12-10T13:24:25Z</time>
      </trkpt>
      <trkpt lat="43.38877" lon="6.09481">
        <ele>337.13375854492</ele>
        <time>2014-12-10T13:24:38Z</time>
      </trkpt>
      <trkpt lat="43.38877" lon="6.09481">
        <ele>337.12048339844</ele>
        <time>2014-12-10T13:25:02Z</time>
      </trkpt>
      <trkpt lat="43.38877" lon="6.09482">
        <ele>337.09124755859</ele>
        <time>2014-12-10T13:26:46Z</time>
      </trkpt>
      <trkpt lat="43.38877" lon="6.09482">
        <ele>337.0885925293</ele>
        <time>2014-12-10T13:26:53Z</time>
      </trkpt>
      <trkpt lat="43.38877" lon="6.09485">
        <ele>336.93988037109</ele>
        <time>2014-12-10T13:27:02Z</time>
      </trkpt>
      <trkpt lat="43.38876" lon="6.09491">
        <ele>336.55392456055</ele>
        <time>2014-12-10T13:27:05Z</time>
      </trkpt>
      <trkpt lat="43.38876" lon="6.09514">
        <ele>335.40264892578</ele>
        <time>2014-12-10T13:27:13Z</time>
      </trkpt>
      <trkpt lat="43.38877" lon="6.09539">
        <ele>334.15908813477</ele>
        <time>2014-12-10T13:27:19Z</time>
      </trkpt>
      <trkpt lat="43.38878" lon="6.09568">
        <ele>332.78729248047</ele>
        <time>2014-12-10T13:27:23Z</time>
      </trkpt>
      <trkpt lat="43.38879" lon="6.09575">
        <ele>332.41098022461</ele>
        <time>2014-12-10T13:27:24Z</time>
      </trkpt>
      <trkpt lat="43.38881" lon="6.0959">
        <ele>331.74017333984</ele>
        <time>2014-12-10T13:27:26Z</time>
      </trkpt>
      <trkpt lat="43.38885" lon="6.0961">
        <ele>330.97134399414</ele>
        <time>2014-12-10T13:27:29Z</time>
      </trkpt>
      <trkpt lat="43.38887" lon="6.09615">
        <ele>330.73370361328</ele>
        <time>2014-12-10T13:27:30Z</time>
      </trkpt>
      <trkpt lat="43.38895" lon="6.09628">
        <ele>330.15664672852</ele>
        <time>2014-12-10T13:27:33Z</time>
      </trkpt>
      <trkpt lat="43.38897" lon="6.09632">
        <ele>329.94787597656</ele>
        <time>2014-12-10T13:27:34Z</time>
      </trkpt>
      <trkpt lat="43.389" lon="6.09654">
        <ele>328.9387512207</ele>
        <time>2014-12-10T13:27:38Z</time>
      </trkpt>
      <trkpt lat="43.389" lon="6.09661">
        <ele>328.64849853516</ele>
        <time>2014-12-10T13:27:39Z</time>
      </trkpt>
      <trkpt lat="43.38901" lon="6.09682">
        <ele>327.87985229492</ele>
        <time>2014-12-10T13:27:42Z</time>
      </trkpt>
      <trkpt lat="43.38902" lon="6.09698">
        <ele>327.31805419922</ele>
        <time>2014-12-10T13:27:44Z</time>
      </trkpt>
      <trkpt lat="43.38905" lon="6.09738">
        <ele>325.84927368164</ele>
        <time>2014-12-10T13:27:49Z</time>
      </trkpt>
      <trkpt lat="43.38905" lon="6.09746">
        <ele>325.58786010742</ele>
        <time>2014-12-10T13:27:50Z</time>
      </trkpt>
      <trkpt lat="43.38903" lon="6.09765">
        <ele>324.67031860352</ele>
        <time>2014-12-10T13:27:52Z</time>
      </trkpt>
      <trkpt lat="43.38901" lon="6.09774">
        <ele>324.22009277344</ele>
        <time>2014-12-10T13:27:53Z</time>
      </trkpt>
      <trkpt lat="43.38892" lon="6.09812">
        <ele>322.59057617188</ele>
        <time>2014-12-10T13:27:57Z</time>
      </trkpt>
      <trkpt lat="43.3889" lon="6.09821">
        <ele>322.24923706055</ele>
        <time>2014-12-10T13:27:58Z</time>
      </trkpt>
      <trkpt lat="43.3889" lon="6.09831">
        <ele>321.71014404297</ele>
        <time>2014-12-10T13:27:59Z</time>
      </trkpt>
      <trkpt lat="43.38889" lon="6.09851">
        <ele>320.62463378906</ele>
        <time>2014-12-10T13:28:01Z</time>
      </trkpt>
      <trkpt lat="43.38889" lon="6.09862">
        <ele>320.10626220703</ele>
        <time>2014-12-10T13:28:02Z</time>
      </trkpt>
      <trkpt lat="43.38887" lon="6.09872">
        <ele>319.70138549805</ele>
        <time>2014-12-10T13:28:03Z</time>
      </trkpt>
      <trkpt lat="43.38885" lon="6.09881">
        <ele>319.36721801758</ele>
        <time>2014-12-10T13:28:04Z</time>
      </trkpt>
      <trkpt lat="43.38881" lon="6.09899">
        <ele>318.75631713867</ele>
        <time>2014-12-10T13:28:06Z</time>
      </trkpt>
      <trkpt lat="43.38874" lon="6.0993">
        <ele>317.59765625</ele>
        <time>2014-12-10T13:28:09Z</time>
      </trkpt>
      <trkpt lat="43.38873" lon="6.09939">
        <ele>317.06597900391</ele>
        <time>2014-12-10T13:28:10Z</time>
      </trkpt>
      <trkpt lat="43.3887" lon="6.09951">
        <ele>316.52395629883</ele>
        <time>2014-12-10T13:28:11Z</time>
      </trkpt>
      <trkpt lat="43.38867" lon="6.09972">
        <ele>315.48022460938</ele>
        <time>2014-12-10T13:28:13Z</time>
      </trkpt>
      <trkpt lat="43.38867" lon="6.09982">
        <ele>314.73120117188</ele>
        <time>2014-12-10T13:28:14Z</time>
      </trkpt>
      <trkpt lat="43.38866" lon="6.09994">
        <ele>314.16766357422</ele>
        <time>2014-12-10T13:28:15Z</time>
      </trkpt>
      <trkpt lat="43.38862" lon="6.10015">
        <ele>313.44805908203</ele>
        <time>2014-12-10T13:28:17Z</time>
      </trkpt>
      <trkpt lat="43.38857" lon="6.10039">
        <ele>312.62750244141</ele>
        <time>2014-12-10T13:28:19Z</time>
      </trkpt>
      <trkpt lat="43.38851" lon="6.10062">
        <ele>312.08276367188</ele>
        <time>2014-12-10T13:28:21Z</time>
      </trkpt>
      <trkpt lat="43.38844" lon="6.10085">
        <ele>311.87481689453</ele>
        <time>2014-12-10T13:28:23Z</time>
      </trkpt>
      <trkpt lat="43.38842" lon="6.10096">
        <ele>311.61465454102</ele>
        <time>2014-12-10T13:28:24Z</time>
      </trkpt>
      <trkpt lat="43.38839" lon="6.10109">
        <ele>311.39270019531</ele>
        <time>2014-12-10T13:28:25Z</time>
      </trkpt>
      <trkpt lat="43.38836" lon="6.10119">
        <ele>311.36282348633</ele>
        <time>2014-12-10T13:28:26Z</time>
      </trkpt>
      <trkpt lat="43.38832" lon="6.10132">
        <ele>310.87957763672</ele>
        <time>2014-12-10T13:28:28Z</time>
      </trkpt>
      <trkpt lat="43.38829" lon="6.10137">
        <ele>310.28869628906</ele>
        <time>2014-12-10T13:28:30Z</time>
      </trkpt>
      <trkpt lat="43.38829" lon="6.10137">
        <ele>310.28601074219</ele>
        <time>2014-12-10T13:28:31Z</time>
      </trkpt>
      <trkpt lat="43.3883" lon="6.10136">
        <ele>310.42642211914</ele>
        <time>2014-12-10T13:28:38Z</time>
      </trkpt>
      <trkpt lat="43.38829" lon="6.10137">
        <ele>310.37628173828</ele>
        <time>2014-12-10T13:28:54Z</time>
      </trkpt>
      <trkpt lat="43.38829" lon="6.10137">
        <ele>310.37359619141</ele>
        <time>2014-12-10T13:28:58Z</time>
      </trkpt>
      <trkpt lat="43.38827" lon="6.10145">
        <ele>309.66851806641</ele>
        <time>2014-12-10T13:29:08Z</time>
      </trkpt>
      <trkpt lat="43.38825" lon="6.10153">
        <ele>309.04537963867</ele>
        <time>2014-12-10T13:29:13Z</time>
      </trkpt>
      <trkpt lat="43.38827" lon="6.10158">
        <ele>308.96240234375</ele>
        <time>2014-12-10T13:29:19Z</time>
      </trkpt>
      <trkpt lat="43.3883" lon="6.10159">
        <ele>309.15823364258</ele>
        <time>2014-12-10T13:29:21Z</time>
      </trkpt>
      <trkpt lat="43.3883" lon="6.10159">
        <ele>309.13922119141</ele>
        <time>2014-12-10T13:29:23Z</time>
      </trkpt>
      <trkpt lat="43.38829" lon="6.10161">
        <ele>308.96002197266</ele>
        <time>2014-12-10T13:29:32Z</time>
      </trkpt>
      <trkpt lat="43.38828" lon="6.1016">
        <ele>308.94790649414</ele>
        <time>2014-12-10T13:29:44Z</time>
      </trkpt>
      <trkpt lat="43.38828" lon="6.10162">
        <ele>308.8108215332</ele>
        <time>2014-12-10T13:29:48Z</time>
      </trkpt>
      <trkpt lat="43.38828" lon="6.10167">
        <ele>308.52154541016</ele>
        <time>2014-12-10T13:29:51Z</time>
      </trkpt>
      <trkpt lat="43.38829" lon="6.10178">
        <ele>308.21435546875</ele>
        <time>2014-12-10T13:29:56Z</time>
      </trkpt>
      <trkpt lat="43.38828" lon="6.1018">
        <ele>308.11166381836</ele>
        <time>2014-12-10T13:29:57Z</time>
      </trkpt>
      <trkpt lat="43.38826" lon="6.10186">
        <ele>307.72717285156</ele>
        <time>2014-12-10T13:30:02Z</time>
      </trkpt>
      <trkpt lat="43.38825" lon="6.10189">
        <ele>307.56762695312</ele>
        <time>2014-12-10T13:30:08Z</time>
      </trkpt>
      <trkpt lat="43.38823" lon="6.10193">
        <ele>307.27182006836</ele>
        <time>2014-12-10T13:30:10Z</time>
      </trkpt>
      <trkpt lat="43.38821" lon="6.10196">
        <ele>307.08422851562</ele>
        <time>2014-12-10T13:30:14Z</time>
      </trkpt>
      <trkpt lat="43.38821" lon="6.10198">
        <ele>306.99267578125</ele>
        <time>2014-12-10T13:30:15Z</time>
      </trkpt>
      <trkpt lat="43.3882" lon="6.10203">
        <ele>306.80590820312</ele>
        <time>2014-12-10T13:30:17Z</time>
      </trkpt>
      <trkpt lat="43.38819" lon="6.10211">
        <ele>306.44805908203</ele>
        <time>2014-12-10T13:30:20Z</time>
      </trkpt>
      <trkpt lat="43.3882" lon="6.10222">
        <ele>306.20397949219</ele>
        <time>2014-12-10T13:30:23Z</time>
      </trkpt>
      <trkpt lat="43.38821" lon="6.10226">
        <ele>306.1116027832</ele>
        <time>2014-12-10T13:30:25Z</time>
      </trkpt>
      <trkpt lat="43.38822" lon="6.10229">
        <ele>306.11715698242</ele>
        <time>2014-12-10T13:30:26Z</time>
      </trkpt>
      <trkpt lat="43.38825" lon="6.10236">
        <ele>306.03051757812</ele>
        <time>2014-12-10T13:30:28Z</time>
      </trkpt>
      <trkpt lat="43.38824" lon="6.1024">
        <ele>305.88259887695</ele>
        <time>2014-12-10T13:30:29Z</time>
      </trkpt>
      <trkpt lat="43.38826" lon="6.10244">
        <ele>305.81460571289</ele>
        <time>2014-12-10T13:30:31Z</time>
      </trkpt>
      <trkpt lat="43.38826" lon="6.10252">
        <ele>305.6155090332</ele>
        <time>2014-12-10T13:30:33Z</time>
      </trkpt>
      <trkpt lat="43.38829" lon="6.10272">
        <ele>305.30123901367</ele>
        <time>2014-12-10T13:30:37Z</time>
      </trkpt>
      <trkpt lat="43.38832" lon="6.10294">
        <ele>304.88760375977</ele>
        <time>2014-12-10T13:30:42Z</time>
      </trkpt>
      <trkpt lat="43.38832" lon="6.10304">
        <ele>304.64859008789</ele>
        <time>2014-12-10T13:30:44Z</time>
      </trkpt>
      <trkpt lat="43.3883" lon="6.10324">
        <ele>304.15097045898</ele>
        <time>2014-12-10T13:30:47Z</time>
      </trkpt>
      <trkpt lat="43.38832" lon="6.10329">
        <ele>304.07586669922</ele>
        <time>2014-12-10T13:30:48Z</time>
      </trkpt>
      <trkpt lat="43.38832" lon="6.10349">
        <ele>303.59896850586</ele>
        <time>2014-12-10T13:30:51Z</time>
      </trkpt>
      <trkpt lat="43.38832" lon="6.1036">
        <ele>303.33630371094</ele>
        <time>2014-12-10T13:30:53Z</time>
      </trkpt>
      <trkpt lat="43.38832" lon="6.10365">
        <ele>303.23037719727</ele>
        <time>2014-12-10T13:30:54Z</time>
      </trkpt>
      <trkpt lat="43.38833" lon="6.10399">
        <ele>302.42593383789</ele>
        <time>2014-12-10T13:31:01Z</time>
      </trkpt>
      <trkpt lat="43.38832" lon="6.10413">
        <ele>302.0856628418</ele>
        <time>2014-12-10T13:31:03Z</time>
      </trkpt>
      <trkpt lat="43.3883" lon="6.1043">
        <ele>301.701171875</ele>
        <time>2014-12-10T13:31:05Z</time>
      </trkpt>
      <trkpt lat="43.38828" lon="6.10437">
        <ele>301.53381347656</ele>
        <time>2014-12-10T13:31:06Z</time>
      </trkpt>
      <trkpt lat="43.38827" lon="6.10455">
        <ele>301.14447021484</ele>
        <time>2014-12-10T13:31:08Z</time>
      </trkpt>
      <trkpt lat="43.38827" lon="6.10474">
        <ele>300.73974609375</ele>
        <time>2014-12-10T13:31:10Z</time>
      </trkpt>
      <trkpt lat="43.38825" lon="6.10483">
        <ele>300.55404663086</ele>
        <time>2014-12-10T13:31:11Z</time>
      </trkpt>
      <trkpt lat="43.38822" lon="6.105">
        <ele>300.27374267578</ele>
        <time>2014-12-10T13:31:13Z</time>
      </trkpt>
      <trkpt lat="43.38817" lon="6.10517">
        <ele>300.02395629883</ele>
        <time>2014-12-10T13:31:15Z</time>
      </trkpt>
      <trkpt lat="43.38814" lon="6.1053">
        <ele>299.82299804688</ele>
        <time>2014-12-10T13:31:17Z</time>
      </trkpt>
      <trkpt lat="43.38815" lon="6.10545">
        <ele>299.49639892578</ele>
        <time>2014-12-10T13:31:19Z</time>
      </trkpt>
      <trkpt lat="43.38813" lon="6.10552">
        <ele>299.40515136719</ele>
        <time>2014-12-10T13:31:20Z</time>
      </trkpt>
      <trkpt lat="43.3881" lon="6.10558">
        <ele>299.35290527344</ele>
        <time>2014-12-10T13:31:21Z</time>
      </trkpt>
      <trkpt lat="43.38808" lon="6.10571">
        <ele>299.15466308594</ele>
        <time>2014-12-10T13:31:24Z</time>
      </trkpt>
      <trkpt lat="43.38806" lon="6.10588">
        <ele>298.92791748047</ele>
        <time>2014-12-10T13:31:27Z</time>
      </trkpt>
      <trkpt lat="43.38804" lon="6.10599">
        <ele>298.86727905273</ele>
        <time>2014-12-10T13:31:29Z</time>
      </trkpt>
      <trkpt lat="43.38799" lon="6.10624">
        <ele>298.76141357422</ele>
        <time>2014-12-10T13:31:33Z</time>
      </trkpt>
      <trkpt lat="43.38797" lon="6.10635">
        <ele>298.68243408203</ele>
        <time>2014-12-10T13:31:35Z</time>
      </trkpt>
      <trkpt lat="43.38797" lon="6.10638">
        <ele>298.65783691406</ele>
        <time>2014-12-10T13:31:36Z</time>
      </trkpt>
      <trkpt lat="43.38795" lon="6.10648">
        <ele>298.60461425781</ele>
        <time>2014-12-10T13:31:41Z</time>
      </trkpt>
      <trkpt lat="43.38791" lon="6.10664">
        <ele>298.57830810547</ele>
        <time>2014-12-10T13:31:46Z</time>
      </trkpt>
      <trkpt lat="43.38785" lon="6.10689">
        <ele>298.25640869141</ele>
        <time>2014-12-10T13:31:51Z</time>
      </trkpt>
      <trkpt lat="43.38781" lon="6.10706">
        <ele>298.08511352539</ele>
        <time>2014-12-10T13:31:54Z</time>
      </trkpt>
      <trkpt lat="43.38779" lon="6.10719">
        <ele>297.89492797852</ele>
        <time>2014-12-10T13:31:56Z</time>
      </trkpt>
      <trkpt lat="43.38775" lon="6.1074">
        <ele>297.69213867188</ele>
        <time>2014-12-10T13:32:01Z</time>
      </trkpt>
      <trkpt lat="43.38774" lon="6.10755">
        <ele>297.55346679688</ele>
        <time>2014-12-10T13:32:05Z</time>
      </trkpt>
      <trkpt lat="43.38773" lon="6.10756">
        <ele>297.64501953125</ele>
        <time>2014-12-10T13:32:06Z</time>
      </trkpt>
      <trkpt lat="43.38772" lon="6.10757">
        <ele>297.69079589844</ele>
        <time>2014-12-10T13:32:09Z</time>
      </trkpt>
      <trkpt lat="43.38772" lon="6.10757">
        <ele>297.69079589844</ele>
        <time>2014-12-10T13:32:17Z</time>
      </trkpt>
      <trkpt lat="43.3877" lon="6.10758">
        <ele>297.80523681641</ele>
        <time>2014-12-10T13:32:22Z</time>
      </trkpt>
      <trkpt lat="43.38763" lon="6.10763">
        <ele>298.1943359375</ele>
        <time>2014-12-10T13:32:26Z</time>
      </trkpt>
      <trkpt lat="43.38762" lon="6.10763">
        <ele>298.26300048828</ele>
        <time>2014-12-10T13:32:27Z</time>
      </trkpt>
      <trkpt lat="43.38761" lon="6.10763">
        <ele>298.35455322266</ele>
        <time>2014-12-10T13:32:28Z</time>
      </trkpt>
      <trkpt lat="43.38757" lon="6.10763">
        <ele>298.58343505859</ele>
        <time>2014-12-10T13:32:30Z</time>
      </trkpt>
      <trkpt lat="43.38752" lon="6.10765">
        <ele>298.90386962891</ele>
        <time>2014-12-10T13:32:33Z</time>
      </trkpt>
      <trkpt lat="43.38748" lon="6.10766">
        <ele>298.9560546875</ele>
        <time>2014-12-10T13:32:35Z</time>
      </trkpt>
      <trkpt lat="43.38746" lon="6.10767">
        <ele>298.91027832031</ele>
        <time>2014-12-10T13:32:37Z</time>
      </trkpt>
      <trkpt lat="43.38743" lon="6.1077">
        <ele>298.83703613281</ele>
        <time>2014-12-10T13:32:39Z</time>
      </trkpt>
      <trkpt lat="43.38741" lon="6.10776">
        <ele>298.78210449219</ele>
        <time>2014-12-10T13:32:42Z</time>
      </trkpt>
      <trkpt lat="43.38741" lon="6.1078">
        <ele>298.77294921875</ele>
        <time>2014-12-10T13:32:44Z</time>
      </trkpt>
      <trkpt lat="43.38736" lon="6.10787">
        <ele>298.65393066406</ele>
        <time>2014-12-10T13:32:47Z</time>
      </trkpt>
      <trkpt lat="43.38734" lon="6.10789">
        <ele>298.60815429688</ele>
        <time>2014-12-10T13:32:48Z</time>
      </trkpt>
      <trkpt lat="43.38717" lon="6.10801">
        <ele>298.19616699219</ele>
        <time>2014-12-10T13:32:55Z</time>
      </trkpt>
      <trkpt lat="43.38713" lon="6.10804">
        <ele>298.12292480469</ele>
        <time>2014-12-10T13:32:57Z</time>
      </trkpt>
      <trkpt lat="43.38709" lon="6.10809">
        <ele>298.01306152344</ele>
        <time>2014-12-10T13:33:00Z</time>
      </trkpt>
      <trkpt lat="43.387" lon="6.10825">
        <ele>297.81164550781</ele>
        <time>2014-12-10T13:33:05Z</time>
      </trkpt>
      <trkpt lat="43.38699" lon="6.10834">
        <ele>297.77239990234</ele>
        <time>2014-12-10T13:33:07Z</time>
      </trkpt>
      <trkpt lat="43.38696" lon="6.10844">
        <ele>297.7922668457</ele>
        <time>2014-12-10T13:33:09Z</time>
      </trkpt>
      <trkpt lat="43.3869" lon="6.10874">
        <ele>297.90686035156</ele>
        <time>2014-12-10T13:33:16Z</time>
      </trkpt>
      <trkpt lat="43.38684" lon="6.10891">
        <ele>297.96307373047</ele>
        <time>2014-12-10T13:33:21Z</time>
      </trkpt>
      <trkpt lat="43.38678" lon="6.10915">
        <ele>298.11889648438</ele>
        <time>2014-12-10T13:33:28Z</time>
      </trkpt>
      <trkpt lat="43.38673" lon="6.10936">
        <ele>298.29586791992</ele>
        <time>2014-12-10T13:33:34Z</time>
      </trkpt>
      <trkpt lat="43.38668" lon="6.10964">
        <ele>298.57086181641</ele>
        <time>2014-12-10T13:33:42Z</time>
      </trkpt>
      <trkpt lat="43.38666" lon="6.10987">
        <ele>298.79318237305</ele>
        <time>2014-12-10T13:33:48Z</time>
      </trkpt>
      <trkpt lat="43.3866" lon="6.11005">
        <ele>298.61181640625</ele>
        <time>2014-12-10T13:33:54Z</time>
      </trkpt>
      <trkpt lat="43.38658" lon="6.11005">
        <ele>298.50119018555</ele>
        <time>2014-12-10T13:33:55Z</time>
      </trkpt>
      <trkpt lat="43.38653" lon="6.11004">
        <ele>298.18280029297</ele>
        <time>2014-12-10T13:33:58Z</time>
      </trkpt>
      <trkpt lat="43.38647" lon="6.11004">
        <ele>297.84878540039</ele>
        <time>2014-12-10T13:34:01Z</time>
      </trkpt>
      <trkpt lat="43.38645" lon="6.11005">
        <ele>297.72177124023</ele>
        <time>2014-12-10T13:34:03Z</time>
      </trkpt>
      <trkpt lat="43.3864" lon="6.11008">
        <ele>297.45153808594</ele>
        <time>2014-12-10T13:34:07Z</time>
      </trkpt>
      <trkpt lat="43.38637" lon="6.11006">
        <ele>297.25738525391</ele>
        <time>2014-12-10T13:34:09Z</time>
      </trkpt>
      <trkpt lat="43.38629" lon="6.10999">
        <ele>296.72601318359</ele>
        <time>2014-12-10T13:34:15Z</time>
      </trkpt>
      <trkpt lat="43.38619" lon="6.10992">
        <ele>296.01052856445</ele>
        <time>2014-12-10T13:34:21Z</time>
      </trkpt>
      <trkpt lat="43.38607" lon="6.10988">
        <ele>295.18225097656</ele>
        <time>2014-12-10T13:34:27Z</time>
      </trkpt>
      <trkpt lat="43.38602" lon="6.10987">
        <ele>294.81823730469</ele>
        <time>2014-12-10T13:34:32Z</time>
      </trkpt>
      <trkpt lat="43.38601" lon="6.10987">
        <ele>294.76998901367</ele>
        <time>2014-12-10T13:34:39Z</time>
      </trkpt>
      <trkpt lat="43.38601" lon="6.10987">
        <ele>294.76998901367</ele>
        <time>2014-12-10T13:34:44Z</time>
      </trkpt>
      <trkpt lat="43.38601" lon="6.10987">
        <ele>294.76794433594</ele>
        <time>2014-12-10T13:34:58Z</time>
      </trkpt>
      <trkpt lat="43.38601" lon="6.10987">
        <ele>294.7658996582</ele>
        <time>2014-12-10T13:35:03Z</time>
      </trkpt>
      <trkpt lat="43.38601" lon="6.10987">
        <ele>294.76794433594</ele>
        <time>2014-12-10T13:35:13Z</time>
      </trkpt>
      <trkpt lat="43.38601" lon="6.10987">
        <ele>294.76690673828</ele>
        <time>2014-12-10T13:35:29Z</time>
      </trkpt>
      <trkpt lat="43.38601" lon="6.10987">
        <ele>294.76794433594</ele>
        <time>2014-12-10T13:35:40Z</time>
      </trkpt>
      <trkpt lat="43.38599" lon="6.10987">
        <ele>294.62826538086</ele>
        <time>2014-12-10T13:35:44Z</time>
      </trkpt>
      <trkpt lat="43.38594" lon="6.10987">
        <ele>294.3576965332</ele>
        <time>2014-12-10T13:35:46Z</time>
      </trkpt>
      <trkpt lat="43.38581" lon="6.10987">
        <ele>293.51950073242</ele>
        <time>2014-12-10T13:35:50Z</time>
      </trkpt>
      <trkpt lat="43.38568" lon="6.10987">
        <ele>292.5537109375</ele>
        <time>2014-12-10T13:35:53Z</time>
      </trkpt>
      <trkpt lat="43.38563" lon="6.10985">
        <ele>292.12161254883</ele>
        <time>2014-12-10T13:35:54Z</time>
      </trkpt>
      <trkpt lat="43.38558" lon="6.10983">
        <ele>291.68405151367</ele>
        <time>2014-12-10T13:35:55Z</time>
      </trkpt>
      <trkpt lat="43.38548" lon="6.10978">
        <ele>290.79815673828</ele>
        <time>2014-12-10T13:35:57Z</time>
      </trkpt>
      <trkpt lat="43.38537" lon="6.10972">
        <ele>289.83255004883</ele>
        <time>2014-12-10T13:35:59Z</time>
      </trkpt>
      <trkpt lat="43.38517" lon="6.10966">
        <ele>288.06066894531</ele>
        <time>2014-12-10T13:36:02Z</time>
      </trkpt>
      <trkpt lat="43.38509" lon="6.10965">
        <ele>287.42623901367</ele>
        <time>2014-12-10T13:36:03Z</time>
      </trkpt>
      <trkpt lat="43.38503" lon="6.10963">
        <ele>286.87442016602</ele>
        <time>2014-12-10T13:36:04Z</time>
      </trkpt>
      <trkpt lat="43.38491" lon="6.10959">
        <ele>286.25866699219</ele>
        <time>2014-12-10T13:36:06Z</time>
      </trkpt>
      <trkpt lat="43.38486" lon="6.10958">
        <ele>286.06915283203</ele>
        <time>2014-12-10T13:36:07Z</time>
      </trkpt>
      <trkpt lat="43.38484" lon="6.10957">
        <ele>285.98919677734</ele>
        <time>2014-12-10T13:36:08Z</time>
      </trkpt>
      <trkpt lat="43.38481" lon="6.10958">
        <ele>285.92178344727</ele>
        <time>2014-12-10T13:36:10Z</time>
      </trkpt>
      <trkpt lat="43.38467" lon="6.10956">
        <ele>285.40557861328</ele>
        <time>2014-12-10T13:36:15Z</time>
      </trkpt>
      <trkpt lat="43.38456" lon="6.10956">
        <ele>285.0124206543</ele>
        <time>2014-12-10T13:36:18Z</time>
      </trkpt>
      <trkpt lat="43.38451" lon="6.10955">
        <ele>284.81936645508</ele>
        <time>2014-12-10T13:36:19Z</time>
      </trkpt>
      <trkpt lat="43.38442" lon="6.10952">
        <ele>284.40676879883</ele>
        <time>2014-12-10T13:36:21Z</time>
      </trkpt>
      <trkpt lat="43.38428" lon="6.10949">
        <ele>283.72369384766</ele>
        <time>2014-12-10T13:36:24Z</time>
      </trkpt>
      <trkpt lat="43.38423" lon="6.10948">
        <ele>283.48892211914</ele>
        <time>2014-12-10T13:36:25Z</time>
      </trkpt>
      <trkpt lat="43.38413" lon="6.10944">
        <ele>283.00479125977</ele>
        <time>2014-12-10T13:36:27Z</time>
      </trkpt>
      <trkpt lat="43.38392" lon="6.10936">
        <ele>282.60864257812</ele>
        <time>2014-12-10T13:36:31Z</time>
      </trkpt>
      <trkpt lat="43.38387" lon="6.10934">
        <ele>282.55139160156</ele>
        <time>2014-12-10T13:36:32Z</time>
      </trkpt>
      <trkpt lat="43.3836" lon="6.10927">
        <ele>282.33804321289</ele>
        <time>2014-12-10T13:36:37Z</time>
      </trkpt>
      <trkpt lat="43.38355" lon="6.10926">
        <ele>282.32693481445</ele>
        <time>2014-12-10T13:36:38Z</time>
      </trkpt>
      <trkpt lat="43.38329" lon="6.10919">
        <ele>282.02676391602</ele>
        <time>2014-12-10T13:36:43Z</time>
      </trkpt>
      <trkpt lat="43.38313" lon="6.10914">
        <ele>281.43096923828</ele>
        <time>2014-12-10T13:36:46Z</time>
      </trkpt>
      <trkpt lat="43.3829" lon="6.10908">
        <ele>280.77236938477</ele>
        <time>2014-12-10T13:36:50Z</time>
      </trkpt>
      <trkpt lat="43.3825" lon="6.10899">
        <ele>279.78823852539</ele>
        <time>2014-12-10T13:36:57Z</time>
      </trkpt>
      <trkpt lat="43.38219" lon="6.1089">
        <ele>279.68179321289</ele>
        <time>2014-12-10T13:37:03Z</time>
      </trkpt>
      <trkpt lat="43.38204" lon="6.10886">
        <ele>279.63031005859</ele>
        <time>2014-12-10T13:37:08Z</time>
      </trkpt>
      <trkpt lat="43.38202" lon="6.10887">
        <ele>279.64117431641</ele>
        <time>2014-12-10T13:37:11Z</time>
      </trkpt>
      <trkpt lat="43.38201" lon="6.10887">
        <ele>279.64691162109</ele>
        <time>2014-12-10T13:37:12Z</time>
      </trkpt>
      <trkpt lat="43.38199" lon="6.10897">
        <ele>279.76077270508</ele>
        <time>2014-12-10T13:37:16Z</time>
      </trkpt>
      <trkpt lat="43.38197" lon="6.10915">
        <ele>279.97705078125</ele>
        <time>2014-12-10T13:37:21Z</time>
      </trkpt>
      <trkpt lat="43.38196" lon="6.10919">
        <ele>280.03802490234</ele>
        <time>2014-12-10T13:37:22Z</time>
      </trkpt>
      <trkpt lat="43.38195" lon="6.10924">
        <ele>280.14013671875</ele>
        <time>2014-12-10T13:37:23Z</time>
      </trkpt>
      <trkpt lat="43.3819" lon="6.10949">
        <ele>280.60049438477</ele>
        <time>2014-12-10T13:37:28Z</time>
      </trkpt>
      <trkpt lat="43.38187" lon="6.10964">
        <ele>280.84924316406</ele>
        <time>2014-12-10T13:37:31Z</time>
      </trkpt>
      <trkpt lat="43.38186" lon="6.10969">
        <ele>280.92202758789</ele>
        <time>2014-12-10T13:37:32Z</time>
      </trkpt>
      <trkpt lat="43.38181" lon="6.10997">
        <ele>281.30090332031</ele>
        <time>2014-12-10T13:37:40Z</time>
      </trkpt>
      <trkpt lat="43.38177" lon="6.11004">
        <ele>281.39471435547</ele>
        <time>2014-12-10T13:37:46Z</time>
      </trkpt>
      <trkpt lat="43.38175" lon="6.11005">
        <ele>281.37640380859</ele>
        <time>2014-12-10T13:37:47Z</time>
      </trkpt>
      <trkpt lat="43.38173" lon="6.11009">
        <ele>281.44677734375</ele>
        <time>2014-12-10T13:37:50Z</time>
      </trkpt>
      <trkpt lat="43.38171" lon="6.11011">
        <ele>281.50857543945</ele>
        <time>2014-12-10T13:37:51Z</time>
      </trkpt>
      <trkpt lat="43.3817" lon="6.11024">
        <ele>281.96691894531</ele>
        <time>2014-12-10T13:37:55Z</time>
      </trkpt>
      <trkpt lat="43.3817" lon="6.11028">
        <ele>282.08651733398</ele>
        <time>2014-12-10T13:37:56Z</time>
      </trkpt>
      <trkpt lat="43.38165" lon="6.11051">
        <ele>282.92376708984</ele>
        <time>2014-12-10T13:38:03Z</time>
      </trkpt>
      <trkpt lat="43.38163" lon="6.11063">
        <ele>283.45852661133</ele>
        <time>2014-12-10T13:38:07Z</time>
      </trkpt>
      <trkpt lat="43.3816" lon="6.11072">
        <ele>283.89395141602</ele>
        <time>2014-12-10T13:38:10Z</time>
      </trkpt>
      <trkpt lat="43.38157" lon="6.11092">
        <ele>284.73452758789</ele>
        <time>2014-12-10T13:38:16Z</time>
      </trkpt>
      <trkpt lat="43.38148" lon="6.1111">
        <ele>285.76708984375</ele>
        <time>2014-12-10T13:38:22Z</time>
      </trkpt>
      <trkpt lat="43.3814" lon="6.11121">
        <ele>286.46710205078</ele>
        <time>2014-12-10T13:38:26Z</time>
      </trkpt>
      <trkpt lat="43.38133" lon="6.11129">
        <ele>287.04739379883</ele>
        <time>2014-12-10T13:38:30Z</time>
      </trkpt>
      <trkpt lat="43.38112" lon="6.1115">
        <ele>288.50073242188</ele>
        <time>2014-12-10T13:38:41Z</time>
      </trkpt>
      <trkpt lat="43.38102" lon="6.11163">
        <ele>289.25561523438</ele>
        <time>2014-12-10T13:38:48Z</time>
      </trkpt>
      <trkpt lat="43.38092" lon="6.11173">
        <ele>289.85821533203</ele>
        <time>2014-12-10T13:38:54Z</time>
      </trkpt>
      <trkpt lat="43.38089" lon="6.11177">
        <ele>290.04931640625</ele>
        <time>2014-12-10T13:38:56Z</time>
      </trkpt>
      <trkpt lat="43.38079" lon="6.11186">
        <ele>290.47381591797</ele>
        <time>2014-12-10T13:39:02Z</time>
      </trkpt>
      <trkpt lat="43.38077" lon="6.11188">
        <ele>290.51959228516</ele>
        <time>2014-12-10T13:39:03Z</time>
      </trkpt>
      <trkpt lat="43.38067" lon="6.11196">
        <ele>290.69812011719</ele>
        <time>2014-12-10T13:39:08Z</time>
      </trkpt>
      <trkpt lat="43.38058" lon="6.11206">
        <ele>290.94073486328</ele>
        <time>2014-12-10T13:39:13Z</time>
      </trkpt>
      <trkpt lat="43.38051" lon="6.11218">
        <ele>291.22338867188</ele>
        <time>2014-12-10T13:39:16Z</time>
      </trkpt>
      <trkpt lat="43.38047" lon="6.11225">
        <ele>291.39849853516</ele>
        <time>2014-12-10T13:39:18Z</time>
      </trkpt>
      <trkpt lat="43.38039" lon="6.11242">
        <ele>291.80706787109</ele>
        <time>2014-12-10T13:39:22Z</time>
      </trkpt>
      <trkpt lat="43.38036" lon="6.11246">
        <ele>291.90545654297</ele>
        <time>2014-12-10T13:39:23Z</time>
      </trkpt>
      <trkpt lat="43.38029" lon="6.11261">
        <ele>292.26824951172</ele>
        <time>2014-12-10T13:39:28Z</time>
      </trkpt>
      <trkpt lat="43.38026" lon="6.11268">
        <ele>292.42272949219</ele>
        <time>2014-12-10T13:39:30Z</time>
      </trkpt>
      <trkpt lat="43.38025" lon="6.11272">
        <ele>292.5166015625</ele>
        <time>2014-12-10T13:39:32Z</time>
      </trkpt>
      <trkpt lat="43.38023" lon="6.11276">
        <ele>292.61956787109</ele>
        <time>2014-12-10T13:39:34Z</time>
      </trkpt>
      <trkpt lat="43.38023" lon="6.1128">
        <ele>292.70886230469</ele>
        <time>2014-12-10T13:39:35Z</time>
      </trkpt>
      <trkpt lat="43.3802" lon="6.11286">
        <ele>292.85760498047</ele>
        <time>2014-12-10T13:39:38Z</time>
      </trkpt>
      <trkpt lat="43.38013" lon="6.11302">
        <ele>293.23754882812</ele>
        <time>2014-12-10T13:39:43Z</time>
      </trkpt>
      <trkpt lat="43.38006" lon="6.11315">
        <ele>293.56372070312</ele>
        <time>2014-12-10T13:39:47Z</time>
      </trkpt>
      <trkpt lat="43.38004" lon="6.11319">
        <ele>293.64953613281</ele>
        <time>2014-12-10T13:39:48Z</time>
      </trkpt>
      <trkpt lat="43.37997" lon="6.11331">
        <ele>293.85137939453</ele>
        <time>2014-12-10T13:39:52Z</time>
      </trkpt>
      <trkpt lat="43.37989" lon="6.11348">
        <ele>293.94293212891</ele>
        <time>2014-12-10T13:39:58Z</time>
      </trkpt>
      <trkpt lat="43.37974" lon="6.11369">
        <ele>293.93493652344</ele>
        <time>2014-12-10T13:40:06Z</time>
      </trkpt>
      <trkpt lat="43.37963" lon="6.11382">
        <ele>293.84564208984</ele>
        <time>2014-12-10T13:40:12Z</time>
      </trkpt>
      <trkpt lat="43.37951" lon="6.11398">
        <ele>293.78271484375</ele>
        <time>2014-12-10T13:40:19Z</time>
      </trkpt>
      <trkpt lat="43.37947" lon="6.11402">
        <ele>293.76669311523</ele>
        <time>2014-12-10T13:40:21Z</time>
      </trkpt>
      <trkpt lat="43.37939" lon="6.11414">
        <ele>293.73236083984</ele>
        <time>2014-12-10T13:40:26Z</time>
      </trkpt>
      <trkpt lat="43.37928" lon="6.11426">
        <ele>293.64767456055</ele>
        <time>2014-12-10T13:40:30Z</time>
      </trkpt>
      <trkpt lat="43.37922" lon="6.11433">
        <ele>293.59387207031</ele>
        <time>2014-12-10T13:40:32Z</time>
      </trkpt>
      <trkpt lat="43.37908" lon="6.11451">
        <ele>293.61572265625</ele>
        <time>2014-12-10T13:40:37Z</time>
      </trkpt>
      <trkpt lat="43.37891" lon="6.11461">
        <ele>293.45318603516</ele>
        <time>2014-12-10T13:40:42Z</time>
      </trkpt>
      <trkpt lat="43.37871" lon="6.11466">
        <ele>293.07897949219</ele>
        <time>2014-12-10T13:40:48Z</time>
      </trkpt>
      <trkpt lat="43.37857" lon="6.11477">
        <ele>293.03436279297</ele>
        <time>2014-12-10T13:40:53Z</time>
      </trkpt>
      <trkpt lat="43.37854" lon="6.11484">
        <ele>293.10415649414</ele>
        <time>2014-12-10T13:40:55Z</time>
      </trkpt>
      <trkpt lat="43.37849" lon="6.11493">
        <ele>293.20486450195</ele>
        <time>2014-12-10T13:40:58Z</time>
      </trkpt>
      <trkpt lat="43.37846" lon="6.11499">
        <ele>293.29528808594</ele>
        <time>2014-12-10T13:41:00Z</time>
      </trkpt>
      <trkpt lat="43.37845" lon="6.11502">
        <ele>293.34332275391</ele>
        <time>2014-12-10T13:41:01Z</time>
      </trkpt>
      <trkpt lat="43.37843" lon="6.11507">
        <ele>293.41314697266</ele>
        <time>2014-12-10T13:41:03Z</time>
      </trkpt>
      <trkpt lat="43.37841" lon="6.11514">
        <ele>293.52874755859</ele>
        <time>2014-12-10T13:41:05Z</time>
      </trkpt>
      <trkpt lat="43.37835" lon="6.11536">
        <ele>293.88464355469</ele>
        <time>2014-12-10T13:41:11Z</time>
      </trkpt>
      <trkpt lat="43.37834" lon="6.11538">
        <ele>293.93499755859</ele>
        <time>2014-12-10T13:41:12Z</time>
      </trkpt>
      <trkpt lat="43.37828" lon="6.1155">
        <ele>294.25057983398</ele>
        <time>2014-12-10T13:41:16Z</time>
      </trkpt>
      <trkpt lat="43.37827" lon="6.11553">
        <ele>294.34558105469</ele>
        <time>2014-12-10T13:41:17Z</time>
      </trkpt>
      <trkpt lat="43.3782" lon="6.11564">
        <ele>294.69918823242</ele>
        <time>2014-12-10T13:41:21Z</time>
      </trkpt>
      <trkpt lat="43.37807" lon="6.11578">
        <ele>295.1787109375</ele>
        <time>2014-12-10T13:41:27Z</time>
      </trkpt>
      <trkpt lat="43.37798" lon="6.11589">
        <ele>295.59954833984</ele>
        <time>2014-12-10T13:41:31Z</time>
      </trkpt>
      <trkpt lat="43.37794" lon="6.11595">
        <ele>295.83624267578</ele>
        <time>2014-12-10T13:41:33Z</time>
      </trkpt>
      <trkpt lat="43.37783" lon="6.1161">
        <ele>296.43893432617</ele>
        <time>2014-12-10T13:41:38Z</time>
      </trkpt>
      <trkpt lat="43.37772" lon="6.11628">
        <ele>297.19906616211</ele>
        <time>2014-12-10T13:41:44Z</time>
      </trkpt>
      <trkpt lat="43.37766" lon="6.11647">
        <ele>297.94888305664</ele>
        <time>2014-12-10T13:41:49Z</time>
      </trkpt>
      <trkpt lat="43.37758" lon="6.11662">
        <ele>298.63632202148</ele>
        <time>2014-12-10T13:41:54Z</time>
      </trkpt>
      <trkpt lat="43.37755" lon="6.11668">
        <ele>298.98040771484</ele>
        <time>2014-12-10T13:41:56Z</time>
      </trkpt>
      <trkpt lat="43.37748" lon="6.11682">
        <ele>300.00454711914</ele>
        <time>2014-12-10T13:42:00Z</time>
      </trkpt>
      <trkpt lat="43.37739" lon="6.11697">
        <ele>301.41333007812</ele>
        <time>2014-12-10T13:42:05Z</time>
      </trkpt>
      <trkpt lat="43.37738" lon="6.11701">
        <ele>301.71722412109</ele>
        <time>2014-12-10T13:42:06Z</time>
      </trkpt>
      <trkpt lat="43.37729" lon="6.11719">
        <ele>303.30908203125</ele>
        <time>2014-12-10T13:42:12Z</time>
      </trkpt>
      <trkpt lat="43.37725" lon="6.11726">
        <ele>303.92687988281</ele>
        <time>2014-12-10T13:42:14Z</time>
      </trkpt>
      <trkpt lat="43.37717" lon="6.11742">
        <ele>305.45291137695</ele>
        <time>2014-12-10T13:42:20Z</time>
      </trkpt>
      <trkpt lat="43.37715" lon="6.11748">
        <ele>305.95147705078</ele>
        <time>2014-12-10T13:42:22Z</time>
      </trkpt>
      <trkpt lat="43.37711" lon="6.11756">
        <ele>306.75521850586</ele>
        <time>2014-12-10T13:42:25Z</time>
      </trkpt>
      <trkpt lat="43.37704" lon="6.11773">
        <ele>308.22540283203</ele>
        <time>2014-12-10T13:42:31Z</time>
      </trkpt>
      <trkpt lat="43.37702" lon="6.11777">
        <ele>308.58071899414</ele>
        <time>2014-12-10T13:42:33Z</time>
      </trkpt>
      <trkpt lat="43.37698" lon="6.11787">
        <ele>309.40179443359</ele>
        <time>2014-12-10T13:42:37Z</time>
      </trkpt>
      <trkpt lat="43.37695" lon="6.11795">
        <ele>310.02597045898</ele>
        <time>2014-12-10T13:42:40Z</time>
      </trkpt>
      <trkpt lat="43.37691" lon="6.11804">
        <ele>310.71823120117</ele>
        <time>2014-12-10T13:42:44Z</time>
      </trkpt>
      <trkpt lat="43.37687" lon="6.11817">
        <ele>311.6057434082</ele>
        <time>2014-12-10T13:42:49Z</time>
      </trkpt>
      <trkpt lat="43.37685" lon="6.11821">
        <ele>311.89352416992</ele>
        <time>2014-12-10T13:42:51Z</time>
      </trkpt>
      <trkpt lat="43.3768" lon="6.11829">
        <ele>312.48080444336</ele>
        <time>2014-12-10T13:42:54Z</time>
      </trkpt>
      <trkpt lat="43.37674" lon="6.11839">
        <ele>313.17376708984</ele>
        <time>2014-12-10T13:42:59Z</time>
      </trkpt>
      <trkpt lat="43.37668" lon="6.11847">
        <ele>313.79403686523</ele>
        <time>2014-12-10T13:43:03Z</time>
      </trkpt>
      <trkpt lat="43.37661" lon="6.11855">
        <ele>314.80581665039</ele>
        <time>2014-12-10T13:43:07Z</time>
      </trkpt>
      <trkpt lat="43.3766" lon="6.11857">
        <ele>315.06567382812</ele>
        <time>2014-12-10T13:43:08Z</time>
      </trkpt>
      <trkpt lat="43.3765" lon="6.11872">
        <ele>316.82397460938</ele>
        <time>2014-12-10T13:43:15Z</time>
      </trkpt>
      <trkpt lat="43.37648" lon="6.11876">
        <ele>317.2096862793</ele>
        <time>2014-12-10T13:43:17Z</time>
      </trkpt>
      <trkpt lat="43.37646" lon="6.11877">
        <ele>317.48455810547</ele>
        <time>2014-12-10T13:43:18Z</time>
      </trkpt>
      <trkpt lat="43.3764" lon="6.11888">
        <ele>318.65042114258</ele>
        <time>2014-12-10T13:43:23Z</time>
      </trkpt>
      <trkpt lat="43.37639" lon="6.1189">
        <ele>318.83932495117</ele>
        <time>2014-12-10T13:43:24Z</time>
      </trkpt>
      <trkpt lat="43.37633" lon="6.11898">
        <ele>319.79336547852</ele>
        <time>2014-12-10T13:43:29Z</time>
      </trkpt>
      <trkpt lat="43.3763" lon="6.11902">
        <ele>320.28497314453</ele>
        <time>2014-12-10T13:43:32Z</time>
      </trkpt>
      <trkpt lat="43.37629" lon="6.11903">
        <ele>320.44854736328</ele>
        <time>2014-12-10T13:43:33Z</time>
      </trkpt>
      <trkpt lat="43.37628" lon="6.11905">
        <ele>320.65423583984</ele>
        <time>2014-12-10T13:43:34Z</time>
      </trkpt>
      <trkpt lat="43.37626" lon="6.11907">
        <ele>320.87014770508</ele>
        <time>2014-12-10T13:43:35Z</time>
      </trkpt>
      <trkpt lat="43.37623" lon="6.11912">
        <ele>321.38442993164</ele>
        <time>2014-12-10T13:43:37Z</time>
      </trkpt>
      <trkpt lat="43.37617" lon="6.1192">
        <ele>322.31369018555</ele>
        <time>2014-12-10T13:43:41Z</time>
      </trkpt>
      <trkpt lat="43.37611" lon="6.11932">
        <ele>323.49203491211</ele>
        <time>2014-12-10T13:43:47Z</time>
      </trkpt>
      <trkpt lat="43.37607" lon="6.11938">
        <ele>324.21957397461</ele>
        <time>2014-12-10T13:43:52Z</time>
      </trkpt>
      <trkpt lat="43.37602" lon="6.11946">
        <ele>324.98568725586</ele>
        <time>2014-12-10T13:43:55Z</time>
      </trkpt>
      <trkpt lat="43.37599" lon="6.11952">
        <ele>325.5576171875</ele>
        <time>2014-12-10T13:43:58Z</time>
      </trkpt>
      <trkpt lat="43.37597" lon="6.11955">
        <ele>325.88708496094</ele>
        <time>2014-12-10T13:44:00Z</time>
      </trkpt>
      <trkpt lat="43.37592" lon="6.11959">
        <ele>326.37396240234</ele>
        <time>2014-12-10T13:44:03Z</time>
      </trkpt>
      <trkpt lat="43.37587" lon="6.11964">
        <ele>327.05828857422</ele>
        <time>2014-12-10T13:44:07Z</time>
      </trkpt>
      <trkpt lat="43.37585" lon="6.11965">
        <ele>327.22103881836</ele>
        <time>2014-12-10T13:44:08Z</time>
      </trkpt>
      <trkpt lat="43.3758" lon="6.1197">
        <ele>328.04525756836</ele>
        <time>2014-12-10T13:44:11Z</time>
      </trkpt>
      <trkpt lat="43.37579" lon="6.11971">
        <ele>328.22653198242</ele>
        <time>2014-12-10T13:44:12Z</time>
      </trkpt>
      <trkpt lat="43.37574" lon="6.11975">
        <ele>329.21054077148</ele>
        <time>2014-12-10T13:44:17Z</time>
      </trkpt>
      <trkpt lat="43.37565" lon="6.11983">
        <ele>330.87170410156</ele>
        <time>2014-12-10T13:44:24Z</time>
      </trkpt>
      <trkpt lat="43.37558" lon="6.11988">
        <ele>332.10461425781</ele>
        <time>2014-12-10T13:44:29Z</time>
      </trkpt>
      <trkpt lat="43.37552" lon="6.11995">
        <ele>333.29702758789</ele>
        <time>2014-12-10T13:44:34Z</time>
      </trkpt>
      <trkpt lat="43.37548" lon="6.11999">
        <ele>334.02584838867</ele>
        <time>2014-12-10T13:44:37Z</time>
      </trkpt>
      <trkpt lat="43.37545" lon="6.12002">
        <ele>334.57730102539</ele>
        <time>2014-12-10T13:44:40Z</time>
      </trkpt>
      <trkpt lat="43.3754" lon="6.12005">
        <ele>335.45288085938</ele>
        <time>2014-12-10T13:44:44Z</time>
      </trkpt>
      <trkpt lat="43.37539" lon="6.12006">
        <ele>335.53979492188</ele>
        <time>2014-12-10T13:44:45Z</time>
      </trkpt>
      <trkpt lat="43.37535" lon="6.12014">
        <ele>336.44024658203</ele>
        <time>2014-12-10T13:44:51Z</time>
      </trkpt>
      <trkpt lat="43.37529" lon="6.12021">
        <ele>337.47189331055</ele>
        <time>2014-12-10T13:44:57Z</time>
      </trkpt>
      <trkpt lat="43.37525" lon="6.12024">
        <ele>338.00985717773</ele>
        <time>2014-12-10T13:45:00Z</time>
      </trkpt>
      <trkpt lat="43.37521" lon="6.12028">
        <ele>338.66296386719</ele>
        <time>2014-12-10T13:45:04Z</time>
      </trkpt>
      <trkpt lat="43.37519" lon="6.1203">
        <ele>338.95025634766</ele>
        <time>2014-12-10T13:45:06Z</time>
      </trkpt>
      <trkpt lat="43.37514" lon="6.12036">
        <ele>339.63916015625</ele>
        <time>2014-12-10T13:45:11Z</time>
      </trkpt>
      <trkpt lat="43.37513" lon="6.12037">
        <ele>339.80200195312</ele>
        <time>2014-12-10T13:45:12Z</time>
      </trkpt>
      <trkpt lat="43.37511" lon="6.12039">
        <ele>340.07080078125</ele>
        <time>2014-12-10T13:45:15Z</time>
      </trkpt>
      <trkpt lat="43.3751" lon="6.12041">
        <ele>340.3430480957</ele>
        <time>2014-12-10T13:45:17Z</time>
      </trkpt>
      <trkpt lat="43.3751" lon="6.12042">
        <ele>340.35638427734</ele>
        <time>2014-12-10T13:45:18Z</time>
      </trkpt>
      <trkpt lat="43.37505" lon="6.12046">
        <ele>340.96649169922</ele>
        <time>2014-12-10T13:45:23Z</time>
      </trkpt>
      <trkpt lat="43.37504" lon="6.12046">
        <ele>341.10787963867</ele>
        <time>2014-12-10T13:45:25Z</time>
      </trkpt>
      <trkpt lat="43.37499" lon="6.1205">
        <ele>341.68460083008</ele>
        <time>2014-12-10T13:45:29Z</time>
      </trkpt>
      <trkpt lat="43.37495" lon="6.12054">
        <ele>342.20666503906</ele>
        <time>2014-12-10T13:45:34Z</time>
      </trkpt>
      <trkpt lat="43.37488" lon="6.1206">
        <ele>342.9538269043</ele>
        <time>2014-12-10T13:45:39Z</time>
      </trkpt>
      <trkpt lat="43.37484" lon="6.12065">
        <ele>343.50454711914</ele>
        <time>2014-12-10T13:45:42Z</time>
      </trkpt>
      <trkpt lat="43.37476" lon="6.1207">
        <ele>344.38919067383</ele>
        <time>2014-12-10T13:45:48Z</time>
      </trkpt>
      <trkpt lat="43.37475" lon="6.12071">
        <ele>344.48944091797</ele>
        <time>2014-12-10T13:45:49Z</time>
      </trkpt>
      <trkpt lat="43.37466" lon="6.1208">
        <ele>345.6457824707</ele>
        <time>2014-12-10T13:45:57Z</time>
      </trkpt>
      <trkpt lat="43.37459" lon="6.12082">
        <ele>346.4333190918</ele>
        <time>2014-12-10T13:46:02Z</time>
      </trkpt>
      <trkpt lat="43.37457" lon="6.12083">
        <ele>346.60311889648</ele>
        <time>2014-12-10T13:46:03Z</time>
      </trkpt>
      <trkpt lat="43.3745" lon="6.12085">
        <ele>347.39862060547</ele>
        <time>2014-12-10T13:46:10Z</time>
      </trkpt>
      <trkpt lat="43.3745" lon="6.12085">
        <ele>347.48641967773</ele>
        <time>2014-12-10T13:46:11Z</time>
      </trkpt>
      <trkpt lat="43.37445" lon="6.12086">
        <ele>348.03924560547</ele>
        <time>2014-12-10T13:46:15Z</time>
      </trkpt>
      <trkpt lat="43.37443" lon="6.12085">
        <ele>348.22207641602</ele>
        <time>2014-12-10T13:46:17Z</time>
      </trkpt>
      <trkpt lat="43.3744" lon="6.12084">
        <ele>348.47955322266</ele>
        <time>2014-12-10T13:46:20Z</time>
      </trkpt>
      <trkpt lat="43.37437" lon="6.12084">
        <ele>348.86944580078</ele>
        <time>2014-12-10T13:46:25Z</time>
      </trkpt>
      <trkpt lat="43.37434" lon="6.12085">
        <ele>349.23107910156</ele>
        <time>2014-12-10T13:46:28Z</time>
      </trkpt>
      <trkpt lat="43.37428" lon="6.12085">
        <ele>349.89379882812</ele>
        <time>2014-12-10T13:46:32Z</time>
      </trkpt>
      <trkpt lat="43.37426" lon="6.12085">
        <ele>350.09133911133</ele>
        <time>2014-12-10T13:46:37Z</time>
      </trkpt>
      <trkpt lat="43.37426" lon="6.12085">
        <ele>350.08337402344</ele>
        <time>2014-12-10T13:46:39Z</time>
      </trkpt>
      <trkpt lat="43.37426" lon="6.12085">
        <ele>350.03723144531</ele>
        <time>2014-12-10T13:46:42Z</time>
      </trkpt>
      <trkpt lat="43.37426" lon="6.12085">
        <ele>350.03723144531</ele>
        <time>2014-12-10T13:46:43Z</time>
      </trkpt>
      <trkpt lat="43.37426" lon="6.12084">
        <ele>350.02612304688</ele>
        <time>2014-12-10T13:46:50Z</time>
      </trkpt>
      <trkpt lat="43.37426" lon="6.12083">
        <ele>349.9563293457</ele>
        <time>2014-12-10T13:47:15Z</time>
      </trkpt>
      <trkpt lat="43.37426" lon="6.12083">
        <ele>350.02630615234</ele>
        <time>2014-12-10T13:47:25Z</time>
      </trkpt>
      <trkpt lat="43.37426" lon="6.12083">
        <ele>349.98080444336</ele>
        <time>2014-12-10T13:47:28Z</time>
      </trkpt>
      <trkpt lat="43.37426" lon="6.12082">
        <ele>350.01116943359</ele>
        <time>2014-12-10T13:47:38Z</time>
      </trkpt>
      <trkpt lat="43.37426" lon="6.12082">
        <ele>350.0068359375</ele>
        <time>2014-12-10T13:47:44Z</time>
      </trkpt>
      <trkpt lat="43.37426" lon="6.12082">
        <ele>349.96459960938</ele>
        <time>2014-12-10T13:47:47Z</time>
      </trkpt>
      <trkpt lat="43.37426" lon="6.12082">
        <ele>349.97216796875</ele>
        <time>2014-12-10T13:47:52Z</time>
      </trkpt>
      <trkpt lat="43.37426" lon="6.12083">
        <ele>350.01873779297</ele>
        <time>2014-12-10T13:47:55Z</time>
      </trkpt>
      <trkpt lat="43.37426" lon="6.12083">
        <ele>349.97866821289</ele>
        <time>2014-12-10T13:48:05Z</time>
      </trkpt>
      <trkpt lat="43.37426" lon="6.12082">
        <ele>349.9700012207</ele>
        <time>2014-12-10T13:48:13Z</time>
      </trkpt>
      <trkpt lat="43.37426" lon="6.12082">
        <ele>349.9700012207</ele>
        <time>2014-12-10T13:48:20Z</time>
      </trkpt>
      <trkpt lat="43.37426" lon="6.12082">
        <ele>349.96029663086</ele>
        <time>2014-12-10T13:48:25Z</time>
      </trkpt>
      <trkpt lat="43.37426" lon="6.12081">
        <ele>349.9094543457</ele>
        <time>2014-12-10T13:48:30Z</time>
      </trkpt>
      <trkpt lat="43.37426" lon="6.12081">
        <ele>349.90191650391</ele>
        <time>2014-12-10T13:48:38Z</time>
      </trkpt>
      <trkpt lat="43.37426" lon="6.12081">
        <ele>349.90084838867</ele>
        <time>2014-12-10T13:48:45Z</time>
      </trkpt>
      <trkpt lat="43.37426" lon="6.12081">
        <ele>349.94082641602</ele>
        <time>2014-12-10T13:49:00Z</time>
      </trkpt>
      <trkpt lat="43.37426" lon="6.12081">
        <ele>349.94299316406</ele>
        <time>2014-12-10T13:49:13Z</time>
      </trkpt>
      <trkpt lat="43.37426" lon="6.12082">
        <ele>349.99273681641</ele>
        <time>2014-12-10T13:49:32Z</time>
      </trkpt>
      <trkpt lat="43.37426" lon="6.12082">
        <ele>349.99273681641</ele>
        <time>2014-12-10T13:49:35Z</time>
      </trkpt>
      <trkpt lat="43.37426" lon="6.12082">
        <ele>349.99490356445</ele>
        <time>2014-12-10T13:49:57Z</time>
      </trkpt>
      <trkpt lat="43.37426" lon="6.12081">
        <ele>349.98623657227</ele>
        <time>2014-12-10T13:50:11Z</time>
      </trkpt>
      <trkpt lat="43.37426" lon="6.12081">
        <ele>349.97866821289</ele>
        <time>2014-12-10T13:50:23Z</time>
      </trkpt>
      <trkpt lat="43.37426" lon="6.12081">
        <ele>349.97866821289</ele>
        <time>2014-12-10T13:50:43Z</time>
      </trkpt>
      <trkpt lat="43.37425" lon="6.12082">
        <ele>350.03384399414</ele>
        <time>2014-12-10T13:50:55Z</time>
      </trkpt>
      <trkpt lat="43.37425" lon="6.12082">
        <ele>350.03601074219</ele>
        <time>2014-12-10T13:51:09Z</time>
      </trkpt>
      <trkpt lat="43.37425" lon="6.12082">
        <ele>350.037109375</ele>
        <time>2014-12-10T13:51:13Z</time>
      </trkpt>
      <trkpt lat="43.37426" lon="6.12082">
        <ele>349.96243286133</ele>
        <time>2014-12-10T13:51:19Z</time>
      </trkpt>
      <trkpt lat="43.37429" lon="6.12083">
        <ele>349.66470336914</ele>
        <time>2014-12-10T13:51:29Z</time>
      </trkpt>
      <trkpt lat="43.37431" lon="6.12085">
        <ele>349.54412841797</ele>
        <time>2014-12-10T13:51:33Z</time>
      </trkpt>
      <trkpt lat="43.37433" lon="6.12085">
        <ele>349.29153442383</ele>
        <time>2014-12-10T13:51:35Z</time>
      </trkpt>
      <trkpt lat="43.37444" lon="6.12086">
        <ele>348.16363525391</ele>
        <time>2014-12-10T13:51:40Z</time>
      </trkpt>
      <trkpt lat="43.37455" lon="6.12085">
        <ele>346.85241699219</ele>
        <time>2014-12-10T13:51:44Z</time>
      </trkpt>
      <trkpt lat="43.37458" lon="6.12083">
        <ele>346.53201293945</ele>
        <time>2014-12-10T13:51:45Z</time>
      </trkpt>
      <trkpt lat="43.37465" lon="6.1208">
        <ele>345.6940612793</ele>
        <time>2014-12-10T13:51:50Z</time>
      </trkpt>
      <trkpt lat="43.37466" lon="6.12079">
        <ele>345.55654907227</ele>
        <time>2014-12-10T13:51:51Z</time>
      </trkpt>
      <trkpt lat="43.37469" lon="6.12078">
        <ele>345.20767211914</ele>
        <time>2014-12-10T13:51:54Z</time>
      </trkpt>
      <trkpt lat="43.37472" lon="6.12078">
        <ele>344.92593383789</ele>
        <time>2014-12-10T13:51:57Z</time>
      </trkpt>
      <trkpt lat="43.37478" lon="6.12071">
        <ele>344.16732788086</ele>
        <time>2014-12-10T13:52:05Z</time>
      </trkpt>
      <trkpt lat="43.37481" lon="6.12069">
        <ele>343.88244628906</ele>
        <time>2014-12-10T13:52:27Z</time>
      </trkpt>
      <trkpt lat="43.37481" lon="6.12068">
        <ele>343.87326049805</ele>
        <time>2014-12-10T13:52:37Z</time>
      </trkpt>
      <trkpt lat="43.3748" lon="6.12068">
        <ele>343.90936279297</ele>
        <time>2014-12-10T13:52:42Z</time>
      </trkpt>
      <trkpt lat="43.37477" lon="6.12069">
        <ele>344.29946899414</ele>
        <time>2014-12-10T13:52:46Z</time>
      </trkpt>
      <trkpt lat="43.37474" lon="6.12072">
        <ele>344.66436767578</ele>
        <time>2014-12-10T13:52:49Z</time>
      </trkpt>
      <trkpt lat="43.37471" lon="6.12073">
        <ele>344.92013549805</ele>
        <time>2014-12-10T13:52:50Z</time>
      </trkpt>
      <trkpt lat="43.37466" lon="6.12075">
        <ele>345.48272705078</ele>
        <time>2014-12-10T13:52:52Z</time>
      </trkpt>
      <trkpt lat="43.37464" lon="6.12075">
        <ele>345.7678527832</ele>
        <time>2014-12-10T13:52:53Z</time>
      </trkpt>
      <trkpt lat="43.37458" lon="6.12076">
        <ele>346.35098266602</ele>
        <time>2014-12-10T13:52:55Z</time>
      </trkpt>
      <trkpt lat="43.37455" lon="6.12077">
        <ele>346.73818969727</ele>
        <time>2014-12-10T13:52:56Z</time>
      </trkpt>
      <trkpt lat="43.37447" lon="6.12077">
        <ele>347.65057373047</ele>
        <time>2014-12-10T13:52:59Z</time>
      </trkpt>
      <trkpt lat="43.37444" lon="6.12078">
        <ele>347.99291992188</ele>
        <time>2014-12-10T13:53:00Z</time>
      </trkpt>
      <trkpt lat="43.37434" lon="6.12079">
        <ele>349.04138183594</ele>
        <time>2014-12-10T13:53:04Z</time>
      </trkpt>
      <trkpt lat="43.37431" lon="6.12081">
        <ele>349.3974609375</ele>
        <time>2014-12-10T13:53:06Z</time>
      </trkpt>
      <trkpt lat="43.37426" lon="6.12083">
        <ele>349.98837280273</ele>
        <time>2014-12-10T13:53:12Z</time>
      </trkpt>
      <trkpt lat="43.37425" lon="6.12084">
        <ele>350.09594726562</ele>
        <time>2014-12-10T13:53:15Z</time>
      </trkpt>
      <trkpt lat="43.37425" lon="6.12084">
        <ele>350.10394287109</ele>
        <time>2014-12-10T13:53:21Z</time>
      </trkpt>
      <trkpt lat="43.3742" lon="6.12085">
        <ele>350.70715332031</ele>
        <time>2014-12-10T13:53:23Z</time>
      </trkpt>
      <trkpt lat="43.37405" lon="6.12085">
        <ele>349.25</ele>
        <time>2014-12-10T13:53:27Z</time>
      </trkpt>
      <trkpt lat="43.37401" lon="6.12085">
        <ele>348.59747314453</ele>
        <time>2014-12-10T13:53:28Z</time>
      </trkpt>
      <trkpt lat="43.37393" lon="6.12086">
        <ele>347.37832641602</ele>
        <time>2014-12-10T13:53:30Z</time>
      </trkpt>
      <trkpt lat="43.37383" lon="6.12088">
        <ele>345.99710083008</ele>
        <time>2014-12-10T13:53:32Z</time>
      </trkpt>
      <trkpt lat="43.37375" lon="6.12091">
        <ele>344.82711791992</ele>
        <time>2014-12-10T13:53:34Z</time>
      </trkpt>
      <trkpt lat="43.37361" lon="6.12099">
        <ele>343.15209960938</ele>
        <time>2014-12-10T13:53:38Z</time>
      </trkpt>
      <trkpt lat="43.37359" lon="6.12101">
        <ele>342.93338012695</ele>
        <time>2014-12-10T13:53:39Z</time>
      </trkpt>
      <trkpt lat="43.37355" lon="6.12104">
        <ele>342.54357910156</ele>
        <time>2014-12-10T13:53:40Z</time>
      </trkpt>
      <trkpt lat="43.37342" lon="6.12112">
        <ele>341.07818603516</ele>
        <time>2014-12-10T13:53:43Z</time>
      </trkpt>
      <trkpt lat="43.37337" lon="6.12116">
        <ele>340.55325317383</ele>
        <time>2014-12-10T13:53:44Z</time>
      </trkpt>
      <trkpt lat="43.37321" lon="6.12128">
        <ele>337.37017822266</ele>
        <time>2014-12-10T13:53:47Z</time>
      </trkpt>
      <trkpt lat="43.3731" lon="6.12133">
        <ele>334.47003173828</ele>
        <time>2014-12-10T13:53:49Z</time>
      </trkpt>
      <trkpt lat="43.37304" lon="6.12137">
        <ele>333.0876159668</ele>
        <time>2014-12-10T13:53:50Z</time>
      </trkpt>
      <trkpt lat="43.37298" lon="6.12141">
        <ele>331.6252746582</ele>
        <time>2014-12-10T13:53:51Z</time>
      </trkpt>
      <trkpt lat="43.37292" lon="6.12147">
        <ele>330.16418457031</ele>
        <time>2014-12-10T13:53:52Z</time>
      </trkpt>
      <trkpt lat="43.37287" lon="6.12154">
        <ele>329.00332641602</ele>
        <time>2014-12-10T13:53:53Z</time>
      </trkpt>
      <trkpt lat="43.3728" lon="6.12163">
        <ele>327.57482910156</ele>
        <time>2014-12-10T13:53:54Z</time>
      </trkpt>
      <trkpt lat="43.37275" lon="6.12173">
        <ele>326.44403076172</ele>
        <time>2014-12-10T13:53:55Z</time>
      </trkpt>
      <trkpt lat="43.37268" lon="6.12183">
        <ele>324.96276855469</ele>
        <time>2014-12-10T13:53:56Z</time>
      </trkpt>
      <trkpt lat="43.37264" lon="6.12193">
        <ele>324.01019287109</ele>
        <time>2014-12-10T13:53:57Z</time>
      </trkpt>
      <trkpt lat="43.3725" lon="6.12223">
        <ele>321.01205444336</ele>
        <time>2014-12-10T13:54:00Z</time>
      </trkpt>
      <trkpt lat="43.37241" lon="6.12245">
        <ele>321.08178710938</ele>
        <time>2014-12-10T13:54:02Z</time>
      </trkpt>
      <trkpt lat="43.37237" lon="6.12256">
        <ele>321.18377685547</ele>
        <time>2014-12-10T13:54:03Z</time>
      </trkpt>
      <trkpt lat="43.37233" lon="6.12267">
        <ele>321.35748291016</ele>
        <time>2014-12-10T13:54:04Z</time>
      </trkpt>
      <trkpt lat="43.37226" lon="6.12291">
        <ele>321.62655639648</ele>
        <time>2014-12-10T13:54:06Z</time>
      </trkpt>
      <trkpt lat="43.37221" lon="6.12303">
        <ele>321.62380981445</ele>
        <time>2014-12-10T13:54:07Z</time>
      </trkpt>
      <trkpt lat="43.3721" lon="6.12324">
        <ele>321.40588378906</ele>
        <time>2014-12-10T13:54:09Z</time>
      </trkpt>
      <trkpt lat="43.37197" lon="6.12347">
        <ele>320.62432861328</ele>
        <time>2014-12-10T13:54:11Z</time>
      </trkpt>
      <trkpt lat="43.3719" lon="6.12356">
        <ele>320.00973510742</ele>
        <time>2014-12-10T13:54:12Z</time>
      </trkpt>
      <trkpt lat="43.3716" lon="6.12393">
        <ele>317.52828979492</ele>
        <time>2014-12-10T13:54:16Z</time>
      </trkpt>
      <trkpt lat="43.37153" lon="6.12403">
        <ele>317.49359130859</ele>
        <time>2014-12-10T13:54:17Z</time>
      </trkpt>
      <trkpt lat="43.37148" lon="6.12413">
        <ele>317.50033569336</ele>
        <time>2014-12-10T13:54:18Z</time>
      </trkpt>
      <trkpt lat="43.37135" lon="6.12443">
        <ele>317.92398071289</ele>
        <time>2014-12-10T13:54:21Z</time>
      </trkpt>
      <trkpt lat="43.37116" lon="6.12483">
        <ele>318.22320556641</ele>
        <time>2014-12-10T13:54:26Z</time>
      </trkpt>
      <trkpt lat="43.37105" lon="6.12503">
        <ele>318.14392089844</ele>
        <time>2014-12-10T13:54:29Z</time>
      </trkpt>
      <trkpt lat="43.37096" lon="6.12514">
        <ele>318.0126953125</ele>
        <time>2014-12-10T13:54:31Z</time>
      </trkpt>
      <trkpt lat="43.37082" lon="6.12528">
        <ele>317.68313598633</ele>
        <time>2014-12-10T13:54:34Z</time>
      </trkpt>
      <trkpt lat="43.37073" lon="6.12536">
        <ele>317.98297119141</ele>
        <time>2014-12-10T13:54:36Z</time>
      </trkpt>
      <trkpt lat="43.37068" lon="6.12539">
        <ele>318.11801147461</ele>
        <time>2014-12-10T13:54:37Z</time>
      </trkpt>
      <trkpt lat="43.37053" lon="6.12554">
        <ele>318.67535400391</ele>
        <time>2014-12-10T13:54:42Z</time>
      </trkpt>
      <trkpt lat="43.37037" lon="6.12574">
        <ele>319.31848144531</ele>
        <time>2014-12-10T13:54:48Z</time>
      </trkpt>
      <trkpt lat="43.37035" lon="6.12577">
        <ele>319.44323730469</ele>
        <time>2014-12-10T13:54:49Z</time>
      </trkpt>
      <trkpt lat="43.37033" lon="6.12581">
        <ele>319.54623413086</ele>
        <time>2014-12-10T13:54:50Z</time>
      </trkpt>
      <trkpt lat="43.37025" lon="6.12597">
        <ele>320.21731567383</ele>
        <time>2014-12-10T13:54:54Z</time>
      </trkpt>
      <trkpt lat="43.37024" lon="6.126">
        <ele>320.37933349609</ele>
        <time>2014-12-10T13:54:55Z</time>
      </trkpt>
      <trkpt lat="43.37012" lon="6.12622">
        <ele>321.31799316406</ele>
        <time>2014-12-10T13:55:01Z</time>
      </trkpt>
      <trkpt lat="43.37008" lon="6.12633">
        <ele>321.73336791992</ele>
        <time>2014-12-10T13:55:04Z</time>
      </trkpt>
      <trkpt lat="43.36996" lon="6.12658">
        <ele>322.90881347656</ele>
        <time>2014-12-10T13:55:11Z</time>
      </trkpt>
      <trkpt lat="43.36992" lon="6.12666">
        <ele>323.44247436523</ele>
        <time>2014-12-10T13:55:13Z</time>
      </trkpt>
      <trkpt lat="43.36983" lon="6.12686">
        <ele>324.77182006836</ele>
        <time>2014-12-10T13:55:18Z</time>
      </trkpt>
      <trkpt lat="43.36966" lon="6.12723">
        <ele>327.36010742188</ele>
        <time>2014-12-10T13:55:27Z</time>
      </trkpt>
      <trkpt lat="43.36949" lon="6.12757">
        <ele>329.86184692383</ele>
        <time>2014-12-10T13:55:36Z</time>
      </trkpt>
      <trkpt lat="43.36947" lon="6.1276">
        <ele>330.09338378906</ele>
        <time>2014-12-10T13:55:37Z</time>
      </trkpt>
      <trkpt lat="43.36941" lon="6.12773">
        <ele>330.87545776367</ele>
        <time>2014-12-10T13:55:42Z</time>
      </trkpt>
      <trkpt lat="43.3694" lon="6.12779">
        <ele>331.12866210938</ele>
        <time>2014-12-10T13:55:45Z</time>
      </trkpt>
      <trkpt lat="43.36938" lon="6.12781">
        <ele>331.27621459961</ele>
        <time>2014-12-10T13:55:47Z</time>
      </trkpt>
      <trkpt lat="43.36938" lon="6.12782">
        <ele>331.34963989258</ele>
        <time>2014-12-10T13:55:49Z</time>
      </trkpt>
      <trkpt lat="43.36938" lon="6.12782">
        <ele>331.3586730957</ele>
        <time>2014-12-10T13:55:54Z</time>
      </trkpt>
      <trkpt lat="43.36937" lon="6.12783">
        <ele>331.42288208008</ele>
        <time>2014-12-10T13:55:59Z</time>
      </trkpt>
      <trkpt lat="43.36937" lon="6.12783">
        <ele>331.40365600586</ele>
        <time>2014-12-10T13:56:08Z</time>
      </trkpt>
      <trkpt lat="43.36937" lon="6.12783">
        <ele>331.41265869141</ele>
        <time>2014-12-10T13:56:21Z</time>
      </trkpt>
      <trkpt lat="43.36937" lon="6.12784">
        <ele>331.44598388672</ele>
        <time>2014-12-10T13:56:36Z</time>
      </trkpt>
      <trkpt lat="43.36937" lon="6.12784">
        <ele>331.43710327148</ele>
        <time>2014-12-10T13:56:42Z</time>
      </trkpt>
      <trkpt lat="43.36936" lon="6.12787">
        <ele>331.61853027344</ele>
        <time>2014-12-10T13:56:48Z</time>
      </trkpt>
      <trkpt lat="43.36932" lon="6.12796">
        <ele>332.11761474609</ele>
        <time>2014-12-10T13:56:52Z</time>
      </trkpt>
      <trkpt lat="43.3693" lon="6.128">
        <ele>332.33245849609</ele>
        <time>2014-12-10T13:56:54Z</time>
      </trkpt>
      <trkpt lat="43.36922" lon="6.12817">
        <ele>333.28155517578</ele>
        <time>2014-12-10T13:57:00Z</time>
      </trkpt>
      <trkpt lat="43.36919" lon="6.12823">
        <ele>333.61672973633</ele>
        <time>2014-12-10T13:57:02Z</time>
      </trkpt>
      <trkpt lat="43.36914" lon="6.12834">
        <ele>334.1875</ele>
        <time>2014-12-10T13:57:06Z</time>
      </trkpt>
      <trkpt lat="43.36909" lon="6.12844">
        <ele>334.57202148438</ele>
        <time>2014-12-10T13:57:09Z</time>
      </trkpt>
      <trkpt lat="43.36905" lon="6.12849">
        <ele>334.8466796875</ele>
        <time>2014-12-10T13:57:11Z</time>
      </trkpt>
      <trkpt lat="43.36893" lon="6.12861">
        <ele>335.7255859375</ele>
        <time>2014-12-10T13:57:16Z</time>
      </trkpt>
      <trkpt lat="43.36886" lon="6.12867">
        <ele>336.21997070312</ele>
        <time>2014-12-10T13:57:19Z</time>
      </trkpt>
      <trkpt lat="43.36877" lon="6.12878">
        <ele>336.85168457031</ele>
        <time>2014-12-10T13:57:23Z</time>
      </trkpt>
      <trkpt lat="43.36872" lon="6.12883">
        <ele>337.20874023438</ele>
        <time>2014-12-10T13:57:25Z</time>
      </trkpt>
      <trkpt lat="43.36857" lon="6.12897">
        <ele>338.27990722656</ele>
        <time>2014-12-10T13:57:31Z</time>
      </trkpt>
      <trkpt lat="43.36844" lon="6.12909">
        <ele>339.21374511719</ele>
        <time>2014-12-10T13:57:37Z</time>
      </trkpt>
      <trkpt lat="43.36836" lon="6.12917">
        <ele>339.78762817383</ele>
        <time>2014-12-10T13:57:41Z</time>
      </trkpt>
      <trkpt lat="43.3683" lon="6.12924">
        <ele>339.92990112305</ele>
        <time>2014-12-10T13:57:44Z</time>
      </trkpt>
      <trkpt lat="43.36817" lon="6.1294">
        <ele>339.94219970703</ele>
        <time>2014-12-10T13:57:51Z</time>
      </trkpt>
      <trkpt lat="43.36805" lon="6.12954">
        <ele>340.17071533203</ele>
        <time>2014-12-10T13:57:57Z</time>
      </trkpt>
      <trkpt lat="43.368" lon="6.12958">
        <ele>340.29891967773</ele>
        <time>2014-12-10T13:57:59Z</time>
      </trkpt>
      <trkpt lat="43.36792" lon="6.12966">
        <ele>340.59201049805</ele>
        <time>2014-12-10T13:58:03Z</time>
      </trkpt>
      <trkpt lat="43.36786" lon="6.12972">
        <ele>340.85214233398</ele>
        <time>2014-12-10T13:58:06Z</time>
      </trkpt>
      <trkpt lat="43.3678" lon="6.1298">
        <ele>341.18865966797</ele>
        <time>2014-12-10T13:58:09Z</time>
      </trkpt>
      <trkpt lat="43.3677" lon="6.12991">
        <ele>341.83120727539</ele>
        <time>2014-12-10T13:58:14Z</time>
      </trkpt>
      <trkpt lat="43.36767" lon="6.12994">
        <ele>342.03506469727</ele>
        <time>2014-12-10T13:58:16Z</time>
      </trkpt>
      <trkpt lat="43.36755" lon="6.1301">
        <ele>342.7658996582</ele>
        <time>2014-12-10T13:58:23Z</time>
      </trkpt>
      <trkpt lat="43.36749" lon="6.13022">
        <ele>342.98330688477</ele>
        <time>2014-12-10T13:58:28Z</time>
      </trkpt>
      <trkpt lat="43.36747" lon="6.13027">
        <ele>342.97088623047</ele>
        <time>2014-12-10T13:58:30Z</time>
      </trkpt>
      <trkpt lat="43.36742" lon="6.13034">
        <ele>342.96325683594</ele>
        <time>2014-12-10T13:58:34Z</time>
      </trkpt>
      <trkpt lat="43.36739" lon="6.13038">
        <ele>342.97497558594</ele>
        <time>2014-12-10T13:58:36Z</time>
      </trkpt>
      <trkpt lat="43.36729" lon="6.13053">
        <ele>343.13735961914</ele>
        <time>2014-12-10T13:58:42Z</time>
      </trkpt>
      <trkpt lat="43.36724" lon="6.1306">
        <ele>343.27514648438</ele>
        <time>2014-12-10T13:58:45Z</time>
      </trkpt>
      <trkpt lat="43.3672" lon="6.13068">
        <ele>343.45016479492</ele>
        <time>2014-12-10T13:58:48Z</time>
      </trkpt>
      <trkpt lat="43.36712" lon="6.1309">
        <ele>344.5475769043</ele>
        <time>2014-12-10T13:58:57Z</time>
      </trkpt>
      <trkpt lat="43.3671" lon="6.13101">
        <ele>345.52514648438</ele>
        <time>2014-12-10T13:59:01Z</time>
      </trkpt>
      <trkpt lat="43.36704" lon="6.1312">
        <ele>347.41326904297</ele>
        <time>2014-12-10T13:59:09Z</time>
      </trkpt>
      <trkpt lat="43.36701" lon="6.13128">
        <ele>348.10235595703</ele>
        <time>2014-12-10T13:59:12Z</time>
      </trkpt>
      <trkpt lat="43.36695" lon="6.13137">
        <ele>349.08374023438</ele>
        <time>2014-12-10T13:59:16Z</time>
      </trkpt>
      <trkpt lat="43.36692" lon="6.13143">
        <ele>349.66152954102</ele>
        <time>2014-12-10T13:59:18Z</time>
      </trkpt>
      <trkpt lat="43.36685" lon="6.13145">
        <ele>349.94039916992</ele>
        <time>2014-12-10T13:59:21Z</time>
      </trkpt>
      <trkpt lat="43.36678" lon="6.13147">
        <ele>350.22094726562</ele>
        <time>2014-12-10T13:59:24Z</time>
      </trkpt>
      <trkpt lat="43.36671" lon="6.13155">
        <ele>350.96127319336</ele>
        <time>2014-12-10T13:59:27Z</time>
      </trkpt>
      <trkpt lat="43.36666" lon="6.1317">
        <ele>352.16665649414</ele>
        <time>2014-12-10T13:59:32Z</time>
      </trkpt>
      <trkpt lat="43.36665" lon="6.13186">
        <ele>353.04498291016</ele>
        <time>2014-12-10T13:59:37Z</time>
      </trkpt>
      <trkpt lat="43.36664" lon="6.1319">
        <ele>353.24526977539</ele>
        <time>2014-12-10T13:59:38Z</time>
      </trkpt>
      <trkpt lat="43.3666" lon="6.13208">
        <ele>354.12359619141</ele>
        <time>2014-12-10T13:59:44Z</time>
      </trkpt>
      <trkpt lat="43.36657" lon="6.13228">
        <ele>355.13067626953</ele>
        <time>2014-12-10T13:59:50Z</time>
      </trkpt>
      <trkpt lat="43.36657" lon="6.13231">
        <ele>355.30233764648</ele>
        <time>2014-12-10T13:59:51Z</time>
      </trkpt>
      <trkpt lat="43.36655" lon="6.13252">
        <ele>356.41793823242</ele>
        <time>2014-12-10T13:59:58Z</time>
      </trkpt>
      <trkpt lat="43.36653" lon="6.13271">
        <ele>357.18698120117</ele>
        <time>2014-12-10T14:00:04Z</time>
      </trkpt>
      <trkpt lat="43.36652" lon="6.1328">
        <ele>357.56692504883</ele>
        <time>2014-12-10T14:00:07Z</time>
      </trkpt>
      <trkpt lat="43.36652" lon="6.13286">
        <ele>357.87362670898</ele>
        <time>2014-12-10T14:00:09Z</time>
      </trkpt>
      <trkpt lat="43.36649" lon="6.13304">
        <ele>358.51220703125</ele>
        <time>2014-12-10T14:00:14Z</time>
      </trkpt>
      <trkpt lat="43.36646" lon="6.13318">
        <ele>358.9997253418</ele>
        <time>2014-12-10T14:00:18Z</time>
      </trkpt>
      <trkpt lat="43.36644" lon="6.13326">
        <ele>359.29498291016</ele>
        <time>2014-12-10T14:00:21Z</time>
      </trkpt>
      <trkpt lat="43.36644" lon="6.13329">
        <ele>359.45977783203</ele>
        <time>2014-12-10T14:00:22Z</time>
      </trkpt>
      <trkpt lat="43.3664" lon="6.13344">
        <ele>359.89874267578</ele>
        <time>2014-12-10T14:00:26Z</time>
      </trkpt>
      <trkpt lat="43.36634" lon="6.13364">
        <ele>360.50094604492</ele>
        <time>2014-12-10T14:00:32Z</time>
      </trkpt>
      <trkpt lat="43.36631" lon="6.13383">
        <ele>361.0534362793</ele>
        <time>2014-12-10T14:00:37Z</time>
      </trkpt>
      <trkpt lat="43.36625" lon="6.13402">
        <ele>361.35516357422</ele>
        <time>2014-12-10T14:00:42Z</time>
      </trkpt>
      <trkpt lat="43.3662" lon="6.13424">
        <ele>361.87533569336</ele>
        <time>2014-12-10T14:00:48Z</time>
      </trkpt>
      <trkpt lat="43.3662" lon="6.13427">
        <ele>362.05651855469</ele>
        <time>2014-12-10T14:00:49Z</time>
      </trkpt>
      <trkpt lat="43.36615" lon="6.1344">
        <ele>362.23333740234</ele>
        <time>2014-12-10T14:00:52Z</time>
      </trkpt>
      <trkpt lat="43.36612" lon="6.13449">
        <ele>362.30279541016</ele>
        <time>2014-12-10T14:00:55Z</time>
      </trkpt>
      <trkpt lat="43.3661" lon="6.13456">
        <ele>362.44900512695</ele>
        <time>2014-12-10T14:00:57Z</time>
      </trkpt>
      <trkpt lat="43.36606" lon="6.13475">
        <ele>362.87728881836</ele>
        <time>2014-12-10T14:01:02Z</time>
      </trkpt>
      <trkpt lat="43.366" lon="6.135">
        <ele>363.16970825195</ele>
        <time>2014-12-10T14:01:08Z</time>
      </trkpt>
      <trkpt lat="43.36598" lon="6.13507">
        <ele>363.13568115234</ele>
        <time>2014-12-10T14:01:10Z</time>
      </trkpt>
      <trkpt lat="43.36591" lon="6.13532">
        <ele>362.92547607422</ele>
        <time>2014-12-10T14:01:17Z</time>
      </trkpt>
      <trkpt lat="43.36591" lon="6.13535">
        <ele>362.96099853516</ele>
        <time>2014-12-10T14:01:18Z</time>
      </trkpt>
      <trkpt lat="43.36588" lon="6.13553">
        <ele>363.05056762695</ele>
        <time>2014-12-10T14:01:23Z</time>
      </trkpt>
      <trkpt lat="43.36587" lon="6.13561">
        <ele>363.06140136719</ele>
        <time>2014-12-10T14:01:25Z</time>
      </trkpt>
      <trkpt lat="43.36583" lon="6.13574">
        <ele>362.85620117188</ele>
        <time>2014-12-10T14:01:28Z</time>
      </trkpt>
      <trkpt lat="43.3658" lon="6.13585">
        <ele>363.82318115234</ele>
        <time>2014-12-10T14:01:31Z</time>
      </trkpt>
      <trkpt lat="43.36577" lon="6.13593">
        <ele>364.88525390625</ele>
        <time>2014-12-10T14:01:34Z</time>
      </trkpt>
      <trkpt lat="43.36576" lon="6.13596">
        <ele>365.19906616211</ele>
        <time>2014-12-10T14:01:35Z</time>
      </trkpt>
      <trkpt lat="43.3657" lon="6.13611">
        <ele>367.29104614258</ele>
        <time>2014-12-10T14:01:39Z</time>
      </trkpt>
      <trkpt lat="43.3657" lon="6.13617">
        <ele>367.80517578125</ele>
        <time>2014-12-10T14:01:41Z</time>
      </trkpt>
      <trkpt lat="43.36568" lon="6.13623">
        <ele>368.43322753906</ele>
        <time>2014-12-10T14:01:43Z</time>
      </trkpt>
      <trkpt lat="43.36565" lon="6.13637">
        <ele>369.67395019531</ele>
        <time>2014-12-10T14:01:47Z</time>
      </trkpt>
      <trkpt lat="43.36565" lon="6.13643">
        <ele>370.0803527832</ele>
        <time>2014-12-10T14:01:49Z</time>
      </trkpt>
      <trkpt lat="43.36562" lon="6.13663">
        <ele>371.56671142578</ele>
        <time>2014-12-10T14:01:55Z</time>
      </trkpt>
      <trkpt lat="43.3656" lon="6.13673">
        <ele>372.49465942383</ele>
        <time>2014-12-10T14:01:59Z</time>
      </trkpt>
      <trkpt lat="43.36559" lon="6.13684">
        <ele>373.25057983398</ele>
        <time>2014-12-10T14:02:03Z</time>
      </trkpt>
      <trkpt lat="43.36559" lon="6.13688">
        <ele>373.61099243164</ele>
        <time>2014-12-10T14:02:05Z</time>
      </trkpt>
      <trkpt lat="43.36555" lon="6.13703">
        <ele>374.91879272461</ele>
        <time>2014-12-10T14:02:11Z</time>
      </trkpt>
      <trkpt lat="43.36554" lon="6.13715">
        <ele>375.74475097656</ele>
        <time>2014-12-10T14:02:16Z</time>
      </trkpt>
      <trkpt lat="43.36551" lon="6.13729">
        <ele>376.83239746094</ele>
        <time>2014-12-10T14:02:22Z</time>
      </trkpt>
      <trkpt lat="43.36549" lon="6.13743">
        <ele>377.76544189453</ele>
        <time>2014-12-10T14:02:28Z</time>
      </trkpt>
      <trkpt lat="43.36549" lon="6.13748">
        <ele>378.01364135742</ele>
        <time>2014-12-10T14:02:30Z</time>
      </trkpt>
      <trkpt lat="43.36548" lon="6.13753">
        <ele>378.35690307617</ele>
        <time>2014-12-10T14:02:33Z</time>
      </trkpt>
      <trkpt lat="43.36547" lon="6.13756">
        <ele>378.57250976562</ele>
        <time>2014-12-10T14:02:35Z</time>
      </trkpt>
      <trkpt lat="43.36542" lon="6.13759">
        <ele>379.22470092773</ele>
        <time>2014-12-10T14:02:39Z</time>
      </trkpt>
      <trkpt lat="43.36541" lon="6.13759">
        <ele>379.29895019531</ele>
        <time>2014-12-10T14:02:40Z</time>
      </trkpt>
      <trkpt lat="43.36541" lon="6.13759">
        <ele>379.31317138672</ele>
        <time>2014-12-10T14:02:43Z</time>
      </trkpt>
      <trkpt lat="43.36541" lon="6.1376">
        <ele>379.3203125</ele>
        <time>2014-12-10T14:02:49Z</time>
      </trkpt>
      <trkpt lat="43.36541" lon="6.1376">
        <ele>379.3203125</ele>
        <time>2014-12-10T14:02:54Z</time>
      </trkpt>
      <trkpt lat="43.36541" lon="6.1376">
        <ele>379.3203125</ele>
        <time>2014-12-10T14:03:07Z</time>
      </trkpt>
      <trkpt lat="43.36541" lon="6.1376">
        <ele>379.32458496094</ele>
        <time>2014-12-10T14:03:12Z</time>
      </trkpt>
      <trkpt lat="43.36541" lon="6.1376">
        <ele>379.3274230957</ele>
        <time>2014-12-10T14:03:41Z</time>
      </trkpt>
      <trkpt lat="43.36541" lon="6.1376">
        <ele>379.32885742188</ele>
        <time>2014-12-10T14:04:54Z</time>
      </trkpt>
      <trkpt lat="43.36541" lon="6.1376">
        <ele>379.33312988281</ele>
        <time>2014-12-10T14:06:12Z</time>
      </trkpt>
      <trkpt lat="43.36541" lon="6.13759">
        <ele>379.40591430664</ele>
        <time>2014-12-10T14:06:32Z</time>
      </trkpt>
      <trkpt lat="43.36541" lon="6.1376">
        <ele>379.41577148438</ele>
        <time>2014-12-10T14:07:07Z</time>
      </trkpt>
      <trkpt lat="43.36541" lon="6.1376">
        <ele>379.4284362793</ele>
        <time>2014-12-10T14:07:20Z</time>
      </trkpt>
      <trkpt lat="43.36541" lon="6.13759">
        <ele>379.30749511719</ele>
        <time>2014-12-10T14:07:40Z</time>
      </trkpt>
      <trkpt lat="43.36541" lon="6.13758">
        <ele>379.28897094727</ele>
        <time>2014-12-10T14:07:53Z</time>
      </trkpt>
      <trkpt lat="43.36541" lon="6.13757">
        <ele>379.30361938477</ele>
        <time>2014-12-10T14:08:12Z</time>
      </trkpt>
      <trkpt lat="43.36539" lon="6.13757">
        <ele>379.50155639648</ele>
        <time>2014-12-10T14:08:21Z</time>
      </trkpt>
      <trkpt lat="43.36535" lon="6.13757">
        <ele>379.97048950195</ele>
        <time>2014-12-10T14:08:23Z</time>
      </trkpt>
      <trkpt lat="43.36533" lon="6.13757">
        <ele>380.23782348633</ele>
        <time>2014-12-10T14:08:24Z</time>
      </trkpt>
      <trkpt lat="43.36524" lon="6.13758">
        <ele>381.275390625</ele>
        <time>2014-12-10T14:08:28Z</time>
      </trkpt>
      <trkpt lat="43.36521" lon="6.13758">
        <ele>381.6240234375</ele>
        <time>2014-12-10T14:08:30Z</time>
      </trkpt>
      <trkpt lat="43.36518" lon="6.13756">
        <ele>381.99465942383</ele>
        <time>2014-12-10T14:08:32Z</time>
      </trkpt>
      <trkpt lat="43.36511" lon="6.1375">
        <ele>382.70178222656</ele>
        <time>2014-12-10T14:08:35Z</time>
      </trkpt>
      <trkpt lat="43.36509" lon="6.13748">
        <ele>382.89764404297</ele>
        <time>2014-12-10T14:08:36Z</time>
      </trkpt>
      <trkpt lat="43.365" lon="6.13735">
        <ele>383.8942565918</ele>
        <time>2014-12-10T14:08:42Z</time>
      </trkpt>
      <trkpt lat="43.36494" lon="6.13727">
        <ele>385.77661132812</ele>
        <time>2014-12-10T14:08:46Z</time>
      </trkpt>
      <trkpt lat="43.36487" lon="6.1372">
        <ele>387.9801940918</ele>
        <time>2014-12-10T14:08:50Z</time>
      </trkpt>
      <trkpt lat="43.36483" lon="6.13717">
        <ele>389.10494995117</ele>
        <time>2014-12-10T14:08:52Z</time>
      </trkpt>
      <trkpt lat="43.36474" lon="6.13713">
        <ele>392.27438354492</ele>
        <time>2014-12-10T14:08:57Z</time>
      </trkpt>
      <trkpt lat="43.36471" lon="6.13709">
        <ele>393.3108215332</ele>
        <time>2014-12-10T14:09:00Z</time>
      </trkpt>
      <trkpt lat="43.36468" lon="6.13705">
        <ele>394.23040771484</ele>
        <time>2014-12-10T14:09:02Z</time>
      </trkpt>
      <trkpt lat="43.36462" lon="6.13692">
        <ele>396.42324829102</ele>
        <time>2014-12-10T14:09:08Z</time>
      </trkpt>
      <trkpt lat="43.36456" lon="6.1366">
        <ele>398.65472412109</ele>
        <time>2014-12-10T14:09:22Z</time>
      </trkpt>
      <trkpt lat="43.36456" lon="6.1365">
        <ele>398.68283081055</ele>
        <time>2014-12-10T14:09:26Z</time>
      </trkpt>
      <trkpt lat="43.36455" lon="6.13646">
        <ele>399.05212402344</ele>
        <time>2014-12-10T14:09:28Z</time>
      </trkpt>
      <trkpt lat="43.36456" lon="6.13638">
        <ele>398.68478393555</ele>
        <time>2014-12-10T14:09:31Z</time>
      </trkpt>
      <trkpt lat="43.36455" lon="6.13631">
        <ele>398.75024414062</ele>
        <time>2014-12-10T14:09:34Z</time>
      </trkpt>
      <trkpt lat="43.36457" lon="6.13615">
        <ele>397.71353149414</ele>
        <time>2014-12-10T14:09:40Z</time>
      </trkpt>
      <trkpt lat="43.36458" lon="6.13612">
        <ele>397.53378295898</ele>
        <time>2014-12-10T14:09:41Z</time>
      </trkpt>
      <trkpt lat="43.36457" lon="6.1361">
        <ele>397.65139770508</ele>
        <time>2014-12-10T14:09:42Z</time>
      </trkpt>
      <trkpt lat="43.36455" lon="6.136">
        <ele>398.4040222168</ele>
        <time>2014-12-10T14:09:46Z</time>
      </trkpt>
      <trkpt lat="43.36448" lon="6.13587">
        <ele>401.03302001953</ele>
        <time>2014-12-10T14:09:52Z</time>
      </trkpt>
      <trkpt lat="43.36443" lon="6.1358">
        <ele>402.77749633789</ele>
        <time>2014-12-10T14:09:56Z</time>
      </trkpt>
      <trkpt lat="43.3644" lon="6.13575">
        <ele>403.92419433594</ele>
        <time>2014-12-10T14:09:59Z</time>
      </trkpt>
      <trkpt lat="43.36433" lon="6.1357">
        <ele>406.08770751953</ele>
        <time>2014-12-10T14:10:04Z</time>
      </trkpt>
      <trkpt lat="43.3643" lon="6.13569">
        <ele>407.22695922852</ele>
        <time>2014-12-10T14:10:06Z</time>
      </trkpt>
      <trkpt lat="43.36424" lon="6.13566">
        <ele>409.60046386719</ele>
        <time>2014-12-10T14:10:11Z</time>
      </trkpt>
      <trkpt lat="43.36418" lon="6.13562">
        <ele>411.81890869141</ele>
        <time>2014-12-10T14:10:16Z</time>
      </trkpt>
      <trkpt lat="43.36415" lon="6.1356">
        <ele>412.61370849609</ele>
        <time>2014-12-10T14:10:18Z</time>
      </trkpt>
      <trkpt lat="43.36415" lon="6.13558">
        <ele>412.82510375977</ele>
        <time>2014-12-10T14:10:20Z</time>
      </trkpt>
      <trkpt lat="43.36412" lon="6.13553">
        <ele>413.80151367188</ele>
        <time>2014-12-10T14:10:23Z</time>
      </trkpt>
      <trkpt lat="43.36409" lon="6.1355">
        <ele>414.55950927734</ele>
        <time>2014-12-10T14:10:25Z</time>
      </trkpt>
      <trkpt lat="43.36407" lon="6.13539">
        <ele>415.03717041016</ele>
        <time>2014-12-10T14:10:30Z</time>
      </trkpt>
      <trkpt lat="43.36407" lon="6.13534">
        <ele>414.85559082031</ele>
        <time>2014-12-10T14:10:32Z</time>
      </trkpt>
      <trkpt lat="43.36408" lon="6.13533">
        <ele>414.37033081055</ele>
        <time>2014-12-10T14:10:33Z</time>
      </trkpt>
      <trkpt lat="43.36411" lon="6.13528">
        <ele>413.34976196289</ele>
        <time>2014-12-10T14:10:35Z</time>
      </trkpt>
      <trkpt lat="43.36417" lon="6.13519">
        <ele>410.68753051758</ele>
        <time>2014-12-10T14:10:40Z</time>
      </trkpt>
      <trkpt lat="43.36417" lon="6.13518">
        <ele>410.35690307617</ele>
        <time>2014-12-10T14:10:41Z</time>
      </trkpt>
      <trkpt lat="43.36418" lon="6.13512">
        <ele>410.00271606445</ele>
        <time>2014-12-10T14:10:43Z</time>
      </trkpt>
      <trkpt lat="43.36419" lon="6.1351">
        <ele>409.4928894043</ele>
        <time>2014-12-10T14:10:44Z</time>
      </trkpt>
      <trkpt lat="43.36423" lon="6.13499">
        <ele>407.31893920898</ele>
        <time>2014-12-10T14:10:50Z</time>
      </trkpt>
      <trkpt lat="43.36425" lon="6.13498">
        <ele>406.7453918457</ele>
        <time>2014-12-10T14:10:51Z</time>
      </trkpt>
      <trkpt lat="43.36429" lon="6.13485">
        <ele>404.14715576172</ele>
        <time>2014-12-10T14:10:58Z</time>
      </trkpt>
      <trkpt lat="43.36432" lon="6.13483">
        <ele>402.95779418945</ele>
        <time>2014-12-10T14:10:59Z</time>
      </trkpt>
      <trkpt lat="43.36433" lon="6.13478">
        <ele>402.2033996582</ele>
        <time>2014-12-10T14:11:01Z</time>
      </trkpt>
      <trkpt lat="43.36433" lon="6.13477">
        <ele>401.77108764648</ele>
        <time>2014-12-10T14:11:02Z</time>
      </trkpt>
      <trkpt lat="43.36434" lon="6.13472">
        <ele>401.2887878418</ele>
        <time>2014-12-10T14:11:04Z</time>
      </trkpt>
      <trkpt lat="43.36435" lon="6.13462">
        <ele>400.09375</ele>
        <time>2014-12-10T14:11:09Z</time>
      </trkpt>
      <trkpt lat="43.36435" lon="6.1346">
        <ele>399.90502929688</ele>
        <time>2014-12-10T14:11:10Z</time>
      </trkpt>
      <trkpt lat="43.36434" lon="6.13444">
        <ele>399.01831054688</ele>
        <time>2014-12-10T14:11:16Z</time>
      </trkpt>
      <trkpt lat="43.36434" lon="6.13428">
        <ele>397.92468261719</ele>
        <time>2014-12-10T14:11:22Z</time>
      </trkpt>
      <trkpt lat="43.36433" lon="6.1341">
        <ele>396.64828491211</ele>
        <time>2014-12-10T14:11:29Z</time>
      </trkpt>
      <trkpt lat="43.36432" lon="6.13394">
        <ele>395.35751342773</ele>
        <time>2014-12-10T14:11:35Z</time>
      </trkpt>
      <trkpt lat="43.36431" lon="6.13388">
        <ele>395.11840820312</ele>
        <time>2014-12-10T14:11:37Z</time>
      </trkpt>
      <trkpt lat="43.3643" lon="6.13382">
        <ele>394.87109375</ele>
        <time>2014-12-10T14:11:39Z</time>
      </trkpt>
      <trkpt lat="43.36428" lon="6.13377">
        <ele>395.10299682617</ele>
        <time>2014-12-10T14:11:41Z</time>
      </trkpt>
      <trkpt lat="43.36421" lon="6.13365">
        <ele>395.96426391602</ele>
        <time>2014-12-10T14:11:47Z</time>
      </trkpt>
      <trkpt lat="43.3642" lon="6.13363">
        <ele>396.27243041992</ele>
        <time>2014-12-10T14:11:48Z</time>
      </trkpt>
      <trkpt lat="43.36409" lon="6.13355">
        <ele>398.71047973633</ele>
        <time>2014-12-10T14:11:55Z</time>
      </trkpt>
      <trkpt lat="43.364" lon="6.1335">
        <ele>401.27182006836</ele>
        <time>2014-12-10T14:12:01Z</time>
      </trkpt>
      <trkpt lat="43.36398" lon="6.13351">
        <ele>402.19839477539</ele>
        <time>2014-12-10T14:12:03Z</time>
      </trkpt>
      <trkpt lat="43.36395" lon="6.13351">
        <ele>403.03344726562</ele>
        <time>2014-12-10T14:12:06Z</time>
      </trkpt>
      <trkpt lat="43.36388" lon="6.13351">
        <ele>405.40032958984</ele>
        <time>2014-12-10T14:12:12Z</time>
      </trkpt>
      <trkpt lat="43.36383" lon="6.13349">
        <ele>406.54473876953</ele>
        <time>2014-12-10T14:12:14Z</time>
      </trkpt>
      <trkpt lat="43.36377" lon="6.13348">
        <ele>408.50335693359</ele>
        <time>2014-12-10T14:12:19Z</time>
      </trkpt>
      <trkpt lat="43.36374" lon="6.13349">
        <ele>409.7262878418</ele>
        <time>2014-12-10T14:12:21Z</time>
      </trkpt>
      <trkpt lat="43.3637" lon="6.1335">
        <ele>410.8694152832</ele>
        <time>2014-12-10T14:12:23Z</time>
      </trkpt>
      <trkpt lat="43.36369" lon="6.13351">
        <ele>411.36883544922</ele>
        <time>2014-12-10T14:12:24Z</time>
      </trkpt>
      <trkpt lat="43.36368" lon="6.13351">
        <ele>411.86712646484</ele>
        <time>2014-12-10T14:12:25Z</time>
      </trkpt>
      <trkpt lat="43.36362" lon="6.13352">
        <ele>413.81848144531</ele>
        <time>2014-12-10T14:12:29Z</time>
      </trkpt>
      <trkpt lat="43.36356" lon="6.13351">
        <ele>415.81427001953</ele>
        <time>2014-12-10T14:12:33Z</time>
      </trkpt>
      <trkpt lat="43.36351" lon="6.1335">
        <ele>417.40539550781</ele>
        <time>2014-12-10T14:12:36Z</time>
      </trkpt>
      <trkpt lat="43.36346" lon="6.1335">
        <ele>418.69082641602</ele>
        <time>2014-12-10T14:12:38Z</time>
      </trkpt>
      <trkpt lat="43.36339" lon="6.13345">
        <ele>420.65209960938</ele>
        <time>2014-12-10T14:12:43Z</time>
      </trkpt>
      <trkpt lat="43.36334" lon="6.13343">
        <ele>421.81161499023</ele>
        <time>2014-12-10T14:12:46Z</time>
      </trkpt>
      <trkpt lat="43.36327" lon="6.13338">
        <ele>423.63323974609</ele>
        <time>2014-12-10T14:12:50Z</time>
      </trkpt>
      <trkpt lat="43.36319" lon="6.1333">
        <ele>425.87936401367</ele>
        <time>2014-12-10T14:12:56Z</time>
      </trkpt>
      <trkpt lat="43.36318" lon="6.13328">
        <ele>426.29153442383</ele>
        <time>2014-12-10T14:12:57Z</time>
      </trkpt>
      <trkpt lat="43.36314" lon="6.13317">
        <ele>428.03472900391</ele>
        <time>2014-12-10T14:13:04Z</time>
      </trkpt>
      <trkpt lat="43.3631" lon="6.13311">
        <ele>429.38531494141</ele>
        <time>2014-12-10T14:13:08Z</time>
      </trkpt>
      <trkpt lat="43.36307" lon="6.13306">
        <ele>430.61483764648</ele>
        <time>2014-12-10T14:13:12Z</time>
      </trkpt>
      <trkpt lat="43.36306" lon="6.133">
        <ele>431.15444946289</ele>
        <time>2014-12-10T14:13:16Z</time>
      </trkpt>
      <trkpt lat="43.36303" lon="6.13295">
        <ele>432.44863891602</ele>
        <time>2014-12-10T14:13:20Z</time>
      </trkpt>
      <trkpt lat="43.36302" lon="6.13292">
        <ele>432.83181762695</ele>
        <time>2014-12-10T14:13:22Z</time>
      </trkpt>
      <trkpt lat="43.36298" lon="6.13283">
        <ele>434.88583374023</ele>
        <time>2014-12-10T14:13:28Z</time>
      </trkpt>
      <trkpt lat="43.36294" lon="6.13273">
        <ele>436.77313232422</ele>
        <time>2014-12-10T14:13:35Z</time>
      </trkpt>
      <trkpt lat="43.36294" lon="6.13272">
        <ele>436.82272338867</ele>
        <time>2014-12-10T14:13:36Z</time>
      </trkpt>
      <trkpt lat="43.36294" lon="6.13262">
        <ele>437.14428710938</ele>
        <time>2014-12-10T14:13:41Z</time>
      </trkpt>
      <trkpt lat="43.363" lon="6.13254">
        <ele>434.90185546875</ele>
        <time>2014-12-10T14:13:47Z</time>
      </trkpt>
      <trkpt lat="43.36308" lon="6.13249">
        <ele>431.46939086914</ele>
        <time>2014-12-10T14:13:51Z</time>
      </trkpt>
      <trkpt lat="43.36309" lon="6.13248">
        <ele>430.82699584961</ele>
        <time>2014-12-10T14:13:52Z</time>
      </trkpt>
      <trkpt lat="43.36319" lon="6.13237">
        <ele>426.76034545898</ele>
        <time>2014-12-10T14:13:58Z</time>
      </trkpt>
      <trkpt lat="43.36323" lon="6.13224">
        <ele>425.07067871094</ele>
        <time>2014-12-10T14:14:04Z</time>
      </trkpt>
      <trkpt lat="43.36324" lon="6.13223">
        <ele>424.75170898438</ele>
        <time>2014-12-10T14:14:05Z</time>
      </trkpt>
      <trkpt lat="43.36325" lon="6.13208">
        <ele>424.4397277832</ele>
        <time>2014-12-10T14:14:11Z</time>
      </trkpt>
      <trkpt lat="43.36325" lon="6.13193">
        <ele>424.6594543457</ele>
        <time>2014-12-10T14:14:17Z</time>
      </trkpt>
      <trkpt lat="43.36324" lon="6.13172">
        <ele>425.14691162109</ele>
        <time>2014-12-10T14:14:26Z</time>
      </trkpt>
      <trkpt lat="43.36326" lon="6.13164">
        <ele>424.3039855957</ele>
        <time>2014-12-10T14:14:29Z</time>
      </trkpt>
      <trkpt lat="43.36325" lon="6.13163">
        <ele>424.50540161133</ele>
        <time>2014-12-10T14:14:30Z</time>
      </trkpt>
      <trkpt lat="43.36325" lon="6.1316">
        <ele>424.07568359375</ele>
        <time>2014-12-10T14:14:31Z</time>
      </trkpt>
      <trkpt lat="43.36327" lon="6.13141">
        <ele>421.88494873047</ele>
        <time>2014-12-10T14:14:39Z</time>
      </trkpt>
      <trkpt lat="43.36323" lon="6.13122">
        <ele>421.82693481445</ele>
        <time>2014-12-10T14:14:47Z</time>
      </trkpt>
      <trkpt lat="43.36322" lon="6.13117">
        <ele>421.71115112305</ele>
        <time>2014-12-10T14:14:49Z</time>
      </trkpt>
      <trkpt lat="43.3632" lon="6.13112">
        <ele>422.06280517578</ele>
        <time>2014-12-10T14:14:51Z</time>
      </trkpt>
      <trkpt lat="43.36319" lon="6.1311">
        <ele>422.17446899414</ele>
        <time>2014-12-10T14:14:52Z</time>
      </trkpt>
      <trkpt lat="43.36317" lon="6.13105">
        <ele>422.52908325195</ele>
        <time>2014-12-10T14:14:54Z</time>
      </trkpt>
      <trkpt lat="43.36311" lon="6.13097">
        <ele>424.50650024414</ele>
        <time>2014-12-10T14:14:58Z</time>
      </trkpt>
      <trkpt lat="43.36308" lon="6.13093">
        <ele>425.41110229492</ele>
        <time>2014-12-10T14:15:00Z</time>
      </trkpt>
      <trkpt lat="43.36301" lon="6.13083">
        <ele>426.89175415039</ele>
        <time>2014-12-10T14:15:05Z</time>
      </trkpt>
      <trkpt lat="43.363" lon="6.13081">
        <ele>427.10690307617</ele>
        <time>2014-12-10T14:15:06Z</time>
      </trkpt>
      <trkpt lat="43.36299" lon="6.13079">
        <ele>427.16174316406</ele>
        <time>2014-12-10T14:15:07Z</time>
      </trkpt>
      <trkpt lat="43.36292" lon="6.13066">
        <ele>427.1559753418</ele>
        <time>2014-12-10T14:15:13Z</time>
      </trkpt>
      <trkpt lat="43.36285" lon="6.13055">
        <ele>426.99942016602</ele>
        <time>2014-12-10T14:15:19Z</time>
      </trkpt>
      <trkpt lat="43.36283" lon="6.13051">
        <ele>426.96047973633</ele>
        <time>2014-12-10T14:15:21Z</time>
      </trkpt>
      <trkpt lat="43.36275" lon="6.13039">
        <ele>426.62579345703</ele>
        <time>2014-12-10T14:15:28Z</time>
      </trkpt>
      <trkpt lat="43.3627" lon="6.13029">
        <ele>425.97540283203</ele>
        <time>2014-12-10T14:15:34Z</time>
      </trkpt>
      <trkpt lat="43.36267" lon="6.13026">
        <ele>426.07940673828</ele>
        <time>2014-12-10T14:15:36Z</time>
      </trkpt>
      <trkpt lat="43.36262" lon="6.13019">
        <ele>426.26824951172</ele>
        <time>2014-12-10T14:15:41Z</time>
      </trkpt>
      <trkpt lat="43.36259" lon="6.13016">
        <ele>426.23556518555</ele>
        <time>2014-12-10T14:15:43Z</time>
      </trkpt>
      <trkpt lat="43.36256" lon="6.13012">
        <ele>426.14169311523</ele>
        <time>2014-12-10T14:15:46Z</time>
      </trkpt>
      <trkpt lat="43.36254" lon="6.13009">
        <ele>426.23345947266</ele>
        <time>2014-12-10T14:15:48Z</time>
      </trkpt>
      <trkpt lat="43.36247" lon="6.13001">
        <ele>426.22241210938</ele>
        <time>2014-12-10T14:15:54Z</time>
      </trkpt>
      <trkpt lat="43.36241" lon="6.12994">
        <ele>426.16949462891</ele>
        <time>2014-12-10T14:15:59Z</time>
      </trkpt>
      <trkpt lat="43.36238" lon="6.12992">
        <ele>426.58264160156</ele>
        <time>2014-12-10T14:16:01Z</time>
      </trkpt>
      <trkpt lat="43.36232" lon="6.12986">
        <ele>427.02557373047</ele>
        <time>2014-12-10T14:16:06Z</time>
      </trkpt>
      <trkpt lat="43.3623" lon="6.12984">
        <ele>426.97616577148</ele>
        <time>2014-12-10T14:16:08Z</time>
      </trkpt>
      <trkpt lat="43.36224" lon="6.12978">
        <ele>427.34927368164</ele>
        <time>2014-12-10T14:16:13Z</time>
      </trkpt>
      <trkpt lat="43.36222" lon="6.12975">
        <ele>427.27313232422</ele>
        <time>2014-12-10T14:16:15Z</time>
      </trkpt>
      <trkpt lat="43.36213" lon="6.12966">
        <ele>427.60247802734</ele>
        <time>2014-12-10T14:16:22Z</time>
      </trkpt>
      <trkpt lat="43.36206" lon="6.12957">
        <ele>427.44723510742</ele>
        <time>2014-12-10T14:16:29Z</time>
      </trkpt>
      <trkpt lat="43.36203" lon="6.12952">
        <ele>427.55352783203</ele>
        <time>2014-12-10T14:16:33Z</time>
      </trkpt>
      <trkpt lat="43.36196" lon="6.12948">
        <ele>428.44262695312</ele>
        <time>2014-12-10T14:16:39Z</time>
      </trkpt>
      <trkpt lat="43.36192" lon="6.12947">
        <ele>429.23065185547</ele>
        <time>2014-12-10T14:16:42Z</time>
      </trkpt>
      <trkpt lat="43.36187" lon="6.12945">
        <ele>430.31756591797</ele>
        <time>2014-12-10T14:16:46Z</time>
      </trkpt>
      <trkpt lat="43.36178" lon="6.12942">
        <ele>432.32568359375</ele>
        <time>2014-12-10T14:16:54Z</time>
      </trkpt>
      <trkpt lat="43.36175" lon="6.12941">
        <ele>432.88815307617</ele>
        <time>2014-12-10T14:16:56Z</time>
      </trkpt>
      <trkpt lat="43.36171" lon="6.1294">
        <ele>433.94247436523</ele>
        <time>2014-12-10T14:17:00Z</time>
      </trkpt>
      <trkpt lat="43.36167" lon="6.1294">
        <ele>434.8681640625</ele>
        <time>2014-12-10T14:17:03Z</time>
      </trkpt>
      <trkpt lat="43.36158" lon="6.12943">
        <ele>438.06469726562</ele>
        <time>2014-12-10T14:17:10Z</time>
      </trkpt>
      <trkpt lat="43.36157" lon="6.12943">
        <ele>438.27972412109</ele>
        <time>2014-12-10T14:17:11Z</time>
      </trkpt>
      <trkpt lat="43.36151" lon="6.12943">
        <ele>439.81594848633</ele>
        <time>2014-12-10T14:17:14Z</time>
      </trkpt>
      <trkpt lat="43.36145" lon="6.12943">
        <ele>441.42224121094</ele>
        <time>2014-12-10T14:17:17Z</time>
      </trkpt>
      <trkpt lat="43.3614" lon="6.12942">
        <ele>442.72955322266</ele>
        <time>2014-12-10T14:17:20Z</time>
      </trkpt>
      <trkpt lat="43.36133" lon="6.12937">
        <ele>443.45336914062</ele>
        <time>2014-12-10T14:17:24Z</time>
      </trkpt>
      <trkpt lat="43.36126" lon="6.12927">
        <ele>443.30258178711</ele>
        <time>2014-12-10T14:17:29Z</time>
      </trkpt>
      <trkpt lat="43.36123" lon="6.12919">
        <ele>442.64239501953</ele>
        <time>2014-12-10T14:17:32Z</time>
      </trkpt>
      <trkpt lat="43.36118" lon="6.12906">
        <ele>441.97265625</ele>
        <time>2014-12-10T14:17:38Z</time>
      </trkpt>
      <trkpt lat="43.36118" lon="6.12901">
        <ele>441.49465942383</ele>
        <time>2014-12-10T14:17:40Z</time>
      </trkpt>
      <trkpt lat="43.36113" lon="6.1289">
        <ele>441.25112915039</ele>
        <time>2014-12-10T14:17:46Z</time>
      </trkpt>
      <trkpt lat="43.3611" lon="6.12889">
        <ele>441.88278198242</ele>
        <time>2014-12-10T14:17:48Z</time>
      </trkpt>
      <trkpt lat="43.36109" lon="6.1289">
        <ele>442.34591674805</ele>
        <time>2014-12-10T14:17:49Z</time>
      </trkpt>
      <trkpt lat="43.36108" lon="6.12893">
        <ele>442.9814453125</ele>
        <time>2014-12-10T14:17:51Z</time>
      </trkpt>
      <trkpt lat="43.36107" lon="6.129">
        <ele>444.25799560547</ele>
        <time>2014-12-10T14:17:55Z</time>
      </trkpt>
      <trkpt lat="43.36107" lon="6.1291">
        <ele>445.58624267578</ele>
        <time>2014-12-10T14:18:00Z</time>
      </trkpt>
      <trkpt lat="43.36108" lon="6.12913">
        <ele>445.84097290039</ele>
        <time>2014-12-10T14:18:02Z</time>
      </trkpt>
      <trkpt lat="43.36108" lon="6.12917">
        <ele>446.24224853516</ele>
        <time>2014-12-10T14:18:04Z</time>
      </trkpt>
      <trkpt lat="43.36108" lon="6.12922">
        <ele>447.06872558594</ele>
        <time>2014-12-10T14:18:06Z</time>
      </trkpt>
      <trkpt lat="43.36108" lon="6.12923">
        <ele>447.3157043457</ele>
        <time>2014-12-10T14:18:07Z</time>
      </trkpt>
      <trkpt lat="43.36109" lon="6.1293">
        <ele>448.43789672852</ele>
        <time>2014-12-10T14:18:11Z</time>
      </trkpt>
      <trkpt lat="43.36109" lon="6.12931">
        <ele>448.72317504883</ele>
        <time>2014-12-10T14:18:12Z</time>
      </trkpt>
      <trkpt lat="43.3611" lon="6.12935">
        <ele>449.52340698242</ele>
        <time>2014-12-10T14:18:15Z</time>
      </trkpt>
      <trkpt lat="43.36111" lon="6.12939">
        <ele>449.94763183594</ele>
        <time>2014-12-10T14:18:18Z</time>
      </trkpt>
      <trkpt lat="43.36112" lon="6.12942">
        <ele>450.19290161133</ele>
        <time>2014-12-10T14:18:20Z</time>
      </trkpt>
      <trkpt lat="43.36115" lon="6.1295">
        <ele>451.05081176758</ele>
        <time>2014-12-10T14:18:25Z</time>
      </trkpt>
      <trkpt lat="43.36115" lon="6.12952">
        <ele>451.52615356445</ele>
        <time>2014-12-10T14:18:26Z</time>
      </trkpt>
      <trkpt lat="43.36116" lon="6.12963">
        <ele>453.35299682617</ele>
        <time>2014-12-10T14:18:33Z</time>
      </trkpt>
      <trkpt lat="43.36119" lon="6.12968">
        <ele>453.65023803711</ele>
        <time>2014-12-10T14:18:37Z</time>
      </trkpt>
      <trkpt lat="43.36125" lon="6.1298">
        <ele>454.27230834961</ele>
        <time>2014-12-10T14:18:46Z</time>
      </trkpt>
      <trkpt lat="43.36129" lon="6.12983">
        <ele>454.07107543945</ele>
        <time>2014-12-10T14:18:50Z</time>
      </trkpt>
      <trkpt lat="43.36134" lon="6.12987">
        <ele>453.49789428711</ele>
        <time>2014-12-10T14:18:56Z</time>
      </trkpt>
      <trkpt lat="43.36142" lon="6.12993">
        <ele>452.72247314453</ele>
        <time>2014-12-10T14:19:03Z</time>
      </trkpt>
      <trkpt lat="43.36148" lon="6.12995">
        <ele>451.5634765625</ele>
        <time>2014-12-10T14:19:08Z</time>
      </trkpt>
      <trkpt lat="43.36157" lon="6.12996">
        <ele>449.48638916016</ele>
        <time>2014-12-10T14:19:15Z</time>
      </trkpt>
      <trkpt lat="43.36167" lon="6.13001">
        <ele>448.06353759766</ele>
        <time>2014-12-10T14:19:23Z</time>
      </trkpt>
      <trkpt lat="43.3617" lon="6.13002">
        <ele>447.64166259766</ele>
        <time>2014-12-10T14:19:25Z</time>
      </trkpt>
      <trkpt lat="43.36173" lon="6.13004">
        <ele>447.30914306641</ele>
        <time>2014-12-10T14:19:28Z</time>
      </trkpt>
      <trkpt lat="43.36177" lon="6.13009">
        <ele>447.6647644043</ele>
        <time>2014-12-10T14:19:32Z</time>
      </trkpt>
      <trkpt lat="43.36182" lon="6.13018">
        <ele>448.99810791016</ele>
        <time>2014-12-10T14:19:38Z</time>
      </trkpt>
      <trkpt lat="43.36184" lon="6.13022">
        <ele>449.46051025391</ele>
        <time>2014-12-10T14:19:41Z</time>
      </trkpt>
      <trkpt lat="43.36192" lon="6.13036">
        <ele>451.29095458984</ele>
        <time>2014-12-10T14:19:51Z</time>
      </trkpt>
      <trkpt lat="43.36195" lon="6.13041">
        <ele>452.07141113281</ele>
        <time>2014-12-10T14:19:55Z</time>
      </trkpt>
      <trkpt lat="43.36196" lon="6.13046">
        <ele>452.92657470703</ele>
        <time>2014-12-10T14:19:58Z</time>
      </trkpt>
      <trkpt lat="43.36198" lon="6.13049">
        <ele>453.29299926758</ele>
        <time>2014-12-10T14:20:00Z</time>
      </trkpt>
      <trkpt lat="43.36204" lon="6.13062">
        <ele>455.3258972168</ele>
        <time>2014-12-10T14:20:09Z</time>
      </trkpt>
      <trkpt lat="43.36205" lon="6.13064">
        <ele>455.43087768555</ele>
        <time>2014-12-10T14:20:10Z</time>
      </trkpt>
      <trkpt lat="43.36213" lon="6.13079">
        <ele>457.53552246094</ele>
        <time>2014-12-10T14:20:21Z</time>
      </trkpt>
      <trkpt lat="43.36217" lon="6.13089">
        <ele>458.32723999023</ele>
        <time>2014-12-10T14:20:28Z</time>
      </trkpt>
      <trkpt lat="43.36219" lon="6.13094">
        <ele>458.79742431641</ele>
        <time>2014-12-10T14:20:31Z</time>
      </trkpt>
      <trkpt lat="43.3622" lon="6.13103">
        <ele>459.77792358398</ele>
        <time>2014-12-10T14:20:37Z</time>
      </trkpt>
      <trkpt lat="43.36221" lon="6.13107">
        <ele>460.03234863281</ele>
        <time>2014-12-10T14:20:40Z</time>
      </trkpt>
      <trkpt lat="43.36222" lon="6.13113">
        <ele>460.83282470703</ele>
        <time>2014-12-10T14:20:44Z</time>
      </trkpt>
      <trkpt lat="43.36222" lon="6.13123">
        <ele>462.36712646484</ele>
        <time>2014-12-10T14:20:50Z</time>
      </trkpt>
      <trkpt lat="43.36222" lon="6.13129">
        <ele>463.24719238281</ele>
        <time>2014-12-10T14:20:54Z</time>
      </trkpt>
      <trkpt lat="43.36221" lon="6.13137">
        <ele>464.82397460938</ele>
        <time>2014-12-10T14:21:00Z</time>
      </trkpt>
      <trkpt lat="43.36219" lon="6.13145">
        <ele>466.88854980469</ele>
        <time>2014-12-10T14:21:06Z</time>
      </trkpt>
      <trkpt lat="43.36214" lon="6.13154">
        <ele>469.92987060547</ele>
        <time>2014-12-10T14:21:13Z</time>
      </trkpt>
      <trkpt lat="43.36213" lon="6.13156">
        <ele>470.61334228516</ele>
        <time>2014-12-10T14:21:15Z</time>
      </trkpt>
      <trkpt lat="43.36208" lon="6.13162">
        <ele>473.28244018555</ele>
        <time>2014-12-10T14:21:21Z</time>
      </trkpt>
      <trkpt lat="43.36205" lon="6.13165">
        <ele>474.89068603516</ele>
        <time>2014-12-10T14:21:25Z</time>
      </trkpt>
      <trkpt lat="43.36203" lon="6.13168">
        <ele>475.77868652344</ele>
        <time>2014-12-10T14:21:28Z</time>
      </trkpt>
      <trkpt lat="43.36202" lon="6.13169">
        <ele>476.02630615234</ele>
        <time>2014-12-10T14:21:29Z</time>
      </trkpt>
      <trkpt lat="43.36198" lon="6.13169">
        <ele>477.31170654297</ele>
        <time>2014-12-10T14:21:32Z</time>
      </trkpt>
      <trkpt lat="43.36192" lon="6.13169">
        <ele>479.62966918945</ele>
        <time>2014-12-10T14:21:38Z</time>
      </trkpt>
      <trkpt lat="43.36191" lon="6.13169">
        <ele>479.88751220703</ele>
        <time>2014-12-10T14:21:39Z</time>
      </trkpt>
      <trkpt lat="43.36185" lon="6.1317">
        <ele>481.69082641602</ele>
        <time>2014-12-10T14:21:44Z</time>
      </trkpt>
      <trkpt lat="43.3618" lon="6.1317">
        <ele>483.36828613281</ele>
        <time>2014-12-10T14:21:49Z</time>
      </trkpt>
      <trkpt lat="43.36171" lon="6.13171">
        <ele>486.72436523438</ele>
        <time>2014-12-10T14:21:58Z</time>
      </trkpt>
      <trkpt lat="43.36159" lon="6.13169">
        <ele>489.28399658203</ele>
        <time>2014-12-10T14:22:08Z</time>
      </trkpt>
      <trkpt lat="43.3615" lon="6.13167">
        <ele>490.67303466797</ele>
        <time>2014-12-10T14:22:17Z</time>
      </trkpt>
      <trkpt lat="43.36145" lon="6.13166">
        <ele>491.34063720703</ele>
        <time>2014-12-10T14:22:21Z</time>
      </trkpt>
      <trkpt lat="43.36141" lon="6.13165">
        <ele>491.66928100586</ele>
        <time>2014-12-10T14:22:24Z</time>
      </trkpt>
      <trkpt lat="43.36139" lon="6.13164">
        <ele>491.8225402832</ele>
        <time>2014-12-10T14:22:26Z</time>
      </trkpt>
      <trkpt lat="43.36132" lon="6.1316">
        <ele>492.2282409668</ele>
        <time>2014-12-10T14:22:33Z</time>
      </trkpt>
      <trkpt lat="43.36125" lon="6.13155">
        <ele>492.53225708008</ele>
        <time>2014-12-10T14:22:39Z</time>
      </trkpt>
      <trkpt lat="43.36122" lon="6.13152">
        <ele>492.43914794922</ele>
        <time>2014-12-10T14:22:42Z</time>
      </trkpt>
      <trkpt lat="43.36118" lon="6.13145">
        <ele>491.91754150391</ele>
        <time>2014-12-10T14:22:47Z</time>
      </trkpt>
      <trkpt lat="43.36116" lon="6.13142">
        <ele>491.8420715332</ele>
        <time>2014-12-10T14:22:49Z</time>
      </trkpt>
      <trkpt lat="43.36114" lon="6.13141">
        <ele>491.95797729492</ele>
        <time>2014-12-10T14:22:51Z</time>
      </trkpt>
      <trkpt lat="43.36106" lon="6.13139">
        <ele>492.86026000977</ele>
        <time>2014-12-10T14:22:57Z</time>
      </trkpt>
      <trkpt lat="43.36105" lon="6.13138">
        <ele>492.94995117188</ele>
        <time>2014-12-10T14:22:58Z</time>
      </trkpt>
      <trkpt lat="43.36103" lon="6.13138">
        <ele>493.20803833008</ele>
        <time>2014-12-10T14:23:00Z</time>
      </trkpt>
      <trkpt lat="43.36094" lon="6.13139">
        <ele>494.91040039062</ele>
        <time>2014-12-10T14:23:08Z</time>
      </trkpt>
      <trkpt lat="43.36084" lon="6.1314">
        <ele>496.69110107422</ele>
        <time>2014-12-10T14:23:16Z</time>
      </trkpt>
      <trkpt lat="43.36081" lon="6.13141">
        <ele>497.09930419922</ele>
        <time>2014-12-10T14:23:19Z</time>
      </trkpt>
      <trkpt lat="43.36066" lon="6.1314">
        <ele>498.3874206543</ele>
        <time>2014-12-10T14:23:31Z</time>
      </trkpt>
      <trkpt lat="43.36058" lon="6.13138">
        <ele>498.78103637695</ele>
        <time>2014-12-10T14:23:38Z</time>
      </trkpt>
      <trkpt lat="43.36056" lon="6.13139">
        <ele>499.01663208008</ele>
        <time>2014-12-10T14:23:40Z</time>
      </trkpt>
      <trkpt lat="43.3605" lon="6.13136">
        <ele>499.20751953125</ele>
        <time>2014-12-10T14:23:45Z</time>
      </trkpt>
      <trkpt lat="43.36046" lon="6.13133">
        <ele>499.21347045898</ele>
        <time>2014-12-10T14:23:49Z</time>
      </trkpt>
      <trkpt lat="43.36045" lon="6.13132">
        <ele>499.16168212891</ele>
        <time>2014-12-10T14:23:50Z</time>
      </trkpt>
      <trkpt lat="43.36036" lon="6.13129">
        <ele>499.5537109375</ele>
        <time>2014-12-10T14:23:58Z</time>
      </trkpt>
      <trkpt lat="43.36028" lon="6.13125">
        <ele>499.83041381836</ele>
        <time>2014-12-10T14:24:05Z</time>
      </trkpt>
      <trkpt lat="43.36019" lon="6.13124">
        <ele>500.51440429688</ele>
        <time>2014-12-10T14:24:14Z</time>
      </trkpt>
      <trkpt lat="43.36018" lon="6.13124">
        <ele>500.55990600586</ele>
        <time>2014-12-10T14:24:15Z</time>
      </trkpt>
      <trkpt lat="43.36016" lon="6.13123">
        <ele>500.79623413086</ele>
        <time>2014-12-10T14:24:18Z</time>
      </trkpt>
      <trkpt lat="43.36009" lon="6.13124">
        <ele>501.44665527344</ele>
        <time>2014-12-10T14:24:24Z</time>
      </trkpt>
      <trkpt lat="43.36002" lon="6.13122">
        <ele>501.91879272461</ele>
        <time>2014-12-10T14:24:30Z</time>
      </trkpt>
      <trkpt lat="43.36" lon="6.13122">
        <ele>502.13250732422</ele>
        <time>2014-12-10T14:24:32Z</time>
      </trkpt>
      <trkpt lat="43.35996" lon="6.13124">
        <ele>501.96450805664</ele>
        <time>2014-12-10T14:24:36Z</time>
      </trkpt>
      <trkpt lat="43.35995" lon="6.13126">
        <ele>502.10437011719</ele>
        <time>2014-12-10T14:24:38Z</time>
      </trkpt>
      <trkpt lat="43.35994" lon="6.1313">
        <ele>502.48388671875</ele>
        <time>2014-12-10T14:24:41Z</time>
      </trkpt>
      <trkpt lat="43.35993" lon="6.13135">
        <ele>502.88372802734</ele>
        <time>2014-12-10T14:24:44Z</time>
      </trkpt>
      <trkpt lat="43.35994" lon="6.13141">
        <ele>503.67059326172</ele>
        <time>2014-12-10T14:24:48Z</time>
      </trkpt>
      <trkpt lat="43.35996" lon="6.13151">
        <ele>504.92306518555</ele>
        <time>2014-12-10T14:24:54Z</time>
      </trkpt>
      <trkpt lat="43.35997" lon="6.13152">
        <ele>505.10913085938</ele>
        <time>2014-12-10T14:24:55Z</time>
      </trkpt>
      <trkpt lat="43.36" lon="6.13163">
        <ele>506.55511474609</ele>
        <time>2014-12-10T14:25:03Z</time>
      </trkpt>
      <trkpt lat="43.36002" lon="6.13165">
        <ele>506.72811889648</ele>
        <time>2014-12-10T14:25:05Z</time>
      </trkpt>
      <trkpt lat="43.36003" lon="6.13171">
        <ele>507.19219970703</ele>
        <time>2014-12-10T14:25:09Z</time>
      </trkpt>
      <trkpt lat="43.36005" lon="6.13175">
        <ele>507.54495239258</ele>
        <time>2014-12-10T14:25:12Z</time>
      </trkpt>
      <trkpt lat="43.36008" lon="6.13184">
        <ele>508.26303100586</ele>
        <time>2014-12-10T14:25:18Z</time>
      </trkpt>
      <trkpt lat="43.3601" lon="6.13188">
        <ele>508.55697631836</ele>
        <time>2014-12-10T14:25:21Z</time>
      </trkpt>
      <trkpt lat="43.36011" lon="6.13198">
        <ele>509.47299194336</ele>
        <time>2014-12-10T14:25:28Z</time>
      </trkpt>
      <trkpt lat="43.36011" lon="6.13204">
        <ele>510.11331176758</ele>
        <time>2014-12-10T14:25:32Z</time>
      </trkpt>
      <trkpt lat="43.36011" lon="6.13207">
        <ele>510.43655395508</ele>
        <time>2014-12-10T14:25:34Z</time>
      </trkpt>
      <trkpt lat="43.36011" lon="6.13209">
        <ele>510.6064453125</ele>
        <time>2014-12-10T14:25:35Z</time>
      </trkpt>
      <trkpt lat="43.36011" lon="6.13213">
        <ele>511.08618164062</ele>
        <time>2014-12-10T14:25:38Z</time>
      </trkpt>
      <trkpt lat="43.36011" lon="6.13217">
        <ele>511.52590942383</ele>
        <time>2014-12-10T14:25:41Z</time>
      </trkpt>
      <trkpt lat="43.36012" lon="6.13221">
        <ele>511.84729003906</ele>
        <time>2014-12-10T14:25:43Z</time>
      </trkpt>
      <trkpt lat="43.36012" lon="6.13232">
        <ele>512.94610595703</ele>
        <time>2014-12-10T14:25:50Z</time>
      </trkpt>
      <trkpt lat="43.36012" lon="6.13236">
        <ele>513.44445800781</ele>
        <time>2014-12-10T14:25:53Z</time>
      </trkpt>
      <trkpt lat="43.36012" lon="6.13247">
        <ele>514.59777832031</ele>
        <time>2014-12-10T14:25:59Z</time>
      </trkpt>
      <trkpt lat="43.36012" lon="6.1325">
        <ele>514.88232421875</ele>
        <time>2014-12-10T14:26:01Z</time>
      </trkpt>
      <trkpt lat="43.36012" lon="6.13256">
        <ele>515.34881591797</ele>
        <time>2014-12-10T14:26:05Z</time>
      </trkpt>
      <trkpt lat="43.3601" lon="6.13268">
        <ele>516.38439941406</ele>
        <time>2014-12-10T14:26:12Z</time>
      </trkpt>
      <trkpt lat="43.3601" lon="6.13273">
        <ele>516.75659179688</ele>
        <time>2014-12-10T14:26:15Z</time>
      </trkpt>
      <trkpt lat="43.36009" lon="6.13284">
        <ele>517.76770019531</ele>
        <time>2014-12-10T14:26:22Z</time>
      </trkpt>
      <trkpt lat="43.36006" lon="6.13297">
        <ele>519.09350585938</ele>
        <time>2014-12-10T14:26:30Z</time>
      </trkpt>
      <trkpt lat="43.36003" lon="6.13311">
        <ele>520.64208984375</ele>
        <time>2014-12-10T14:26:39Z</time>
      </trkpt>
      <trkpt lat="43.36001" lon="6.13317">
        <ele>521.51812744141</ele>
        <time>2014-12-10T14:26:43Z</time>
      </trkpt>
      <trkpt lat="43.35999" lon="6.13326">
        <ele>522.35894775391</ele>
        <time>2014-12-10T14:26:48Z</time>
      </trkpt>
      <trkpt lat="43.35999" lon="6.13329">
        <ele>522.67309570312</ele>
        <time>2014-12-10T14:26:50Z</time>
      </trkpt>
      <trkpt lat="43.35997" lon="6.13337">
        <ele>523.38433837891</ele>
        <time>2014-12-10T14:26:55Z</time>
      </trkpt>
      <trkpt lat="43.35997" lon="6.13345">
        <ele>524.23565673828</ele>
        <time>2014-12-10T14:27:00Z</time>
      </trkpt>
      <trkpt lat="43.35996" lon="6.13353">
        <ele>525.00531005859</ele>
        <time>2014-12-10T14:27:04Z</time>
      </trkpt>
      <trkpt lat="43.35996" lon="6.13365">
        <ele>526.12890625</ele>
        <time>2014-12-10T14:27:10Z</time>
      </trkpt>
      <trkpt lat="43.35995" lon="6.1337">
        <ele>526.6982421875</ele>
        <time>2014-12-10T14:27:13Z</time>
      </trkpt>
      <trkpt lat="43.35994" lon="6.13381">
        <ele>527.80859375</ele>
        <time>2014-12-10T14:27:19Z</time>
      </trkpt>
      <trkpt lat="43.35992" lon="6.13387">
        <ele>528.49969482422</ele>
        <time>2014-12-10T14:27:23Z</time>
      </trkpt>
      <trkpt lat="43.3599" lon="6.13393">
        <ele>529.17370605469</ele>
        <time>2014-12-10T14:27:27Z</time>
      </trkpt>
      <trkpt lat="43.35989" lon="6.13396">
        <ele>529.48101806641</ele>
        <time>2014-12-10T14:27:29Z</time>
      </trkpt>
      <trkpt lat="43.35987" lon="6.13401">
        <ele>530.00592041016</ele>
        <time>2014-12-10T14:27:33Z</time>
      </trkpt>
      <trkpt lat="43.35986" lon="6.13405">
        <ele>530.46331787109</ele>
        <time>2014-12-10T14:27:36Z</time>
      </trkpt>
      <trkpt lat="43.35985" lon="6.13408">
        <ele>530.83197021484</ele>
        <time>2014-12-10T14:27:38Z</time>
      </trkpt>
      <trkpt lat="43.35983" lon="6.13415">
        <ele>531.65313720703</ele>
        <time>2014-12-10T14:27:42Z</time>
      </trkpt>
      <trkpt lat="43.35982" lon="6.13418">
        <ele>532.01916503906</ele>
        <time>2014-12-10T14:27:44Z</time>
      </trkpt>
      <trkpt lat="43.35981" lon="6.1343">
        <ele>533.36199951172</ele>
        <time>2014-12-10T14:27:51Z</time>
      </trkpt>
      <trkpt lat="43.35981" lon="6.13441">
        <ele>534.56610107422</ele>
        <time>2014-12-10T14:27:57Z</time>
      </trkpt>
      <trkpt lat="43.35983" lon="6.13445">
        <ele>534.92596435547</ele>
        <time>2014-12-10T14:27:59Z</time>
      </trkpt>
      <trkpt lat="43.35984" lon="6.13449">
        <ele>535.25360107422</ele>
        <time>2014-12-10T14:28:01Z</time>
      </trkpt>
      <trkpt lat="43.35988" lon="6.13467">
        <ele>536.79089355469</ele>
        <time>2014-12-10T14:28:07Z</time>
      </trkpt>
      <trkpt lat="43.35989" lon="6.1347">
        <ele>537.07360839844</ele>
        <time>2014-12-10T14:28:08Z</time>
      </trkpt>
      <trkpt lat="43.35994" lon="6.13483">
        <ele>538.00231933594</ele>
        <time>2014-12-10T14:28:13Z</time>
      </trkpt>
      <trkpt lat="43.35995" lon="6.13487">
        <ele>538.22644042969</ele>
        <time>2014-12-10T14:28:15Z</time>
      </trkpt>
      <trkpt lat="43.35997" lon="6.13491">
        <ele>538.40191650391</ele>
        <time>2014-12-10T14:28:18Z</time>
      </trkpt>
      <trkpt lat="43.35998" lon="6.13491">
        <ele>538.40045166016</ele>
        <time>2014-12-10T14:28:20Z</time>
      </trkpt>
      <trkpt lat="43.35998" lon="6.13491">
        <ele>538.39111328125</ele>
        <time>2014-12-10T14:28:27Z</time>
      </trkpt>
      <trkpt lat="43.35998" lon="6.13491">
        <ele>538.3818359375</ele>
        <time>2014-12-10T14:28:30Z</time>
      </trkpt>
      <trkpt lat="43.35998" lon="6.13491">
        <ele>538.39111328125</ele>
        <time>2014-12-10T14:28:46Z</time>
      </trkpt>
      <trkpt lat="43.35998" lon="6.13491">
        <ele>538.37091064453</ele>
        <time>2014-12-10T14:28:53Z</time>
      </trkpt>
      <trkpt lat="43.35998" lon="6.13491">
        <ele>538.36163330078</ele>
        <time>2014-12-10T14:29:00Z</time>
      </trkpt>
      <trkpt lat="43.35998" lon="6.13491">
        <ele>538.34301757812</ele>
        <time>2014-12-10T14:29:06Z</time>
      </trkpt>
      <trkpt lat="43.35998" lon="6.13491">
        <ele>538.33374023438</ele>
        <time>2014-12-10T14:29:23Z</time>
      </trkpt>
      <trkpt lat="43.35998" lon="6.13491">
        <ele>538.38647460938</ele>
        <time>2014-12-10T14:31:28Z</time>
      </trkpt>
      <trkpt lat="43.35997" lon="6.13492">
        <ele>538.47192382812</ele>
        <time>2014-12-10T14:31:35Z</time>
      </trkpt>
      <trkpt lat="43.35997" lon="6.13492">
        <ele>538.47192382812</ele>
        <time>2014-12-10T14:31:37Z</time>
      </trkpt>
      <trkpt lat="43.35997" lon="6.13492">
        <ele>538.47662353516</ele>
        <time>2014-12-10T14:31:41Z</time>
      </trkpt>
      <trkpt lat="43.35997" lon="6.13492">
        <ele>538.47662353516</ele>
        <time>2014-12-10T14:31:47Z</time>
      </trkpt>
      <trkpt lat="43.35997" lon="6.13492">
        <ele>538.46258544922</ele>
        <time>2014-12-10T14:32:21Z</time>
      </trkpt>
      <trkpt lat="43.35997" lon="6.13491">
        <ele>538.52160644531</ele>
        <time>2014-12-10T14:32:35Z</time>
      </trkpt>
      <trkpt lat="43.35995" lon="6.13488">
        <ele>538.33056640625</ele>
        <time>2014-12-10T14:32:40Z</time>
      </trkpt>
      <trkpt lat="43.35993" lon="6.13481">
        <ele>537.86572265625</ele>
        <time>2014-12-10T14:32:42Z</time>
      </trkpt>
      <trkpt lat="43.35991" lon="6.13476">
        <ele>537.50982666016</ele>
        <time>2014-12-10T14:32:43Z</time>
      </trkpt>
      <trkpt lat="43.35984" lon="6.13457">
        <ele>536.04284667969</ele>
        <time>2014-12-10T14:32:46Z</time>
      </trkpt>
      <trkpt lat="43.35982" lon="6.13442">
        <ele>534.60870361328</ele>
        <time>2014-12-10T14:32:48Z</time>
      </trkpt>
      <trkpt lat="43.35981" lon="6.13426">
        <ele>532.92785644531</ele>
        <time>2014-12-10T14:32:50Z</time>
      </trkpt>
      <trkpt lat="43.35982" lon="6.13419">
        <ele>532.12115478516</ele>
        <time>2014-12-10T14:32:51Z</time>
      </trkpt>
      <trkpt lat="43.35984" lon="6.1341">
        <ele>531.0439453125</ele>
        <time>2014-12-10T14:32:53Z</time>
      </trkpt>
      <trkpt lat="43.35985" lon="6.13409">
        <ele>531.00726318359</ele>
        <time>2014-12-10T14:32:54Z</time>
      </trkpt>
      <trkpt lat="43.35985" lon="6.13409">
        <ele>530.94671630859</ele>
        <time>2014-12-10T14:32:56Z</time>
      </trkpt>
      <trkpt lat="43.35985" lon="6.13409">
        <ele>530.94506835938</ele>
        <time>2014-12-10T14:32:59Z</time>
      </trkpt>
      <trkpt lat="43.35985" lon="6.13409">
        <ele>530.93548583984</ele>
        <time>2014-12-10T14:33:42Z</time>
      </trkpt>
      <trkpt lat="43.35985" lon="6.13409">
        <ele>530.9306640625</ele>
        <time>2014-12-10T14:33:58Z</time>
      </trkpt>
      <trkpt lat="43.35985" lon="6.13408">
        <ele>530.90197753906</ele>
        <time>2014-12-10T14:34:06Z</time>
      </trkpt>
      <trkpt lat="43.35985" lon="6.13407">
        <ele>530.70764160156</ele>
        <time>2014-12-10T14:34:08Z</time>
      </trkpt>
      <trkpt lat="43.35985" lon="6.13406">
        <ele>530.63592529297</ele>
        <time>2014-12-10T14:34:12Z</time>
      </trkpt>
      <trkpt lat="43.35985" lon="6.13406">
        <ele>530.63592529297</ele>
        <time>2014-12-10T14:34:13Z</time>
      </trkpt>
      <trkpt lat="43.35985" lon="6.13406">
        <ele>530.62640380859</ele>
        <time>2014-12-10T14:34:19Z</time>
      </trkpt>
      <trkpt lat="43.35985" lon="6.13406">
        <ele>530.62640380859</ele>
        <time>2014-12-10T14:34:35Z</time>
      </trkpt>
      <trkpt lat="43.35986" lon="6.13405">
        <ele>530.50897216797</ele>
        <time>2014-12-10T14:34:39Z</time>
      </trkpt>
      <trkpt lat="43.35988" lon="6.13401">
        <ele>530.060546875</ele>
        <time>2014-12-10T14:34:41Z</time>
      </trkpt>
      <trkpt lat="43.35989" lon="6.13399">
        <ele>529.76733398438</ele>
        <time>2014-12-10T14:34:42Z</time>
      </trkpt>
      <trkpt lat="43.35991" lon="6.13396">
        <ele>529.37731933594</ele>
        <time>2014-12-10T14:34:44Z</time>
      </trkpt>
      <trkpt lat="43.35992" lon="6.13394">
        <ele>529.14819335938</ele>
        <time>2014-12-10T14:34:46Z</time>
      </trkpt>
      <trkpt lat="43.35994" lon="6.13388">
        <ele>528.47436523438</ele>
        <time>2014-12-10T14:34:49Z</time>
      </trkpt>
      <trkpt lat="43.35995" lon="6.13381">
        <ele>527.79321289062</ele>
        <time>2014-12-10T14:34:51Z</time>
      </trkpt>
      <trkpt lat="43.35996" lon="6.13371">
        <ele>526.70422363281</ele>
        <time>2014-12-10T14:34:54Z</time>
      </trkpt>
      <trkpt lat="43.35997" lon="6.13362">
        <ele>525.86486816406</ele>
        <time>2014-12-10T14:34:57Z</time>
      </trkpt>
      <trkpt lat="43.35997" lon="6.13361">
        <ele>525.7724609375</ele>
        <time>2014-12-10T14:35:01Z</time>
      </trkpt>
      <trkpt lat="43.35997" lon="6.13361">
        <ele>525.75860595703</ele>
        <time>2014-12-10T14:35:06Z</time>
      </trkpt>
      <trkpt lat="43.35996" lon="6.13355">
        <ele>525.23681640625</ele>
        <time>2014-12-10T14:35:09Z</time>
      </trkpt>
      <trkpt lat="43.35998" lon="6.13336">
        <ele>523.26422119141</ele>
        <time>2014-12-10T14:35:14Z</time>
      </trkpt>
      <trkpt lat="43.35999" lon="6.1333">
        <ele>522.76617431641</ele>
        <time>2014-12-10T14:35:15Z</time>
      </trkpt>
      <trkpt lat="43.36003" lon="6.13311">
        <ele>520.58929443359</ele>
        <time>2014-12-10T14:35:18Z</time>
      </trkpt>
      <trkpt lat="43.36005" lon="6.13304">
        <ele>519.78149414062</ele>
        <time>2014-12-10T14:35:19Z</time>
      </trkpt>
      <trkpt lat="43.36007" lon="6.13296">
        <ele>518.96295166016</ele>
        <time>2014-12-10T14:35:20Z</time>
      </trkpt>
      <trkpt lat="43.36013" lon="6.13254">
        <ele>515.08306884766</ele>
        <time>2014-12-10T14:35:25Z</time>
      </trkpt>
      <trkpt lat="43.36013" lon="6.13245">
        <ele>514.20770263672</ele>
        <time>2014-12-10T14:35:26Z</time>
      </trkpt>
      <trkpt lat="43.36013" lon="6.13228">
        <ele>512.45977783203</ele>
        <time>2014-12-10T14:35:28Z</time>
      </trkpt>
      <trkpt lat="43.36013" lon="6.13217">
        <ele>511.29418945312</ele>
        <time>2014-12-10T14:35:30Z</time>
      </trkpt>
      <trkpt lat="43.36012" lon="6.13211">
        <ele>510.81655883789</ele>
        <time>2014-12-10T14:35:32Z</time>
      </trkpt>
      <trkpt lat="43.36012" lon="6.13211">
        <ele>510.76168823242</ele>
        <time>2014-12-10T14:35:33Z</time>
      </trkpt>
      <trkpt lat="43.36012" lon="6.13209">
        <ele>510.57717895508</ele>
        <time>2014-12-10T14:35:46Z</time>
      </trkpt>
      <trkpt lat="43.36012" lon="6.13208">
        <ele>510.48031616211</ele>
        <time>2014-12-10T14:35:50Z</time>
      </trkpt>
      <trkpt lat="43.36012" lon="6.13208">
        <ele>510.4255065918</ele>
        <time>2014-12-10T14:35:55Z</time>
      </trkpt>
      <trkpt lat="43.36013" lon="6.13208">
        <ele>510.37362670898</ele>
        <time>2014-12-10T14:36:02Z</time>
      </trkpt>
      <trkpt lat="43.36013" lon="6.13208">
        <ele>510.37643432617</ele>
        <time>2014-12-10T14:36:08Z</time>
      </trkpt>
      <trkpt lat="43.36014" lon="6.13211">
        <ele>510.60247802734</ele>
        <time>2014-12-10T14:36:13Z</time>
      </trkpt>
      <trkpt lat="43.36014" lon="6.13213">
        <ele>510.82333374023</ele>
        <time>2014-12-10T14:36:14Z</time>
      </trkpt>
      <trkpt lat="43.36013" lon="6.13217">
        <ele>511.36065673828</ele>
        <time>2014-12-10T14:36:16Z</time>
      </trkpt>
      <trkpt lat="43.36013" lon="6.13222">
        <ele>511.88635253906</ele>
        <time>2014-12-10T14:36:18Z</time>
      </trkpt>
      <trkpt lat="43.36013" lon="6.13231">
        <ele>512.79699707031</ele>
        <time>2014-12-10T14:36:22Z</time>
      </trkpt>
      <trkpt lat="43.36012" lon="6.13238">
        <ele>513.52893066406</ele>
        <time>2014-12-10T14:36:25Z</time>
      </trkpt>
      <trkpt lat="43.36012" lon="6.13252">
        <ele>515.01483154297</ele>
        <time>2014-12-10T14:36:30Z</time>
      </trkpt>
      <trkpt lat="43.36012" lon="6.13259">
        <ele>515.53594970703</ele>
        <time>2014-12-10T14:36:32Z</time>
      </trkpt>
      <trkpt lat="43.36011" lon="6.13268">
        <ele>516.30609130859</ele>
        <time>2014-12-10T14:36:35Z</time>
      </trkpt>
      <trkpt lat="43.36011" lon="6.13271">
        <ele>516.49768066406</ele>
        <time>2014-12-10T14:36:36Z</time>
      </trkpt>
      <trkpt lat="43.3601" lon="6.13279">
        <ele>517.24298095703</ele>
        <time>2014-12-10T14:36:39Z</time>
      </trkpt>
      <trkpt lat="43.36008" lon="6.13292">
        <ele>518.47692871094</ele>
        <time>2014-12-10T14:36:44Z</time>
      </trkpt>
      <trkpt lat="43.36006" lon="6.13298">
        <ele>519.25103759766</ele>
        <time>2014-12-10T14:36:47Z</time>
      </trkpt>
      <trkpt lat="43.36002" lon="6.13313">
        <ele>521.07751464844</ele>
        <time>2014-12-10T14:36:54Z</time>
      </trkpt>
      <trkpt lat="43.35999" lon="6.13324">
        <ele>522.26898193359</ele>
        <time>2014-12-10T14:37:00Z</time>
      </trkpt>
      <trkpt lat="43.35999" lon="6.13328">
        <ele>522.59606933594</ele>
        <time>2014-12-10T14:37:02Z</time>
      </trkpt>
      <trkpt lat="43.35996" lon="6.13375">
        <ele>527.17645263672</ele>
        <time>2014-12-10T14:37:26Z</time>
      </trkpt>
      <trkpt lat="43.35994" lon="6.13386">
        <ele>528.34039306641</ele>
        <time>2014-12-10T14:37:32Z</time>
      </trkpt>
      <trkpt lat="43.35993" lon="6.13388">
        <ele>528.51513671875</ele>
        <time>2014-12-10T14:37:33Z</time>
      </trkpt>
      <trkpt lat="43.35987" lon="6.134">
        <ele>529.95843505859</ele>
        <time>2014-12-10T14:37:41Z</time>
      </trkpt>
      <trkpt lat="43.35985" lon="6.13404">
        <ele>530.44470214844</ele>
        <time>2014-12-10T14:37:44Z</time>
      </trkpt>
      <trkpt lat="43.35983" lon="6.1341">
        <ele>531.091796875</ele>
        <time>2014-12-10T14:37:48Z</time>
      </trkpt>
      <trkpt lat="43.35981" lon="6.13418">
        <ele>532.06256103516</ele>
        <time>2014-12-10T14:37:53Z</time>
      </trkpt>
      <trkpt lat="43.3598" lon="6.13427">
        <ele>533.11151123047</ele>
        <time>2014-12-10T14:37:58Z</time>
      </trkpt>
      <trkpt lat="43.35981" lon="6.13441">
        <ele>534.51391601562</ele>
        <time>2014-12-10T14:38:05Z</time>
      </trkpt>
      <trkpt lat="43.35982" lon="6.13448">
        <ele>535.27917480469</ele>
        <time>2014-12-10T14:38:09Z</time>
      </trkpt>
      <trkpt lat="43.35983" lon="6.13452">
        <ele>535.58471679688</ele>
        <time>2014-12-10T14:38:11Z</time>
      </trkpt>
      <trkpt lat="43.35985" lon="6.13456">
        <ele>535.95880126953</ele>
        <time>2014-12-10T14:38:14Z</time>
      </trkpt>
      <trkpt lat="43.35987" lon="6.13461">
        <ele>536.30993652344</ele>
        <time>2014-12-10T14:38:17Z</time>
      </trkpt>
      <trkpt lat="43.35989" lon="6.13469">
        <ele>537.04699707031</ele>
        <time>2014-12-10T14:38:22Z</time>
      </trkpt>
      <trkpt lat="43.35991" lon="6.13476">
        <ele>537.55914306641</ele>
        <time>2014-12-10T14:38:27Z</time>
      </trkpt>
      <trkpt lat="43.35992" lon="6.13481">
        <ele>537.85571289062</ele>
        <time>2014-12-10T14:38:30Z</time>
      </trkpt>
      <trkpt lat="43.35994" lon="6.13484">
        <ele>537.99926757812</ele>
        <time>2014-12-10T14:38:32Z</time>
      </trkpt>
      <trkpt lat="43.35999" lon="6.1349">
        <ele>538.1484375</ele>
        <time>2014-12-10T14:38:37Z</time>
      </trkpt>
      <trkpt lat="43.36" lon="6.13491">
        <ele>538.11322021484</ele>
        <time>2014-12-10T14:38:38Z</time>
      </trkpt>
      <trkpt lat="43.36004" lon="6.13495">
        <ele>537.82214355469</ele>
        <time>2014-12-10T14:38:41Z</time>
      </trkpt>
      <trkpt lat="43.36005" lon="6.13496">
        <ele>537.87316894531</ele>
        <time>2014-12-10T14:38:42Z</time>
      </trkpt>
      <trkpt lat="43.36005" lon="6.13498">
        <ele>537.998046875</ele>
        <time>2014-12-10T14:38:43Z</time>
      </trkpt>
      <trkpt lat="43.36009" lon="6.13504">
        <ele>538.05725097656</ele>
        <time>2014-12-10T14:38:49Z</time>
      </trkpt>
      <trkpt lat="43.36009" lon="6.13503">
        <ele>537.89300537109</ele>
        <time>2014-12-10T14:38:59Z</time>
      </trkpt>
      <trkpt lat="43.36009" lon="6.13503">
        <ele>537.89849853516</ele>
        <time>2014-12-10T14:39:03Z</time>
      </trkpt>
      <trkpt lat="43.36009" lon="6.13503">
        <ele>537.87658691406</ele>
        <time>2014-12-10T14:39:30Z</time>
      </trkpt>
      <trkpt lat="43.36009" lon="6.13503">
        <ele>537.87115478516</ele>
        <time>2014-12-10T14:39:36Z</time>
      </trkpt>
      <trkpt lat="43.36009" lon="6.13503">
        <ele>537.87115478516</ele>
        <time>2014-12-10T14:39:40Z</time>
      </trkpt>
      <trkpt lat="43.3601" lon="6.13503">
        <ele>537.81103515625</ele>
        <time>2014-12-10T14:39:42Z</time>
      </trkpt>
      <trkpt lat="43.3601" lon="6.13503">
        <ele>537.81103515625</ele>
        <time>2014-12-10T14:39:45Z</time>
      </trkpt>
      <trkpt lat="43.3601" lon="6.13503">
        <ele>537.80560302734</ele>
        <time>2014-12-10T14:39:54Z</time>
      </trkpt>
      <trkpt lat="43.36009" lon="6.13503">
        <ele>537.92034912109</ele>
        <time>2014-12-10T14:40:29Z</time>
      </trkpt>
      <trkpt lat="43.3601" lon="6.13504">
        <ele>537.93658447266</ele>
        <time>2014-12-10T14:40:34Z</time>
      </trkpt>
      <trkpt lat="43.3601" lon="6.13506">
        <ele>538.09417724609</ele>
        <time>2014-12-10T14:40:36Z</time>
      </trkpt>
      <trkpt lat="43.36012" lon="6.13509">
        <ele>538.18420410156</ele>
        <time>2014-12-10T14:40:38Z</time>
      </trkpt>
      <trkpt lat="43.36015" lon="6.13516">
        <ele>538.45690917969</ele>
        <time>2014-12-10T14:40:41Z</time>
      </trkpt>
      <trkpt lat="43.36016" lon="6.13518">
        <ele>538.52124023438</ele>
        <time>2014-12-10T14:40:42Z</time>
      </trkpt>
      <trkpt lat="43.36018" lon="6.13522">
        <ele>538.70190429688</ele>
        <time>2014-12-10T14:40:44Z</time>
      </trkpt>
      <trkpt lat="43.36021" lon="6.13531">
        <ele>539.11450195312</ele>
        <time>2014-12-10T14:40:48Z</time>
      </trkpt>
      <trkpt lat="43.36024" lon="6.1354">
        <ele>539.42108154297</ele>
        <time>2014-12-10T14:40:52Z</time>
      </trkpt>
      <trkpt lat="43.36025" lon="6.13542">
        <ele>539.51580810547</ele>
        <time>2014-12-10T14:40:53Z</time>
      </trkpt>
      <trkpt lat="43.36029" lon="6.13556">
        <ele>540.23132324219</ele>
        <time>2014-12-10T14:40:59Z</time>
      </trkpt>
      <trkpt lat="43.36032" lon="6.13568">
        <ele>540.83630371094</ele>
        <time>2014-12-10T14:41:05Z</time>
      </trkpt>
      <trkpt lat="43.36034" lon="6.13572">
        <ele>541.02069091797</ele>
        <time>2014-12-10T14:41:07Z</time>
      </trkpt>
      <trkpt lat="43.36035" lon="6.13576">
        <ele>541.10919189453</ele>
        <time>2014-12-10T14:41:09Z</time>
      </trkpt>
      <trkpt lat="43.36037" lon="6.13583">
        <ele>541.37249755859</ele>
        <time>2014-12-10T14:41:12Z</time>
      </trkpt>
      <trkpt lat="43.3604" lon="6.13592">
        <ele>541.56878662109</ele>
        <time>2014-12-10T14:41:17Z</time>
      </trkpt>
      <trkpt lat="43.36042" lon="6.13598">
        <ele>541.57238769531</ele>
        <time>2014-12-10T14:41:20Z</time>
      </trkpt>
      <trkpt lat="43.36046" lon="6.13611">
        <ele>541.79034423828</ele>
        <time>2014-12-10T14:41:27Z</time>
      </trkpt>
      <trkpt lat="43.36054" lon="6.13629">
        <ele>541.41394042969</ele>
        <time>2014-12-10T14:41:36Z</time>
      </trkpt>
      <trkpt lat="43.36064" lon="6.13648">
        <ele>540.5654296875</ele>
        <time>2014-12-10T14:41:44Z</time>
      </trkpt>
      <trkpt lat="43.3607" lon="6.13666">
        <ele>540.37731933594</ele>
        <time>2014-12-10T14:41:51Z</time>
      </trkpt>
      <trkpt lat="43.36071" lon="6.13675">
        <ele>540.42364501953</ele>
        <time>2014-12-10T14:41:54Z</time>
      </trkpt>
      <trkpt lat="43.36071" lon="6.13689">
        <ele>541.09460449219</ele>
        <time>2014-12-10T14:41:59Z</time>
      </trkpt>
      <trkpt lat="43.36072" lon="6.1371">
        <ele>541.97387695312</ele>
        <time>2014-12-10T14:42:06Z</time>
      </trkpt>
      <trkpt lat="43.36075" lon="6.13718">
        <ele>541.57965087891</ele>
        <time>2014-12-10T14:42:09Z</time>
      </trkpt>
      <trkpt lat="43.36078" lon="6.13726">
        <ele>541.17834472656</ele>
        <time>2014-12-10T14:42:12Z</time>
      </trkpt>
      <trkpt lat="43.36079" lon="6.13729">
        <ele>541.20428466797</ele>
        <time>2014-12-10T14:42:13Z</time>
      </trkpt>
      <trkpt lat="43.36079" lon="6.13735">
        <ele>541.4990234375</ele>
        <time>2014-12-10T14:42:16Z</time>
      </trkpt>
      <trkpt lat="43.36077" lon="6.13743">
        <ele>542.21551513672</ele>
        <time>2014-12-10T14:42:21Z</time>
      </trkpt>
      <trkpt lat="43.36072" lon="6.13748">
        <ele>543.86633300781</ele>
        <time>2014-12-10T14:42:26Z</time>
      </trkpt>
      <trkpt lat="43.36071" lon="6.13749">
        <ele>544.28778076172</ele>
        <time>2014-12-10T14:42:27Z</time>
      </trkpt>
      <trkpt lat="43.36068" lon="6.1375">
        <ele>544.96368408203</ele>
        <time>2014-12-10T14:42:30Z</time>
      </trkpt>
      <trkpt lat="43.36068" lon="6.13751">
        <ele>545.18701171875</ele>
        <time>2014-12-10T14:42:32Z</time>
      </trkpt>
      <trkpt lat="43.36067" lon="6.13751">
        <ele>545.30242919922</ele>
        <time>2014-12-10T14:42:36Z</time>
      </trkpt>
      <trkpt lat="43.36067" lon="6.13752">
        <ele>545.326171875</ele>
        <time>2014-12-10T14:42:53Z</time>
      </trkpt>
      <trkpt lat="43.36067" lon="6.13752">
        <ele>545.33166503906</ele>
        <time>2014-12-10T14:43:06Z</time>
      </trkpt>
      <trkpt lat="43.36067" lon="6.13752">
        <ele>545.34625244141</ele>
        <time>2014-12-10T14:43:42Z</time>
      </trkpt>
      <trkpt lat="43.36067" lon="6.13752">
        <ele>545.45074462891</ele>
        <time>2014-12-10T14:43:53Z</time>
      </trkpt>
      <trkpt lat="43.36067" lon="6.13753">
        <ele>545.45806884766</ele>
        <time>2014-12-10T14:44:05Z</time>
      </trkpt>
      <trkpt lat="43.36067" lon="6.13753">
        <ele>545.36273193359</ele>
        <time>2014-12-10T14:44:16Z</time>
      </trkpt>
      <trkpt lat="43.36067" lon="6.13753">
        <ele>545.48370361328</ele>
        <time>2014-12-10T14:44:41Z</time>
      </trkpt>
      <trkpt lat="43.36066" lon="6.13754">
        <ele>545.61389160156</ele>
        <time>2014-12-10T14:44:43Z</time>
      </trkpt>
      <trkpt lat="43.36064" lon="6.13756">
        <ele>546.28601074219</ele>
        <time>2014-12-10T14:44:45Z</time>
      </trkpt>
      <trkpt lat="43.36061" lon="6.13757">
        <ele>547.14093017578</ele>
        <time>2014-12-10T14:44:47Z</time>
      </trkpt>
      <trkpt lat="43.36058" lon="6.13758">
        <ele>548.07720947266</ele>
        <time>2014-12-10T14:44:49Z</time>
      </trkpt>
      <trkpt lat="43.36055" lon="6.13758">
        <ele>548.89959716797</ele>
        <time>2014-12-10T14:44:51Z</time>
      </trkpt>
      <trkpt lat="43.36053" lon="6.1376">
        <ele>549.27795410156</ele>
        <time>2014-12-10T14:44:53Z</time>
      </trkpt>
      <trkpt lat="43.36052" lon="6.13765">
        <ele>550.01635742188</ele>
        <time>2014-12-10T14:44:58Z</time>
      </trkpt>
      <trkpt lat="43.36051" lon="6.13766">
        <ele>550.11981201172</ele>
        <time>2014-12-10T14:44:59Z</time>
      </trkpt>
      <trkpt lat="43.3605" lon="6.13769">
        <ele>550.56457519531</ele>
        <time>2014-12-10T14:45:09Z</time>
      </trkpt>
      <trkpt lat="43.36048" lon="6.13774">
        <ele>551.28875732422</ele>
        <time>2014-12-10T14:45:18Z</time>
      </trkpt>
      <trkpt lat="43.36048" lon="6.1378">
        <ele>551.62805175781</ele>
        <time>2014-12-10T14:45:23Z</time>
      </trkpt>
      <trkpt lat="43.36049" lon="6.13782">
        <ele>551.49572753906</ele>
        <time>2014-12-10T14:45:26Z</time>
      </trkpt>
      <trkpt lat="43.36048" lon="6.13788">
        <ele>551.97125244141</ele>
        <time>2014-12-10T14:45:35Z</time>
      </trkpt>
      <trkpt lat="43.36049" lon="6.13796">
        <ele>552.07458496094</ele>
        <time>2014-12-10T14:45:44Z</time>
      </trkpt>
      <trkpt lat="43.36049" lon="6.13801">
        <ele>552.09246826172</ele>
        <time>2014-12-10T14:45:58Z</time>
      </trkpt>
      <trkpt lat="43.36049" lon="6.13801">
        <ele>552.08660888672</ele>
        <time>2014-12-10T14:46:01Z</time>
      </trkpt>
      <trkpt lat="43.3605" lon="6.13801">
        <ele>551.98504638672</ele>
        <time>2014-12-10T14:46:28Z</time>
      </trkpt>
      <trkpt lat="43.3605" lon="6.13801">
        <ele>551.99285888672</ele>
        <time>2014-12-10T14:46:35Z</time>
      </trkpt>
      <trkpt lat="43.3605" lon="6.13801">
        <ele>551.99481201172</ele>
        <time>2014-12-10T14:46:42Z</time>
      </trkpt>
      <trkpt lat="43.3605" lon="6.13801">
        <ele>551.99481201172</ele>
        <time>2014-12-10T14:46:48Z</time>
      </trkpt>
      <trkpt lat="43.3605" lon="6.13802">
        <ele>552.00061035156</ele>
        <time>2014-12-10T14:47:04Z</time>
      </trkpt>
      <trkpt lat="43.36049" lon="6.13801">
        <ele>552.17840576172</ele>
        <time>2014-12-10T14:47:14Z</time>
      </trkpt>
      <trkpt lat="43.36049" lon="6.13801">
        <ele>552.17645263672</ele>
        <time>2014-12-10T14:47:15Z</time>
      </trkpt>
      <trkpt lat="43.36048" lon="6.13802">
        <ele>552.52423095703</ele>
        <time>2014-12-10T14:47:20Z</time>
      </trkpt>
      <trkpt lat="43.36048" lon="6.13802">
        <ele>552.43048095703</ele>
        <time>2014-12-10T14:47:23Z</time>
      </trkpt>
      <trkpt lat="43.36049" lon="6.13804">
        <ele>552.29168701172</ele>
        <time>2014-12-10T14:47:30Z</time>
      </trkpt>
      <trkpt lat="43.36051" lon="6.13812">
        <ele>552.12066650391</ele>
        <time>2014-12-10T14:47:37Z</time>
      </trkpt>
      <trkpt lat="43.36052" lon="6.13817">
        <ele>551.99377441406</ele>
        <time>2014-12-10T14:47:46Z</time>
      </trkpt>
      <trkpt lat="43.36053" lon="6.1382">
        <ele>551.79998779297</ele>
        <time>2014-12-10T14:47:55Z</time>
      </trkpt>
      <trkpt lat="43.36055" lon="6.13822">
        <ele>551.45452880859</ele>
        <time>2014-12-10T14:48:03Z</time>
      </trkpt>
      <trkpt lat="43.36056" lon="6.13823">
        <ele>551.18444824219</ele>
        <time>2014-12-10T14:48:05Z</time>
      </trkpt>
      <trkpt lat="43.36058" lon="6.13827">
        <ele>550.81616210938</ele>
        <time>2014-12-10T14:48:10Z</time>
      </trkpt>
      <trkpt lat="43.36061" lon="6.13829">
        <ele>550.07049560547</ele>
        <time>2014-12-10T14:48:14Z</time>
      </trkpt>
      <trkpt lat="43.36066" lon="6.13834">
        <ele>548.92889404297</ele>
        <time>2014-12-10T14:48:21Z</time>
      </trkpt>
      <trkpt lat="43.36073" lon="6.13839">
        <ele>547.13446044922</ele>
        <time>2014-12-10T14:48:27Z</time>
      </trkpt>
      <trkpt lat="43.36078" lon="6.13849">
        <ele>546.26696777344</ele>
        <time>2014-12-10T14:48:32Z</time>
      </trkpt>
      <trkpt lat="43.36078" lon="6.13851">
        <ele>546.37231445312</ele>
        <time>2014-12-10T14:48:33Z</time>
      </trkpt>
      <trkpt lat="43.36079" lon="6.13855">
        <ele>546.23724365234</ele>
        <time>2014-12-10T14:48:37Z</time>
      </trkpt>
      <trkpt lat="43.36079" lon="6.13855">
        <ele>546.14111328125</ele>
        <time>2014-12-10T14:48:38Z</time>
      </trkpt>
      <trkpt lat="43.36081" lon="6.13862">
        <ele>546.14111328125</ele>
        <time>2014-12-10T14:48:45Z</time>
      </trkpt>
      <trkpt lat="43.36081" lon="6.13867">
        <ele>546.36999511719</ele>
        <time>2014-12-10T14:48:54Z</time>
      </trkpt>
      <trkpt lat="43.36081" lon="6.13875">
        <ele>546.56909179688</ele>
        <time>2014-12-10T14:49:01Z</time>
      </trkpt>
      <trkpt lat="43.36081" lon="6.13876">
        <ele>546.61950683594</ele>
        <time>2014-12-10T14:49:02Z</time>
      </trkpt>
      <trkpt lat="43.36081" lon="6.13879">
        <ele>546.87811279297</ele>
        <time>2014-12-10T14:49:09Z</time>
      </trkpt>
      <trkpt lat="43.36082" lon="6.13886">
        <ele>546.77966308594</ele>
        <time>2014-12-10T14:49:20Z</time>
      </trkpt>
      <trkpt lat="43.36083" lon="6.13888">
        <ele>546.66064453125</ele>
        <time>2014-12-10T14:49:29Z</time>
      </trkpt>
      <trkpt lat="43.36084" lon="6.13889">
        <ele>546.43530273438</ele>
        <time>2014-12-10T14:49:34Z</time>
      </trkpt>
      <trkpt lat="43.36084" lon="6.13891">
        <ele>546.38507080078</ele>
        <time>2014-12-10T14:49:38Z</time>
      </trkpt>
      <trkpt lat="43.36084" lon="6.13893">
        <ele>546.45330810547</ele>
        <time>2014-12-10T14:49:49Z</time>
      </trkpt>
      <trkpt lat="43.36086" lon="6.13897">
        <ele>546.21612548828</ele>
        <time>2014-12-10T14:50:00Z</time>
      </trkpt>
      <trkpt lat="43.36086" lon="6.139">
        <ele>546.10064697266</ele>
        <time>2014-12-10T14:50:06Z</time>
      </trkpt>
      <trkpt lat="43.36087" lon="6.13902">
        <ele>545.90753173828</ele>
        <time>2014-12-10T14:50:07Z</time>
      </trkpt>
      <trkpt lat="43.36091" lon="6.13913">
        <ele>544.79748535156</ele>
        <time>2014-12-10T14:50:11Z</time>
      </trkpt>
      <trkpt lat="43.36095" lon="6.13923">
        <ele>543.8994140625</ele>
        <time>2014-12-10T14:50:15Z</time>
      </trkpt>
      <trkpt lat="43.36097" lon="6.13926">
        <ele>543.51983642578</ele>
        <time>2014-12-10T14:50:16Z</time>
      </trkpt>
      <trkpt lat="43.36103" lon="6.13936">
        <ele>541.958984375</ele>
        <time>2014-12-10T14:50:20Z</time>
      </trkpt>
      <trkpt lat="43.36104" lon="6.13938">
        <ele>541.87170410156</ele>
        <time>2014-12-10T14:50:21Z</time>
      </trkpt>
      <trkpt lat="43.36105" lon="6.13942">
        <ele>541.93310546875</ele>
        <time>2014-12-10T14:50:23Z</time>
      </trkpt>
      <trkpt lat="43.36105" lon="6.13943">
        <ele>541.96234130859</ele>
        <time>2014-12-10T14:50:25Z</time>
      </trkpt>
      <trkpt lat="43.36105" lon="6.13947">
        <ele>542.44720458984</ele>
        <time>2014-12-10T14:50:34Z</time>
      </trkpt>
      <trkpt lat="43.36106" lon="6.13951">
        <ele>542.25238037109</ele>
        <time>2014-12-10T14:50:40Z</time>
      </trkpt>
      <trkpt lat="43.36108" lon="6.13958">
        <ele>542.23431396484</ele>
        <time>2014-12-10T14:50:43Z</time>
      </trkpt>
      <trkpt lat="43.36109" lon="6.13961">
        <ele>542.22680664062</ele>
        <time>2014-12-10T14:50:44Z</time>
      </trkpt>
      <trkpt lat="43.3611" lon="6.13966">
        <ele>542.17333984375</ele>
        <time>2014-12-10T14:50:46Z</time>
      </trkpt>
      <trkpt lat="43.36111" lon="6.13969">
        <ele>542.17510986328</ele>
        <time>2014-12-10T14:50:47Z</time>
      </trkpt>
      <trkpt lat="43.36114" lon="6.13986">
        <ele>542.74401855469</ele>
        <time>2014-12-10T14:50:52Z</time>
      </trkpt>
      <trkpt lat="43.36116" lon="6.13994">
        <ele>542.7998046875</ele>
        <time>2014-12-10T14:50:56Z</time>
      </trkpt>
      <trkpt lat="43.36116" lon="6.13999">
        <ele>543.27362060547</ele>
        <time>2014-12-10T14:51:04Z</time>
      </trkpt>
      <trkpt lat="43.36116" lon="6.14">
        <ele>543.59393310547</ele>
        <time>2014-12-10T14:51:09Z</time>
      </trkpt>
      <trkpt lat="43.36116" lon="6.14001">
        <ele>543.55511474609</ele>
        <time>2014-12-10T14:51:12Z</time>
      </trkpt>
      <trkpt lat="43.36116" lon="6.14006">
        <ele>544.23303222656</ele>
        <time>2014-12-10T14:51:22Z</time>
      </trkpt>
      <trkpt lat="43.36115" lon="6.14007">
        <ele>544.61633300781</ele>
        <time>2014-12-10T14:51:28Z</time>
      </trkpt>
      <trkpt lat="43.36116" lon="6.14009">
        <ele>544.71466064453</ele>
        <time>2014-12-10T14:51:34Z</time>
      </trkpt>
      <trkpt lat="43.36118" lon="6.14015">
        <ele>544.97399902344</ele>
        <time>2014-12-10T14:51:39Z</time>
      </trkpt>
      <trkpt lat="43.36118" lon="6.14017">
        <ele>545.24822998047</ele>
        <time>2014-12-10T14:51:40Z</time>
      </trkpt>
      <trkpt lat="43.36118" lon="6.14023">
        <ele>545.98779296875</ele>
        <time>2014-12-10T14:51:43Z</time>
      </trkpt>
      <trkpt lat="43.36119" lon="6.14028">
        <ele>546.22900390625</ele>
        <time>2014-12-10T14:51:45Z</time>
      </trkpt>
      <trkpt lat="43.36119" lon="6.14032">
        <ele>546.75872802734</ele>
        <time>2014-12-10T14:51:47Z</time>
      </trkpt>
      <trkpt lat="43.36119" lon="6.14033">
        <ele>547.08978271484</ele>
        <time>2014-12-10T14:51:48Z</time>
      </trkpt>
      <trkpt lat="43.36119" lon="6.14035">
        <ele>547.2099609375</ele>
        <time>2014-12-10T14:51:49Z</time>
      </trkpt>
      <trkpt lat="43.36121" lon="6.14045">
        <ele>548.15777587891</ele>
        <time>2014-12-10T14:51:53Z</time>
      </trkpt>
      <trkpt lat="43.36121" lon="6.14051">
        <ele>548.77709960938</ele>
        <time>2014-12-10T14:51:55Z</time>
      </trkpt>
      <trkpt lat="43.36121" lon="6.14054">
        <ele>549.0693359375</ele>
        <time>2014-12-10T14:51:56Z</time>
      </trkpt>
      <trkpt lat="43.36121" lon="6.14061">
        <ele>550.24493408203</ele>
        <time>2014-12-10T14:51:58Z</time>
      </trkpt>
      <trkpt lat="43.36123" lon="6.14071">
        <ele>551.12921142578</ele>
        <time>2014-12-10T14:52:00Z</time>
      </trkpt>
      <trkpt lat="43.36125" lon="6.14081">
        <ele>551.76647949219</ele>
        <time>2014-12-10T14:52:02Z</time>
      </trkpt>
      <trkpt lat="43.36127" lon="6.14091">
        <ele>552.28143310547</ele>
        <time>2014-12-10T14:52:05Z</time>
      </trkpt>
      <trkpt lat="43.36129" lon="6.141">
        <ele>552.49926757812</ele>
        <time>2014-12-10T14:52:10Z</time>
      </trkpt>
      <trkpt lat="43.36135" lon="6.14109">
        <ele>551.49298095703</ele>
        <time>2014-12-10T14:52:14Z</time>
      </trkpt>
      <trkpt lat="43.36136" lon="6.14111">
        <ele>551.45532226562</ele>
        <time>2014-12-10T14:52:15Z</time>
      </trkpt>
      <trkpt lat="43.36136" lon="6.14113">
        <ele>551.64788818359</ele>
        <time>2014-12-10T14:52:16Z</time>
      </trkpt>
      <trkpt lat="43.36135" lon="6.14115">
        <ele>552.01208496094</ele>
        <time>2014-12-10T14:52:20Z</time>
      </trkpt>
      <trkpt lat="43.36137" lon="6.14118">
        <ele>551.92718505859</ele>
        <time>2014-12-10T14:52:24Z</time>
      </trkpt>
      <trkpt lat="43.3614" lon="6.14124">
        <ele>551.66033935547</ele>
        <time>2014-12-10T14:52:28Z</time>
      </trkpt>
      <trkpt lat="43.36146" lon="6.14138">
        <ele>551.30377197266</ele>
        <time>2014-12-10T14:52:35Z</time>
      </trkpt>
      <trkpt lat="43.36148" lon="6.14145">
        <ele>551.37634277344</ele>
        <time>2014-12-10T14:52:37Z</time>
      </trkpt>
      <trkpt lat="43.36148" lon="6.14148">
        <ele>551.45660400391</ele>
        <time>2014-12-10T14:52:38Z</time>
      </trkpt>
      <trkpt lat="43.36152" lon="6.14156">
        <ele>551.16546630859</ele>
        <time>2014-12-10T14:52:43Z</time>
      </trkpt>
      <trkpt lat="43.36157" lon="6.14164">
        <ele>550.7099609375</ele>
        <time>2014-12-10T14:52:47Z</time>
      </trkpt>
      <trkpt lat="43.3616" lon="6.14172">
        <ele>549.93896484375</ele>
        <time>2014-12-10T14:52:50Z</time>
      </trkpt>
      <trkpt lat="43.36163" lon="6.14175">
        <ele>549.02093505859</ele>
        <time>2014-12-10T14:52:52Z</time>
      </trkpt>
      <trkpt lat="43.36169" lon="6.14183">
        <ele>546.78485107422</ele>
        <time>2014-12-10T14:52:57Z</time>
      </trkpt>
      <trkpt lat="43.36174" lon="6.14189">
        <ele>544.95318603516</ele>
        <time>2014-12-10T14:53:00Z</time>
      </trkpt>
      <trkpt lat="43.36174" lon="6.1419">
        <ele>544.62219238281</ele>
        <time>2014-12-10T14:53:02Z</time>
      </trkpt>
      <trkpt lat="43.36176" lon="6.14191">
        <ele>544.12335205078</ele>
        <time>2014-12-10T14:53:03Z</time>
      </trkpt>
      <trkpt lat="43.36177" lon="6.14192">
        <ele>543.45977783203</ele>
        <time>2014-12-10T14:53:13Z</time>
      </trkpt>
      <trkpt lat="43.36177" lon="6.14193">
        <ele>543.62854003906</ele>
        <time>2014-12-10T14:53:29Z</time>
      </trkpt>
      <trkpt lat="43.36175" lon="6.14195">
        <ele>544.30053710938</ele>
        <time>2014-12-10T14:53:38Z</time>
      </trkpt>
      <trkpt lat="43.36174" lon="6.14195">
        <ele>544.96447753906</ele>
        <time>2014-12-10T14:53:42Z</time>
      </trkpt>
      <trkpt lat="43.36173" lon="6.14195">
        <ele>545.29791259766</ele>
        <time>2014-12-10T14:53:47Z</time>
      </trkpt>
      <trkpt lat="43.36171" lon="6.14196">
        <ele>546.13000488281</ele>
        <time>2014-12-10T14:53:59Z</time>
      </trkpt>
      <trkpt lat="43.3617" lon="6.14196">
        <ele>546.46221923828</ele>
        <time>2014-12-10T14:54:01Z</time>
      </trkpt>
      <trkpt lat="43.3617" lon="6.14196">
        <ele>546.46240234375</ele>
        <time>2014-12-10T14:54:03Z</time>
      </trkpt>
      <trkpt lat="43.36168" lon="6.14195">
        <ele>547.45916748047</ele>
        <time>2014-12-10T14:54:07Z</time>
      </trkpt>
      <trkpt lat="43.36166" lon="6.14196">
        <ele>548.09149169922</ele>
        <time>2014-12-10T14:54:16Z</time>
      </trkpt>
      <trkpt lat="43.36166" lon="6.14196">
        <ele>548.21411132812</ele>
        <time>2014-12-10T14:54:26Z</time>
      </trkpt>
      <trkpt lat="43.36165" lon="6.14196">
        <ele>548.5810546875</ele>
        <time>2014-12-10T14:54:28Z</time>
      </trkpt>
      <trkpt lat="43.36163" lon="6.14196">
        <ele>549.31634521484</ele>
        <time>2014-12-10T14:54:30Z</time>
      </trkpt>
      <trkpt lat="43.3616" lon="6.14196">
        <ele>550.17584228516</ele>
        <time>2014-12-10T14:54:32Z</time>
      </trkpt>
      <trkpt lat="43.36158" lon="6.14198">
        <ele>550.79754638672</ele>
        <time>2014-12-10T14:54:34Z</time>
      </trkpt>
      <trkpt lat="43.36158" lon="6.142">
        <ele>550.81420898438</ele>
        <time>2014-12-10T14:54:36Z</time>
      </trkpt>
      <trkpt lat="43.36158" lon="6.14201">
        <ele>550.94134521484</ele>
        <time>2014-12-10T14:54:37Z</time>
      </trkpt>
      <trkpt lat="43.36158" lon="6.14201">
        <ele>550.94256591797</ele>
        <time>2014-12-10T14:54:38Z</time>
      </trkpt>
      <trkpt lat="43.36154" lon="6.14205">
        <ele>552.21801757812</ele>
        <time>2014-12-10T14:54:46Z</time>
      </trkpt>
      <trkpt lat="43.36153" lon="6.14206">
        <ele>552.35028076172</ele>
        <time>2014-12-10T14:54:47Z</time>
      </trkpt>
      <trkpt lat="43.36153" lon="6.14211">
        <ele>552.65264892578</ele>
        <time>2014-12-10T14:54:54Z</time>
      </trkpt>
      <trkpt lat="43.36153" lon="6.14212">
        <ele>552.66033935547</ele>
        <time>2014-12-10T14:54:56Z</time>
      </trkpt>
      <trkpt lat="43.36152" lon="6.14212">
        <ele>552.79357910156</ele>
        <time>2014-12-10T14:55:03Z</time>
      </trkpt>
      <trkpt lat="43.36152" lon="6.14212">
        <ele>552.79260253906</ele>
        <time>2014-12-10T14:55:11Z</time>
      </trkpt>
      <trkpt lat="43.36151" lon="6.14212">
        <ele>553.30267333984</ele>
        <time>2014-12-10T14:55:40Z</time>
      </trkpt>
      <trkpt lat="43.36151" lon="6.14213">
        <ele>553.30322265625</ele>
        <time>2014-12-10T14:55:44Z</time>
      </trkpt>
      <trkpt lat="43.36151" lon="6.14213">
        <ele>553.18206787109</ele>
        <time>2014-12-10T14:55:47Z</time>
      </trkpt>
      <trkpt lat="43.36151" lon="6.14213">
        <ele>553.18365478516</ele>
        <time>2014-12-10T14:55:52Z</time>
      </trkpt>
      <trkpt lat="43.36151" lon="6.14213">
        <ele>553.31085205078</ele>
        <time>2014-12-10T14:55:55Z</time>
      </trkpt>
      <trkpt lat="43.36151" lon="6.14213">
        <ele>553.30865478516</ele>
        <time>2014-12-10T14:56:07Z</time>
      </trkpt>
      <trkpt lat="43.36151" lon="6.14213">
        <ele>553.31085205078</ele>
        <time>2014-12-10T14:56:10Z</time>
      </trkpt>
      <trkpt lat="43.3615" lon="6.14214">
        <ele>553.57849121094</ele>
        <time>2014-12-10T14:56:12Z</time>
      </trkpt>
      <trkpt lat="43.36149" lon="6.14219">
        <ele>554.02282714844</ele>
        <time>2014-12-10T14:56:15Z</time>
      </trkpt>
      <trkpt lat="43.36148" lon="6.14225">
        <ele>554.23547363281</ele>
        <time>2014-12-10T14:56:19Z</time>
      </trkpt>
      <trkpt lat="43.36148" lon="6.14232">
        <ele>554.32489013672</ele>
        <time>2014-12-10T14:56:23Z</time>
      </trkpt>
      <trkpt lat="43.36148" lon="6.14244">
        <ele>554.74749755859</ele>
        <time>2014-12-10T14:56:28Z</time>
      </trkpt>
      <trkpt lat="43.36146" lon="6.14258">
        <ele>555.19281005859</ele>
        <time>2014-12-10T14:56:39Z</time>
      </trkpt>
      <trkpt lat="43.36147" lon="6.14259">
        <ele>555.01306152344</ele>
        <time>2014-12-10T14:56:41Z</time>
      </trkpt>
      <trkpt lat="43.36148" lon="6.14262">
        <ele>554.52526855469</ele>
        <time>2014-12-10T14:56:44Z</time>
      </trkpt>
      <trkpt lat="43.3615" lon="6.14271">
        <ele>553.40966796875</ele>
        <time>2014-12-10T14:56:49Z</time>
      </trkpt>
      <trkpt lat="43.36151" lon="6.14277">
        <ele>552.79522705078</ele>
        <time>2014-12-10T14:56:52Z</time>
      </trkpt>
      <trkpt lat="43.36152" lon="6.1428">
        <ele>552.52825927734</ele>
        <time>2014-12-10T14:56:54Z</time>
      </trkpt>
      <trkpt lat="43.36151" lon="6.14288">
        <ele>552.62042236328</ele>
        <time>2014-12-10T14:56:58Z</time>
      </trkpt>
      <trkpt lat="43.36151" lon="6.14291">
        <ele>552.36614990234</ele>
        <time>2014-12-10T14:57:00Z</time>
      </trkpt>
      <trkpt lat="43.36152" lon="6.14297">
        <ele>552.02740478516</ele>
        <time>2014-12-10T14:57:03Z</time>
      </trkpt>
      <trkpt lat="43.36151" lon="6.14298">
        <ele>552.14947509766</ele>
        <time>2014-12-10T14:57:04Z</time>
      </trkpt>
      <trkpt lat="43.36151" lon="6.14299">
        <ele>552.275390625</ele>
        <time>2014-12-10T14:57:06Z</time>
      </trkpt>
      <trkpt lat="43.36151" lon="6.14308">
        <ele>551.84381103516</ele>
        <time>2014-12-10T14:57:22Z</time>
      </trkpt>
      <trkpt lat="43.36154" lon="6.14311">
        <ele>550.61645507812</ele>
        <time>2014-12-10T14:57:29Z</time>
      </trkpt>
      <trkpt lat="43.36157" lon="6.14318">
        <ele>549.03631591797</ele>
        <time>2014-12-10T14:57:36Z</time>
      </trkpt>
      <trkpt lat="43.36161" lon="6.1433">
        <ele>546.69342041016</ele>
        <time>2014-12-10T14:57:42Z</time>
      </trkpt>
      <trkpt lat="43.36161" lon="6.14338">
        <ele>546.64459228516</ele>
        <time>2014-12-10T14:57:48Z</time>
      </trkpt>
      <trkpt lat="43.36161" lon="6.14338">
        <ele>546.64202880859</ele>
        <time>2014-12-10T14:57:54Z</time>
      </trkpt>
      <trkpt lat="43.36163" lon="6.14342">
        <ele>546.00726318359</ele>
        <time>2014-12-10T14:57:58Z</time>
      </trkpt>
      <trkpt lat="43.36164" lon="6.14346">
        <ele>545.53265380859</ele>
        <time>2014-12-10T14:58:01Z</time>
      </trkpt>
      <trkpt lat="43.36164" lon="6.14348">
        <ele>545.568359375</ele>
        <time>2014-12-10T14:58:05Z</time>
      </trkpt>
      <trkpt lat="43.36164" lon="6.14355">
        <ele>545.67193603516</ele>
        <time>2014-12-10T14:58:13Z</time>
      </trkpt>
      <trkpt lat="43.36164" lon="6.14356">
        <ele>545.685546875</ele>
        <time>2014-12-10T14:58:15Z</time>
      </trkpt>
      <trkpt lat="43.36164" lon="6.14359">
        <ele>545.36700439453</ele>
        <time>2014-12-10T14:58:19Z</time>
      </trkpt>
      <trkpt lat="43.36165" lon="6.14364">
        <ele>545.25628662109</ele>
        <time>2014-12-10T14:58:29Z</time>
      </trkpt>
      <trkpt lat="43.36165" lon="6.14366">
        <ele>545.08831787109</ele>
        <time>2014-12-10T14:58:34Z</time>
      </trkpt>
      <trkpt lat="43.36165" lon="6.14368">
        <ele>545.11206054688</ele>
        <time>2014-12-10T14:58:38Z</time>
      </trkpt>
      <trkpt lat="43.36168" lon="6.14374">
        <ele>544.11145019531</ele>
        <time>2014-12-10T14:58:42Z</time>
      </trkpt>
      <trkpt lat="43.36169" lon="6.14376">
        <ele>543.62231445312</ele>
        <time>2014-12-10T14:58:43Z</time>
      </trkpt>
      <trkpt lat="43.36171" lon="6.1438">
        <ele>542.64141845703</ele>
        <time>2014-12-10T14:58:45Z</time>
      </trkpt>
      <trkpt lat="43.36174" lon="6.14392">
        <ele>541.19830322266</ele>
        <time>2014-12-10T14:58:51Z</time>
      </trkpt>
      <trkpt lat="43.36176" lon="6.14396">
        <ele>540.53411865234</ele>
        <time>2014-12-10T14:58:53Z</time>
      </trkpt>
      <trkpt lat="43.3618" lon="6.14405">
        <ele>538.47961425781</ele>
        <time>2014-12-10T14:58:57Z</time>
      </trkpt>
      <trkpt lat="43.36187" lon="6.14413">
        <ele>535.66967773438</ele>
        <time>2014-12-10T14:59:02Z</time>
      </trkpt>
      <trkpt lat="43.36195" lon="6.1443">
        <ele>534.07562255859</ele>
        <time>2014-12-10T14:59:10Z</time>
      </trkpt>
      <trkpt lat="43.36199" lon="6.14442">
        <ele>534.22943115234</ele>
        <time>2014-12-10T14:59:15Z</time>
      </trkpt>
      <trkpt lat="43.36205" lon="6.14458">
        <ele>534.14123535156</ele>
        <time>2014-12-10T14:59:23Z</time>
      </trkpt>
      <trkpt lat="43.36207" lon="6.14462">
        <ele>533.828125</ele>
        <time>2014-12-10T14:59:25Z</time>
      </trkpt>
      <trkpt lat="43.36211" lon="6.14471">
        <ele>533.45330810547</ele>
        <time>2014-12-10T14:59:29Z</time>
      </trkpt>
      <trkpt lat="43.36213" lon="6.14481">
        <ele>533.87774658203</ele>
        <time>2014-12-10T14:59:33Z</time>
      </trkpt>
      <trkpt lat="43.36214" lon="6.14483">
        <ele>534.05725097656</ele>
        <time>2014-12-10T14:59:34Z</time>
      </trkpt>
      <trkpt lat="43.36216" lon="6.14489">
        <ele>534.15661621094</ele>
        <time>2014-12-10T14:59:37Z</time>
      </trkpt>
      <trkpt lat="43.36217" lon="6.14494">
        <ele>533.97314453125</ele>
        <time>2014-12-10T14:59:39Z</time>
      </trkpt>
      <trkpt lat="43.36219" lon="6.14504">
        <ele>534.79010009766</ele>
        <time>2014-12-10T14:59:43Z</time>
      </trkpt>
      <trkpt lat="43.3622" lon="6.14506">
        <ele>534.88146972656</ele>
        <time>2014-12-10T14:59:44Z</time>
      </trkpt>
      <trkpt lat="43.36222" lon="6.14513">
        <ele>534.90716552734</ele>
        <time>2014-12-10T14:59:47Z</time>
      </trkpt>
      <trkpt lat="43.36223" lon="6.14517">
        <ele>535.32568359375</ele>
        <time>2014-12-10T14:59:49Z</time>
      </trkpt>
      <trkpt lat="43.36224" lon="6.14519">
        <ele>535.46716308594</ele>
        <time>2014-12-10T14:59:50Z</time>
      </trkpt>
      <trkpt lat="43.36223" lon="6.1452">
        <ele>536.00592041016</ele>
        <time>2014-12-10T14:59:55Z</time>
      </trkpt>
      <trkpt lat="43.36223" lon="6.14521">
        <ele>536.22271728516</ele>
        <time>2014-12-10T14:59:57Z</time>
      </trkpt>
      <trkpt lat="43.36222" lon="6.14521">
        <ele>536.46643066406</ele>
        <time>2014-12-10T14:59:59Z</time>
      </trkpt>
      <trkpt lat="43.36224" lon="6.14526">
        <ele>536.41009521484</ele>
        <time>2014-12-10T15:00:03Z</time>
      </trkpt>
      <trkpt lat="43.36226" lon="6.14536">
        <ele>537.43542480469</ele>
        <time>2014-12-10T15:00:08Z</time>
      </trkpt>
      <trkpt lat="43.36229" lon="6.1455">
        <ele>538.40264892578</ele>
        <time>2014-12-10T15:00:13Z</time>
      </trkpt>
      <trkpt lat="43.36232" lon="6.14558">
        <ele>538.55181884766</ele>
        <time>2014-12-10T15:00:16Z</time>
      </trkpt>
      <trkpt lat="43.36232" lon="6.14562">
        <ele>539.39068603516</ele>
        <time>2014-12-10T15:00:18Z</time>
      </trkpt>
      <trkpt lat="43.36236" lon="6.14575">
        <ele>539.83306884766</ele>
        <time>2014-12-10T15:00:23Z</time>
      </trkpt>
      <trkpt lat="43.36237" lon="6.14579">
        <ele>539.68853759766</ele>
        <time>2014-12-10T15:00:24Z</time>
      </trkpt>
      <trkpt lat="43.3624" lon="6.14586">
        <ele>539.24670410156</ele>
        <time>2014-12-10T15:00:27Z</time>
      </trkpt>
      <trkpt lat="43.36241" lon="6.14588">
        <ele>539.08233642578</ele>
        <time>2014-12-10T15:00:29Z</time>
      </trkpt>
      <trkpt lat="43.36241" lon="6.14589">
        <ele>539.36029052734</ele>
        <time>2014-12-10T15:00:31Z</time>
      </trkpt>
      <trkpt lat="43.36241" lon="6.1459">
        <ele>539.46203613281</ele>
        <time>2014-12-10T15:00:35Z</time>
      </trkpt>
      <trkpt lat="43.3624" lon="6.1459">
        <ele>539.89056396484</ele>
        <time>2014-12-10T15:00:43Z</time>
      </trkpt>
      <trkpt lat="43.3624" lon="6.14591">
        <ele>540.12255859375</ele>
        <time>2014-12-10T15:00:45Z</time>
      </trkpt>
      <trkpt lat="43.36238" lon="6.14591">
        <ele>540.984375</ele>
        <time>2014-12-10T15:00:55Z</time>
      </trkpt>
      <trkpt lat="43.36238" lon="6.14591">
        <ele>540.96917724609</ele>
        <time>2014-12-10T15:00:57Z</time>
      </trkpt>
      <trkpt lat="43.3624" lon="6.14594">
        <ele>540.06011962891</ele>
        <time>2014-12-10T15:01:04Z</time>
      </trkpt>
      <trkpt lat="43.36242" lon="6.14598">
        <ele>539.53240966797</ele>
        <time>2014-12-10T15:01:07Z</time>
      </trkpt>
      <trkpt lat="43.36245" lon="6.14603">
        <ele>538.71258544922</ele>
        <time>2014-12-10T15:01:10Z</time>
      </trkpt>
      <trkpt lat="43.36251" lon="6.14614">
        <ele>536.86236572266</ele>
        <time>2014-12-10T15:01:16Z</time>
      </trkpt>
      <trkpt lat="43.36255" lon="6.1462">
        <ele>535.81140136719</ele>
        <time>2014-12-10T15:01:19Z</time>
      </trkpt>
      <trkpt lat="43.36256" lon="6.14622">
        <ele>535.32800292969</ele>
        <time>2014-12-10T15:01:20Z</time>
      </trkpt>
      <trkpt lat="43.36259" lon="6.14629">
        <ele>534.96868896484</ele>
        <time>2014-12-10T15:01:23Z</time>
      </trkpt>
      <trkpt lat="43.3626" lon="6.14634">
        <ele>535.02551269531</ele>
        <time>2014-12-10T15:01:25Z</time>
      </trkpt>
      <trkpt lat="43.36264" lon="6.14646">
        <ele>534.71539306641</ele>
        <time>2014-12-10T15:01:30Z</time>
      </trkpt>
      <trkpt lat="43.36265" lon="6.14656">
        <ele>535.12725830078</ele>
        <time>2014-12-10T15:01:35Z</time>
      </trkpt>
      <trkpt lat="43.36267" lon="6.14658">
        <ele>534.66864013672</ele>
        <time>2014-12-10T15:01:36Z</time>
      </trkpt>
      <trkpt lat="43.36269" lon="6.1466">
        <ele>533.86108398438</ele>
        <time>2014-12-10T15:01:40Z</time>
      </trkpt>
      <trkpt lat="43.3627" lon="6.1466">
        <ele>533.33898925781</ele>
        <time>2014-12-10T15:01:52Z</time>
      </trkpt>
      <trkpt lat="43.3627" lon="6.1466">
        <ele>533.333984375</ele>
        <time>2014-12-10T15:02:03Z</time>
      </trkpt>
      <trkpt lat="43.3627" lon="6.14662">
        <ele>533.53448486328</ele>
        <time>2014-12-10T15:02:05Z</time>
      </trkpt>
      <trkpt lat="43.36271" lon="6.14663">
        <ele>533.55065917969</ele>
        <time>2014-12-10T15:02:06Z</time>
      </trkpt>
      <trkpt lat="43.36271" lon="6.14668">
        <ele>533.62963867188</ele>
        <time>2014-12-10T15:02:08Z</time>
      </trkpt>
      <trkpt lat="43.36273" lon="6.14677">
        <ele>533.27410888672</ele>
        <time>2014-12-10T15:02:11Z</time>
      </trkpt>
      <trkpt lat="43.36274" lon="6.14679">
        <ele>532.90710449219</ele>
        <time>2014-12-10T15:02:12Z</time>
      </trkpt>
      <trkpt lat="43.36279" lon="6.14692">
        <ele>531.39312744141</ele>
        <time>2014-12-10T15:02:17Z</time>
      </trkpt>
      <trkpt lat="43.36281" lon="6.14695">
        <ele>530.90087890625</ele>
        <time>2014-12-10T15:02:18Z</time>
      </trkpt>
      <trkpt lat="43.36283" lon="6.14701">
        <ele>530.35461425781</ele>
        <time>2014-12-10T15:02:20Z</time>
      </trkpt>
      <trkpt lat="43.36282" lon="6.14703">
        <ele>530.63671875</ele>
        <time>2014-12-10T15:02:21Z</time>
      </trkpt>
      <trkpt lat="43.3628" lon="6.14709">
        <ele>532.1630859375</ele>
        <time>2014-12-10T15:02:26Z</time>
      </trkpt>
      <trkpt lat="43.3628" lon="6.14716">
        <ele>532.40020751953</ele>
        <time>2014-12-10T15:02:29Z</time>
      </trkpt>
      <trkpt lat="43.3628" lon="6.14721">
        <ele>532.49859619141</ele>
        <time>2014-12-10T15:02:31Z</time>
      </trkpt>
      <trkpt lat="43.36281" lon="6.14727">
        <ele>532.66271972656</ele>
        <time>2014-12-10T15:02:34Z</time>
      </trkpt>
      <trkpt lat="43.36281" lon="6.14728">
        <ele>532.73956298828</ele>
        <time>2014-12-10T15:02:35Z</time>
      </trkpt>
      <trkpt lat="43.36279" lon="6.14732">
        <ele>533.62744140625</ele>
        <time>2014-12-10T15:02:38Z</time>
      </trkpt>
      <trkpt lat="43.36279" lon="6.14733">
        <ele>533.84564208984</ele>
        <time>2014-12-10T15:02:40Z</time>
      </trkpt>
      <trkpt lat="43.36279" lon="6.14734">
        <ele>533.77105712891</ele>
        <time>2014-12-10T15:02:47Z</time>
      </trkpt>
      <trkpt lat="43.36279" lon="6.14736">
        <ele>533.83489990234</ele>
        <time>2014-12-10T15:02:48Z</time>
      </trkpt>
      <trkpt lat="43.36279" lon="6.1474">
        <ele>534.10357666016</ele>
        <time>2014-12-10T15:02:50Z</time>
      </trkpt>
      <trkpt lat="43.36278" lon="6.14742">
        <ele>534.7412109375</ele>
        <time>2014-12-10T15:02:51Z</time>
      </trkpt>
      <trkpt lat="43.36278" lon="6.14748">
        <ele>535.21112060547</ele>
        <time>2014-12-10T15:02:54Z</time>
      </trkpt>
      <trkpt lat="43.36278" lon="6.1475">
        <ele>535.33642578125</ele>
        <time>2014-12-10T15:02:56Z</time>
      </trkpt>
      <trkpt lat="43.3628" lon="6.14765">
        <ele>534.46667480469</ele>
        <time>2014-12-10T15:03:02Z</time>
      </trkpt>
      <trkpt lat="43.36282" lon="6.14775">
        <ele>533.42297363281</ele>
        <time>2014-12-10T15:03:05Z</time>
      </trkpt>
      <trkpt lat="43.36283" lon="6.14782">
        <ele>532.90112304688</ele>
        <time>2014-12-10T15:03:07Z</time>
      </trkpt>
      <trkpt lat="43.36284" lon="6.14785">
        <ele>532.55322265625</ele>
        <time>2014-12-10T15:03:08Z</time>
      </trkpt>
      <trkpt lat="43.36285" lon="6.14789">
        <ele>532.03137207031</ele>
        <time>2014-12-10T15:03:10Z</time>
      </trkpt>
      <trkpt lat="43.36285" lon="6.14791">
        <ele>532.03137207031</ele>
        <time>2014-12-10T15:03:11Z</time>
      </trkpt>
      <trkpt lat="43.36285" lon="6.14794">
        <ele>532.03137207031</ele>
        <time>2014-12-10T15:03:12Z</time>
      </trkpt>
      <trkpt lat="43.36286" lon="6.14799">
        <ele>531.68347167969</ele>
        <time>2014-12-10T15:03:14Z</time>
      </trkpt>
      <trkpt lat="43.36286" lon="6.14802">
        <ele>531.50952148438</ele>
        <time>2014-12-10T15:03:15Z</time>
      </trkpt>
      <trkpt lat="43.3629" lon="6.1481">
        <ele>529.94396972656</ele>
        <time>2014-12-10T15:03:18Z</time>
      </trkpt>
      <trkpt lat="43.36291" lon="6.14814">
        <ele>529.24816894531</ele>
        <time>2014-12-10T15:03:19Z</time>
      </trkpt>
      <trkpt lat="43.36293" lon="6.14817">
        <ele>528.20446777344</ele>
        <time>2014-12-10T15:03:20Z</time>
      </trkpt>
      <trkpt lat="43.36298" lon="6.14824">
        <ele>526.11706542969</ele>
        <time>2014-12-10T15:03:22Z</time>
      </trkpt>
      <trkpt lat="43.36301" lon="6.14829">
        <ele>524.55151367188</ele>
        <time>2014-12-10T15:03:24Z</time>
      </trkpt>
      <trkpt lat="43.36304" lon="6.14836">
        <ele>523.32189941406</ele>
        <time>2014-12-10T15:03:26Z</time>
      </trkpt>
      <trkpt lat="43.36305" lon="6.14845">
        <ele>522.93951416016</ele>
        <time>2014-12-10T15:03:28Z</time>
      </trkpt>
      <trkpt lat="43.36306" lon="6.14854">
        <ele>522.38446044922</ele>
        <time>2014-12-10T15:03:31Z</time>
      </trkpt>
      <trkpt lat="43.36306" lon="6.14855">
        <ele>522.20751953125</ele>
        <time>2014-12-10T15:03:32Z</time>
      </trkpt>
      <trkpt lat="43.36306" lon="6.14854">
        <ele>522.20843505859</ele>
        <time>2014-12-10T15:03:33Z</time>
      </trkpt>
      <trkpt lat="43.36305" lon="6.14854">
        <ele>522.72644042969</ele>
        <time>2014-12-10T15:03:36Z</time>
      </trkpt>
      <trkpt lat="43.36304" lon="6.14855">
        <ele>523.41558837891</ele>
        <time>2014-12-10T15:03:41Z</time>
      </trkpt>
      <trkpt lat="43.36304" lon="6.14855">
        <ele>523.41375732422</ele>
        <time>2014-12-10T15:03:46Z</time>
      </trkpt>
      <trkpt lat="43.36301" lon="6.14855">
        <ele>524.4541015625</ele>
        <time>2014-12-10T15:03:55Z</time>
      </trkpt>
      <trkpt lat="43.36304" lon="6.14848">
        <ele>523.44323730469</ele>
        <time>2014-12-10T15:04:02Z</time>
      </trkpt>
      <trkpt lat="43.36305" lon="6.14846">
        <ele>522.93286132812</ele>
        <time>2014-12-10T15:04:03Z</time>
      </trkpt>
      <trkpt lat="43.36308" lon="6.14842">
        <ele>521.73687744141</ele>
        <time>2014-12-10T15:04:05Z</time>
      </trkpt>
      <trkpt lat="43.36309" lon="6.1484">
        <ele>521.04962158203</ele>
        <time>2014-12-10T15:04:06Z</time>
      </trkpt>
      <trkpt lat="43.36309" lon="6.14838">
        <ele>520.88354492188</ele>
        <time>2014-12-10T15:04:07Z</time>
      </trkpt>
      <trkpt lat="43.36311" lon="6.1483">
        <ele>520.37670898438</ele>
        <time>2014-12-10T15:04:10Z</time>
      </trkpt>
      <trkpt lat="43.36311" lon="6.14827">
        <ele>520.20275878906</ele>
        <time>2014-12-10T15:04:11Z</time>
      </trkpt>
      <trkpt lat="43.36314" lon="6.14816">
        <ele>518.63720703125</ele>
        <time>2014-12-10T15:04:14Z</time>
      </trkpt>
      <trkpt lat="43.36316" lon="6.14812">
        <ele>517.76745605469</ele>
        <time>2014-12-10T15:04:15Z</time>
      </trkpt>
      <trkpt lat="43.36318" lon="6.14808">
        <ele>516.89770507812</ele>
        <time>2014-12-10T15:04:16Z</time>
      </trkpt>
      <trkpt lat="43.3632" lon="6.14802">
        <ele>516.02795410156</ele>
        <time>2014-12-10T15:04:18Z</time>
      </trkpt>
      <trkpt lat="43.36321" lon="6.14799">
        <ele>515.50610351562</ele>
        <time>2014-12-10T15:04:19Z</time>
      </trkpt>
      <trkpt lat="43.36325" lon="6.14789">
        <ele>513.59265136719</ele>
        <time>2014-12-10T15:04:22Z</time>
      </trkpt>
      <trkpt lat="43.3633" lon="6.14783">
        <ele>511.67919921875</ele>
        <time>2014-12-10T15:04:24Z</time>
      </trkpt>
      <trkpt lat="43.36331" lon="6.14779">
        <ele>510.9833984375</ele>
        <time>2014-12-10T15:04:25Z</time>
      </trkpt>
      <trkpt lat="43.36335" lon="6.14773">
        <ele>509.2883605957</ele>
        <time>2014-12-10T15:04:27Z</time>
      </trkpt>
      <trkpt lat="43.36338" lon="6.14768">
        <ele>507.36770629883</ele>
        <time>2014-12-10T15:04:29Z</time>
      </trkpt>
      <trkpt lat="43.36341" lon="6.14764">
        <ele>505.65432739258</ele>
        <time>2014-12-10T15:04:31Z</time>
      </trkpt>
      <trkpt lat="43.36343" lon="6.1476">
        <ele>504.78851318359</ele>
        <time>2014-12-10T15:04:33Z</time>
      </trkpt>
      <trkpt lat="43.36344" lon="6.14757">
        <ele>503.92248535156</ele>
        <time>2014-12-10T15:04:36Z</time>
      </trkpt>
      <trkpt lat="43.36344" lon="6.14755">
        <ele>503.9169921875</ele>
        <time>2014-12-10T15:04:38Z</time>
      </trkpt>
      <trkpt lat="43.36346" lon="6.14754">
        <ele>502.62637329102</ele>
        <time>2014-12-10T15:04:47Z</time>
      </trkpt>
      <trkpt lat="43.36346" lon="6.14754">
        <ele>502.62637329102</ele>
        <time>2014-12-10T15:04:49Z</time>
      </trkpt>
      <trkpt lat="43.36348" lon="6.14754">
        <ele>501.55233764648</ele>
        <time>2014-12-10T15:05:01Z</time>
      </trkpt>
      <trkpt lat="43.3635" lon="6.14751">
        <ele>500.46398925781</ele>
        <time>2014-12-10T15:05:10Z</time>
      </trkpt>
      <trkpt lat="43.36351" lon="6.1475">
        <ele>500.23086547852</ele>
        <time>2014-12-10T15:05:11Z</time>
      </trkpt>
      <trkpt lat="43.36351" lon="6.14748">
        <ele>499.92254638672</ele>
        <time>2014-12-10T15:05:12Z</time>
      </trkpt>
      <trkpt lat="43.36351" lon="6.14741">
        <ele>499.39794921875</ele>
        <time>2014-12-10T15:05:15Z</time>
      </trkpt>
      <trkpt lat="43.36353" lon="6.14734">
        <ele>498.03207397461</ele>
        <time>2014-12-10T15:05:18Z</time>
      </trkpt>
      <trkpt lat="43.36354" lon="6.14729">
        <ele>497.16412353516</ele>
        <time>2014-12-10T15:05:20Z</time>
      </trkpt>
      <trkpt lat="43.36356" lon="6.1472">
        <ele>496.11837768555</ele>
        <time>2014-12-10T15:05:23Z</time>
      </trkpt>
      <trkpt lat="43.36356" lon="6.14717">
        <ele>495.55920410156</ele>
        <time>2014-12-10T15:05:24Z</time>
      </trkpt>
      <trkpt lat="43.36358" lon="6.14709">
        <ele>494.32626342773</ele>
        <time>2014-12-10T15:05:27Z</time>
      </trkpt>
      <trkpt lat="43.36359" lon="6.147">
        <ele>493.51766967773</ele>
        <time>2014-12-10T15:05:30Z</time>
      </trkpt>
      <trkpt lat="43.36359" lon="6.14698">
        <ele>493.19329833984</ele>
        <time>2014-12-10T15:05:31Z</time>
      </trkpt>
      <trkpt lat="43.3636" lon="6.14693">
        <ele>492.34390258789</ele>
        <time>2014-12-10T15:05:33Z</time>
      </trkpt>
      <trkpt lat="43.36359" lon="6.14691">
        <ele>492.68984985352</ele>
        <time>2014-12-10T15:05:35Z</time>
      </trkpt>
      <trkpt lat="43.36361" lon="6.14683">
        <ele>491.50631713867</ele>
        <time>2014-12-10T15:05:45Z</time>
      </trkpt>
      <trkpt lat="43.36362" lon="6.1468">
        <ele>490.49948120117</ele>
        <time>2014-12-10T15:05:47Z</time>
      </trkpt>
      <trkpt lat="43.36365" lon="6.14674">
        <ele>488.7802734375</ele>
        <time>2014-12-10T15:05:50Z</time>
      </trkpt>
      <trkpt lat="43.36366" lon="6.14673">
        <ele>488.50930786133</ele>
        <time>2014-12-10T15:05:51Z</time>
      </trkpt>
      <trkpt lat="43.36366" lon="6.14671">
        <ele>488.41625976562</ele>
        <time>2014-12-10T15:05:54Z</time>
      </trkpt>
      <trkpt lat="43.36365" lon="6.14668">
        <ele>488.50280761719</ele>
        <time>2014-12-10T15:05:58Z</time>
      </trkpt>
      <trkpt lat="43.36366" lon="6.14667">
        <ele>488.02990722656</ele>
        <time>2014-12-10T15:06:04Z</time>
      </trkpt>
      <trkpt lat="43.36367" lon="6.14662">
        <ele>487.029296875</ele>
        <time>2014-12-10T15:06:07Z</time>
      </trkpt>
      <trkpt lat="43.36369" lon="6.14654">
        <ele>485.46426391602</ele>
        <time>2014-12-10T15:06:15Z</time>
      </trkpt>
      <trkpt lat="43.36369" lon="6.14647">
        <ele>484.84609985352</ele>
        <time>2014-12-10T15:06:18Z</time>
      </trkpt>
      <trkpt lat="43.36369" lon="6.14642">
        <ele>484.44491577148</ele>
        <time>2014-12-10T15:06:20Z</time>
      </trkpt>
      <trkpt lat="43.36369" lon="6.14637">
        <ele>483.99868774414</ele>
        <time>2014-12-10T15:06:22Z</time>
      </trkpt>
      <trkpt lat="43.36369" lon="6.14634">
        <ele>483.57876586914</ele>
        <time>2014-12-10T15:06:23Z</time>
      </trkpt>
      <trkpt lat="43.3637" lon="6.14629">
        <ele>482.48928833008</ele>
        <time>2014-12-10T15:06:25Z</time>
      </trkpt>
      <trkpt lat="43.3637" lon="6.14626">
        <ele>482.0632019043</ele>
        <time>2014-12-10T15:06:26Z</time>
      </trkpt>
      <trkpt lat="43.36371" lon="6.14617">
        <ele>480.82733154297</ele>
        <time>2014-12-10T15:06:29Z</time>
      </trkpt>
      <trkpt lat="43.36372" lon="6.14614">
        <ele>480.37506103516</ele>
        <time>2014-12-10T15:06:30Z</time>
      </trkpt>
      <trkpt lat="43.36372" lon="6.14612">
        <ele>480.02056884766</ele>
        <time>2014-12-10T15:06:31Z</time>
      </trkpt>
      <trkpt lat="43.36372" lon="6.14611">
        <ele>479.73922729492</ele>
        <time>2014-12-10T15:06:32Z</time>
      </trkpt>
      <trkpt lat="43.36373" lon="6.14609">
        <ele>479.36926269531</ele>
        <time>2014-12-10T15:06:34Z</time>
      </trkpt>
      <trkpt lat="43.36373" lon="6.14607">
        <ele>479.16744995117</ele>
        <time>2014-12-10T15:06:36Z</time>
      </trkpt>
      <trkpt lat="43.36377" lon="6.14601">
        <ele>476.41830444336</ele>
        <time>2014-12-10T15:06:40Z</time>
      </trkpt>
      <trkpt lat="43.36378" lon="6.14601">
        <ele>475.64456176758</ele>
        <time>2014-12-10T15:06:41Z</time>
      </trkpt>
      <trkpt lat="43.3638" lon="6.14602">
        <ele>474.92553710938</ele>
        <time>2014-12-10T15:06:42Z</time>
      </trkpt>
      <trkpt lat="43.36381" lon="6.14603">
        <ele>474.39736938477</ele>
        <time>2014-12-10T15:06:43Z</time>
      </trkpt>
      <trkpt lat="43.36384" lon="6.14608">
        <ele>473.34887695312</ele>
        <time>2014-12-10T15:06:46Z</time>
      </trkpt>
      <trkpt lat="43.36385" lon="6.14608">
        <ele>472.95999145508</ele>
        <time>2014-12-10T15:06:47Z</time>
      </trkpt>
      <trkpt lat="43.36385" lon="6.14608">
        <ele>472.91738891602</ele>
        <time>2014-12-10T15:06:53Z</time>
      </trkpt>
      <trkpt lat="43.36384" lon="6.14608">
        <ele>473.12533569336</ele>
        <time>2014-12-10T15:06:55Z</time>
      </trkpt>
      <trkpt lat="43.36385" lon="6.14607">
        <ele>472.88250732422</ele>
        <time>2014-12-10T15:07:09Z</time>
      </trkpt>
      <trkpt lat="43.36385" lon="6.14607">
        <ele>472.88638305664</ele>
        <time>2014-12-10T15:07:13Z</time>
      </trkpt>
      <trkpt lat="43.36385" lon="6.14607">
        <ele>472.46670532227</ele>
        <time>2014-12-10T15:07:24Z</time>
      </trkpt>
      <trkpt lat="43.36386" lon="6.14605">
        <ele>471.8698425293</ele>
        <time>2014-12-10T15:07:31Z</time>
      </trkpt>
      <trkpt lat="43.36387" lon="6.14601">
        <ele>470.95922851562</ele>
        <time>2014-12-10T15:07:33Z</time>
      </trkpt>
      <trkpt lat="43.36388" lon="6.14594">
        <ele>469.81030273438</ele>
        <time>2014-12-10T15:07:36Z</time>
      </trkpt>
      <trkpt lat="43.36389" lon="6.1459">
        <ele>469.27185058594</ele>
        <time>2014-12-10T15:07:38Z</time>
      </trkpt>
      <trkpt lat="43.3639" lon="6.14578">
        <ele>467.54299926758</ele>
        <time>2014-12-10T15:07:43Z</time>
      </trkpt>
      <trkpt lat="43.3639" lon="6.14576">
        <ele>467.02645874023</ele>
        <time>2014-12-10T15:07:44Z</time>
      </trkpt>
      <trkpt lat="43.36391" lon="6.14571">
        <ele>465.84902954102</ele>
        <time>2014-12-10T15:07:46Z</time>
      </trkpt>
      <trkpt lat="43.36391" lon="6.14566">
        <ele>464.74609375</ele>
        <time>2014-12-10T15:07:48Z</time>
      </trkpt>
      <trkpt lat="43.36393" lon="6.1456">
        <ele>463.12243652344</ele>
        <time>2014-12-10T15:07:51Z</time>
      </trkpt>
      <trkpt lat="43.36394" lon="6.14558">
        <ele>462.22933959961</ele>
        <time>2014-12-10T15:07:52Z</time>
      </trkpt>
      <trkpt lat="43.36395" lon="6.14556">
        <ele>461.49990844727</ele>
        <time>2014-12-10T15:07:53Z</time>
      </trkpt>
      <trkpt lat="43.36397" lon="6.1455">
        <ele>459.66821289062</ele>
        <time>2014-12-10T15:07:55Z</time>
      </trkpt>
      <trkpt lat="43.36398" lon="6.14543">
        <ele>458.13973999023</ele>
        <time>2014-12-10T15:07:57Z</time>
      </trkpt>
      <trkpt lat="43.36399" lon="6.14538">
        <ele>457.03509521484</ele>
        <time>2014-12-10T15:07:59Z</time>
      </trkpt>
      <trkpt lat="43.36399" lon="6.14534">
        <ele>456.04318237305</ele>
        <time>2014-12-10T15:08:01Z</time>
      </trkpt>
      <trkpt lat="43.36399" lon="6.14532">
        <ele>455.96936035156</ele>
        <time>2014-12-10T15:08:02Z</time>
      </trkpt>
      <trkpt lat="43.36399" lon="6.1453">
        <ele>455.71182250977</ele>
        <time>2014-12-10T15:08:03Z</time>
      </trkpt>
      <trkpt lat="43.364" lon="6.14526">
        <ele>454.57604980469</ele>
        <time>2014-12-10T15:08:05Z</time>
      </trkpt>
      <trkpt lat="43.36401" lon="6.14521">
        <ele>453.26428222656</ele>
        <time>2014-12-10T15:08:07Z</time>
      </trkpt>
      <trkpt lat="43.36403" lon="6.14515">
        <ele>451.66619873047</ele>
        <time>2014-12-10T15:08:09Z</time>
      </trkpt>
      <trkpt lat="43.36403" lon="6.14508">
        <ele>450.71871948242</ele>
        <time>2014-12-10T15:08:11Z</time>
      </trkpt>
      <trkpt lat="43.36403" lon="6.14504">
        <ele>450.23828125</ele>
        <time>2014-12-10T15:08:12Z</time>
      </trkpt>
      <trkpt lat="43.36404" lon="6.14495">
        <ele>448.77377319336</ele>
        <time>2014-12-10T15:08:15Z</time>
      </trkpt>
      <trkpt lat="43.36405" lon="6.14489">
        <ele>447.53167724609</ele>
        <time>2014-12-10T15:08:17Z</time>
      </trkpt>
      <trkpt lat="43.36409" lon="6.14475">
        <ele>444.48068237305</ele>
        <time>2014-12-10T15:08:21Z</time>
      </trkpt>
      <trkpt lat="43.36409" lon="6.14471">
        <ele>443.96237182617</ele>
        <time>2014-12-10T15:08:22Z</time>
      </trkpt>
      <trkpt lat="43.36411" lon="6.14462">
        <ele>442.30178833008</ele>
        <time>2014-12-10T15:08:25Z</time>
      </trkpt>
      <trkpt lat="43.36413" lon="6.14457">
        <ele>440.98477172852</ele>
        <time>2014-12-10T15:08:27Z</time>
      </trkpt>
      <trkpt lat="43.36414" lon="6.14452">
        <ele>440.18041992188</ele>
        <time>2014-12-10T15:08:29Z</time>
      </trkpt>
      <trkpt lat="43.36414" lon="6.14448">
        <ele>439.85809326172</ele>
        <time>2014-12-10T15:08:31Z</time>
      </trkpt>
      <trkpt lat="43.36415" lon="6.1444">
        <ele>438.66287231445</ele>
        <time>2014-12-10T15:08:41Z</time>
      </trkpt>
      <trkpt lat="43.36416" lon="6.14438">
        <ele>438.11358642578</ele>
        <time>2014-12-10T15:08:44Z</time>
      </trkpt>
      <trkpt lat="43.36415" lon="6.14433">
        <ele>438.02322387695</ele>
        <time>2014-12-10T15:08:46Z</time>
      </trkpt>
      <trkpt lat="43.36415" lon="6.14426">
        <ele>437.48071289062</ele>
        <time>2014-12-10T15:08:48Z</time>
      </trkpt>
      <trkpt lat="43.36415" lon="6.14421">
        <ele>436.90600585938</ele>
        <time>2014-12-10T15:08:50Z</time>
      </trkpt>
      <trkpt lat="43.36416" lon="6.14413">
        <ele>436.3034362793</ele>
        <time>2014-12-10T15:08:53Z</time>
      </trkpt>
      <trkpt lat="43.36416" lon="6.14396">
        <ele>436.94482421875</ele>
        <time>2014-12-10T15:08:59Z</time>
      </trkpt>
      <trkpt lat="43.36417" lon="6.14392">
        <ele>436.90591430664</ele>
        <time>2014-12-10T15:09:00Z</time>
      </trkpt>
      <trkpt lat="43.36417" lon="6.14385">
        <ele>436.88540649414</ele>
        <time>2014-12-10T15:09:02Z</time>
      </trkpt>
      <trkpt lat="43.36419" lon="6.14376">
        <ele>436.818359375</ele>
        <time>2014-12-10T15:09:05Z</time>
      </trkpt>
      <trkpt lat="43.36419" lon="6.14373">
        <ele>436.66833496094</ele>
        <time>2014-12-10T15:09:06Z</time>
      </trkpt>
      <trkpt lat="43.36422" lon="6.14365">
        <ele>436.0325012207</ele>
        <time>2014-12-10T15:09:09Z</time>
      </trkpt>
      <trkpt lat="43.36422" lon="6.14363">
        <ele>435.9833984375</ele>
        <time>2014-12-10T15:09:10Z</time>
      </trkpt>
      <trkpt lat="43.36425" lon="6.14356">
        <ele>435.17639160156</ele>
        <time>2014-12-10T15:09:13Z</time>
      </trkpt>
      <trkpt lat="43.3643" lon="6.14348">
        <ele>433.93075561523</ele>
        <time>2014-12-10T15:09:16Z</time>
      </trkpt>
      <trkpt lat="43.36433" lon="6.14343">
        <ele>433.21951293945</ele>
        <time>2014-12-10T15:09:18Z</time>
      </trkpt>
      <trkpt lat="43.36435" lon="6.14331">
        <ele>432.75762939453</ele>
        <time>2014-12-10T15:09:22Z</time>
      </trkpt>
      <trkpt lat="43.36437" lon="6.14323">
        <ele>432.34851074219</ele>
        <time>2014-12-10T15:09:25Z</time>
      </trkpt>
      <trkpt lat="43.36438" lon="6.14316">
        <ele>432.04010009766</ele>
        <time>2014-12-10T15:09:27Z</time>
      </trkpt>
      <trkpt lat="43.36439" lon="6.14308">
        <ele>431.75112915039</ele>
        <time>2014-12-10T15:09:30Z</time>
      </trkpt>
      <trkpt lat="43.3644" lon="6.14306">
        <ele>431.64984130859</ele>
        <time>2014-12-10T15:09:31Z</time>
      </trkpt>
      <trkpt lat="43.36442" lon="6.143">
        <ele>430.95233154297</ele>
        <time>2014-12-10T15:09:33Z</time>
      </trkpt>
      <trkpt lat="43.36443" lon="6.14299">
        <ele>430.58325195312</ele>
        <time>2014-12-10T15:09:34Z</time>
      </trkpt>
      <trkpt lat="43.36445" lon="6.14295">
        <ele>429.86572265625</ele>
        <time>2014-12-10T15:09:36Z</time>
      </trkpt>
      <trkpt lat="43.36448" lon="6.14288">
        <ele>428.92102050781</ele>
        <time>2014-12-10T15:09:39Z</time>
      </trkpt>
      <trkpt lat="43.36453" lon="6.14279">
        <ele>427.48419189453</ele>
        <time>2014-12-10T15:09:43Z</time>
      </trkpt>
      <trkpt lat="43.36454" lon="6.14277">
        <ele>426.99496459961</ele>
        <time>2014-12-10T15:09:44Z</time>
      </trkpt>
      <trkpt lat="43.36455" lon="6.14276">
        <ele>426.8879699707</ele>
        <time>2014-12-10T15:09:45Z</time>
      </trkpt>
      <trkpt lat="43.36458" lon="6.14268">
        <ele>425.94955444336</ele>
        <time>2014-12-10T15:09:48Z</time>
      </trkpt>
      <trkpt lat="43.36459" lon="6.14262">
        <ele>425.51983642578</ele>
        <time>2014-12-10T15:09:50Z</time>
      </trkpt>
      <trkpt lat="43.3646" lon="6.14254">
        <ele>425.21997070312</ele>
        <time>2014-12-10T15:09:52Z</time>
      </trkpt>
      <trkpt lat="43.36461" lon="6.14244">
        <ele>424.8678894043</ele>
        <time>2014-12-10T15:09:55Z</time>
      </trkpt>
      <trkpt lat="43.36462" lon="6.14234">
        <ele>424.48681640625</ele>
        <time>2014-12-10T15:09:59Z</time>
      </trkpt>
      <trkpt lat="43.36461" lon="6.14234">
        <ele>424.61083984375</ele>
        <time>2014-12-10T15:10:00Z</time>
      </trkpt>
      <trkpt lat="43.36462" lon="6.14232">
        <ele>424.32220458984</ele>
        <time>2014-12-10T15:10:03Z</time>
      </trkpt>
      <trkpt lat="43.36462" lon="6.14232">
        <ele>424.30667114258</ele>
        <time>2014-12-10T15:10:11Z</time>
      </trkpt>
      <trkpt lat="43.36462" lon="6.14229">
        <ele>424.11169433594</ele>
        <time>2014-12-10T15:10:20Z</time>
      </trkpt>
      <trkpt lat="43.36464" lon="6.14227">
        <ele>423.65469360352</ele>
        <time>2014-12-10T15:10:21Z</time>
      </trkpt>
      <trkpt lat="43.36468" lon="6.14219">
        <ele>421.99758911133</ele>
        <time>2014-12-10T15:10:24Z</time>
      </trkpt>
      <trkpt lat="43.3647" lon="6.14213">
        <ele>420.9333190918</ele>
        <time>2014-12-10T15:10:26Z</time>
      </trkpt>
      <trkpt lat="43.3647" lon="6.14207">
        <ele>420.75775146484</ele>
        <time>2014-12-10T15:10:28Z</time>
      </trkpt>
      <trkpt lat="43.36471" lon="6.14204">
        <ele>420.5485534668</ele>
        <time>2014-12-10T15:10:29Z</time>
      </trkpt>
      <trkpt lat="43.36471" lon="6.14202">
        <ele>420.3440246582</ele>
        <time>2014-12-10T15:10:30Z</time>
      </trkpt>
      <trkpt lat="43.36472" lon="6.14197">
        <ele>420.07659912109</ele>
        <time>2014-12-10T15:10:33Z</time>
      </trkpt>
      <trkpt lat="43.36472" lon="6.14195">
        <ele>420.02221679688</ele>
        <time>2014-12-10T15:10:35Z</time>
      </trkpt>
      <trkpt lat="43.36473" lon="6.14182">
        <ele>419.26528930664</ele>
        <time>2014-12-10T15:10:43Z</time>
      </trkpt>
      <trkpt lat="43.36473" lon="6.14177">
        <ele>419.11502075195</ele>
        <time>2014-12-10T15:10:45Z</time>
      </trkpt>
      <trkpt lat="43.36473" lon="6.14175">
        <ele>419.05868530273</ele>
        <time>2014-12-10T15:10:46Z</time>
      </trkpt>
      <trkpt lat="43.36473" lon="6.14173">
        <ele>418.86566162109</ele>
        <time>2014-12-10T15:10:47Z</time>
      </trkpt>
      <trkpt lat="43.36475" lon="6.14169">
        <ele>418.07397460938</ele>
        <time>2014-12-10T15:10:49Z</time>
      </trkpt>
      <trkpt lat="43.36482" lon="6.14156">
        <ele>414.89755249023</ele>
        <time>2014-12-10T15:10:56Z</time>
      </trkpt>
      <trkpt lat="43.36483" lon="6.14149">
        <ele>414.19088745117</ele>
        <time>2014-12-10T15:10:59Z</time>
      </trkpt>
      <trkpt lat="43.36482" lon="6.14144">
        <ele>414.03924560547</ele>
        <time>2014-12-10T15:11:01Z</time>
      </trkpt>
      <trkpt lat="43.36483" lon="6.14134">
        <ele>413.31256103516</ele>
        <time>2014-12-10T15:11:05Z</time>
      </trkpt>
      <trkpt lat="43.36483" lon="6.14129">
        <ele>412.75180053711</ele>
        <time>2014-12-10T15:11:07Z</time>
      </trkpt>
      <trkpt lat="43.36484" lon="6.14125">
        <ele>412.37127685547</ele>
        <time>2014-12-10T15:11:09Z</time>
      </trkpt>
      <trkpt lat="43.36484" lon="6.14123">
        <ele>412.07659912109</ele>
        <time>2014-12-10T15:11:10Z</time>
      </trkpt>
      <trkpt lat="43.36484" lon="6.14116">
        <ele>411.64459228516</ele>
        <time>2014-12-10T15:11:13Z</time>
      </trkpt>
      <trkpt lat="43.36485" lon="6.14114">
        <ele>411.38421630859</ele>
        <time>2014-12-10T15:11:14Z</time>
      </trkpt>
      <trkpt lat="43.36485" lon="6.14111">
        <ele>411.24688720703</ele>
        <time>2014-12-10T15:11:16Z</time>
      </trkpt>
      <trkpt lat="43.36485" lon="6.14111">
        <ele>411.20111083984</ele>
        <time>2014-12-10T15:11:19Z</time>
      </trkpt>
      <trkpt lat="43.36484" lon="6.1411">
        <ele>411.28121948242</ele>
        <time>2014-12-10T15:11:28Z</time>
      </trkpt>
      <trkpt lat="43.36485" lon="6.14107">
        <ele>411.00942993164</ele>
        <time>2014-12-10T15:11:33Z</time>
      </trkpt>
      <trkpt lat="43.36484" lon="6.14105">
        <ele>411.16107177734</ele>
        <time>2014-12-10T15:11:39Z</time>
      </trkpt>
      <trkpt lat="43.36483" lon="6.14105">
        <ele>411.27838134766</ele>
        <time>2014-12-10T15:11:43Z</time>
      </trkpt>
      <trkpt lat="43.36484" lon="6.14097">
        <ele>410.51159667969</ele>
        <time>2014-12-10T15:11:48Z</time>
      </trkpt>
      <trkpt lat="43.36485" lon="6.1409">
        <ele>409.94512939453</ele>
        <time>2014-12-10T15:11:50Z</time>
      </trkpt>
      <trkpt lat="43.36485" lon="6.14084">
        <ele>409.44732666016</ele>
        <time>2014-12-10T15:11:52Z</time>
      </trkpt>
      <trkpt lat="43.36485" lon="6.1408">
        <ele>409.06307983398</ele>
        <time>2014-12-10T15:11:53Z</time>
      </trkpt>
      <trkpt lat="43.36487" lon="6.14067">
        <ele>407.40368652344</ele>
        <time>2014-12-10T15:11:56Z</time>
      </trkpt>
      <trkpt lat="43.36491" lon="6.14056">
        <ele>405.34997558594</ele>
        <time>2014-12-10T15:11:59Z</time>
      </trkpt>
      <trkpt lat="43.36493" lon="6.14039">
        <ele>403.15451049805</ele>
        <time>2014-12-10T15:12:03Z</time>
      </trkpt>
      <trkpt lat="43.36494" lon="6.14033">
        <ele>402.29028320312</ele>
        <time>2014-12-10T15:12:05Z</time>
      </trkpt>
      <trkpt lat="43.36495" lon="6.14029">
        <ele>401.75729370117</ele>
        <time>2014-12-10T15:12:07Z</time>
      </trkpt>
      <trkpt lat="43.36495" lon="6.14025">
        <ele>401.45288085938</ele>
        <time>2014-12-10T15:12:09Z</time>
      </trkpt>
      <trkpt lat="43.36495" lon="6.14023">
        <ele>401.31991577148</ele>
        <time>2014-12-10T15:12:12Z</time>
      </trkpt>
      <trkpt lat="43.36496" lon="6.14023">
        <ele>401.15072631836</ele>
        <time>2014-12-10T15:12:20Z</time>
      </trkpt>
      <trkpt lat="43.36497" lon="6.14023">
        <ele>400.48001098633</ele>
        <time>2014-12-10T15:12:26Z</time>
      </trkpt>
      <trkpt lat="43.36498" lon="6.14021">
        <ele>400.11154174805</ele>
        <time>2014-12-10T15:12:28Z</time>
      </trkpt>
      <trkpt lat="43.36499" lon="6.1402">
        <ele>399.62030029297</ele>
        <time>2014-12-10T15:12:33Z</time>
      </trkpt>
      <trkpt lat="43.36499" lon="6.14019">
        <ele>399.59963989258</ele>
        <time>2014-12-10T15:12:35Z</time>
      </trkpt>
      <trkpt lat="43.36499" lon="6.14017">
        <ele>399.46197509766</ele>
        <time>2014-12-10T15:12:40Z</time>
      </trkpt>
      <trkpt lat="43.36501" lon="6.14015">
        <ele>398.88012695312</ele>
        <time>2014-12-10T15:12:42Z</time>
      </trkpt>
      <trkpt lat="43.36505" lon="6.14005">
        <ele>397.40502929688</ele>
        <time>2014-12-10T15:12:48Z</time>
      </trkpt>
      <trkpt lat="43.36505" lon="6.14003">
        <ele>397.19580078125</ele>
        <time>2014-12-10T15:12:49Z</time>
      </trkpt>
      <trkpt lat="43.36506" lon="6.14001">
        <ele>396.94674682617</ele>
        <time>2014-12-10T15:12:50Z</time>
      </trkpt>
      <trkpt lat="43.36509" lon="6.13996">
        <ele>395.93252563477</ele>
        <time>2014-12-10T15:12:53Z</time>
      </trkpt>
      <trkpt lat="43.36514" lon="6.13987">
        <ele>394.35629272461</ele>
        <time>2014-12-10T15:12:57Z</time>
      </trkpt>
      <trkpt lat="43.36515" lon="6.13984">
        <ele>393.9206237793</ele>
        <time>2014-12-10T15:12:58Z</time>
      </trkpt>
      <trkpt lat="43.36516" lon="6.13978">
        <ele>393.26586914062</ele>
        <time>2014-12-10T15:13:00Z</time>
      </trkpt>
      <trkpt lat="43.36518" lon="6.13966">
        <ele>392.17547607422</ele>
        <time>2014-12-10T15:13:03Z</time>
      </trkpt>
      <trkpt lat="43.36522" lon="6.1395">
        <ele>390.31350708008</ele>
        <time>2014-12-10T15:13:06Z</time>
      </trkpt>
      <trkpt lat="43.36523" lon="6.13946">
        <ele>389.86624145508</ele>
        <time>2014-12-10T15:13:07Z</time>
      </trkpt>
      <trkpt lat="43.36524" lon="6.13942">
        <ele>389.52407836914</ele>
        <time>2014-12-10T15:13:10Z</time>
      </trkpt>
      <trkpt lat="43.36524" lon="6.13942">
        <ele>389.47012329102</ele>
        <time>2014-12-10T15:13:23Z</time>
      </trkpt>
      <trkpt lat="43.36525" lon="6.13941">
        <ele>389.34335327148</ele>
        <time>2014-12-10T15:13:36Z</time>
      </trkpt>
      <trkpt lat="43.36525" lon="6.13931">
        <ele>388.58047485352</ele>
        <time>2014-12-10T15:13:45Z</time>
      </trkpt>
      <trkpt lat="43.36526" lon="6.13926">
        <ele>388.18911743164</ele>
        <time>2014-12-10T15:13:46Z</time>
      </trkpt>
      <trkpt lat="43.36528" lon="6.13908">
        <ele>386.85321044922</ele>
        <time>2014-12-10T15:13:50Z</time>
      </trkpt>
      <trkpt lat="43.36531" lon="6.1389">
        <ele>385.49978637695</ele>
        <time>2014-12-10T15:13:54Z</time>
      </trkpt>
      <trkpt lat="43.36531" lon="6.13885">
        <ele>385.15386962891</ele>
        <time>2014-12-10T15:13:55Z</time>
      </trkpt>
      <trkpt lat="43.36535" lon="6.13859">
        <ele>383.42678833008</ele>
        <time>2014-12-10T15:14:00Z</time>
      </trkpt>
      <trkpt lat="43.36535" lon="6.13848">
        <ele>382.81985473633</ele>
        <time>2014-12-10T15:14:02Z</time>
      </trkpt>
      <trkpt lat="43.36536" lon="6.13836">
        <ele>382.12850952148</ele>
        <time>2014-12-10T15:14:04Z</time>
      </trkpt>
      <trkpt lat="43.36547" lon="6.13781">
        <ele>379.32135009766</ele>
        <time>2014-12-10T15:14:13Z</time>
      </trkpt>
      <trkpt lat="43.3655" lon="6.13757">
        <ele>378.26309204102</ele>
        <time>2014-12-10T15:14:16Z</time>
      </trkpt>
      <trkpt lat="43.36552" lon="6.1374">
        <ele>377.29470825195</ele>
        <time>2014-12-10T15:14:18Z</time>
      </trkpt>
      <trkpt lat="43.36555" lon="6.13712">
        <ele>375.34732055664</ele>
        <time>2014-12-10T15:14:21Z</time>
      </trkpt>
      <trkpt lat="43.3656" lon="6.13683">
        <ele>373.03997802734</ele>
        <time>2014-12-10T15:14:24Z</time>
      </trkpt>
      <trkpt lat="43.36564" lon="6.13663">
        <ele>371.26934814453</ele>
        <time>2014-12-10T15:14:26Z</time>
      </trkpt>
      <trkpt lat="43.36569" lon="6.13631">
        <ele>368.70950317383</ele>
        <time>2014-12-10T15:14:29Z</time>
      </trkpt>
      <trkpt lat="43.36574" lon="6.1361">
        <ele>366.44534301758</ele>
        <time>2014-12-10T15:14:31Z</time>
      </trkpt>
      <trkpt lat="43.36586" lon="6.13571">
        <ele>363.0641784668</ele>
        <time>2014-12-10T15:14:35Z</time>
      </trkpt>
      <trkpt lat="43.36588" lon="6.1356">
        <ele>363.21011352539</ele>
        <time>2014-12-10T15:14:36Z</time>
      </trkpt>
      <trkpt lat="43.36594" lon="6.13539">
        <ele>363.51226806641</ele>
        <time>2014-12-10T15:14:38Z</time>
      </trkpt>
      <trkpt lat="43.366" lon="6.13518">
        <ele>363.7121887207</ele>
        <time>2014-12-10T15:14:40Z</time>
      </trkpt>
      <trkpt lat="43.36602" lon="6.13507">
        <ele>363.64984130859</ele>
        <time>2014-12-10T15:14:41Z</time>
      </trkpt>
      <trkpt lat="43.36609" lon="6.13466">
        <ele>362.8173828125</ele>
        <time>2014-12-10T15:14:45Z</time>
      </trkpt>
      <trkpt lat="43.36615" lon="6.13446">
        <ele>362.44519042969</ele>
        <time>2014-12-10T15:14:47Z</time>
      </trkpt>
      <trkpt lat="43.36617" lon="6.13435">
        <ele>362.18432617188</ele>
        <time>2014-12-10T15:14:48Z</time>
      </trkpt>
      <trkpt lat="43.36625" lon="6.13406">
        <ele>361.58612060547</ele>
        <time>2014-12-10T15:14:51Z</time>
      </trkpt>
      <trkpt lat="43.36631" lon="6.13387">
        <ele>361.24411010742</ele>
        <time>2014-12-10T15:14:53Z</time>
      </trkpt>
      <trkpt lat="43.36633" lon="6.13378">
        <ele>361.05160522461</ele>
        <time>2014-12-10T15:14:54Z</time>
      </trkpt>
      <trkpt lat="43.36643" lon="6.13342">
        <ele>360.04196166992</ele>
        <time>2014-12-10T15:14:58Z</time>
      </trkpt>
      <trkpt lat="43.36645" lon="6.13333">
        <ele>359.71176147461</ele>
        <time>2014-12-10T15:14:59Z</time>
      </trkpt>
      <trkpt lat="43.36657" lon="6.13272">
        <ele>357.49368286133</ele>
        <time>2014-12-10T15:15:05Z</time>
      </trkpt>
      <trkpt lat="43.36658" lon="6.13262">
        <ele>357.03820800781</ele>
        <time>2014-12-10T15:15:06Z</time>
      </trkpt>
      <trkpt lat="43.3666" lon="6.13229">
        <ele>355.3681640625</ele>
        <time>2014-12-10T15:15:09Z</time>
      </trkpt>
      <trkpt lat="43.36661" lon="6.13219">
        <ele>354.76159667969</ele>
        <time>2014-12-10T15:15:10Z</time>
      </trkpt>
      <trkpt lat="43.36663" lon="6.132">
        <ele>353.76025390625</ele>
        <time>2014-12-10T15:15:12Z</time>
      </trkpt>
      <trkpt lat="43.36663" lon="6.13192">
        <ele>353.31393432617</ele>
        <time>2014-12-10T15:15:13Z</time>
      </trkpt>
      <trkpt lat="43.36664" lon="6.13185">
        <ele>352.91339111328</ele>
        <time>2014-12-10T15:15:14Z</time>
      </trkpt>
      <trkpt lat="43.36665" lon="6.13166">
        <ele>351.90060424805</ele>
        <time>2014-12-10T15:15:17Z</time>
      </trkpt>
      <trkpt lat="43.36668" lon="6.13157">
        <ele>351.20892333984</ele>
        <time>2014-12-10T15:15:19Z</time>
      </trkpt>
      <trkpt lat="43.36674" lon="6.13151">
        <ele>350.60025024414</ele>
        <time>2014-12-10T15:15:22Z</time>
      </trkpt>
      <trkpt lat="43.36677" lon="6.1315">
        <ele>350.41821289062</ele>
        <time>2014-12-10T15:15:23Z</time>
      </trkpt>
      <trkpt lat="43.36688" lon="6.13145">
        <ele>349.88452148438</ele>
        <time>2014-12-10T15:15:26Z</time>
      </trkpt>
      <trkpt lat="43.36696" lon="6.13137">
        <ele>349.01892089844</ele>
        <time>2014-12-10T15:15:28Z</time>
      </trkpt>
      <trkpt lat="43.36703" lon="6.13124">
        <ele>347.73519897461</ele>
        <time>2014-12-10T15:15:30Z</time>
      </trkpt>
      <trkpt lat="43.36708" lon="6.1311">
        <ele>346.35632324219</ele>
        <time>2014-12-10T15:15:32Z</time>
      </trkpt>
      <trkpt lat="43.3671" lon="6.13102">
        <ele>345.59872436523</ele>
        <time>2014-12-10T15:15:33Z</time>
      </trkpt>
      <trkpt lat="43.36714" lon="6.13085">
        <ele>344.02279663086</ele>
        <time>2014-12-10T15:15:35Z</time>
      </trkpt>
      <trkpt lat="43.36717" lon="6.13077">
        <ele>343.6728515625</ele>
        <time>2014-12-10T15:15:36Z</time>
      </trkpt>
      <trkpt lat="43.36736" lon="6.13042">
        <ele>343.00619506836</ele>
        <time>2014-12-10T15:15:41Z</time>
      </trkpt>
      <trkpt lat="43.36757" lon="6.13005">
        <ele>342.66491699219</ele>
        <time>2014-12-10T15:15:46Z</time>
      </trkpt>
      <trkpt lat="43.36781" lon="6.12976">
        <ele>341.08203125</ele>
        <time>2014-12-10T15:15:50Z</time>
      </trkpt>
      <trkpt lat="43.36799" lon="6.12957">
        <ele>340.31729125977</ele>
        <time>2014-12-10T15:15:53Z</time>
      </trkpt>
      <trkpt lat="43.36823" lon="6.12931">
        <ele>339.91949462891</ele>
        <time>2014-12-10T15:15:57Z</time>
      </trkpt>
      <trkpt lat="43.36841" lon="6.12912">
        <ele>339.43347167969</ele>
        <time>2014-12-10T15:16:00Z</time>
      </trkpt>
      <trkpt lat="43.36861" lon="6.12893">
        <ele>338.00524902344</ele>
        <time>2014-12-10T15:16:03Z</time>
      </trkpt>
      <trkpt lat="43.36868" lon="6.12887">
        <ele>337.4833984375</ele>
        <time>2014-12-10T15:16:04Z</time>
      </trkpt>
      <trkpt lat="43.36882" lon="6.12874">
        <ele>336.46716308594</ele>
        <time>2014-12-10T15:16:06Z</time>
      </trkpt>
      <trkpt lat="43.36896" lon="6.12863">
        <ele>335.505859375</ele>
        <time>2014-12-10T15:16:08Z</time>
      </trkpt>
      <trkpt lat="43.36902" lon="6.12856">
        <ele>335.06640625</ele>
        <time>2014-12-10T15:16:09Z</time>
      </trkpt>
      <trkpt lat="43.36911" lon="6.12841">
        <ele>334.43469238281</ele>
        <time>2014-12-10T15:16:11Z</time>
      </trkpt>
      <trkpt lat="43.36919" lon="6.12824">
        <ele>333.60260009766</ele>
        <time>2014-12-10T15:16:13Z</time>
      </trkpt>
      <trkpt lat="43.36932" lon="6.12799">
        <ele>332.17889404297</ele>
        <time>2014-12-10T15:16:16Z</time>
      </trkpt>
      <trkpt lat="43.36944" lon="6.12771">
        <ele>330.62023925781</ele>
        <time>2014-12-10T15:16:20Z</time>
      </trkpt>
      <trkpt lat="43.36948" lon="6.12765">
        <ele>330.20220947266</ele>
        <time>2014-12-10T15:16:22Z</time>
      </trkpt>
      <trkpt lat="43.36949" lon="6.12764">
        <ele>330.07107543945</ele>
        <time>2014-12-10T15:16:23Z</time>
      </trkpt>
      <trkpt lat="43.36952" lon="6.1276">
        <ele>329.76373291016</ele>
        <time>2014-12-10T15:16:25Z</time>
      </trkpt>
      <trkpt lat="43.36956" lon="6.12753">
        <ele>329.29696655273</ele>
        <time>2014-12-10T15:16:27Z</time>
      </trkpt>
      <trkpt lat="43.36965" lon="6.12734">
        <ele>327.88265991211</ele>
        <time>2014-12-10T15:16:32Z</time>
      </trkpt>
      <trkpt lat="43.36972" lon="6.12718">
        <ele>326.69705200195</ele>
        <time>2014-12-10T15:16:36Z</time>
      </trkpt>
      <trkpt lat="43.36978" lon="6.12705">
        <ele>325.84942626953</ele>
        <time>2014-12-10T15:16:39Z</time>
      </trkpt>
      <trkpt lat="43.36996" lon="6.12665">
        <ele>323.16842651367</ele>
        <time>2014-12-10T15:16:48Z</time>
      </trkpt>
      <trkpt lat="43.37019" lon="6.12618">
        <ele>321.11657714844</ele>
        <time>2014-12-10T15:16:58Z</time>
      </trkpt>
      <trkpt lat="43.37024" lon="6.12608">
        <ele>320.68548583984</ele>
        <time>2014-12-10T15:17:00Z</time>
      </trkpt>
      <trkpt lat="43.37036" lon="6.12584">
        <ele>319.60250854492</ele>
        <time>2014-12-10T15:17:05Z</time>
      </trkpt>
      <trkpt lat="43.37042" lon="6.12575">
        <ele>319.29675292969</ele>
        <time>2014-12-10T15:17:07Z</time>
      </trkpt>
      <trkpt lat="43.37051" lon="6.12564">
        <ele>318.92367553711</ele>
        <time>2014-12-10T15:17:10Z</time>
      </trkpt>
      <trkpt lat="43.37055" lon="6.12561">
        <ele>318.80810546875</ele>
        <time>2014-12-10T15:17:11Z</time>
      </trkpt>
      <trkpt lat="43.37064" lon="6.12552">
        <ele>318.47735595703</ele>
        <time>2014-12-10T15:17:14Z</time>
      </trkpt>
      <trkpt lat="43.37075" lon="6.12544">
        <ele>318.15005493164</ele>
        <time>2014-12-10T15:17:17Z</time>
      </trkpt>
      <trkpt lat="43.37078" lon="6.12541">
        <ele>318.03332519531</ele>
        <time>2014-12-10T15:17:18Z</time>
      </trkpt>
      <trkpt lat="43.37093" lon="6.12527">
        <ele>318.18658447266</ele>
        <time>2014-12-10T15:17:22Z</time>
      </trkpt>
      <trkpt lat="43.37106" lon="6.12512">
        <ele>318.45184326172</ele>
        <time>2014-12-10T15:17:26Z</time>
      </trkpt>
      <trkpt lat="43.37123" lon="6.1248">
        <ele>318.447265625</ele>
        <time>2014-12-10T15:17:33Z</time>
      </trkpt>
      <trkpt lat="43.37125" lon="6.12475">
        <ele>318.41650390625</ele>
        <time>2014-12-10T15:17:34Z</time>
      </trkpt>
      <trkpt lat="43.3714" lon="6.12441">
        <ele>318.02633666992</ele>
        <time>2014-12-10T15:17:41Z</time>
      </trkpt>
      <trkpt lat="43.37157" lon="6.12405">
        <ele>317.62768554688</ele>
        <time>2014-12-10T15:17:49Z</time>
      </trkpt>
      <trkpt lat="43.37165" lon="6.12394">
        <ele>317.67977905273</ele>
        <time>2014-12-10T15:17:52Z</time>
      </trkpt>
      <trkpt lat="43.37176" lon="6.12379">
        <ele>318.71478271484</ele>
        <time>2014-12-10T15:17:56Z</time>
      </trkpt>
      <trkpt lat="43.37178" lon="6.12376">
        <ele>318.95672607422</ele>
        <time>2014-12-10T15:17:57Z</time>
      </trkpt>
      <trkpt lat="43.3719" lon="6.12362">
        <ele>320.12734985352</ele>
        <time>2014-12-10T15:18:02Z</time>
      </trkpt>
      <trkpt lat="43.37194" lon="6.12357">
        <ele>320.5146484375</ele>
        <time>2014-12-10T15:18:04Z</time>
      </trkpt>
      <trkpt lat="43.37205" lon="6.12338">
        <ele>321.29699707031</ele>
        <time>2014-12-10T15:18:11Z</time>
      </trkpt>
      <trkpt lat="43.37207" lon="6.12336">
        <ele>321.38552856445</ele>
        <time>2014-12-10T15:18:12Z</time>
      </trkpt>
      <trkpt lat="43.37214" lon="6.12321">
        <ele>321.67684936523</ele>
        <time>2014-12-10T15:18:18Z</time>
      </trkpt>
      <trkpt lat="43.37219" lon="6.12312">
        <ele>321.80880737305</ele>
        <time>2014-12-10T15:18:22Z</time>
      </trkpt>
      <trkpt lat="43.37221" lon="6.12308">
        <ele>321.83139038086</ele>
        <time>2014-12-10T15:18:24Z</time>
      </trkpt>
      <trkpt lat="43.37226" lon="6.12295">
        <ele>321.79666137695</ele>
        <time>2014-12-10T15:18:30Z</time>
      </trkpt>
      <trkpt lat="43.37227" lon="6.12291">
        <ele>321.76861572266</ele>
        <time>2014-12-10T15:18:32Z</time>
      </trkpt>
      <trkpt lat="43.37231" lon="6.12278">
        <ele>321.62292480469</ele>
        <time>2014-12-10T15:18:37Z</time>
      </trkpt>
      <trkpt lat="43.37237" lon="6.12262">
        <ele>321.43304443359</ele>
        <time>2014-12-10T15:18:44Z</time>
      </trkpt>
      <trkpt lat="43.37239" lon="6.12255">
        <ele>321.31729125977</ele>
        <time>2014-12-10T15:18:47Z</time>
      </trkpt>
      <trkpt lat="43.37244" lon="6.12243">
        <ele>321.23892211914</ele>
        <time>2014-12-10T15:18:53Z</time>
      </trkpt>
      <trkpt lat="43.37245" lon="6.12241">
        <ele>321.22991943359</ele>
        <time>2014-12-10T15:18:54Z</time>
      </trkpt>
      <trkpt lat="43.3725" lon="6.12228">
        <ele>321.1904296875</ele>
        <time>2014-12-10T15:19:01Z</time>
      </trkpt>
      <trkpt lat="43.37256" lon="6.12214">
        <ele>322.53134155273</ele>
        <time>2014-12-10T15:19:09Z</time>
      </trkpt>
      <trkpt lat="43.37259" lon="6.12209">
        <ele>323.01959228516</ele>
        <time>2014-12-10T15:19:12Z</time>
      </trkpt>
      <trkpt lat="43.37262" lon="6.12201">
        <ele>323.85848999023</ele>
        <time>2014-12-10T15:19:17Z</time>
      </trkpt>
      <trkpt lat="43.37269" lon="6.12188">
        <ele>325.24151611328</ele>
        <time>2014-12-10T15:19:25Z</time>
      </trkpt>
      <trkpt lat="43.37276" lon="6.12177">
        <ele>326.79510498047</ele>
        <time>2014-12-10T15:19:32Z</time>
      </trkpt>
      <trkpt lat="43.37278" lon="6.12173">
        <ele>327.32012939453</ele>
        <time>2014-12-10T15:19:34Z</time>
      </trkpt>
      <trkpt lat="43.37284" lon="6.12165">
        <ele>328.74420166016</ele>
        <time>2014-12-10T15:19:41Z</time>
      </trkpt>
      <trkpt lat="43.37285" lon="6.12164">
        <ele>328.90213012695</ele>
        <time>2014-12-10T15:19:42Z</time>
      </trkpt>
      <trkpt lat="43.37291" lon="6.12155">
        <ele>330.33258056641</ele>
        <time>2014-12-10T15:19:49Z</time>
      </trkpt>
      <trkpt lat="43.37298" lon="6.12149">
        <ele>331.89788818359</ele>
        <time>2014-12-10T15:19:55Z</time>
      </trkpt>
      <trkpt lat="43.373" lon="6.12147">
        <ele>332.44931030273</ele>
        <time>2014-12-10T15:19:57Z</time>
      </trkpt>
      <trkpt lat="43.37305" lon="6.12143">
        <ele>333.65435791016</ele>
        <time>2014-12-10T15:20:01Z</time>
      </trkpt>
      <trkpt lat="43.3731" lon="6.12141">
        <ele>334.81781005859</ele>
        <time>2014-12-10T15:20:05Z</time>
      </trkpt>
      <trkpt lat="43.37313" lon="6.12139">
        <ele>335.56341552734</ele>
        <time>2014-12-10T15:20:08Z</time>
      </trkpt>
      <trkpt lat="43.37314" lon="6.12138">
        <ele>335.85015869141</ele>
        <time>2014-12-10T15:20:09Z</time>
      </trkpt>
      <trkpt lat="43.37319" lon="6.12135">
        <ele>337.06503295898</ele>
        <time>2014-12-10T15:20:13Z</time>
      </trkpt>
      <trkpt lat="43.3732" lon="6.12134">
        <ele>337.3039855957</ele>
        <time>2014-12-10T15:20:19Z</time>
      </trkpt>
      <trkpt lat="43.3732" lon="6.12134">
        <ele>337.30130004883</ele>
        <time>2014-12-10T15:20:23Z</time>
      </trkpt>
      <trkpt lat="43.3732" lon="6.12134">
        <ele>337.29864501953</ele>
        <time>2014-12-10T15:20:25Z</time>
      </trkpt>
      <trkpt lat="43.3732" lon="6.12133">
        <ele>337.27453613281</ele>
        <time>2014-12-10T15:20:33Z</time>
      </trkpt>
      <trkpt lat="43.3732" lon="6.12133">
        <ele>337.26651000977</ele>
        <time>2014-12-10T15:20:39Z</time>
      </trkpt>
      <trkpt lat="43.3732" lon="6.12133">
        <ele>337.26651000977</ele>
        <time>2014-12-10T15:20:45Z</time>
      </trkpt>
      <trkpt lat="43.3732" lon="6.12133">
        <ele>337.33514404297</ele>
        <time>2014-12-10T15:20:55Z</time>
      </trkpt>
      <trkpt lat="43.37324" lon="6.1213">
        <ele>338.13732910156</ele>
        <time>2014-12-10T15:20:58Z</time>
      </trkpt>
      <trkpt lat="43.3733" lon="6.12125">
        <ele>339.56039428711</ele>
        <time>2014-12-10T15:21:03Z</time>
      </trkpt>
      <trkpt lat="43.37334" lon="6.12122">
        <ele>340.509765625</ele>
        <time>2014-12-10T15:21:06Z</time>
      </trkpt>
      <trkpt lat="43.37339" lon="6.1212">
        <ele>341.00805664062</ele>
        <time>2014-12-10T15:21:09Z</time>
      </trkpt>
      <trkpt lat="43.37342" lon="6.12118">
        <ele>341.39553833008</ele>
        <time>2014-12-10T15:21:11Z</time>
      </trkpt>
      <trkpt lat="43.37347" lon="6.12115">
        <ele>341.91464233398</ele>
        <time>2014-12-10T15:21:14Z</time>
      </trkpt>
      <trkpt lat="43.37349" lon="6.12114">
        <ele>342.10690307617</ele>
        <time>2014-12-10T15:21:15Z</time>
      </trkpt>
      <trkpt lat="43.37351" lon="6.12114">
        <ele>342.46029663086</ele>
        <time>2014-12-10T15:21:17Z</time>
      </trkpt>
      <trkpt lat="43.37355" lon="6.12112">
        <ele>342.89389038086</ele>
        <time>2014-12-10T15:21:20Z</time>
      </trkpt>
      <trkpt lat="43.37371" lon="6.121">
        <ele>344.64147949219</ele>
        <time>2014-12-10T15:21:32Z</time>
      </trkpt>
      <trkpt lat="43.37377" lon="6.12097">
        <ele>345.4128112793</ele>
        <time>2014-12-10T15:21:36Z</time>
      </trkpt>
      <trkpt lat="43.37381" lon="6.12095">
        <ele>345.93572998047</ele>
        <time>2014-12-10T15:21:39Z</time>
      </trkpt>
      <trkpt lat="43.37385" lon="6.12095">
        <ele>346.56060791016</ele>
        <time>2014-12-10T15:21:42Z</time>
      </trkpt>
      <trkpt lat="43.37399" lon="6.12093">
        <ele>348.61846923828</ele>
        <time>2014-12-10T15:21:50Z</time>
      </trkpt>
      <trkpt lat="43.37411" lon="6.12092">
        <ele>350.38433837891</ele>
        <time>2014-12-10T15:21:59Z</time>
      </trkpt>
      <trkpt lat="43.37422" lon="6.12092">
        <ele>350.73239135742</ele>
        <time>2014-12-10T15:22:08Z</time>
      </trkpt>
      <trkpt lat="43.37423" lon="6.12091">
        <ele>350.58810424805</ele>
        <time>2014-12-10T15:22:09Z</time>
      </trkpt>
      <trkpt lat="43.37429" lon="6.12087">
        <ele>349.79461669922</ele>
        <time>2014-12-10T15:22:15Z</time>
      </trkpt>
      <trkpt lat="43.37432" lon="6.12087">
        <ele>349.44039916992</ele>
        <time>2014-12-10T15:22:19Z</time>
      </trkpt>
      <trkpt lat="43.37434" lon="6.12086">
        <ele>349.24890136719</ele>
        <time>2014-12-10T15:22:22Z</time>
      </trkpt>
      <trkpt lat="43.37434" lon="6.12085">
        <ele>349.18228149414</ele>
        <time>2014-12-10T15:22:27Z</time>
      </trkpt>
      <trkpt lat="43.37434" lon="6.12085">
        <ele>349.18081665039</ele>
        <time>2014-12-10T15:22:31Z</time>
      </trkpt>
      <trkpt lat="43.37434" lon="6.12085">
        <ele>349.18228149414</ele>
        <time>2014-12-10T15:22:34Z</time>
      </trkpt>
      <trkpt lat="43.3744" lon="6.12086">
        <ele>348.54229736328</ele>
        <time>2014-12-10T15:22:41Z</time>
      </trkpt>
      <trkpt lat="43.37455" lon="6.12085">
        <ele>346.9020690918</ele>
        <time>2014-12-10T15:22:45Z</time>
      </trkpt>
      <trkpt lat="43.3746" lon="6.12083">
        <ele>346.28308105469</ele>
        <time>2014-12-10T15:22:46Z</time>
      </trkpt>
      <trkpt lat="43.37471" lon="6.12078">
        <ele>345.00238037109</ele>
        <time>2014-12-10T15:22:48Z</time>
      </trkpt>
      <trkpt lat="43.37476" lon="6.12074">
        <ele>344.41705322266</ele>
        <time>2014-12-10T15:22:49Z</time>
      </trkpt>
      <trkpt lat="43.37486" lon="6.12066">
        <ele>343.24197387695</ele>
        <time>2014-12-10T15:22:51Z</time>
      </trkpt>
      <trkpt lat="43.37496" lon="6.12056">
        <ele>342.07336425781</ele>
        <time>2014-12-10T15:22:53Z</time>
      </trkpt>
      <trkpt lat="43.37502" lon="6.12051">
        <ele>341.44274902344</ele>
        <time>2014-12-10T15:22:54Z</time>
      </trkpt>
      <trkpt lat="43.37506" lon="6.12047">
        <ele>340.80279541016</ele>
        <time>2014-12-10T15:22:55Z</time>
      </trkpt>
      <trkpt lat="43.37511" lon="6.12042">
        <ele>340.22341918945</ele>
        <time>2014-12-10T15:22:56Z</time>
      </trkpt>
      <trkpt lat="43.37514" lon="6.12038">
        <ele>339.67602539062</ele>
        <time>2014-12-10T15:22:57Z</time>
      </trkpt>
      <trkpt lat="43.37522" lon="6.12029">
        <ele>338.53576660156</ele>
        <time>2014-12-10T15:22:59Z</time>
      </trkpt>
      <trkpt lat="43.3753" lon="6.12021">
        <ele>337.26763916016</ele>
        <time>2014-12-10T15:23:01Z</time>
      </trkpt>
      <trkpt lat="43.37537" lon="6.12015">
        <ele>336.21063232422</ele>
        <time>2014-12-10T15:23:03Z</time>
      </trkpt>
      <trkpt lat="43.3754" lon="6.1201">
        <ele>335.64401245117</ele>
        <time>2014-12-10T15:23:04Z</time>
      </trkpt>
      <trkpt lat="43.37543" lon="6.12006">
        <ele>334.96704101562</ele>
        <time>2014-12-10T15:23:05Z</time>
      </trkpt>
      <trkpt lat="43.37552" lon="6.11997">
        <ele>333.42114257812</ele>
        <time>2014-12-10T15:23:07Z</time>
      </trkpt>
      <trkpt lat="43.3756" lon="6.1199">
        <ele>332.0280456543</ele>
        <time>2014-12-10T15:23:09Z</time>
      </trkpt>
      <trkpt lat="43.37565" lon="6.11986">
        <ele>331.08319091797</ele>
        <time>2014-12-10T15:23:10Z</time>
      </trkpt>
      <trkpt lat="43.37574" lon="6.1198">
        <ele>329.42443847656</ele>
        <time>2014-12-10T15:23:12Z</time>
      </trkpt>
      <trkpt lat="43.37579" lon="6.11977">
        <ele>328.62289428711</ele>
        <time>2014-12-10T15:23:13Z</time>
      </trkpt>
      <trkpt lat="43.37582" lon="6.11974">
        <ele>327.8801574707</ele>
        <time>2014-12-10T15:23:14Z</time>
      </trkpt>
      <trkpt lat="43.37594" lon="6.11961">
        <ele>326.39321899414</ele>
        <time>2014-12-10T15:23:17Z</time>
      </trkpt>
      <trkpt lat="43.37601" lon="6.1195">
        <ele>325.24633789062</ele>
        <time>2014-12-10T15:23:19Z</time>
      </trkpt>
      <trkpt lat="43.37609" lon="6.11939">
        <ele>324.12933349609</ele>
        <time>2014-12-10T15:23:21Z</time>
      </trkpt>
      <trkpt lat="43.37616" lon="6.11928">
        <ele>322.96661376953</ele>
        <time>2014-12-10T15:23:23Z</time>
      </trkpt>
      <trkpt lat="43.37623" lon="6.11918">
        <ele>321.71063232422</ele>
        <time>2014-12-10T15:23:25Z</time>
      </trkpt>
      <trkpt lat="43.3763" lon="6.11907">
        <ele>320.53533935547</ele>
        <time>2014-12-10T15:23:27Z</time>
      </trkpt>
      <trkpt lat="43.37635" lon="6.11901">
        <ele>319.84182739258</ele>
        <time>2014-12-10T15:23:28Z</time>
      </trkpt>
      <trkpt lat="43.37644" lon="6.11888">
        <ele>318.30090332031</ele>
        <time>2014-12-10T15:23:30Z</time>
      </trkpt>
      <trkpt lat="43.37652" lon="6.11876">
        <ele>316.84341430664</ele>
        <time>2014-12-10T15:23:32Z</time>
      </trkpt>
      <trkpt lat="43.37656" lon="6.11871">
        <ele>316.21331787109</ele>
        <time>2014-12-10T15:23:33Z</time>
      </trkpt>
      <trkpt lat="43.37664" lon="6.11862">
        <ele>314.982421875</ele>
        <time>2014-12-10T15:23:35Z</time>
      </trkpt>
      <trkpt lat="43.37673" lon="6.1185">
        <ele>313.9098815918</ele>
        <time>2014-12-10T15:23:38Z</time>
      </trkpt>
      <trkpt lat="43.37676" lon="6.11847">
        <ele>313.64575195312</ele>
        <time>2014-12-10T15:23:39Z</time>
      </trkpt>
      <trkpt lat="43.37681" lon="6.11835">
        <ele>312.78717041016</ele>
        <time>2014-12-10T15:23:42Z</time>
      </trkpt>
      <trkpt lat="43.37682" lon="6.11832">
        <ele>312.56787109375</ele>
        <time>2014-12-10T15:23:43Z</time>
      </trkpt>
      <trkpt lat="43.37685" lon="6.11824">
        <ele>312.07434082031</ele>
        <time>2014-12-10T15:23:45Z</time>
      </trkpt>
      <trkpt lat="43.37688" lon="6.11814">
        <ele>311.36318969727</ele>
        <time>2014-12-10T15:23:47Z</time>
      </trkpt>
      <trkpt lat="43.37693" lon="6.11801">
        <ele>310.45886230469</ele>
        <time>2014-12-10T15:23:49Z</time>
      </trkpt>
      <trkpt lat="43.37699" lon="6.1179">
        <ele>309.50601196289</ele>
        <time>2014-12-10T15:23:51Z</time>
      </trkpt>
      <trkpt lat="43.37708" lon="6.1177">
        <ele>307.80755615234</ele>
        <time>2014-12-10T15:23:54Z</time>
      </trkpt>
      <trkpt lat="43.37715" lon="6.11758">
        <ele>306.65533447266</ele>
        <time>2014-12-10T15:23:56Z</time>
      </trkpt>
      <trkpt lat="43.37726" lon="6.1174">
        <ele>304.7880859375</ele>
        <time>2014-12-10T15:23:59Z</time>
      </trkpt>
      <trkpt lat="43.37733" lon="6.11726">
        <ele>303.50848388672</ele>
        <time>2014-12-10T15:24:01Z</time>
      </trkpt>
      <trkpt lat="43.37736" lon="6.11719">
        <ele>302.88296508789</ele>
        <time>2014-12-10T15:24:02Z</time>
      </trkpt>
      <trkpt lat="43.37746" lon="6.11699">
        <ele>301.16006469727</ele>
        <time>2014-12-10T15:24:05Z</time>
      </trkpt>
      <trkpt lat="43.37749" lon="6.11692">
        <ele>300.60626220703</ele>
        <time>2014-12-10T15:24:06Z</time>
      </trkpt>
      <trkpt lat="43.37756" lon="6.11676">
        <ele>299.3752746582</ele>
        <time>2014-12-10T15:24:09Z</time>
      </trkpt>
      <trkpt lat="43.37761" lon="6.11666">
        <ele>298.71780395508</ele>
        <time>2014-12-10T15:24:11Z</time>
      </trkpt>
      <trkpt lat="43.37763" lon="6.1166">
        <ele>298.47424316406</ele>
        <time>2014-12-10T15:24:12Z</time>
      </trkpt>
      <trkpt lat="43.37766" lon="6.11654">
        <ele>298.21133422852</ele>
        <time>2014-12-10T15:24:13Z</time>
      </trkpt>
      <trkpt lat="43.37769" lon="6.11648">
        <ele>297.94485473633</ele>
        <time>2014-12-10T15:24:14Z</time>
      </trkpt>
      <trkpt lat="43.37775" lon="6.11636">
        <ele>297.40338134766</ele>
        <time>2014-12-10T15:24:16Z</time>
      </trkpt>
      <trkpt lat="43.37787" lon="6.11621">
        <ele>296.69897460938</ele>
        <time>2014-12-10T15:24:19Z</time>
      </trkpt>
      <trkpt lat="43.37799" lon="6.11606">
        <ele>296.06909179688</ele>
        <time>2014-12-10T15:24:22Z</time>
      </trkpt>
      <trkpt lat="43.37813" lon="6.1159">
        <ele>295.43899536133</ele>
        <time>2014-12-10T15:24:25Z</time>
      </trkpt>
      <trkpt lat="43.37821" lon="6.1158">
        <ele>295.06539916992</ele>
        <time>2014-12-10T15:24:27Z</time>
      </trkpt>
      <trkpt lat="43.37831" lon="6.1156">
        <ele>294.47833251953</ele>
        <time>2014-12-10T15:24:30Z</time>
      </trkpt>
      <trkpt lat="43.37834" lon="6.11553">
        <ele>294.27603149414</ele>
        <time>2014-12-10T15:24:31Z</time>
      </trkpt>
      <trkpt lat="43.37837" lon="6.11545">
        <ele>294.16159057617</ele>
        <time>2014-12-10T15:24:32Z</time>
      </trkpt>
      <trkpt lat="43.37852" lon="6.11505">
        <ele>293.56762695312</ele>
        <time>2014-12-10T15:24:37Z</time>
      </trkpt>
      <trkpt lat="43.37859" lon="6.11491">
        <ele>293.39367675781</ele>
        <time>2014-12-10T15:24:39Z</time>
      </trkpt>
      <trkpt lat="43.37868" lon="6.11481">
        <ele>293.37994384766</ele>
        <time>2014-12-10T15:24:41Z</time>
      </trkpt>
      <trkpt lat="43.37887" lon="6.11476">
        <ele>293.69812011719</ele>
        <time>2014-12-10T15:24:45Z</time>
      </trkpt>
      <trkpt lat="43.37895" lon="6.1147">
        <ele>293.77593994141</ele>
        <time>2014-12-10T15:24:47Z</time>
      </trkpt>
      <trkpt lat="43.37909" lon="6.1146">
        <ele>293.84686279297</ele>
        <time>2014-12-10T15:24:51Z</time>
      </trkpt>
      <trkpt lat="43.37922" lon="6.11447">
        <ele>293.89373779297</ele>
        <time>2014-12-10T15:24:55Z</time>
      </trkpt>
      <trkpt lat="43.37933" lon="6.11434">
        <ele>293.99212646484</ele>
        <time>2014-12-10T15:24:59Z</time>
      </trkpt>
      <trkpt lat="43.37947" lon="6.11413">
        <ele>294.00701904297</ele>
        <time>2014-12-10T15:25:04Z</time>
      </trkpt>
      <trkpt lat="43.37965" lon="6.11394">
        <ele>294.18096923828</ele>
        <time>2014-12-10T15:25:09Z</time>
      </trkpt>
      <trkpt lat="43.37968" lon="6.1139">
        <ele>294.22100830078</ele>
        <time>2014-12-10T15:25:10Z</time>
      </trkpt>
      <trkpt lat="43.37994" lon="6.11358">
        <ele>294.36865234375</ele>
        <time>2014-12-10T15:25:18Z</time>
      </trkpt>
      <trkpt lat="43.38004" lon="6.11337">
        <ele>294.08557128906</ele>
        <time>2014-12-10T15:25:23Z</time>
      </trkpt>
      <trkpt lat="43.38008" lon="6.11328">
        <ele>293.86010742188</ele>
        <time>2014-12-10T15:25:25Z</time>
      </trkpt>
      <trkpt lat="43.38012" lon="6.11318">
        <ele>293.63467407227</ele>
        <time>2014-12-10T15:25:27Z</time>
      </trkpt>
      <trkpt lat="43.38031" lon="6.11274">
        <ele>292.56579589844</ele>
        <time>2014-12-10T15:25:36Z</time>
      </trkpt>
      <trkpt lat="43.38034" lon="6.11269">
        <ele>292.45135498047</ele>
        <time>2014-12-10T15:25:37Z</time>
      </trkpt>
      <trkpt lat="43.38045" lon="6.11248">
        <ele>291.95010375977</ele>
        <time>2014-12-10T15:25:42Z</time>
      </trkpt>
      <trkpt lat="43.38057" lon="6.11225">
        <ele>291.40191650391</ele>
        <time>2014-12-10T15:25:48Z</time>
      </trkpt>
      <trkpt lat="43.3807" lon="6.11209">
        <ele>291.02429199219</ele>
        <time>2014-12-10T15:25:53Z</time>
      </trkpt>
      <trkpt lat="43.38092" lon="6.11186">
        <ele>290.16033935547</ele>
        <time>2014-12-10T15:26:00Z</time>
      </trkpt>
      <trkpt lat="43.38116" lon="6.11161">
        <ele>288.67932128906</ele>
        <time>2014-12-10T15:26:06Z</time>
      </trkpt>
      <trkpt lat="43.38128" lon="6.11148">
        <ele>287.84622192383</ele>
        <time>2014-12-10T15:26:09Z</time>
      </trkpt>
      <trkpt lat="43.38135" lon="6.1114">
        <ele>287.29635620117</ele>
        <time>2014-12-10T15:26:11Z</time>
      </trkpt>
      <trkpt lat="43.38142" lon="6.11131">
        <ele>286.6989440918</ele>
        <time>2014-12-10T15:26:13Z</time>
      </trkpt>
      <trkpt lat="43.38156" lon="6.11107">
        <ele>285.33456420898</ele>
        <time>2014-12-10T15:26:17Z</time>
      </trkpt>
      <trkpt lat="43.38158" lon="6.111">
        <ele>284.97640991211</ele>
        <time>2014-12-10T15:26:18Z</time>
      </trkpt>
      <trkpt lat="43.38163" lon="6.11086">
        <ele>284.28732299805</ele>
        <time>2014-12-10T15:26:20Z</time>
      </trkpt>
      <trkpt lat="43.38167" lon="6.11073">
        <ele>283.63775634766</ele>
        <time>2014-12-10T15:26:22Z</time>
      </trkpt>
      <trkpt lat="43.38174" lon="6.11045">
        <ele>282.79663085938</ele>
        <time>2014-12-10T15:26:26Z</time>
      </trkpt>
      <trkpt lat="43.3818" lon="6.11013">
        <ele>281.78381347656</ele>
        <time>2014-12-10T15:26:30Z</time>
      </trkpt>
      <trkpt lat="43.38186" lon="6.10978">
        <ele>281.0885925293</ele>
        <time>2014-12-10T15:26:34Z</time>
      </trkpt>
      <trkpt lat="43.38188" lon="6.1097">
        <ele>280.9700012207</ele>
        <time>2014-12-10T15:26:35Z</time>
      </trkpt>
      <trkpt lat="43.38195" lon="6.10931">
        <ele>280.28228759766</ele>
        <time>2014-12-10T15:26:40Z</time>
      </trkpt>
      <trkpt lat="43.38197" lon="6.10924">
        <ele>280.15225219727</ele>
        <time>2014-12-10T15:26:41Z</time>
      </trkpt>
      <trkpt lat="43.382" lon="6.10897">
        <ele>279.76135253906</ele>
        <time>2014-12-10T15:26:46Z</time>
      </trkpt>
      <trkpt lat="43.38201" lon="6.10893">
        <ele>279.71557617188</ele>
        <time>2014-12-10T15:26:47Z</time>
      </trkpt>
      <trkpt lat="43.38203" lon="6.1089">
        <ele>279.6806640625</ele>
        <time>2014-12-10T15:26:48Z</time>
      </trkpt>
      <trkpt lat="43.38209" lon="6.10889">
        <ele>279.67321777344</ele>
        <time>2014-12-10T15:26:50Z</time>
      </trkpt>
      <trkpt lat="43.38226" lon="6.10895">
        <ele>279.74072265625</ele>
        <time>2014-12-10T15:26:54Z</time>
      </trkpt>
      <trkpt lat="43.38231" lon="6.10897">
        <ele>279.76190185547</ele>
        <time>2014-12-10T15:26:55Z</time>
      </trkpt>
      <trkpt lat="43.3825" lon="6.10903">
        <ele>279.84506225586</ele>
        <time>2014-12-10T15:26:59Z</time>
      </trkpt>
      <trkpt lat="43.38276" lon="6.1091">
        <ele>280.4880065918</ele>
        <time>2014-12-10T15:27:04Z</time>
      </trkpt>
      <trkpt lat="43.38312" lon="6.10921">
        <ele>281.72006225586</ele>
        <time>2014-12-10T15:27:12Z</time>
      </trkpt>
      <trkpt lat="43.38316" lon="6.10922">
        <ele>281.89947509766</ele>
        <time>2014-12-10T15:27:13Z</time>
      </trkpt>
      <trkpt lat="43.38333" lon="6.10929">
        <ele>282.71228027344</ele>
        <time>2014-12-10T15:27:17Z</time>
      </trkpt>
      <trkpt lat="43.3835" lon="6.10935">
        <ele>282.919921875</ele>
        <time>2014-12-10T15:27:21Z</time>
      </trkpt>
      <trkpt lat="43.38373" lon="6.1094">
        <ele>283.03570556641</ele>
        <time>2014-12-10T15:27:27Z</time>
      </trkpt>
      <trkpt lat="43.38393" lon="6.10946">
        <ele>283.25933837891</ele>
        <time>2014-12-10T15:27:33Z</time>
      </trkpt>
      <trkpt lat="43.38416" lon="6.10953">
        <ele>283.59432983398</ele>
        <time>2014-12-10T15:27:40Z</time>
      </trkpt>
      <trkpt lat="43.38444" lon="6.10959">
        <ele>284.83020019531</ele>
        <time>2014-12-10T15:27:49Z</time>
      </trkpt>
      <trkpt lat="43.38461" lon="6.10961">
        <ele>285.4514465332</ele>
        <time>2014-12-10T15:27:55Z</time>
      </trkpt>
      <trkpt lat="43.38472" lon="6.10961">
        <ele>285.76525878906</ele>
        <time>2014-12-10T15:28:01Z</time>
      </trkpt>
      <trkpt lat="43.38472" lon="6.1096">
        <ele>285.76263427734</ele>
        <time>2014-12-10T15:28:08Z</time>
      </trkpt>
      <trkpt lat="43.38475" lon="6.10961">
        <ele>285.84509277344</ele>
        <time>2014-12-10T15:28:12Z</time>
      </trkpt>
      <trkpt lat="43.38489" lon="6.10965">
        <ele>286.45797729492</ele>
        <time>2014-12-10T15:28:18Z</time>
      </trkpt>
      <trkpt lat="43.38509" lon="6.10971">
        <ele>287.60568237305</ele>
        <time>2014-12-10T15:28:27Z</time>
      </trkpt>
      <trkpt lat="43.38515" lon="6.10972">
        <ele>288.15469360352</ele>
        <time>2014-12-10T15:28:30Z</time>
      </trkpt>
      <trkpt lat="43.38518" lon="6.10972">
        <ele>288.34158325195</ele>
        <time>2014-12-10T15:28:31Z</time>
      </trkpt>
      <trkpt lat="43.38522" lon="6.10974">
        <ele>288.68496704102</ele>
        <time>2014-12-10T15:28:33Z</time>
      </trkpt>
      <trkpt lat="43.38525" lon="6.10974">
        <ele>288.96685791016</ele>
        <time>2014-12-10T15:28:35Z</time>
      </trkpt>
      <trkpt lat="43.38528" lon="6.10975">
        <ele>289.25872802734</ele>
        <time>2014-12-10T15:28:37Z</time>
      </trkpt>
      <trkpt lat="43.38532" lon="6.10977">
        <ele>289.57205200195</ele>
        <time>2014-12-10T15:28:39Z</time>
      </trkpt>
      <trkpt lat="43.38535" lon="6.10979">
        <ele>289.89254760742</ele>
        <time>2014-12-10T15:28:41Z</time>
      </trkpt>
      <trkpt lat="43.38545" lon="6.10982">
        <ele>290.7336730957</ele>
        <time>2014-12-10T15:28:48Z</time>
      </trkpt>
      <trkpt lat="43.38546" lon="6.10982">
        <ele>290.75930786133</ele>
        <time>2014-12-10T15:28:51Z</time>
      </trkpt>
      <trkpt lat="43.38546" lon="6.10982">
        <ele>290.76071166992</ele>
        <time>2014-12-10T15:29:04Z</time>
      </trkpt>
      <trkpt lat="43.38546" lon="6.10982">
        <ele>290.75509643555</ele>
        <time>2014-12-10T15:29:13Z</time>
      </trkpt>
      <trkpt lat="43.38546" lon="6.10982">
        <ele>290.75930786133</ele>
        <time>2014-12-10T15:29:43Z</time>
      </trkpt>
      <trkpt lat="43.38546" lon="6.10982">
        <ele>290.7663269043</ele>
        <time>2014-12-10T15:30:17Z</time>
      </trkpt>
      <trkpt lat="43.38546" lon="6.10983">
        <ele>290.83578491211</ele>
        <time>2014-12-10T15:30:32Z</time>
      </trkpt>
      <trkpt lat="43.38549" lon="6.10984">
        <ele>291.04632568359</ele>
        <time>2014-12-10T15:30:34Z</time>
      </trkpt>
      <trkpt lat="43.38555" lon="6.10987">
        <ele>291.58142089844</ele>
        <time>2014-12-10T15:30:37Z</time>
      </trkpt>
      <trkpt lat="43.38568" lon="6.1099">
        <ele>292.61685180664</ele>
        <time>2014-12-10T15:30:43Z</time>
      </trkpt>
      <trkpt lat="43.38572" lon="6.1099">
        <ele>292.95297241211</ele>
        <time>2014-12-10T15:30:45Z</time>
      </trkpt>
      <trkpt lat="43.38575" lon="6.1099">
        <ele>293.11862182617</ele>
        <time>2014-12-10T15:30:46Z</time>
      </trkpt>
      <trkpt lat="43.38589" lon="6.10989">
        <ele>294.11215209961</ele>
        <time>2014-12-10T15:30:53Z</time>
      </trkpt>
      <trkpt lat="43.38598" lon="6.10988">
        <ele>294.61654663086</ele>
        <time>2014-12-10T15:30:58Z</time>
      </trkpt>
      <trkpt lat="43.38599" lon="6.10989">
        <ele>294.71896362305</ele>
        <time>2014-12-10T15:30:59Z</time>
      </trkpt>
      <trkpt lat="43.38611" lon="6.10991">
        <ele>295.47387695312</ele>
        <time>2014-12-10T15:31:06Z</time>
      </trkpt>
      <trkpt lat="43.38618" lon="6.10997">
        <ele>296.05783081055</ele>
        <time>2014-12-10T15:31:12Z</time>
      </trkpt>
      <trkpt lat="43.3863" lon="6.11008">
        <ele>296.89874267578</ele>
        <time>2014-12-10T15:31:20Z</time>
      </trkpt>
      <trkpt lat="43.38633" lon="6.1101">
        <ele>297.0705871582</ele>
        <time>2014-12-10T15:31:23Z</time>
      </trkpt>
      <trkpt lat="43.38634" lon="6.11009">
        <ele>297.11337280273</ele>
        <time>2014-12-10T15:31:25Z</time>
      </trkpt>
      <trkpt lat="43.38634" lon="6.11008">
        <ele>297.12359619141</ele>
        <time>2014-12-10T15:31:35Z</time>
      </trkpt>
      <trkpt lat="43.38635" lon="6.11009">
        <ele>297.19689941406</ele>
        <time>2014-12-10T15:31:39Z</time>
      </trkpt>
      <trkpt lat="43.38636" lon="6.11009">
        <ele>297.26217651367</ele>
        <time>2014-12-10T15:31:40Z</time>
      </trkpt>
      <trkpt lat="43.38641" lon="6.11005">
        <ele>297.49606323242</ele>
        <time>2014-12-10T15:31:43Z</time>
      </trkpt>
      <trkpt lat="43.38648" lon="6.11004">
        <ele>297.89001464844</ele>
        <time>2014-12-10T15:31:46Z</time>
      </trkpt>
      <trkpt lat="43.3865" lon="6.11004">
        <ele>298.0022277832</ele>
        <time>2014-12-10T15:31:47Z</time>
      </trkpt>
      <trkpt lat="43.38656" lon="6.11004">
        <ele>298.38543701172</ele>
        <time>2014-12-10T15:31:50Z</time>
      </trkpt>
      <trkpt lat="43.38658" lon="6.11002">
        <ele>298.49334716797</ele>
        <time>2014-12-10T15:31:51Z</time>
      </trkpt>
      <trkpt lat="43.38659" lon="6.10999">
        <ele>298.53991699219</ele>
        <time>2014-12-10T15:31:52Z</time>
      </trkpt>
      <trkpt lat="43.38661" lon="6.10991">
        <ele>298.52825927734</ele>
        <time>2014-12-10T15:31:54Z</time>
      </trkpt>
      <trkpt lat="43.38662" lon="6.10986">
        <ele>298.51861572266</ele>
        <time>2014-12-10T15:31:55Z</time>
      </trkpt>
      <trkpt lat="43.38665" lon="6.10957">
        <ele>298.36901855469</ele>
        <time>2014-12-10T15:32:01Z</time>
      </trkpt>
      <trkpt lat="43.38666" lon="6.10952">
        <ele>298.39303588867</ele>
        <time>2014-12-10T15:32:02Z</time>
      </trkpt>
      <trkpt lat="43.38671" lon="6.10929">
        <ele>298.18872070312</ele>
        <time>2014-12-10T15:32:08Z</time>
      </trkpt>
      <trkpt lat="43.38678" lon="6.10903">
        <ele>297.99078369141</ele>
        <time>2014-12-10T15:32:15Z</time>
      </trkpt>
      <trkpt lat="43.38679" lon="6.10899">
        <ele>297.96936035156</ele>
        <time>2014-12-10T15:32:16Z</time>
      </trkpt>
      <trkpt lat="43.38685" lon="6.10881">
        <ele>297.89178466797</ele>
        <time>2014-12-10T15:32:21Z</time>
      </trkpt>
      <trkpt lat="43.38689" lon="6.10862">
        <ele>297.79760742188</ele>
        <time>2014-12-10T15:32:27Z</time>
      </trkpt>
      <trkpt lat="43.38693" lon="6.10848">
        <ele>297.75793457031</ele>
        <time>2014-12-10T15:32:32Z</time>
      </trkpt>
      <trkpt lat="43.387" lon="6.10827">
        <ele>297.81164550781</ele>
        <time>2014-12-10T15:32:39Z</time>
      </trkpt>
      <trkpt lat="43.3871" lon="6.10815">
        <ele>298.04968261719</ele>
        <time>2014-12-10T15:32:44Z</time>
      </trkpt>
      <trkpt lat="43.38723" lon="6.10808">
        <ele>298.36096191406</ele>
        <time>2014-12-10T15:32:49Z</time>
      </trkpt>
      <trkpt lat="43.38729" lon="6.10802">
        <ele>298.50744628906</ele>
        <time>2014-12-10T15:32:53Z</time>
      </trkpt>
      <trkpt lat="43.38731" lon="6.108">
        <ele>298.54406738281</ele>
        <time>2014-12-10T15:32:54Z</time>
      </trkpt>
      <trkpt lat="43.38735" lon="6.10787">
        <ele>298.64477539062</ele>
        <time>2014-12-10T15:32:59Z</time>
      </trkpt>
      <trkpt lat="43.3874" lon="6.10777">
        <ele>298.76379394531</ele>
        <time>2014-12-10T15:33:03Z</time>
      </trkpt>
      <trkpt lat="43.38742" lon="6.10776">
        <ele>298.80041503906</ele>
        <time>2014-12-10T15:33:04Z</time>
      </trkpt>
      <trkpt lat="43.38746" lon="6.10774">
        <ele>298.90112304688</ele>
        <time>2014-12-10T15:33:07Z</time>
      </trkpt>
      <trkpt lat="43.3875" lon="6.10772">
        <ele>298.99267578125</ele>
        <time>2014-12-10T15:33:09Z</time>
      </trkpt>
      <trkpt lat="43.38758" lon="6.1077">
        <ele>298.49188232422</ele>
        <time>2014-12-10T15:33:14Z</time>
      </trkpt>
      <trkpt lat="43.38765" lon="6.10766">
        <ele>298.07989501953</ele>
        <time>2014-12-10T15:33:18Z</time>
      </trkpt>
      <trkpt lat="43.38768" lon="6.10764">
        <ele>297.91967773438</ele>
        <time>2014-12-10T15:33:20Z</time>
      </trkpt>
      <trkpt lat="43.38774" lon="6.10762">
        <ele>297.53057861328</ele>
        <time>2014-12-10T15:33:24Z</time>
      </trkpt>
      <trkpt lat="43.38778" lon="6.10761">
        <ele>297.34747314453</ele>
        <time>2014-12-10T15:33:27Z</time>
      </trkpt>
      <trkpt lat="43.38778" lon="6.10761">
        <ele>297.32458496094</ele>
        <time>2014-12-10T15:33:30Z</time>
      </trkpt>
      <trkpt lat="43.38778" lon="6.10761">
        <ele>297.32458496094</ele>
        <time>2014-12-10T15:33:35Z</time>
      </trkpt>
      <trkpt lat="43.38778" lon="6.10761">
        <ele>297.32458496094</ele>
        <time>2014-12-10T15:33:47Z</time>
      </trkpt>
      <trkpt lat="43.38779" lon="6.10761">
        <ele>297.27880859375</ele>
        <time>2014-12-10T15:33:48Z</time>
      </trkpt>
      <trkpt lat="43.38786" lon="6.1076">
        <ele>296.86682128906</ele>
        <time>2014-12-10T15:33:52Z</time>
      </trkpt>
      <trkpt lat="43.388" lon="6.10757">
        <ele>295.97418212891</ele>
        <time>2014-12-10T15:33:56Z</time>
      </trkpt>
      <trkpt lat="43.38804" lon="6.10757">
        <ele>295.74530029297</ele>
        <time>2014-12-10T15:33:57Z</time>
      </trkpt>
      <trkpt lat="43.38825" lon="6.10755">
        <ele>294.50933837891</ele>
        <time>2014-12-10T15:34:02Z</time>
      </trkpt>
      <trkpt lat="43.38837" lon="6.10756">
        <ele>293.81857299805</ele>
        <time>2014-12-10T15:34:05Z</time>
      </trkpt>
      <trkpt lat="43.38841" lon="6.10756">
        <ele>293.61322021484</ele>
        <time>2014-12-10T15:34:06Z</time>
      </trkpt>
      <trkpt lat="43.38868" lon="6.10755">
        <ele>292.31100463867</ele>
        <time>2014-12-10T15:34:13Z</time>
      </trkpt>
      <trkpt lat="43.3888" lon="6.10757">
        <ele>291.70608520508</ele>
        <time>2014-12-10T15:34:17Z</time>
      </trkpt>
      <trkpt lat="43.38888" lon="6.10759">
        <ele>291.3000793457</ele>
        <time>2014-12-10T15:34:20Z</time>
      </trkpt>
      <trkpt lat="43.38907" lon="6.10765">
        <ele>290.29144287109</ele>
        <time>2014-12-10T15:34:26Z</time>
      </trkpt>
      <trkpt lat="43.38918" lon="6.10778">
        <ele>289.58590698242</ele>
        <time>2014-12-10T15:34:30Z</time>
      </trkpt>
      <trkpt lat="43.38927" lon="6.10807">
        <ele>288.78970336914</ele>
        <time>2014-12-10T15:34:36Z</time>
      </trkpt>
      <trkpt lat="43.38937" lon="6.10824">
        <ele>287.93075561523</ele>
        <time>2014-12-10T15:34:40Z</time>
      </trkpt>
      <trkpt lat="43.38948" lon="6.10831">
        <ele>287.16708374023</ele>
        <time>2014-12-10T15:34:43Z</time>
      </trkpt>
      <trkpt lat="43.3896" lon="6.10836">
        <ele>286.40692138672</ele>
        <time>2014-12-10T15:34:46Z</time>
      </trkpt>
      <trkpt lat="43.38984" lon="6.10846">
        <ele>284.94207763672</ele>
        <time>2014-12-10T15:34:52Z</time>
      </trkpt>
      <trkpt lat="43.39004" lon="6.10846">
        <ele>283.80151367188</ele>
        <time>2014-12-10T15:34:57Z</time>
      </trkpt>
      <trkpt lat="43.39034" lon="6.10836">
        <ele>282.37329101562</ele>
        <time>2014-12-10T15:35:04Z</time>
      </trkpt>
      <trkpt lat="43.39038" lon="6.10834">
        <ele>282.171875</ele>
        <time>2014-12-10T15:35:05Z</time>
      </trkpt>
      <trkpt lat="43.39058" lon="6.10828">
        <ele>281.55569458008</ele>
        <time>2014-12-10T15:35:10Z</time>
      </trkpt>
      <trkpt lat="43.39069" lon="6.10824">
        <ele>281.32192993164</ele>
        <time>2014-12-10T15:35:13Z</time>
      </trkpt>
      <trkpt lat="43.39072" lon="6.10822">
        <ele>281.30184936523</ele>
        <time>2014-12-10T15:35:14Z</time>
      </trkpt>
      <trkpt lat="43.39086" lon="6.10809">
        <ele>281.66278076172</ele>
        <time>2014-12-10T15:35:18Z</time>
      </trkpt>
      <trkpt lat="43.39097" lon="6.10795">
        <ele>282.13244628906</ele>
        <time>2014-12-10T15:35:21Z</time>
      </trkpt>
      <trkpt lat="43.39102" lon="6.10791">
        <ele>282.15316772461</ele>
        <time>2014-12-10T15:35:22Z</time>
      </trkpt>
      <trkpt lat="43.39122" lon="6.10776">
        <ele>281.76293945312</ele>
        <time>2014-12-10T15:35:26Z</time>
      </trkpt>
      <trkpt lat="43.39132" lon="6.10769">
        <ele>281.36679077148</ele>
        <time>2014-12-10T15:35:28Z</time>
      </trkpt>
      <trkpt lat="43.39149" lon="6.10758">
        <ele>280.35003662109</ele>
        <time>2014-12-10T15:35:32Z</time>
      </trkpt>
      <trkpt lat="43.39152" lon="6.10756">
        <ele>280.14788818359</ele>
        <time>2014-12-10T15:35:33Z</time>
      </trkpt>
      <trkpt lat="43.39156" lon="6.10752">
        <ele>279.9084777832</ele>
        <time>2014-12-10T15:35:34Z</time>
      </trkpt>
      <trkpt lat="43.39162" lon="6.10745">
        <ele>279.6315612793</ele>
        <time>2014-12-10T15:35:36Z</time>
      </trkpt>
      <trkpt lat="43.39167" lon="6.10734">
        <ele>279.59432983398</ele>
        <time>2014-12-10T15:35:38Z</time>
      </trkpt>
      <trkpt lat="43.39171" lon="6.10721">
        <ele>279.9833984375</ele>
        <time>2014-12-10T15:35:40Z</time>
      </trkpt>
      <trkpt lat="43.39175" lon="6.10702">
        <ele>280.49084472656</ele>
        <time>2014-12-10T15:35:43Z</time>
      </trkpt>
      <trkpt lat="43.39177" lon="6.10696">
        <ele>280.63500976562</ele>
        <time>2014-12-10T15:35:44Z</time>
      </trkpt>
      <trkpt lat="43.39182" lon="6.10677">
        <ele>280.97827148438</ele>
        <time>2014-12-10T15:35:47Z</time>
      </trkpt>
      <trkpt lat="43.39189" lon="6.10661">
        <ele>281.10342407227</ele>
        <time>2014-12-10T15:35:50Z</time>
      </trkpt>
      <trkpt lat="43.39202" lon="6.10644">
        <ele>280.92987060547</ele>
        <time>2014-12-10T15:35:55Z</time>
      </trkpt>
      <trkpt lat="43.39214" lon="6.10637">
        <ele>280.31619262695</ele>
        <time>2014-12-10T15:36:00Z</time>
      </trkpt>
      <trkpt lat="43.39222" lon="6.10629">
        <ele>279.96258544922</ele>
        <time>2014-12-10T15:36:05Z</time>
      </trkpt>
      <trkpt lat="43.39225" lon="6.10626">
        <ele>279.80639648438</ele>
        <time>2014-12-10T15:36:07Z</time>
      </trkpt>
      <trkpt lat="43.39229" lon="6.10621">
        <ele>279.54107666016</ele>
        <time>2014-12-10T15:36:10Z</time>
      </trkpt>
      <trkpt lat="43.39238" lon="6.10608">
        <ele>279.01223754883</ele>
        <time>2014-12-10T15:36:16Z</time>
      </trkpt>
      <trkpt lat="43.39251" lon="6.10599">
        <ele>277.99081420898</ele>
        <time>2014-12-10T15:36:23Z</time>
      </trkpt>
      <trkpt lat="43.39263" lon="6.10586">
        <ele>277.85098266602</ele>
        <time>2014-12-10T15:36:29Z</time>
      </trkpt>
      <trkpt lat="43.39264" lon="6.10582">
        <ele>277.84985351562</ele>
        <time>2014-12-10T15:36:30Z</time>
      </trkpt>
      <trkpt lat="43.39266" lon="6.10571">
        <ele>278.04025268555</ele>
        <time>2014-12-10T15:36:33Z</time>
      </trkpt>
      <trkpt lat="43.39269" lon="6.10564">
        <ele>278.1325378418</ele>
        <time>2014-12-10T15:36:35Z</time>
      </trkpt>
      <trkpt lat="43.39278" lon="6.10539">
        <ele>278.37908935547</ele>
        <time>2014-12-10T15:36:42Z</time>
      </trkpt>
      <trkpt lat="43.39282" lon="6.10529">
        <ele>278.41168212891</ele>
        <time>2014-12-10T15:36:45Z</time>
      </trkpt>
      <trkpt lat="43.39289" lon="6.10515">
        <ele>278.38977050781</ele>
        <time>2014-12-10T15:36:50Z</time>
      </trkpt>
      <trkpt lat="43.39293" lon="6.10506">
        <ele>278.40121459961</ele>
        <time>2014-12-10T15:36:53Z</time>
      </trkpt>
      <trkpt lat="43.39298" lon="6.1049">
        <ele>278.19284057617</ele>
        <time>2014-12-10T15:36:59Z</time>
      </trkpt>
      <trkpt lat="43.39305" lon="6.10483">
        <ele>277.87774658203</ele>
        <time>2014-12-10T15:37:02Z</time>
      </trkpt>
      <trkpt lat="43.39308" lon="6.10477">
        <ele>277.71472167969</ele>
        <time>2014-12-10T15:37:04Z</time>
      </trkpt>
      <trkpt lat="43.39318" lon="6.10459">
        <ele>277.15826416016</ele>
        <time>2014-12-10T15:37:10Z</time>
      </trkpt>
      <trkpt lat="43.39319" lon="6.10456">
        <ele>277.06805419922</ele>
        <time>2014-12-10T15:37:11Z</time>
      </trkpt>
      <trkpt lat="43.39331" lon="6.10438">
        <ele>276.37567138672</ele>
        <time>2014-12-10T15:37:16Z</time>
      </trkpt>
      <trkpt lat="43.39346" lon="6.10421">
        <ele>276.21307373047</ele>
        <time>2014-12-10T15:37:22Z</time>
      </trkpt>
      <trkpt lat="43.39356" lon="6.10424">
        <ele>276.38262939453</ele>
        <time>2014-12-10T15:37:26Z</time>
      </trkpt>
      <trkpt lat="43.39361" lon="6.10423">
        <ele>276.43252563477</ele>
        <time>2014-12-10T15:37:29Z</time>
      </trkpt>
      <trkpt lat="43.39363" lon="6.10422">
        <ele>276.44058227539</ele>
        <time>2014-12-10T15:37:30Z</time>
      </trkpt>
      <trkpt lat="43.39367" lon="6.10418">
        <ele>276.42498779297</ele>
        <time>2014-12-10T15:37:33Z</time>
      </trkpt>
      <trkpt lat="43.3937" lon="6.10411">
        <ele>276.41156005859</ele>
        <time>2014-12-10T15:37:35Z</time>
      </trkpt>
      <trkpt lat="43.39371" lon="6.10399">
        <ele>276.35955810547</ele>
        <time>2014-12-10T15:37:38Z</time>
      </trkpt>
      <trkpt lat="43.39373" lon="6.10395">
        <ele>276.35375976562</ele>
        <time>2014-12-10T15:37:39Z</time>
      </trkpt>
      <trkpt lat="43.39378" lon="6.10385">
        <ele>276.33023071289</ele>
        <time>2014-12-10T15:37:42Z</time>
      </trkpt>
      <trkpt lat="43.39381" lon="6.10377">
        <ele>276.29669189453</ele>
        <time>2014-12-10T15:37:45Z</time>
      </trkpt>
      <trkpt lat="43.39382" lon="6.10374">
        <ele>276.28591918945</ele>
        <time>2014-12-10T15:37:48Z</time>
      </trkpt>
      <trkpt lat="43.39382" lon="6.10374">
        <ele>276.28192138672</ele>
        <time>2014-12-10T15:37:49Z</time>
      </trkpt>
      <trkpt lat="43.39382" lon="6.10374">
        <ele>276.28057861328</ele>
        <time>2014-12-10T15:37:55Z</time>
      </trkpt>
      <trkpt lat="43.39382" lon="6.10373">
        <ele>276.27792358398</ele>
        <time>2014-12-10T15:38:01Z</time>
      </trkpt>
      <trkpt lat="43.39382" lon="6.10372">
        <ele>276.27542114258</ele>
        <time>2014-12-10T15:38:05Z</time>
      </trkpt>
      <trkpt lat="43.39384" lon="6.10368">
        <ele>276.25393676758</ele>
        <time>2014-12-10T15:38:12Z</time>
      </trkpt>
      <trkpt lat="43.39387" lon="6.10362">
        <ele>276.22027587891</ele>
        <time>2014-12-10T15:38:18Z</time>
      </trkpt>
      <trkpt lat="43.39389" lon="6.1036">
        <ele>276.21057128906</ele>
        <time>2014-12-10T15:38:19Z</time>
      </trkpt>
      <trkpt lat="43.39395" lon="6.10349">
        <ele>276.13763427734</ele>
        <time>2014-12-10T15:38:24Z</time>
      </trkpt>
      <trkpt lat="43.39405" lon="6.10328">
        <ele>276.12783813477</ele>
        <time>2014-12-10T15:38:31Z</time>
      </trkpt>
      <trkpt lat="43.3942" lon="6.1031">
        <ele>276.14520263672</ele>
        <time>2014-12-10T15:38:37Z</time>
      </trkpt>
      <trkpt lat="43.39438" lon="6.10296">
        <ele>273.66763305664</ele>
        <time>2014-12-10T15:38:43Z</time>
      </trkpt>
      <trkpt lat="43.39441" lon="6.10295">
        <ele>273.20733642578</ele>
        <time>2014-12-10T15:38:44Z</time>
      </trkpt>
      <trkpt lat="43.39447" lon="6.10289">
        <ele>272.1989440918</ele>
        <time>2014-12-10T15:38:47Z</time>
      </trkpt>
      <trkpt lat="43.39452" lon="6.10286">
        <ele>271.51254272461</ele>
        <time>2014-12-10T15:38:49Z</time>
      </trkpt>
      <trkpt lat="43.39461" lon="6.10278">
        <ele>269.9255065918</ele>
        <time>2014-12-10T15:38:54Z</time>
      </trkpt>
      <trkpt lat="43.39463" lon="6.10277">
        <ele>269.58618164062</ele>
        <time>2014-12-10T15:38:55Z</time>
      </trkpt>
      <trkpt lat="43.39464" lon="6.10275">
        <ele>269.29888916016</ele>
        <time>2014-12-10T15:38:56Z</time>
      </trkpt>
      <trkpt lat="43.39481" lon="6.10257">
        <ele>265.78979492188</ele>
        <time>2014-12-10T15:39:04Z</time>
      </trkpt>
      <trkpt lat="43.39486" lon="6.10251">
        <ele>264.79629516602</ele>
        <time>2014-12-10T15:39:06Z</time>
      </trkpt>
      <trkpt lat="43.39489" lon="6.10244">
        <ele>264.10641479492</ele>
        <time>2014-12-10T15:39:08Z</time>
      </trkpt>
      <trkpt lat="43.39497" lon="6.10228">
        <ele>262.76275634766</ele>
        <time>2014-12-10T15:39:12Z</time>
      </trkpt>
      <trkpt lat="43.39505" lon="6.10204">
        <ele>262.97180175781</ele>
        <time>2014-12-10T15:39:17Z</time>
      </trkpt>
      <trkpt lat="43.39506" lon="6.10199">
        <ele>263.08905029297</ele>
        <time>2014-12-10T15:39:18Z</time>
      </trkpt>
      <trkpt lat="43.39509" lon="6.10184">
        <ele>263.32989501953</ele>
        <time>2014-12-10T15:39:21Z</time>
      </trkpt>
      <trkpt lat="43.39511" lon="6.10179">
        <ele>263.40951538086</ele>
        <time>2014-12-10T15:39:22Z</time>
      </trkpt>
      <trkpt lat="43.39515" lon="6.10164">
        <ele>263.5124206543</ele>
        <time>2014-12-10T15:39:25Z</time>
      </trkpt>
      <trkpt lat="43.39518" lon="6.10155">
        <ele>263.49176025391</ele>
        <time>2014-12-10T15:39:27Z</time>
      </trkpt>
      <trkpt lat="43.39524" lon="6.10132">
        <ele>263.2705078125</ele>
        <time>2014-12-10T15:39:32Z</time>
      </trkpt>
      <trkpt lat="43.39526" lon="6.10128">
        <ele>263.21371459961</ele>
        <time>2014-12-10T15:39:33Z</time>
      </trkpt>
      <trkpt lat="43.39531" lon="6.10112">
        <ele>262.9035949707</ele>
        <time>2014-12-10T15:39:37Z</time>
      </trkpt>
      <trkpt lat="43.39539" lon="6.10096">
        <ele>262.4250793457</ele>
        <time>2014-12-10T15:39:42Z</time>
      </trkpt>
      <trkpt lat="43.39541" lon="6.10093">
        <ele>262.30291748047</ele>
        <time>2014-12-10T15:39:43Z</time>
      </trkpt>
      <trkpt lat="43.39544" lon="6.10085">
        <ele>261.99908447266</ele>
        <time>2014-12-10T15:39:45Z</time>
      </trkpt>
      <trkpt lat="43.39548" lon="6.10069">
        <ele>261.7380065918</ele>
        <time>2014-12-10T15:39:48Z</time>
      </trkpt>
      <trkpt lat="43.39554" lon="6.10047">
        <ele>261.41452026367</ele>
        <time>2014-12-10T15:39:52Z</time>
      </trkpt>
      <trkpt lat="43.39556" lon="6.10038">
        <ele>261.29754638672</ele>
        <time>2014-12-10T15:39:54Z</time>
      </trkpt>
      <trkpt lat="43.39556" lon="6.10027">
        <ele>261.19958496094</ele>
        <time>2014-12-10T15:39:58Z</time>
      </trkpt>
      <trkpt lat="43.39556" lon="6.10025">
        <ele>261.17877197266</ele>
        <time>2014-12-10T15:39:59Z</time>
      </trkpt>
      <trkpt lat="43.39555" lon="6.10012">
        <ele>261.12744140625</ele>
        <time>2014-12-10T15:40:05Z</time>
      </trkpt>
      <trkpt lat="43.39554" lon="6.10008">
        <ele>261.12033081055</ele>
        <time>2014-12-10T15:40:07Z</time>
      </trkpt>
      <trkpt lat="43.39554" lon="6.09999">
        <ele>261.06896972656</ele>
        <time>2014-12-10T15:40:11Z</time>
      </trkpt>
      <trkpt lat="43.39556" lon="6.09985">
        <ele>261.09628295898</ele>
        <time>2014-12-10T15:40:16Z</time>
      </trkpt>
      <trkpt lat="43.39557" lon="6.09956">
        <ele>261.30603027344</ele>
        <time>2014-12-10T15:40:23Z</time>
      </trkpt>
      <trkpt lat="43.39556" lon="6.09952">
        <ele>261.35339355469</ele>
        <time>2014-12-10T15:40:24Z</time>
      </trkpt>
      <trkpt lat="43.39552" lon="6.09942">
        <ele>261.63427734375</ele>
        <time>2014-12-10T15:40:27Z</time>
      </trkpt>
      <trkpt lat="43.39551" lon="6.09937">
        <ele>261.76205444336</ele>
        <time>2014-12-10T15:40:29Z</time>
      </trkpt>
      <trkpt lat="43.39548" lon="6.0993">
        <ele>262.00253295898</ele>
        <time>2014-12-10T15:40:32Z</time>
      </trkpt>
      <trkpt lat="43.39545" lon="6.09919">
        <ele>262.24835205078</ele>
        <time>2014-12-10T15:40:36Z</time>
      </trkpt>
      <trkpt lat="43.39546" lon="6.09911">
        <ele>262.70639038086</ele>
        <time>2014-12-10T15:40:39Z</time>
      </trkpt>
      <trkpt lat="43.39548" lon="6.09904">
        <ele>263.22760009766</ele>
        <time>2014-12-10T15:40:42Z</time>
      </trkpt>
      <trkpt lat="43.39556" lon="6.09884">
        <ele>264.29049682617</ele>
        <time>2014-12-10T15:40:50Z</time>
      </trkpt>
      <trkpt lat="43.39561" lon="6.09837">
        <ele>267.1692199707</ele>
        <time>2014-12-10T15:41:06Z</time>
      </trkpt>
      <trkpt lat="43.39562" lon="6.09833">
        <ele>267.33560180664</ele>
        <time>2014-12-10T15:41:08Z</time>
      </trkpt>
      <trkpt lat="43.39565" lon="6.09818">
        <ele>267.86547851562</ele>
        <time>2014-12-10T15:41:15Z</time>
      </trkpt>
      <trkpt lat="43.39566" lon="6.09809">
        <ele>268.10580444336</ele>
        <time>2014-12-10T15:41:20Z</time>
      </trkpt>
      <trkpt lat="43.39568" lon="6.09806">
        <ele>268.11895751953</ele>
        <time>2014-12-10T15:41:22Z</time>
      </trkpt>
      <trkpt lat="43.39568" lon="6.09802">
        <ele>268.21166992188</ele>
        <time>2014-12-10T15:41:24Z</time>
      </trkpt>
      <trkpt lat="43.3957" lon="6.09789">
        <ele>268.689453125</ele>
        <time>2014-12-10T15:41:28Z</time>
      </trkpt>
      <trkpt lat="43.39571" lon="6.09785">
        <ele>268.8078918457</ele>
        <time>2014-12-10T15:41:29Z</time>
      </trkpt>
      <trkpt lat="43.39579" lon="6.09757">
        <ele>269.24905395508</ele>
        <time>2014-12-10T15:41:35Z</time>
      </trkpt>
      <trkpt lat="43.39584" lon="6.09741">
        <ele>269.65106201172</ele>
        <time>2014-12-10T15:41:38Z</time>
      </trkpt>
      <trkpt lat="43.3959" lon="6.09718">
        <ele>270.69744873047</ele>
        <time>2014-12-10T15:41:42Z</time>
      </trkpt>
      <trkpt lat="43.39592" lon="6.09712">
        <ele>270.96618652344</ele>
        <time>2014-12-10T15:41:43Z</time>
      </trkpt>
      <trkpt lat="43.39596" lon="6.09688">
        <ele>272.02880859375</ele>
        <time>2014-12-10T15:41:48Z</time>
      </trkpt>
      <trkpt lat="43.39597" lon="6.0968">
        <ele>272.35348510742</ele>
        <time>2014-12-10T15:41:50Z</time>
      </trkpt>
      <trkpt lat="43.39602" lon="6.09659">
        <ele>273.16296386719</ele>
        <time>2014-12-10T15:41:57Z</time>
      </trkpt>
      <trkpt lat="43.39608" lon="6.0963">
        <ele>274.52682495117</ele>
        <time>2014-12-10T15:42:04Z</time>
      </trkpt>
      <trkpt lat="43.39618" lon="6.09593">
        <ele>275.13879394531</ele>
        <time>2014-12-10T15:42:12Z</time>
      </trkpt>
      <trkpt lat="43.39624" lon="6.09577">
        <ele>275.42263793945</ele>
        <time>2014-12-10T15:42:16Z</time>
      </trkpt>
      <trkpt lat="43.3963" lon="6.09556">
        <ele>277.19680786133</ele>
        <time>2014-12-10T15:42:20Z</time>
      </trkpt>
      <trkpt lat="43.39632" lon="6.09551">
        <ele>277.56973266602</ele>
        <time>2014-12-10T15:42:21Z</time>
      </trkpt>
      <trkpt lat="43.39643" lon="6.09534">
        <ele>277.41143798828</ele>
        <time>2014-12-10T15:42:25Z</time>
      </trkpt>
      <trkpt lat="43.39649" lon="6.09526">
        <ele>277.08438110352</ele>
        <time>2014-12-10T15:42:27Z</time>
      </trkpt>
      <trkpt lat="43.39652" lon="6.09521">
        <ele>277.13641357422</ele>
        <time>2014-12-10T15:42:28Z</time>
      </trkpt>
      <trkpt lat="43.39658" lon="6.09509">
        <ele>277.51251220703</ele>
        <time>2014-12-10T15:42:30Z</time>
      </trkpt>
      <trkpt lat="43.39664" lon="6.09495">
        <ele>278.78869628906</ele>
        <time>2014-12-10T15:42:32Z</time>
      </trkpt>
      <trkpt lat="43.39669" lon="6.09482">
        <ele>281.23416137695</ele>
        <time>2014-12-10T15:42:34Z</time>
      </trkpt>
      <trkpt lat="43.39671" lon="6.09476">
        <ele>282.29705810547</ele>
        <time>2014-12-10T15:42:35Z</time>
      </trkpt>
      <trkpt lat="43.39672" lon="6.0947">
        <ele>283.43423461914</ele>
        <time>2014-12-10T15:42:36Z</time>
      </trkpt>
      <trkpt lat="43.39676" lon="6.09461">
        <ele>285.01168823242</ele>
        <time>2014-12-10T15:42:38Z</time>
      </trkpt>
      <trkpt lat="43.39681" lon="6.09446">
        <ele>286.93710327148</ele>
        <time>2014-12-10T15:42:41Z</time>
      </trkpt>
      <trkpt lat="43.3969" lon="6.09431">
        <ele>287.34164428711</ele>
        <time>2014-12-10T15:42:44Z</time>
      </trkpt>
      <trkpt lat="43.39698" lon="6.09424">
        <ele>286.21444702148</ele>
        <time>2014-12-10T15:42:46Z</time>
      </trkpt>
      <trkpt lat="43.39708" lon="6.09419">
        <ele>283.82470703125</ele>
        <time>2014-12-10T15:42:48Z</time>
      </trkpt>
      <trkpt lat="43.39713" lon="6.09417">
        <ele>282.39151000977</ele>
        <time>2014-12-10T15:42:49Z</time>
      </trkpt>
      <trkpt lat="43.39721" lon="6.09413">
        <ele>279.91860961914</ele>
        <time>2014-12-10T15:42:51Z</time>
      </trkpt>
      <trkpt lat="43.39736" lon="6.09394">
        <ele>277.60278320312</ele>
        <time>2014-12-10T15:42:55Z</time>
      </trkpt>
      <trkpt lat="43.39738" lon="6.09389">
        <ele>277.65780639648</ele>
        <time>2014-12-10T15:42:56Z</time>
      </trkpt>
      <trkpt lat="43.39741" lon="6.09384">
        <ele>277.57681274414</ele>
        <time>2014-12-10T15:42:57Z</time>
      </trkpt>
      <trkpt lat="43.39744" lon="6.09379">
        <ele>277.25411987305</ele>
        <time>2014-12-10T15:42:58Z</time>
      </trkpt>
      <trkpt lat="43.3975" lon="6.09369">
        <ele>276.86837768555</ele>
        <time>2014-12-10T15:43:00Z</time>
      </trkpt>
      <trkpt lat="43.39756" lon="6.09359">
        <ele>277.35968017578</ele>
        <time>2014-12-10T15:43:02Z</time>
      </trkpt>
      <trkpt lat="43.39766" lon="6.09337">
        <ele>277.99118041992</ele>
        <time>2014-12-10T15:43:06Z</time>
      </trkpt>
      <trkpt lat="43.3978" lon="6.09303">
        <ele>276.34381103516</ele>
        <time>2014-12-10T15:43:12Z</time>
      </trkpt>
      <trkpt lat="43.39782" lon="6.09297">
        <ele>276.23098754883</ele>
        <time>2014-12-10T15:43:13Z</time>
      </trkpt>
      <trkpt lat="43.39787" lon="6.09281">
        <ele>275.4455871582</ele>
        <time>2014-12-10T15:43:16Z</time>
      </trkpt>
      <trkpt lat="43.39791" lon="6.0926">
        <ele>275.00448608398</ele>
        <time>2014-12-10T15:43:20Z</time>
      </trkpt>
      <trkpt lat="43.39797" lon="6.09226">
        <ele>274.16390991211</ele>
        <time>2014-12-10T15:43:27Z</time>
      </trkpt>
      <trkpt lat="43.39799" lon="6.09204">
        <ele>274.28332519531</ele>
        <time>2014-12-10T15:43:32Z</time>
      </trkpt>
      <trkpt lat="43.39799" lon="6.092">
        <ele>274.41940307617</ele>
        <time>2014-12-10T15:43:33Z</time>
      </trkpt>
      <trkpt lat="43.39798" lon="6.0919">
        <ele>274.85974121094</ele>
        <time>2014-12-10T15:43:35Z</time>
      </trkpt>
      <trkpt lat="43.39799" lon="6.09173">
        <ele>275.11294555664</ele>
        <time>2014-12-10T15:43:39Z</time>
      </trkpt>
      <trkpt lat="43.39799" lon="6.09164">
        <ele>275.22576904297</ele>
        <time>2014-12-10T15:43:41Z</time>
      </trkpt>
      <trkpt lat="43.39802" lon="6.09139">
        <ele>274.96548461914</ele>
        <time>2014-12-10T15:43:47Z</time>
      </trkpt>
      <trkpt lat="43.39812" lon="6.09092">
        <ele>273.4970703125</ele>
        <time>2014-12-10T15:43:59Z</time>
      </trkpt>
      <trkpt lat="43.39818" lon="6.09076">
        <ele>273.15106201172</ele>
        <time>2014-12-10T15:44:04Z</time>
      </trkpt>
      <trkpt lat="43.39823" lon="6.09061">
        <ele>273.44979858398</ele>
        <time>2014-12-10T15:44:08Z</time>
      </trkpt>
      <trkpt lat="43.39828" lon="6.09052">
        <ele>273.54916381836</ele>
        <time>2014-12-10T15:44:10Z</time>
      </trkpt>
      <trkpt lat="43.39831" lon="6.09048">
        <ele>273.53814697266</ele>
        <time>2014-12-10T15:44:11Z</time>
      </trkpt>
      <trkpt lat="43.39843" lon="6.09036">
        <ele>272.47265625</ele>
        <time>2014-12-10T15:44:14Z</time>
      </trkpt>
      <trkpt lat="43.39847" lon="6.09033">
        <ele>272.01449584961</ele>
        <time>2014-12-10T15:44:15Z</time>
      </trkpt>
      <trkpt lat="43.39858" lon="6.0902">
        <ele>270.94595336914</ele>
        <time>2014-12-10T15:44:18Z</time>
      </trkpt>
      <trkpt lat="43.39868" lon="6.09007">
        <ele>270.04888916016</ele>
        <time>2014-12-10T15:44:21Z</time>
      </trkpt>
      <trkpt lat="43.39884" lon="6.08994">
        <ele>267.38919067383</ele>
        <time>2014-12-10T15:44:25Z</time>
      </trkpt>
      <trkpt lat="43.39893" lon="6.08991">
        <ele>265.71368408203</ele>
        <time>2014-12-10T15:44:27Z</time>
      </trkpt>
      <trkpt lat="43.39901" lon="6.0899">
        <ele>263.99420166016</ele>
        <time>2014-12-10T15:44:29Z</time>
      </trkpt>
      <trkpt lat="43.39922" lon="6.08992">
        <ele>259.32269287109</ele>
        <time>2014-12-10T15:44:34Z</time>
      </trkpt>
      <trkpt lat="43.39941" lon="6.08989">
        <ele>255.76292419434</ele>
        <time>2014-12-10T15:44:38Z</time>
      </trkpt>
      <trkpt lat="43.39947" lon="6.08987">
        <ele>254.8840637207</ele>
        <time>2014-12-10T15:44:39Z</time>
      </trkpt>
      <trkpt lat="43.39958" lon="6.08984">
        <ele>253.06881713867</ele>
        <time>2014-12-10T15:44:41Z</time>
      </trkpt>
      <trkpt lat="43.39968" lon="6.08982">
        <ele>251.15863037109</ele>
        <time>2014-12-10T15:44:43Z</time>
      </trkpt>
      <trkpt lat="43.39976" lon="6.08981">
        <ele>249.60401916504</ele>
        <time>2014-12-10T15:44:45Z</time>
      </trkpt>
      <trkpt lat="43.39998" lon="6.08976">
        <ele>245.49650573731</ele>
        <time>2014-12-10T15:44:50Z</time>
      </trkpt>
      <trkpt lat="43.40005" lon="6.08975">
        <ele>244.7218170166</ele>
        <time>2014-12-10T15:44:52Z</time>
      </trkpt>
      <trkpt lat="43.40017" lon="6.08971">
        <ele>244.13270568848</ele>
        <time>2014-12-10T15:44:55Z</time>
      </trkpt>
      <trkpt lat="43.40029" lon="6.08959">
        <ele>243.8585357666</ele>
        <time>2014-12-10T15:44:59Z</time>
      </trkpt>
      <trkpt lat="43.40033" lon="6.08941">
        <ele>244.35928344727</ele>
        <time>2014-12-10T15:45:03Z</time>
      </trkpt>
      <trkpt lat="43.40041" lon="6.08907">
        <ele>245.04255676269</ele>
        <time>2014-12-10T15:45:10Z</time>
      </trkpt>
      <trkpt lat="43.40053" lon="6.0887">
        <ele>245.24845886231</ele>
        <time>2014-12-10T15:45:17Z</time>
      </trkpt>
      <trkpt lat="43.40064" lon="6.08838">
        <ele>245.04826354981</ele>
        <time>2014-12-10T15:45:24Z</time>
      </trkpt>
      <trkpt lat="43.40073" lon="6.08818">
        <ele>243.29267883301</ele>
        <time>2014-12-10T15:45:29Z</time>
      </trkpt>
      <trkpt lat="43.40079" lon="6.08805">
        <ele>241.95829772949</ele>
        <time>2014-12-10T15:45:32Z</time>
      </trkpt>
      <trkpt lat="43.40089" lon="6.08778">
        <ele>240.32246398926</ele>
        <time>2014-12-10T15:45:38Z</time>
      </trkpt>
      <trkpt lat="43.40101" lon="6.0873">
        <ele>238.87298583984</ele>
        <time>2014-12-10T15:45:47Z</time>
      </trkpt>
      <trkpt lat="43.40104" lon="6.08713">
        <ele>238.65492248535</ele>
        <time>2014-12-10T15:45:50Z</time>
      </trkpt>
      <trkpt lat="43.40106" lon="6.0869">
        <ele>238.43043518066</ele>
        <time>2014-12-10T15:45:54Z</time>
      </trkpt>
      <trkpt lat="43.40106" lon="6.08684">
        <ele>238.43855285644</ele>
        <time>2014-12-10T15:45:55Z</time>
      </trkpt>
      <trkpt lat="43.40105" lon="6.08679">
        <ele>238.4737701416</ele>
        <time>2014-12-10T15:45:56Z</time>
      </trkpt>
      <trkpt lat="43.40102" lon="6.08661">
        <ele>238.73561096191</ele>
        <time>2014-12-10T15:45:59Z</time>
      </trkpt>
      <trkpt lat="43.40102" lon="6.08655">
        <ele>238.82806396484</ele>
        <time>2014-12-10T15:46:00Z</time>
      </trkpt>
      <trkpt lat="43.40105" lon="6.08644">
        <ele>238.75028991699</ele>
        <time>2014-12-10T15:46:02Z</time>
      </trkpt>
      <trkpt lat="43.40112" lon="6.08636">
        <ele>238.45393371582</ele>
        <time>2014-12-10T15:46:04Z</time>
      </trkpt>
      <trkpt lat="43.40125" lon="6.08623">
        <ele>237.81843566894</ele>
        <time>2014-12-10T15:46:08Z</time>
      </trkpt>
      <trkpt lat="43.40128" lon="6.08619">
        <ele>237.68710327148</ele>
        <time>2014-12-10T15:46:09Z</time>
      </trkpt>
      <trkpt lat="43.40131" lon="6.08615">
        <ele>237.54342651367</ele>
        <time>2014-12-10T15:46:10Z</time>
      </trkpt>
      <trkpt lat="43.40145" lon="6.08601">
        <ele>236.95503234863</ele>
        <time>2014-12-10T15:46:14Z</time>
      </trkpt>
      <trkpt lat="43.40154" lon="6.08594">
        <ele>236.49990844727</ele>
        <time>2014-12-10T15:46:17Z</time>
      </trkpt>
      <trkpt lat="43.40163" lon="6.08589">
        <ele>236.10147094727</ele>
        <time>2014-12-10T15:46:20Z</time>
      </trkpt>
      <trkpt lat="43.4017" lon="6.08576">
        <ele>236.00535583496</ele>
        <time>2014-12-10T15:46:24Z</time>
      </trkpt>
      <trkpt lat="43.40169" lon="6.08556">
        <ele>236.52377319336</ele>
        <time>2014-12-10T15:46:29Z</time>
      </trkpt>
      <trkpt lat="43.40168" lon="6.08548">
        <ele>236.74235534668</ele>
        <time>2014-12-10T15:46:31Z</time>
      </trkpt>
      <trkpt lat="43.40169" lon="6.08527">
        <ele>237.23101806641</ele>
        <time>2014-12-10T15:46:36Z</time>
      </trkpt>
      <trkpt lat="43.40169" lon="6.08518">
        <ele>237.42327880859</ele>
        <time>2014-12-10T15:46:38Z</time>
      </trkpt>
      <trkpt lat="43.40173" lon="6.08494">
        <ele>237.66851806641</ele>
        <time>2014-12-10T15:46:44Z</time>
      </trkpt>
      <trkpt lat="43.40174" lon="6.08486">
        <ele>237.68283081055</ele>
        <time>2014-12-10T15:46:46Z</time>
      </trkpt>
      <trkpt lat="43.40176" lon="6.0847">
        <ele>237.72982788086</ele>
        <time>2014-12-10T15:46:50Z</time>
      </trkpt>
      <trkpt lat="43.4018" lon="6.08437">
        <ele>237.84555053711</ele>
        <time>2014-12-10T15:46:58Z</time>
      </trkpt>
      <trkpt lat="43.40181" lon="6.08398">
        <ele>237.81404113769</ele>
        <time>2014-12-10T15:47:06Z</time>
      </trkpt>
      <trkpt lat="43.40181" lon="6.08375">
        <ele>237.55438232422</ele>
        <time>2014-12-10T15:47:11Z</time>
      </trkpt>
      <trkpt lat="43.40183" lon="6.08329">
        <ele>237.01820373535</ele>
        <time>2014-12-10T15:47:21Z</time>
      </trkpt>
      <trkpt lat="43.40183" lon="6.08316">
        <ele>236.96308898926</ele>
        <time>2014-12-10T15:47:24Z</time>
      </trkpt>
      <trkpt lat="43.40185" lon="6.08297">
        <ele>236.81796264648</ele>
        <time>2014-12-10T15:47:29Z</time>
      </trkpt>
      <trkpt lat="43.40187" lon="6.08283">
        <ele>236.60278320312</ele>
        <time>2014-12-10T15:47:33Z</time>
      </trkpt>
      <trkpt lat="43.40188" lon="6.08278">
        <ele>236.53552246094</ele>
        <time>2014-12-10T15:47:35Z</time>
      </trkpt>
      <trkpt lat="43.40188" lon="6.08272">
        <ele>236.5428314209</ele>
        <time>2014-12-10T15:47:40Z</time>
      </trkpt>
      <trkpt lat="43.40187" lon="6.0827">
        <ele>236.56452941894</ele>
        <time>2014-12-10T15:47:52Z</time>
      </trkpt>
      <trkpt lat="43.40187" lon="6.0827">
        <ele>236.59016418457</ele>
        <time>2014-12-10T15:48:04Z</time>
      </trkpt>
      <trkpt lat="43.40186" lon="6.08268">
        <ele>236.63558959961</ele>
        <time>2014-12-10T15:48:14Z</time>
      </trkpt>
      <trkpt lat="43.40186" lon="6.08265">
        <ele>236.65574645996</ele>
        <time>2014-12-10T15:48:16Z</time>
      </trkpt>
      <trkpt lat="43.40184" lon="6.08257">
        <ele>236.74189758301</ele>
        <time>2014-12-10T15:48:19Z</time>
      </trkpt>
      <trkpt lat="43.40186" lon="6.08231">
        <ele>236.3596496582</ele>
        <time>2014-12-10T15:48:24Z</time>
      </trkpt>
      <trkpt lat="43.40192" lon="6.08208">
        <ele>235.69760131836</ele>
        <time>2014-12-10T15:48:28Z</time>
      </trkpt>
      <trkpt lat="43.40195" lon="6.08197">
        <ele>235.28733825684</ele>
        <time>2014-12-10T15:48:30Z</time>
      </trkpt>
      <trkpt lat="43.40199" lon="6.08185">
        <ele>234.90454101562</ele>
        <time>2014-12-10T15:48:32Z</time>
      </trkpt>
      <trkpt lat="43.40201" lon="6.08169">
        <ele>234.5400390625</ele>
        <time>2014-12-10T15:48:35Z</time>
      </trkpt>
      <trkpt lat="43.40202" lon="6.08162">
        <ele>234.48706054688</ele>
        <time>2014-12-10T15:48:36Z</time>
      </trkpt>
      <trkpt lat="43.40202" lon="6.08137">
        <ele>234.43212890625</ele>
        <time>2014-12-10T15:48:40Z</time>
      </trkpt>
      <trkpt lat="43.402" lon="6.08128">
        <ele>234.56945800781</ele>
        <time>2014-12-10T15:48:42Z</time>
      </trkpt>
      <trkpt lat="43.40196" lon="6.08099">
        <ele>234.87158203125</ele>
        <time>2014-12-10T15:48:48Z</time>
      </trkpt>
      <trkpt lat="43.40197" lon="6.08093">
        <ele>234.81665039062</ele>
        <time>2014-12-10T15:48:49Z</time>
      </trkpt>
      <trkpt lat="43.40203" lon="6.08074">
        <ele>234.3410949707</ele>
        <time>2014-12-10T15:48:52Z</time>
      </trkpt>
      <trkpt lat="43.4021" lon="6.08062">
        <ele>233.76025390625</ele>
        <time>2014-12-10T15:48:54Z</time>
      </trkpt>
      <trkpt lat="43.40214" lon="6.08056">
        <ele>233.46792602539</ele>
        <time>2014-12-10T15:48:55Z</time>
      </trkpt>
      <trkpt lat="43.40222" lon="6.08046">
        <ele>232.88011169434</ele>
        <time>2014-12-10T15:48:57Z</time>
      </trkpt>
      <trkpt lat="43.40228" lon="6.08038">
        <ele>232.42245483398</ele>
        <time>2014-12-10T15:48:59Z</time>
      </trkpt>
      <trkpt lat="43.40233" lon="6.08032">
        <ele>232.08375549316</ele>
        <time>2014-12-10T15:49:01Z</time>
      </trkpt>
      <trkpt lat="43.40245" lon="6.08015">
        <ele>231.30758666992</ele>
        <time>2014-12-10T15:49:07Z</time>
      </trkpt>
      <trkpt lat="43.40248" lon="6.08013">
        <ele>231.14051818848</ele>
        <time>2014-12-10T15:49:08Z</time>
      </trkpt>
      <trkpt lat="43.40263" lon="6.07993">
        <ele>230.22088623047</ele>
        <time>2014-12-10T15:49:13Z</time>
      </trkpt>
      <trkpt lat="43.40276" lon="6.0797">
        <ele>229.41979980469</ele>
        <time>2014-12-10T15:49:17Z</time>
      </trkpt>
      <trkpt lat="43.40282" lon="6.07956">
        <ele>229.05358886719</ele>
        <time>2014-12-10T15:49:19Z</time>
      </trkpt>
      <trkpt lat="43.40296" lon="6.079">
        <ele>228.05307006836</ele>
        <time>2014-12-10T15:49:26Z</time>
      </trkpt>
      <trkpt lat="43.40304" lon="6.07837">
        <ele>226.79251098633</ele>
        <time>2014-12-10T15:49:33Z</time>
      </trkpt>
      <trkpt lat="43.40305" lon="6.07827">
        <ele>226.68029785156</ele>
        <time>2014-12-10T15:49:34Z</time>
      </trkpt>
      <trkpt lat="43.40311" lon="6.07783">
        <ele>226.35986328125</ele>
        <time>2014-12-10T15:49:39Z</time>
      </trkpt>
      <trkpt lat="43.40314" lon="6.07751">
        <ele>226.13098144531</ele>
        <time>2014-12-10T15:49:43Z</time>
      </trkpt>
      <trkpt lat="43.40316" lon="6.07745">
        <ele>226.18852233887</ele>
        <time>2014-12-10T15:49:44Z</time>
      </trkpt>
      <trkpt lat="43.40324" lon="6.07713">
        <ele>226.46775817871</ele>
        <time>2014-12-10T15:49:49Z</time>
      </trkpt>
      <trkpt lat="43.40326" lon="6.07707">
        <ele>226.44944763184</ele>
        <time>2014-12-10T15:49:50Z</time>
      </trkpt>
      <trkpt lat="43.40333" lon="6.07696">
        <ele>226.32127380371</ele>
        <time>2014-12-10T15:49:52Z</time>
      </trkpt>
      <trkpt lat="43.40341" lon="6.07686">
        <ele>226.10643005371</ele>
        <time>2014-12-10T15:49:54Z</time>
      </trkpt>
      <trkpt lat="43.4035" lon="6.07677">
        <ele>225.80181884766</ele>
        <time>2014-12-10T15:49:56Z</time>
      </trkpt>
      <trkpt lat="43.40363" lon="6.07663">
        <ele>225.2663269043</ele>
        <time>2014-12-10T15:49:59Z</time>
      </trkpt>
      <trkpt lat="43.40369" lon="6.0765">
        <ele>225.03344726562</ele>
        <time>2014-12-10T15:50:01Z</time>
      </trkpt>
      <trkpt lat="43.40374" lon="6.07628">
        <ele>225.04946899414</ele>
        <time>2014-12-10T15:50:04Z</time>
      </trkpt>
      <trkpt lat="43.40376" lon="6.07613">
        <ele>225.11640930176</ele>
        <time>2014-12-10T15:50:06Z</time>
      </trkpt>
      <trkpt lat="43.40377" lon="6.07564">
        <ele>225.37731933594</ele>
        <time>2014-12-10T15:50:13Z</time>
      </trkpt>
      <trkpt lat="43.4038" lon="6.07516">
        <ele>225.21710205078</ele>
        <time>2014-12-10T15:50:21Z</time>
      </trkpt>
      <trkpt lat="43.40385" lon="6.07485">
        <ele>224.71276855469</ele>
        <time>2014-12-10T15:50:27Z</time>
      </trkpt>
      <trkpt lat="43.40392" lon="6.07442">
        <ele>223.80981445312</ele>
        <time>2014-12-10T15:50:34Z</time>
      </trkpt>
      <trkpt lat="43.40394" lon="6.07393">
        <ele>223.34735107422</ele>
        <time>2014-12-10T15:50:42Z</time>
      </trkpt>
      <trkpt lat="43.4039" lon="6.07347">
        <ele>223.62200927734</ele>
        <time>2014-12-10T15:50:49Z</time>
      </trkpt>
      <trkpt lat="43.40386" lon="6.07325">
        <ele>223.81315612793</ele>
        <time>2014-12-10T15:50:53Z</time>
      </trkpt>
      <trkpt lat="43.40385" lon="6.07315">
        <ele>223.83538818359</ele>
        <time>2014-12-10T15:50:55Z</time>
      </trkpt>
      <trkpt lat="43.40388" lon="6.07292">
        <ele>223.54389953613</ele>
        <time>2014-12-10T15:51:00Z</time>
      </trkpt>
      <trkpt lat="43.40391" lon="6.07288">
        <ele>223.36561584473</ele>
        <time>2014-12-10T15:51:01Z</time>
      </trkpt>
      <trkpt lat="43.40395" lon="6.07285">
        <ele>223.17195129394</ele>
        <time>2014-12-10T15:51:02Z</time>
      </trkpt>
      <trkpt lat="43.40403" lon="6.07283">
        <ele>222.70158386231</ele>
        <time>2014-12-10T15:51:04Z</time>
      </trkpt>
      <trkpt lat="43.40414" lon="6.07284">
        <ele>222.15873718262</ele>
        <time>2014-12-10T15:51:06Z</time>
      </trkpt>
      <trkpt lat="43.40419" lon="6.07284">
        <ele>221.90203857422</ele>
        <time>2014-12-10T15:51:07Z</time>
      </trkpt>
      <trkpt lat="43.40431" lon="6.07284">
        <ele>221.49005126953</ele>
        <time>2014-12-10T15:51:09Z</time>
      </trkpt>
      <trkpt lat="43.40438" lon="6.07284">
        <ele>221.24285888672</ele>
        <time>2014-12-10T15:51:10Z</time>
      </trkpt>
      <trkpt lat="43.40464" lon="6.07283">
        <ele>220.28155517578</ele>
        <time>2014-12-10T15:51:14Z</time>
      </trkpt>
      <trkpt lat="43.40478" lon="6.07282">
        <ele>219.78717041016</ele>
        <time>2014-12-10T15:51:16Z</time>
      </trkpt>
      <trkpt lat="43.40491" lon="6.07281">
        <ele>219.32025146484</ele>
        <time>2014-12-10T15:51:18Z</time>
      </trkpt>
      <trkpt lat="43.40497" lon="6.07282">
        <ele>219.10052490234</ele>
        <time>2014-12-10T15:51:19Z</time>
      </trkpt>
      <trkpt lat="43.40507" lon="6.07286">
        <ele>218.82897949219</ele>
        <time>2014-12-10T15:51:21Z</time>
      </trkpt>
      <trkpt lat="43.40517" lon="6.073">
        <ele>218.60009765625</ele>
        <time>2014-12-10T15:51:24Z</time>
      </trkpt>
      <trkpt lat="43.40528" lon="6.07303">
        <ele>218.31628417969</ele>
        <time>2014-12-10T15:51:27Z</time>
      </trkpt>
      <trkpt lat="43.40538" lon="6.07302">
        <ele>218.08740234375</ele>
        <time>2014-12-10T15:51:29Z</time>
      </trkpt>
      <trkpt lat="43.40543" lon="6.07302">
        <ele>217.96838378906</ele>
        <time>2014-12-10T15:51:30Z</time>
      </trkpt>
      <trkpt lat="43.40551" lon="6.07304">
        <ele>217.78527832031</ele>
        <time>2014-12-10T15:51:32Z</time>
      </trkpt>
      <trkpt lat="43.40556" lon="6.07305">
        <ele>217.65710449219</ele>
        <time>2014-12-10T15:51:35Z</time>
      </trkpt>
      <trkpt lat="43.40557" lon="6.07306">
        <ele>217.62048339844</ele>
        <time>2014-12-10T15:51:36Z</time>
      </trkpt>
      <trkpt lat="43.4056" lon="6.07305">
        <ele>217.55639648438</ele>
        <time>2014-12-10T15:51:41Z</time>
      </trkpt>
      <trkpt lat="43.40561" lon="6.07305">
        <ele>217.54724121094</ele>
        <time>2014-12-10T15:51:51Z</time>
      </trkpt>
      <trkpt lat="43.40561" lon="6.07304">
        <ele>217.54724121094</ele>
        <time>2014-12-10T15:52:08Z</time>
      </trkpt>
      <trkpt lat="43.40561" lon="6.07304">
        <ele>217.54724121094</ele>
        <time>2014-12-10T15:52:30Z</time>
      </trkpt>
      <trkpt lat="43.40561" lon="6.07304">
        <ele>217.54724121094</ele>
        <time>2014-12-10T15:52:43Z</time>
      </trkpt>
      <trkpt lat="43.40561" lon="6.07304">
        <ele>217.54724121094</ele>
        <time>2014-12-10T15:52:45Z</time>
      </trkpt>
      <trkpt lat="43.40562" lon="6.07305">
        <ele>217.51062011719</ele>
        <time>2014-12-10T15:52:46Z</time>
      </trkpt>
      <trkpt lat="43.40568" lon="6.07306">
        <ele>217.36413574219</ele>
        <time>2014-12-10T15:52:49Z</time>
      </trkpt>
      <trkpt lat="43.40574" lon="6.07307">
        <ele>217.21765136719</ele>
        <time>2014-12-10T15:52:51Z</time>
      </trkpt>
      <trkpt lat="43.40594" lon="6.073">
        <ele>216.732421875</ele>
        <time>2014-12-10T15:52:57Z</time>
      </trkpt>
      <trkpt lat="43.40606" lon="6.07309">
        <ele>216.46691894531</ele>
        <time>2014-12-10T15:53:00Z</time>
      </trkpt>
      <trkpt lat="43.40617" lon="6.07323">
        <ele>216.20141601562</ele>
        <time>2014-12-10T15:53:03Z</time>
      </trkpt>
      <trkpt lat="43.40622" lon="6.07333">
        <ele>216.07247924805</ele>
        <time>2014-12-10T15:53:05Z</time>
      </trkpt>
      <trkpt lat="43.40632" lon="6.07341">
        <ele>215.77369689941</ele>
        <time>2014-12-10T15:53:08Z</time>
      </trkpt>
      <trkpt lat="43.40642" lon="6.0733">
        <ele>215.59716796875</ele>
        <time>2014-12-10T15:53:11Z</time>
      </trkpt>
      <trkpt lat="43.40646" lon="6.07325">
        <ele>215.50561523438</ele>
        <time>2014-12-10T15:53:12Z</time>
      </trkpt>
      <trkpt lat="43.4065" lon="6.07322">
        <ele>215.39575195312</ele>
        <time>2014-12-10T15:53:13Z</time>
      </trkpt>
      <trkpt lat="43.4066" lon="6.07316">
        <ele>215.15771484375</ele>
        <time>2014-12-10T15:53:15Z</time>
      </trkpt>
      <trkpt lat="43.40666" lon="6.07313">
        <ele>215.01123046875</ele>
        <time>2014-12-10T15:53:16Z</time>
      </trkpt>
      <trkpt lat="43.40695" lon="6.07296">
        <ele>214.12672424316</ele>
        <time>2014-12-10T15:53:21Z</time>
      </trkpt>
      <trkpt lat="43.40702" lon="6.07292">
        <ele>213.94572448731</ele>
        <time>2014-12-10T15:53:22Z</time>
      </trkpt>
      <trkpt lat="43.40732" lon="6.07274">
        <ele>213.19813537598</ele>
        <time>2014-12-10T15:53:27Z</time>
      </trkpt>
      <trkpt lat="43.40751" lon="6.07262">
        <ele>212.84687805176</ele>
        <time>2014-12-10T15:53:30Z</time>
      </trkpt>
      <trkpt lat="43.40763" lon="6.07255">
        <ele>212.6357421875</ele>
        <time>2014-12-10T15:53:32Z</time>
      </trkpt>
      <trkpt lat="43.40779" lon="6.07245">
        <ele>212.3274230957</ele>
        <time>2014-12-10T15:53:35Z</time>
      </trkpt>
      <trkpt lat="43.40804" lon="6.07223">
        <ele>211.83087158203</ele>
        <time>2014-12-10T15:53:40Z</time>
      </trkpt>
      <trkpt lat="43.40821" lon="6.07198">
        <ele>211.39781188965</ele>
        <time>2014-12-10T15:53:45Z</time>
      </trkpt>
      <trkpt lat="43.40841" lon="6.07153">
        <ele>210.79350280762</ele>
        <time>2014-12-10T15:53:52Z</time>
      </trkpt>
      <trkpt lat="43.40851" lon="6.07109">
        <ele>210.43507385254</ele>
        <time>2014-12-10T15:53:58Z</time>
      </trkpt>
      <trkpt lat="43.40853" lon="6.07067">
        <ele>210.28771972656</ele>
        <time>2014-12-10T15:54:04Z</time>
      </trkpt>
      <trkpt lat="43.40849" lon="6.07032">
        <ele>210.45251464844</ele>
        <time>2014-12-10T15:54:10Z</time>
      </trkpt>
      <trkpt lat="43.40849" lon="6.07016">
        <ele>210.45251464844</ele>
        <time>2014-12-10T15:54:13Z</time>
      </trkpt>
      <trkpt lat="43.40851" lon="6.07013">
        <ele>210.35638427734</ele>
        <time>2014-12-10T15:54:14Z</time>
      </trkpt>
      <trkpt lat="43.40868" lon="6.07008">
        <ele>209.76586914062</ele>
        <time>2014-12-10T15:54:18Z</time>
      </trkpt>
      <trkpt lat="43.40894" lon="6.07">
        <ele>208.81829833984</ele>
        <time>2014-12-10T15:54:24Z</time>
      </trkpt>
      <trkpt lat="43.40898" lon="6.06999">
        <ele>208.66723632812</ele>
        <time>2014-12-10T15:54:25Z</time>
      </trkpt>
      <trkpt lat="43.40909" lon="6.06986">
        <ele>208.26898193359</ele>
        <time>2014-12-10T15:54:29Z</time>
      </trkpt>
      <trkpt lat="43.40911" lon="6.0698">
        <ele>208.21405029297</ele>
        <time>2014-12-10T15:54:30Z</time>
      </trkpt>
      <trkpt lat="43.40914" lon="6.06964">
        <ele>208.10418701172</ele>
        <time>2014-12-10T15:54:33Z</time>
      </trkpt>
      <trkpt lat="43.40916" lon="6.06958">
        <ele>208.02178955078</ele>
        <time>2014-12-10T15:54:34Z</time>
      </trkpt>
      <trkpt lat="43.40928" lon="6.06953">
        <ele>207.86077880859</ele>
        <time>2014-12-10T15:54:37Z</time>
      </trkpt>
      <trkpt lat="43.40933" lon="6.06951">
        <ele>207.80126953125</ele>
        <time>2014-12-10T15:54:38Z</time>
      </trkpt>
      <trkpt lat="43.40938" lon="6.06951">
        <ele>207.74633789062</ele>
        <time>2014-12-10T15:54:39Z</time>
      </trkpt>
      <trkpt lat="43.40953" lon="6.06948">
        <ele>207.56781005859</ele>
        <time>2014-12-10T15:54:42Z</time>
      </trkpt>
      <trkpt lat="43.40957" lon="6.06947">
        <ele>207.51745605469</ele>
        <time>2014-12-10T15:54:43Z</time>
      </trkpt>
      <trkpt lat="43.40971" lon="6.06942">
        <ele>207.35266113281</ele>
        <time>2014-12-10T15:54:46Z</time>
      </trkpt>
      <trkpt lat="43.40998" lon="6.0693">
        <ele>207.01849365234</ele>
        <time>2014-12-10T15:54:52Z</time>
      </trkpt>
      <trkpt lat="43.41018" lon="6.06918">
        <ele>207.21038818359</ele>
        <time>2014-12-10T15:54:57Z</time>
      </trkpt>
      <trkpt lat="43.4102" lon="6.06914">
        <ele>207.25158691406</ele>
        <time>2014-12-10T15:54:58Z</time>
      </trkpt>
      <trkpt lat="43.41022" lon="6.06901">
        <ele>207.31977844238</ele>
        <time>2014-12-10T15:55:01Z</time>
      </trkpt>
      <trkpt lat="43.41024" lon="6.06897">
        <ele>207.34936523438</ele>
        <time>2014-12-10T15:55:02Z</time>
      </trkpt>
      <trkpt lat="43.41033" lon="6.06886">
        <ele>207.54431152344</ele>
        <time>2014-12-10T15:55:06Z</time>
      </trkpt>
      <trkpt lat="43.41048" lon="6.06879">
        <ele>207.84091186523</ele>
        <time>2014-12-10T15:55:11Z</time>
      </trkpt>
      <trkpt lat="43.41054" lon="6.06877">
        <ele>207.94877624512</ele>
        <time>2014-12-10T15:55:13Z</time>
      </trkpt>
      <trkpt lat="43.41064" lon="6.06874">
        <ele>208.17131042481</ele>
        <time>2014-12-10T15:55:17Z</time>
      </trkpt>
      <trkpt lat="43.41068" lon="6.06872">
        <ele>208.24716186523</ele>
        <time>2014-12-10T15:55:19Z</time>
      </trkpt>
      <trkpt lat="43.41068" lon="6.06866">
        <ele>208.31422424316</ele>
        <time>2014-12-10T15:55:21Z</time>
      </trkpt>
      <trkpt lat="43.41071" lon="6.0685">
        <ele>208.52011108398</ele>
        <time>2014-12-10T15:55:24Z</time>
      </trkpt>
      <trkpt lat="43.41071" lon="6.06845">
        <ele>208.58894348144</ele>
        <time>2014-12-10T15:55:25Z</time>
      </trkpt>
      <trkpt lat="43.41073" lon="6.06836">
        <ele>208.7184753418</ele>
        <time>2014-12-10T15:55:27Z</time>
      </trkpt>
      <trkpt lat="43.41074" lon="6.06824">
        <ele>208.88825988769</ele>
        <time>2014-12-10T15:55:30Z</time>
      </trkpt>
      <trkpt lat="43.41075" lon="6.0682">
        <ele>208.93490600586</ele>
        <time>2014-12-10T15:55:31Z</time>
      </trkpt>
      <trkpt lat="43.41079" lon="6.06808">
        <ele>209.18392944336</ele>
        <time>2014-12-10T15:55:36Z</time>
      </trkpt>
      <trkpt lat="43.4108" lon="6.06807">
        <ele>209.21542358398</ele>
        <time>2014-12-10T15:55:37Z</time>
      </trkpt>
      <trkpt lat="43.41084" lon="6.06796">
        <ele>209.48725891113</ele>
        <time>2014-12-10T15:55:42Z</time>
      </trkpt>
      <trkpt lat="43.41086" lon="6.06789">
        <ele>209.63832092285</ele>
        <time>2014-12-10T15:55:44Z</time>
      </trkpt>
      <trkpt lat="43.41087" lon="6.06774">
        <ele>209.84088134766</ele>
        <time>2014-12-10T15:55:48Z</time>
      </trkpt>
      <trkpt lat="43.41088" lon="6.06767">
        <ele>209.97248840332</ele>
        <time>2014-12-10T15:55:50Z</time>
      </trkpt>
      <trkpt lat="43.41093" lon="6.06759">
        <ele>210.22883605957</ele>
        <time>2014-12-10T15:55:52Z</time>
      </trkpt>
      <trkpt lat="43.41099" lon="6.06752">
        <ele>210.54354858398</ele>
        <time>2014-12-10T15:55:54Z</time>
      </trkpt>
      <trkpt lat="43.41116" lon="6.06736">
        <ele>211.33776855469</ele>
        <time>2014-12-10T15:55:59Z</time>
      </trkpt>
      <trkpt lat="43.41129" lon="6.0673">
        <ele>211.86305236816</ele>
        <time>2014-12-10T15:56:02Z</time>
      </trkpt>
      <trkpt lat="43.41142" lon="6.06724">
        <ele>212.40148925781</ele>
        <time>2014-12-10T15:56:05Z</time>
      </trkpt>
      <trkpt lat="43.41163" lon="6.0672">
        <ele>213.21859741211</ele>
        <time>2014-12-10T15:56:10Z</time>
      </trkpt>
      <trkpt lat="43.41167" lon="6.06721">
        <ele>213.35250854492</ele>
        <time>2014-12-10T15:56:11Z</time>
      </trkpt>
      <trkpt lat="43.41174" lon="6.06722">
        <ele>213.59970092773</ele>
        <time>2014-12-10T15:56:13Z</time>
      </trkpt>
      <trkpt lat="43.41177" lon="6.06722">
        <ele>213.70440673828</ele>
        <time>2014-12-10T15:56:14Z</time>
      </trkpt>
      <trkpt lat="43.41203" lon="6.06724">
        <ele>214.60391235352</ele>
        <time>2014-12-10T15:56:21Z</time>
      </trkpt>
      <trkpt lat="43.41206" lon="6.06724">
        <ele>214.73094177246</ele>
        <time>2014-12-10T15:56:22Z</time>
      </trkpt>
      <trkpt lat="43.41223" lon="6.06722">
        <ele>215.37008666992</ele>
        <time>2014-12-10T15:56:27Z</time>
      </trkpt>
      <trkpt lat="43.4124" lon="6.06719">
        <ele>216.01211547852</ele>
        <time>2014-12-10T15:56:32Z</time>
      </trkpt>
      <trkpt lat="43.41241" lon="6.06719">
        <ele>216.06761169434</ele>
        <time>2014-12-10T15:56:33Z</time>
      </trkpt>
      <trkpt lat="43.41247" lon="6.0672">
        <ele>216.25015258789</ele>
        <time>2014-12-10T15:56:37Z</time>
      </trkpt>
      <trkpt lat="43.41251" lon="6.06722">
        <ele>216.36068725586</ele>
        <time>2014-12-10T15:56:42Z</time>
      </trkpt>
      <trkpt lat="43.41252" lon="6.06722">
        <ele>216.37557983398</ele>
        <time>2014-12-10T15:56:46Z</time>
      </trkpt>
      <trkpt lat="43.41254" lon="6.06723">
        <ele>216.41677856445</ele>
        <time>2014-12-10T15:56:54Z</time>
      </trkpt>
      <trkpt lat="43.41261" lon="6.0673">
        <ele>216.50546264648</ele>
        <time>2014-12-10T15:56:58Z</time>
      </trkpt>
      <trkpt lat="43.41265" lon="6.06739">
        <ele>216.49801635742</ele>
        <time>2014-12-10T15:57:01Z</time>
      </trkpt>
      <trkpt lat="43.41269" lon="6.06746">
        <ele>216.48829650879</ele>
        <time>2014-12-10T15:57:03Z</time>
      </trkpt>
      <trkpt lat="43.41282" lon="6.06773">
        <ele>216.50146484375</ele>
        <time>2014-12-10T15:57:10Z</time>
      </trkpt>
      <trkpt lat="43.41288" lon="6.0678">
        <ele>216.54379272461</ele>
        <time>2014-12-10T15:57:12Z</time>
      </trkpt>
      <trkpt lat="43.41311" lon="6.06804">
        <ele>216.8087310791</ele>
        <time>2014-12-10T15:57:20Z</time>
      </trkpt>
      <trkpt lat="43.41314" lon="6.06806">
        <ele>216.85908508301</ele>
        <time>2014-12-10T15:57:21Z</time>
      </trkpt>
      <trkpt lat="43.41338" lon="6.0682">
        <ele>217.26649475098</ele>
        <time>2014-12-10T15:57:29Z</time>
      </trkpt>
      <trkpt lat="43.41345" lon="6.06824">
        <ele>217.39181518555</ele>
        <time>2014-12-10T15:57:31Z</time>
      </trkpt>
      <trkpt lat="43.41368" lon="6.06834">
        <ele>217.81774902344</ele>
        <time>2014-12-10T15:57:38Z</time>
      </trkpt>
      <trkpt lat="43.41389" lon="6.06846">
        <ele>218.02717590332</ele>
        <time>2014-12-10T15:57:45Z</time>
      </trkpt>
      <trkpt lat="43.41392" lon="6.06849">
        <ele>218.03175354004</ele>
        <time>2014-12-10T15:57:46Z</time>
      </trkpt>
      <trkpt lat="43.41404" lon="6.06861">
        <ele>218.03060913086</ele>
        <time>2014-12-10T15:57:50Z</time>
      </trkpt>
      <trkpt lat="43.41412" lon="6.06873">
        <ele>217.94248962402</ele>
        <time>2014-12-10T15:57:54Z</time>
      </trkpt>
      <trkpt lat="43.41414" lon="6.06878">
        <ele>217.86581420898</ele>
        <time>2014-12-10T15:57:59Z</time>
      </trkpt>
      <trkpt lat="43.41414" lon="6.06878">
        <ele>217.86466979981</ele>
        <time>2014-12-10T15:58:05Z</time>
      </trkpt>
      <trkpt lat="43.41415" lon="6.06879">
        <ele>217.84750366211</ele>
        <time>2014-12-10T15:58:07Z</time>
      </trkpt>
      <trkpt lat="43.41415" lon="6.06882">
        <ele>217.8028717041</ele>
        <time>2014-12-10T15:58:08Z</time>
      </trkpt>
      <trkpt lat="43.4142" lon="6.06902">
        <ele>217.38456726074</ele>
        <time>2014-12-10T15:58:13Z</time>
      </trkpt>
      <trkpt lat="43.41432" lon="6.0692">
        <ele>217.14337158203</ele>
        <time>2014-12-10T15:58:17Z</time>
      </trkpt>
      <trkpt lat="43.41448" lon="6.06924">
        <ele>217.28240966797</ele>
        <time>2014-12-10T15:58:21Z</time>
      </trkpt>
      <trkpt lat="43.41459" lon="6.06927">
        <ele>217.38713073731</ele>
        <time>2014-12-10T15:58:24Z</time>
      </trkpt>
      <trkpt lat="43.41476" lon="6.06944">
        <ele>217.38598632812</ele>
        <time>2014-12-10T15:58:29Z</time>
      </trkpt>
      <trkpt lat="43.41483" lon="6.06947">
        <ele>217.43118286133</ele>
        <time>2014-12-10T15:58:31Z</time>
      </trkpt>
      <trkpt lat="43.41492" lon="6.06961">
        <ele>217.36938476562</ele>
        <time>2014-12-10T15:58:35Z</time>
      </trkpt>
      <trkpt lat="43.41494" lon="6.06966">
        <ele>217.32934570312</ele>
        <time>2014-12-10T15:58:36Z</time>
      </trkpt>
      <trkpt lat="43.41493" lon="6.06978">
        <ele>217.18170166016</ele>
        <time>2014-12-10T15:58:38Z</time>
      </trkpt>
      <trkpt lat="43.41492" lon="6.06985">
        <ele>217.09187316894</ele>
        <time>2014-12-10T15:58:39Z</time>
      </trkpt>
      <trkpt lat="43.4149" lon="6.07001">
        <ele>216.87417602539</ele>
        <time>2014-12-10T15:58:41Z</time>
      </trkpt>
      <trkpt lat="43.41485" lon="6.07017">
        <ele>216.57708740234</ele>
        <time>2014-12-10T15:58:43Z</time>
      </trkpt>
      <trkpt lat="43.41473" lon="6.07048">
        <ele>215.91751098633</ele>
        <time>2014-12-10T15:58:47Z</time>
      </trkpt>
      <trkpt lat="43.41468" lon="6.0706">
        <ele>215.6212310791</ele>
        <time>2014-12-10T15:58:49Z</time>
      </trkpt>
      <trkpt lat="43.41467" lon="6.07066">
        <ele>215.49794006348</ele>
        <time>2014-12-10T15:58:50Z</time>
      </trkpt>
      <trkpt lat="43.4147" lon="6.07076">
        <ele>215.39514160156</ele>
        <time>2014-12-10T15:58:52Z</time>
      </trkpt>
      <trkpt lat="43.41478" lon="6.07078">
        <ele>215.55406188965</ele>
        <time>2014-12-10T15:58:55Z</time>
      </trkpt>
      <trkpt lat="43.4149" lon="6.07081">
        <ele>215.79951477051</ele>
        <time>2014-12-10T15:58:59Z</time>
      </trkpt>
      <trkpt lat="43.41496" lon="6.07084">
        <ele>215.90148925781</ele>
        <time>2014-12-10T15:59:01Z</time>
      </trkpt>
      <trkpt lat="43.41514" lon="6.07084">
        <ele>216.33178710938</ele>
        <time>2014-12-10T15:59:06Z</time>
      </trkpt>
      <trkpt lat="43.41533" lon="6.07081">
        <ele>216.80458068848</ele>
        <time>2014-12-10T15:59:11Z</time>
      </trkpt>
      <trkpt lat="43.41536" lon="6.07081">
        <ele>216.88870239258</ele>
        <time>2014-12-10T15:59:12Z</time>
      </trkpt>
      <trkpt lat="43.41544" lon="6.0709">
        <ele>217.0458984375</ele>
        <time>2014-12-10T15:59:16Z</time>
      </trkpt>
      <trkpt lat="43.41544" lon="6.07094">
        <ele>217.06420898438</ele>
        <time>2014-12-10T15:59:17Z</time>
      </trkpt>
      <trkpt lat="43.41547" lon="6.07115">
        <ele>217.13745117188</ele>
        <time>2014-12-10T15:59:22Z</time>
      </trkpt>
      <trkpt lat="43.41553" lon="6.07122">
        <ele>217.27478027344</ele>
        <time>2014-12-10T15:59:25Z</time>
      </trkpt>
      <trkpt lat="43.41556" lon="6.07122">
        <ele>217.3388671875</ele>
        <time>2014-12-10T15:59:26Z</time>
      </trkpt>
      <trkpt lat="43.41565" lon="6.07119">
        <ele>217.55859375</ele>
        <time>2014-12-10T15:59:29Z</time>
      </trkpt>
      <trkpt lat="43.41574" lon="6.07113">
        <ele>217.78747558594</ele>
        <time>2014-12-10T15:59:32Z</time>
      </trkpt>
      <trkpt lat="43.41584" lon="6.07103">
        <ele>218.00720214844</ele>
        <time>2014-12-10T15:59:36Z</time>
      </trkpt>
      <trkpt lat="43.41586" lon="6.07095">
        <ele>218.06213378906</ele>
        <time>2014-12-10T15:59:38Z</time>
      </trkpt>
      <trkpt lat="43.41584" lon="6.07068">
        <ele>218.19674682617</ele>
        <time>2014-12-10T15:59:44Z</time>
      </trkpt>
      <trkpt lat="43.41582" lon="6.07047">
        <ele>218.41133117676</ele>
        <time>2014-12-10T15:59:49Z</time>
      </trkpt>
      <trkpt lat="43.41582" lon="6.07043">
        <ele>218.45481872559</ele>
        <time>2014-12-10T15:59:51Z</time>
      </trkpt>
      <trkpt lat="43.41582" lon="6.07042">
        <ele>218.47541809082</ele>
        <time>2014-12-10T15:59:56Z</time>
      </trkpt>
      <trkpt lat="43.41582" lon="6.07042">
        <ele>218.47369384766</ele>
        <time>2014-12-10T16:00:03Z</time>
      </trkpt>
    </trkseg>
  </trk>
</gpx>